<?xml version="1.0" encoding="UTF-8"?>
<gpx creator="Garmin Connect" version="1.1"
  xsi:schemaLocation="http://www.topografix.com/GPX/1/1 http://www.topografix.com/GPX/11.xsd"
  xmlns:ns3="http://www.garmin.com/xmlschemas/TrackPointExtension/v1"
  xmlns="http://www.topografix.com/GPX/1/1"
  xmlns:xsi="http://www.w3.org/2001/XMLSchema-instance" xmlns:ns2="http://www.garmin.com/xmlschemas/GpxExtensions/v3">
  <metadata>
    <link href="connect.garmin.com">
      <text>Garmin Connect</text>
    </link>
    <time>2026-05-08T14:32:10.000Z</time>
  </metadata>
  <trk>
    <name>Trébeurden Gehen</name>
    <type>walking</type>
    <trkseg>
      <trkpt lat="48.7609943188726902008056640625" lon="-3.5629866085946559906005859375">
        <ele>35.200000762939453125</ele>
        <time>2026-05-08T14:32:11.000Z</time>
        <extensions>
          <ns3:TrackPointExtension>
            <ns3:hr>102</ns3:hr>
          </ns3:TrackPointExtension>
        </extensions>
      </trkpt>
      <trkpt lat="48.76094796694815158843994140625" lon="-3.56301091611385345458984375">
        <ele>34.799999237060546875</ele>
        <time>2026-05-08T14:32:16.000Z</time>
        <extensions>
          <ns3:TrackPointExtension>
            <ns3:hr>99</ns3:hr>
          </ns3:TrackPointExtension>
        </extensions>
      </trkpt>
      <trkpt lat="48.76095886342227458953857421875" lon="-3.5630610398948192596435546875">
        <ele>34.59999847412109375</ele>
        <time>2026-05-08T14:32:19.000Z</time>
        <extensions>
          <ns3:TrackPointExtension>
            <ns3:atemp>25.0</ns3:atemp>
            <ns3:hr>101</ns3:hr>
          </ns3:TrackPointExtension>
        </extensions>
      </trkpt>
      <trkpt lat="48.7609621323645114898681640625" lon="-3.5630922205746173858642578125">
        <ele>34.40000152587890625</ele>
        <time>2026-05-08T14:32:21.000Z</time>
        <extensions>
          <ns3:TrackPointExtension>
            <ns3:atemp>25.0</ns3:atemp>
            <ns3:hr>103</ns3:hr>
          </ns3:TrackPointExtension>
        </extensions>
      </trkpt>
      <trkpt lat="48.76096330583095550537109375" lon="-3.56310839764773845672607421875">
        <ele>34.200000762939453125</ele>
        <time>2026-05-08T14:32:22.000Z</time>
        <extensions>
          <ns3:TrackPointExtension>
            <ns3:atemp>25.0</ns3:atemp>
            <ns3:hr>103</ns3:hr>
          </ns3:TrackPointExtension>
        </extensions>
      </trkpt>
      <trkpt lat="48.76097202301025390625" lon="-3.56321719475090503692626953125">
        <ele>33.799999237060546875</ele>
        <time>2026-05-08T14:32:28.000Z</time>
        <extensions>
          <ns3:TrackPointExtension>
            <ns3:atemp>25.0</ns3:atemp>
            <ns3:hr>102</ns3:hr>
          </ns3:TrackPointExtension>
        </extensions>
      </trkpt>
      <trkpt lat="48.7609728612005710601806640625" lon="-3.56331828050315380096435546875">
        <ele>33.200000762939453125</ele>
        <time>2026-05-08T14:32:35.000Z</time>
        <extensions>
          <ns3:TrackPointExtension>
            <ns3:atemp>25.0</ns3:atemp>
            <ns3:hr>100</ns3:hr>
          </ns3:TrackPointExtension>
        </extensions>
      </trkpt>
      <trkpt lat="48.76097126863896846771240234375" lon="-3.56333655305206775665283203125">
        <ele>33.200000762939453125</ele>
        <time>2026-05-08T14:32:36.000Z</time>
        <extensions>
          <ns3:TrackPointExtension>
            <ns3:atemp>25.0</ns3:atemp>
            <ns3:hr>100</ns3:hr>
          </ns3:TrackPointExtension>
        </extensions>
      </trkpt>
      <trkpt lat="48.76095836050808429718017578125" lon="-3.5634231381118297576904296875">
        <ele>32.799999237060546875</ele>
        <time>2026-05-08T14:32:42.000Z</time>
        <extensions>
          <ns3:TrackPointExtension>
            <ns3:atemp>25.0</ns3:atemp>
            <ns3:hr>97</ns3:hr>
          </ns3:TrackPointExtension>
        </extensions>
      </trkpt>
      <trkpt lat="48.76096053980290889739990234375" lon="-3.56345993466675281524658203125">
        <ele>32.799999237060546875</ele>
        <time>2026-05-08T14:32:44.000Z</time>
        <extensions>
          <ns3:TrackPointExtension>
            <ns3:atemp>25.0</ns3:atemp>
            <ns3:hr>98</ns3:hr>
          </ns3:TrackPointExtension>
        </extensions>
      </trkpt>
      <trkpt lat="48.7609668262302875518798828125" lon="-3.56354358606040477752685546875">
        <ele>32.200000762939453125</ele>
        <time>2026-05-08T14:32:49.000Z</time>
        <extensions>
          <ns3:TrackPointExtension>
            <ns3:atemp>25.0</ns3:atemp>
            <ns3:hr>99</ns3:hr>
          </ns3:TrackPointExtension>
        </extensions>
      </trkpt>
      <trkpt lat="48.76096858642995357513427734375" lon="-3.56356286443769931793212890625">
        <ele>32</ele>
        <time>2026-05-08T14:32:50.000Z</time>
        <extensions>
          <ns3:TrackPointExtension>
            <ns3:atemp>25.0</ns3:atemp>
            <ns3:hr>99</ns3:hr>
          </ns3:TrackPointExtension>
        </extensions>
      </trkpt>
      <trkpt lat="48.7609760463237762451171875" lon="-3.56367534957826137542724609375">
        <ele>31.799999237060546875</ele>
        <time>2026-05-08T14:32:56.000Z</time>
        <extensions>
          <ns3:TrackPointExtension>
            <ns3:atemp>25.0</ns3:atemp>
            <ns3:hr>99</ns3:hr>
          </ns3:TrackPointExtension>
        </extensions>
      </trkpt>
      <trkpt lat="48.7609876133501529693603515625" lon="-3.56376017443835735321044921875">
        <ele>31.3999996185302734375</ele>
        <time>2026-05-08T14:33:01.000Z</time>
        <extensions>
          <ns3:TrackPointExtension>
            <ns3:atemp>25.0</ns3:atemp>
            <ns3:hr>98</ns3:hr>
          </ns3:TrackPointExtension>
        </extensions>
      </trkpt>
      <trkpt lat="48.760998509824275970458984375" lon="-3.563867546617984771728515625">
        <ele>31.200000762939453125</ele>
        <time>2026-05-08T14:33:07.000Z</time>
        <extensions>
          <ns3:TrackPointExtension>
            <ns3:atemp>25.0</ns3:atemp>
            <ns3:hr>97</ns3:hr>
          </ns3:TrackPointExtension>
        </extensions>
      </trkpt>
      <trkpt lat="48.76100110821425914764404296875" lon="-3.56388531625270843505859375">
        <ele>31</ele>
        <time>2026-05-08T14:33:08.000Z</time>
        <extensions>
          <ns3:TrackPointExtension>
            <ns3:atemp>25.0</ns3:atemp>
            <ns3:hr>97</ns3:hr>
          </ns3:TrackPointExtension>
        </extensions>
      </trkpt>
      <trkpt lat="48.76101854257285594940185546875" lon="-3.56400978751480579376220703125">
        <ele>30.799999237060546875</ele>
        <time>2026-05-08T14:33:15.000Z</time>
        <extensions>
          <ns3:TrackPointExtension>
            <ns3:atemp>25.0</ns3:atemp>
            <ns3:hr>96</ns3:hr>
          </ns3:TrackPointExtension>
        </extensions>
      </trkpt>
      <trkpt lat="48.76104603521525859832763671875" lon="-3.5641570575535297393798828125">
        <ele>30.200000762939453125</ele>
        <time>2026-05-08T14:33:23.000Z</time>
        <extensions>
          <ns3:TrackPointExtension>
            <ns3:atemp>24.0</ns3:atemp>
            <ns3:hr>95</ns3:hr>
          </ns3:TrackPointExtension>
        </extensions>
      </trkpt>
      <trkpt lat="48.76105492003262042999267578125" lon="-3.56419351883232593536376953125">
        <ele>30</ele>
        <time>2026-05-08T14:33:25.000Z</time>
        <extensions>
          <ns3:TrackPointExtension>
            <ns3:atemp>24.0</ns3:atemp>
            <ns3:hr>95</ns3:hr>
          </ns3:TrackPointExtension>
        </extensions>
      </trkpt>
      <trkpt lat="48.7610747851431369781494140625" lon="-3.56429167091846466064453125">
        <ele>29.200000762939453125</ele>
        <time>2026-05-08T14:33:30.000Z</time>
        <extensions>
          <ns3:TrackPointExtension>
            <ns3:atemp>24.0</ns3:atemp>
            <ns3:hr>95</ns3:hr>
          </ns3:TrackPointExtension>
        </extensions>
      </trkpt>
      <trkpt lat="48.76108928583562374114990234375" lon="-3.56437758542597293853759765625">
        <ele>29</ele>
        <time>2026-05-08T14:33:34.000Z</time>
        <extensions>
          <ns3:TrackPointExtension>
            <ns3:atemp>24.0</ns3:atemp>
            <ns3:hr>95</ns3:hr>
          </ns3:TrackPointExtension>
        </extensions>
      </trkpt>
      <trkpt lat="48.7610955722630023956298828125" lon="-3.56445805169641971588134765625">
        <ele>28</ele>
        <time>2026-05-08T14:33:39.000Z</time>
        <extensions>
          <ns3:TrackPointExtension>
            <ns3:atemp>24.0</ns3:atemp>
            <ns3:hr>95</ns3:hr>
          </ns3:TrackPointExtension>
        </extensions>
      </trkpt>
      <trkpt lat="48.7611029483377933502197265625" lon="-3.56448051519691944122314453125">
        <ele>27.799999237060546875</ele>
        <time>2026-05-08T14:33:41.000Z</time>
        <extensions>
          <ns3:TrackPointExtension>
            <ns3:atemp>24.0</ns3:atemp>
            <ns3:hr>95</ns3:hr>
          </ns3:TrackPointExtension>
        </extensions>
      </trkpt>
      <trkpt lat="48.76112583093345165252685546875" lon="-3.564560227096080780029296875">
        <ele>27.200000762939453125</ele>
        <time>2026-05-08T14:33:46.000Z</time>
        <extensions>
          <ns3:TrackPointExtension>
            <ns3:atemp>24.0</ns3:atemp>
            <ns3:hr>96</ns3:hr>
          </ns3:TrackPointExtension>
        </extensions>
      </trkpt>
      <trkpt lat="48.76113706268370151519775390625" lon="-3.56462568975985050201416015625">
        <ele>26.6000003814697265625</ele>
        <time>2026-05-08T14:33:50.000Z</time>
        <extensions>
          <ns3:TrackPointExtension>
            <ns3:atemp>24.0</ns3:atemp>
            <ns3:hr>95</ns3:hr>
          </ns3:TrackPointExtension>
        </extensions>
      </trkpt>
      <trkpt lat="48.76115701161324977874755859375" lon="-3.5646975226700305938720703125">
        <ele>26</ele>
        <time>2026-05-08T14:33:54.000Z</time>
        <extensions>
          <ns3:TrackPointExtension>
            <ns3:atemp>24.0</ns3:atemp>
            <ns3:hr>94</ns3:hr>
          </ns3:TrackPointExtension>
        </extensions>
      </trkpt>
      <trkpt lat="48.76117788255214691162109375" lon="-3.56478561647236347198486328125">
        <ele>25.6000003814697265625</ele>
        <time>2026-05-08T14:33:59.000Z</time>
        <extensions>
          <ns3:TrackPointExtension>
            <ns3:atemp>24.0</ns3:atemp>
            <ns3:hr>94</ns3:hr>
          </ns3:TrackPointExtension>
        </extensions>
      </trkpt>
      <trkpt lat="48.7611857615411281585693359375" lon="-3.564814366400241851806640625">
        <ele>25.3999996185302734375</ele>
        <time>2026-05-08T14:34:01.000Z</time>
        <extensions>
          <ns3:TrackPointExtension>
            <ns3:atemp>24.0</ns3:atemp>
            <ns3:hr>93</ns3:hr>
          </ns3:TrackPointExtension>
        </extensions>
      </trkpt>
      <trkpt lat="48.76119640655815601348876953125" lon="-3.5649174638092517852783203125">
        <ele>24.3999996185302734375</ele>
        <time>2026-05-08T14:34:06.000Z</time>
        <extensions>
          <ns3:TrackPointExtension>
            <ns3:atemp>24.0</ns3:atemp>
            <ns3:hr>93</ns3:hr>
          </ns3:TrackPointExtension>
        </extensions>
      </trkpt>
      <trkpt lat="48.76119799911975860595703125" lon="-3.5650555975735187530517578125">
        <ele>23.6000003814697265625</ele>
        <time>2026-05-08T14:34:13.000Z</time>
        <extensions>
          <ns3:TrackPointExtension>
            <ns3:atemp>24.0</ns3:atemp>
            <ns3:hr>93</ns3:hr>
          </ns3:TrackPointExtension>
        </extensions>
      </trkpt>
      <trkpt lat="48.7611981667578220367431640625" lon="-3.56509373523294925689697265625">
        <ele>23.3999996185302734375</ele>
        <time>2026-05-08T14:34:15.000Z</time>
        <extensions>
          <ns3:TrackPointExtension>
            <ns3:atemp>24.0</ns3:atemp>
            <ns3:hr>92</ns3:hr>
          </ns3:TrackPointExtension>
        </extensions>
      </trkpt>
      <trkpt lat="48.76120780594646930694580078125" lon="-3.5651655681431293487548828125">
        <ele>22.799999237060546875</ele>
        <time>2026-05-08T14:34:19.000Z</time>
        <extensions>
          <ns3:TrackPointExtension>
            <ns3:atemp>24.0</ns3:atemp>
            <ns3:hr>92</ns3:hr>
          </ns3:TrackPointExtension>
        </extensions>
      </trkpt>
      <trkpt lat="48.76120872795581817626953125" lon="-3.5652024485170841217041015625">
        <ele>22.6000003814697265625</ele>
        <time>2026-05-08T14:34:21.000Z</time>
        <extensions>
          <ns3:TrackPointExtension>
            <ns3:atemp>24.0</ns3:atemp>
            <ns3:hr>92</ns3:hr>
          </ns3:TrackPointExtension>
        </extensions>
      </trkpt>
      <trkpt lat="48.76120562665164470672607421875" lon="-3.56524595059454441070556640625">
        <ele>22.3999996185302734375</ele>
        <time>2026-05-08T14:34:23.000Z</time>
        <extensions>
          <ns3:TrackPointExtension>
            <ns3:atemp>24.0</ns3:atemp>
            <ns3:hr>92</ns3:hr>
          </ns3:TrackPointExtension>
        </extensions>
      </trkpt>
      <trkpt lat="48.761161454021930694580078125" lon="-3.56527528725564479827880859375">
        <ele>21.6000003814697265625</ele>
        <time>2026-05-08T14:34:28.000Z</time>
        <extensions>
          <ns3:TrackPointExtension>
            <ns3:atemp>24.0</ns3:atemp>
            <ns3:hr>92</ns3:hr>
          </ns3:TrackPointExtension>
        </extensions>
      </trkpt>
      <trkpt lat="48.76115919090807437896728515625" lon="-3.56528006494045257568359375">
        <ele>21.3999996185302734375</ele>
        <time>2026-05-08T14:34:31.000Z</time>
        <extensions>
          <ns3:TrackPointExtension>
            <ns3:atemp>24.0</ns3:atemp>
            <ns3:hr>91</ns3:hr>
          </ns3:TrackPointExtension>
        </extensions>
      </trkpt>
      <trkpt lat="48.76115734688937664031982421875" lon="-3.56527897529304027557373046875">
        <ele>21.3999996185302734375</ele>
        <time>2026-05-08T14:34:34.000Z</time>
        <extensions>
          <ns3:TrackPointExtension>
            <ns3:atemp>24.0</ns3:atemp>
            <ns3:hr>90</ns3:hr>
          </ns3:TrackPointExtension>
        </extensions>
      </trkpt>
      <trkpt lat="48.76115734688937664031982421875" lon="-3.56527897529304027557373046875">
        <ele>21.3999996185302734375</ele>
        <time>2026-05-08T14:34:39.000Z</time>
        <extensions>
          <ns3:TrackPointExtension>
            <ns3:atemp>24.0</ns3:atemp>
            <ns3:hr>93</ns3:hr>
          </ns3:TrackPointExtension>
        </extensions>
      </trkpt>
      <trkpt lat="48.76115734688937664031982421875" lon="-3.56527897529304027557373046875">
        <ele>21.200000762939453125</ele>
        <time>2026-05-08T14:34:49.000Z</time>
        <extensions>
          <ns3:TrackPointExtension>
            <ns3:atemp>24.0</ns3:atemp>
            <ns3:hr>96</ns3:hr>
          </ns3:TrackPointExtension>
        </extensions>
      </trkpt>
      <trkpt lat="48.76115734688937664031982421875" lon="-3.56527897529304027557373046875">
        <ele>21.200000762939453125</ele>
        <time>2026-05-08T14:34:50.000Z</time>
        <extensions>
          <ns3:TrackPointExtension>
            <ns3:atemp>24.0</ns3:atemp>
            <ns3:hr>97</ns3:hr>
          </ns3:TrackPointExtension>
        </extensions>
      </trkpt>
      <trkpt lat="48.76115734688937664031982421875" lon="-3.56527897529304027557373046875">
        <ele>21.3999996185302734375</ele>
        <time>2026-05-08T14:34:59.000Z</time>
        <extensions>
          <ns3:TrackPointExtension>
            <ns3:atemp>24.0</ns3:atemp>
            <ns3:hr>94</ns3:hr>
          </ns3:TrackPointExtension>
        </extensions>
      </trkpt>
      <trkpt lat="48.76115734688937664031982421875" lon="-3.56527897529304027557373046875">
        <ele>21.3999996185302734375</ele>
        <time>2026-05-08T14:35:00.000Z</time>
        <extensions>
          <ns3:TrackPointExtension>
            <ns3:atemp>24.0</ns3:atemp>
            <ns3:hr>91</ns3:hr>
          </ns3:TrackPointExtension>
        </extensions>
      </trkpt>
      <trkpt lat="48.76115734688937664031982421875" lon="-3.56527897529304027557373046875">
        <ele>21.3999996185302734375</ele>
        <time>2026-05-08T14:35:01.000Z</time>
        <extensions>
          <ns3:TrackPointExtension>
            <ns3:atemp>24.0</ns3:atemp>
            <ns3:hr>91</ns3:hr>
          </ns3:TrackPointExtension>
        </extensions>
      </trkpt>
      <trkpt lat="48.76115734688937664031982421875" lon="-3.56527897529304027557373046875">
        <ele>21.200000762939453125</ele>
        <time>2026-05-08T14:35:06.000Z</time>
        <extensions>
          <ns3:TrackPointExtension>
            <ns3:atemp>24.0</ns3:atemp>
            <ns3:hr>92</ns3:hr>
          </ns3:TrackPointExtension>
        </extensions>
      </trkpt>
      <trkpt lat="48.7611562572419643402099609375" lon="-3.56525248847901821136474609375">
        <ele>20.799999237060546875</ele>
        <time>2026-05-08T14:35:15.000Z</time>
        <extensions>
          <ns3:TrackPointExtension>
            <ns3:atemp>24.0</ns3:atemp>
            <ns3:hr>94</ns3:hr>
          </ns3:TrackPointExtension>
        </extensions>
      </trkpt>
      <trkpt lat="48.76110286451876163482666015625" lon="-3.565271683037281036376953125">
        <ele>20.200000762939453125</ele>
        <time>2026-05-08T14:35:20.000Z</time>
        <extensions>
          <ns3:TrackPointExtension>
            <ns3:atemp>24.0</ns3:atemp>
            <ns3:hr>94</ns3:hr>
          </ns3:TrackPointExtension>
        </extensions>
      </trkpt>
      <trkpt lat="48.76107084564864635467529296875" lon="-3.5652820765972137451171875">
        <ele>19.799999237060546875</ele>
        <time>2026-05-08T14:35:22.000Z</time>
        <extensions>
          <ns3:TrackPointExtension>
            <ns3:atemp>24.0</ns3:atemp>
            <ns3:hr>94</ns3:hr>
          </ns3:TrackPointExtension>
        </extensions>
      </trkpt>
      <trkpt lat="48.761030025780200958251953125" lon="-3.56529389508068561553955078125">
        <ele>19.200000762939453125</ele>
        <time>2026-05-08T14:35:25.000Z</time>
        <extensions>
          <ns3:TrackPointExtension>
            <ns3:atemp>24.0</ns3:atemp>
            <ns3:hr>94</ns3:hr>
          </ns3:TrackPointExtension>
        </extensions>
      </trkpt>
      <trkpt lat="48.76097914762794971466064453125" lon="-3.56529808603227138519287109375">
        <ele>18.3999996185302734375</ele>
        <time>2026-05-08T14:35:29.000Z</time>
        <extensions>
          <ns3:TrackPointExtension>
            <ns3:atemp>24.0</ns3:atemp>
            <ns3:hr>96</ns3:hr>
          </ns3:TrackPointExtension>
        </extensions>
      </trkpt>
      <trkpt lat="48.760956935584545135498046875" lon="-3.56529959477484226226806640625">
        <ele>18</ele>
        <time>2026-05-08T14:35:31.000Z</time>
        <extensions>
          <ns3:TrackPointExtension>
            <ns3:atemp>24.0</ns3:atemp>
            <ns3:hr>96</ns3:hr>
          </ns3:TrackPointExtension>
        </extensions>
      </trkpt>
      <trkpt lat="48.76089985482394695281982421875" lon="-3.565305881202220916748046875">
        <ele>16.799999237060546875</ele>
        <time>2026-05-08T14:35:36.000Z</time>
        <extensions>
          <ns3:TrackPointExtension>
            <ns3:atemp>24.0</ns3:atemp>
            <ns3:hr>96</ns3:hr>
          </ns3:TrackPointExtension>
        </extensions>
      </trkpt>
      <trkpt lat="48.7608863599598407745361328125" lon="-3.5653087310492992401123046875">
        <ele>16.6000003814697265625</ele>
        <time>2026-05-08T14:35:37.000Z</time>
        <extensions>
          <ns3:TrackPointExtension>
            <ns3:atemp>24.0</ns3:atemp>
            <ns3:hr>95</ns3:hr>
          </ns3:TrackPointExtension>
        </extensions>
      </trkpt>
      <trkpt lat="48.760840930044651031494140625" lon="-3.56532323174178600311279296875">
        <ele>15.6000003814697265625</ele>
        <time>2026-05-08T14:35:41.000Z</time>
        <extensions>
          <ns3:TrackPointExtension>
            <ns3:atemp>24.0</ns3:atemp>
            <ns3:hr>96</ns3:hr>
          </ns3:TrackPointExtension>
        </extensions>
      </trkpt>
      <trkpt lat="48.76082106493413448333740234375" lon="-3.56533111073076725006103515625">
        <ele>15.19999980926513671875</ele>
        <time>2026-05-08T14:35:43.000Z</time>
        <extensions>
          <ns3:TrackPointExtension>
            <ns3:atemp>24.0</ns3:atemp>
            <ns3:hr>95</ns3:hr>
          </ns3:TrackPointExtension>
        </extensions>
      </trkpt>
      <trkpt lat="48.76076691783964633941650390625" lon="-3.56536027975380420684814453125">
        <ele>14.3999996185302734375</ele>
        <time>2026-05-08T14:35:48.000Z</time>
        <extensions>
          <ns3:TrackPointExtension>
            <ns3:atemp>24.0</ns3:atemp>
            <ns3:hr>95</ns3:hr>
          </ns3:TrackPointExtension>
        </extensions>
      </trkpt>
      <trkpt lat="48.76072165556252002716064453125" lon="-3.5653866827487945556640625">
        <ele>13.3999996185302734375</ele>
        <time>2026-05-08T14:35:52.000Z</time>
        <extensions>
          <ns3:TrackPointExtension>
            <ns3:atemp>24.0</ns3:atemp>
            <ns3:hr>95</ns3:hr>
          </ns3:TrackPointExtension>
        </extensions>
      </trkpt>
      <trkpt lat="48.76068695448338985443115234375" lon="-3.5654062964022159576416015625">
        <ele>13.19999980926513671875</ele>
        <time>2026-05-08T14:35:55.000Z</time>
        <extensions>
          <ns3:TrackPointExtension>
            <ns3:atemp>24.0</ns3:atemp>
            <ns3:hr>94</ns3:hr>
          </ns3:TrackPointExtension>
        </extensions>
      </trkpt>
      <trkpt lat="48.76062802970409393310546875" lon="-3.565446697175502777099609375">
        <ele>12.80000019073486328125</ele>
        <time>2026-05-08T14:36:01.000Z</time>
        <extensions>
          <ns3:TrackPointExtension>
            <ns3:atemp>24.0</ns3:atemp>
            <ns3:hr>94</ns3:hr>
          </ns3:TrackPointExtension>
        </extensions>
      </trkpt>
      <trkpt lat="48.760552592575550079345703125" lon="-3.56549925170838832855224609375">
        <ele>12</ele>
        <time>2026-05-08T14:36:08.000Z</time>
        <extensions>
          <ns3:TrackPointExtension>
            <ns3:atemp>24.0</ns3:atemp>
            <ns3:hr>93</ns3:hr>
          </ns3:TrackPointExtension>
        </extensions>
      </trkpt>
      <trkpt lat="48.76052744686603546142578125" lon="-3.5655343718826770782470703125">
        <ele>11.19999980926513671875</ele>
        <time>2026-05-08T14:36:14.000Z</time>
        <extensions>
          <ns3:TrackPointExtension>
            <ns3:atemp>24.0</ns3:atemp>
            <ns3:hr>93</ns3:hr>
          </ns3:TrackPointExtension>
        </extensions>
      </trkpt>
      <trkpt lat="48.760529793798923492431640625" lon="-3.56553512625396251678466796875">
        <ele>11</ele>
        <time>2026-05-08T14:36:16.000Z</time>
        <extensions>
          <ns3:TrackPointExtension>
            <ns3:atemp>24.0</ns3:atemp>
            <ns3:hr>92</ns3:hr>
          </ns3:TrackPointExtension>
        </extensions>
      </trkpt>
      <trkpt lat="48.760529793798923492431640625" lon="-3.56553512625396251678466796875">
        <ele>10.80000019073486328125</ele>
        <time>2026-05-08T14:36:24.000Z</time>
        <extensions>
          <ns3:TrackPointExtension>
            <ns3:atemp>24.0</ns3:atemp>
            <ns3:hr>91</ns3:hr>
          </ns3:TrackPointExtension>
        </extensions>
      </trkpt>
      <trkpt lat="48.760529793798923492431640625" lon="-3.56553512625396251678466796875">
        <ele>10.3999996185302734375</ele>
        <time>2026-05-08T14:36:31.000Z</time>
        <extensions>
          <ns3:TrackPointExtension>
            <ns3:atemp>24.0</ns3:atemp>
            <ns3:hr>88</ns3:hr>
          </ns3:TrackPointExtension>
        </extensions>
      </trkpt>
      <trkpt lat="48.760529793798923492431640625" lon="-3.56553512625396251678466796875">
        <ele>10.6000003814697265625</ele>
        <time>2026-05-08T14:36:34.000Z</time>
        <extensions>
          <ns3:TrackPointExtension>
            <ns3:atemp>24.0</ns3:atemp>
            <ns3:hr>86</ns3:hr>
          </ns3:TrackPointExtension>
        </extensions>
      </trkpt>
      <trkpt lat="48.760543204843997955322265625" lon="-3.5655266605317592620849609375">
        <ele>10.19999980926513671875</ele>
        <time>2026-05-08T14:36:41.000Z</time>
        <extensions>
          <ns3:TrackPointExtension>
            <ns3:atemp>24.0</ns3:atemp>
            <ns3:hr>86</ns3:hr>
          </ns3:TrackPointExtension>
        </extensions>
      </trkpt>
      <trkpt lat="48.76056608743965625762939453125" lon="-3.56550930999219417572021484375">
        <ele>10.80000019073486328125</ele>
        <time>2026-05-08T14:36:48.000Z</time>
        <extensions>
          <ns3:TrackPointExtension>
            <ns3:atemp>24.0</ns3:atemp>
            <ns3:hr>85</ns3:hr>
          </ns3:TrackPointExtension>
        </extensions>
      </trkpt>
      <trkpt lat="48.760567344725131988525390625" lon="-3.56551014818251132965087890625">
        <ele>11</ele>
        <time>2026-05-08T14:36:57.000Z</time>
        <extensions>
          <ns3:TrackPointExtension>
            <ns3:atemp>24.0</ns3:atemp>
            <ns3:hr>87</ns3:hr>
          </ns3:TrackPointExtension>
        </extensions>
      </trkpt>
      <trkpt lat="48.760567344725131988525390625" lon="-3.56551014818251132965087890625">
        <ele>10.6000003814697265625</ele>
        <time>2026-05-08T14:37:06.000Z</time>
        <extensions>
          <ns3:TrackPointExtension>
            <ns3:atemp>24.0</ns3:atemp>
            <ns3:hr>87</ns3:hr>
          </ns3:TrackPointExtension>
        </extensions>
      </trkpt>
      <trkpt lat="48.76057480461895465850830078125" lon="-3.5655360482633113861083984375">
        <ele>10.80000019073486328125</ele>
        <time>2026-05-08T14:37:14.000Z</time>
        <extensions>
          <ns3:TrackPointExtension>
            <ns3:atemp>24.0</ns3:atemp>
            <ns3:hr>87</ns3:hr>
          </ns3:TrackPointExtension>
        </extensions>
      </trkpt>
      <trkpt lat="48.76058855094015598297119140625" lon="-3.56551475822925567626953125">
        <ele>10.3999996185302734375</ele>
        <time>2026-05-08T14:37:21.000Z</time>
        <extensions>
          <ns3:TrackPointExtension>
            <ns3:atemp>23.0</ns3:atemp>
            <ns3:hr>84</ns3:hr>
          </ns3:TrackPointExtension>
        </extensions>
      </trkpt>
      <trkpt lat="48.7605903111398220062255859375" lon="-3.56551475822925567626953125">
        <ele>10.6000003814697265625</ele>
        <time>2026-05-08T14:37:22.000Z</time>
        <extensions>
          <ns3:TrackPointExtension>
            <ns3:atemp>23.0</ns3:atemp>
            <ns3:hr>84</ns3:hr>
          </ns3:TrackPointExtension>
        </extensions>
      </trkpt>
      <trkpt lat="48.76059073023498058319091796875" lon="-3.56551484204828739166259765625">
        <ele>11.6000003814697265625</ele>
        <time>2026-05-08T14:37:30.000Z</time>
        <extensions>
          <ns3:TrackPointExtension>
            <ns3:atemp>23.0</ns3:atemp>
            <ns3:hr>88</ns3:hr>
          </ns3:TrackPointExtension>
        </extensions>
      </trkpt>
      <trkpt lat="48.76059140078723430633544921875" lon="-3.56551945209503173828125">
        <ele>11.3999996185302734375</ele>
        <time>2026-05-08T14:37:37.000Z</time>
        <extensions>
          <ns3:TrackPointExtension>
            <ns3:atemp>23.0</ns3:atemp>
            <ns3:hr>88</ns3:hr>
          </ns3:TrackPointExtension>
        </extensions>
      </trkpt>
      <trkpt lat="48.76059073023498058319091796875" lon="-3.56551484204828739166259765625">
        <ele>12</ele>
        <time>2026-05-08T14:37:54.000Z</time>
        <extensions>
          <ns3:TrackPointExtension>
            <ns3:atemp>23.0</ns3:atemp>
            <ns3:hr>89</ns3:hr>
          </ns3:TrackPointExtension>
        </extensions>
      </trkpt>
      <trkpt lat="48.76059073023498058319091796875" lon="-3.56551484204828739166259765625">
        <ele>12</ele>
        <time>2026-05-08T14:37:55.000Z</time>
        <extensions>
          <ns3:TrackPointExtension>
            <ns3:atemp>23.0</ns3:atemp>
            <ns3:hr>90</ns3:hr>
          </ns3:TrackPointExtension>
        </extensions>
      </trkpt>
      <trkpt lat="48.76059073023498058319091796875" lon="-3.56551484204828739166259765625">
        <ele>11.80000019073486328125</ele>
        <time>2026-05-08T14:37:58.000Z</time>
        <extensions>
          <ns3:TrackPointExtension>
            <ns3:atemp>23.0</ns3:atemp>
            <ns3:hr>93</ns3:hr>
          </ns3:TrackPointExtension>
        </extensions>
      </trkpt>
      <trkpt lat="48.76058905385434627532958984375" lon="-3.5655233077704906463623046875">
        <ele>12</ele>
        <time>2026-05-08T14:38:05.000Z</time>
        <extensions>
          <ns3:TrackPointExtension>
            <ns3:atemp>23.0</ns3:atemp>
            <ns3:hr>94</ns3:hr>
          </ns3:TrackPointExtension>
        </extensions>
      </trkpt>
      <trkpt lat="48.7605554424226284027099609375" lon="-3.56558240018784999847412109375">
        <ele>11.80000019073486328125</ele>
        <time>2026-05-08T14:38:12.000Z</time>
        <extensions>
          <ns3:TrackPointExtension>
            <ns3:atemp>23.0</ns3:atemp>
            <ns3:hr>96</ns3:hr>
          </ns3:TrackPointExtension>
        </extensions>
      </trkpt>
      <trkpt lat="48.76054764725267887115478515625" lon="-3.56564928777515888214111328125">
        <ele>11</ele>
        <time>2026-05-08T14:38:16.000Z</time>
        <extensions>
          <ns3:TrackPointExtension>
            <ns3:atemp>23.0</ns3:atemp>
            <ns3:hr>96</ns3:hr>
          </ns3:TrackPointExtension>
        </extensions>
      </trkpt>
      <trkpt lat="48.760549239814281463623046875" lon="-3.56563738547265529632568359375">
        <ele>10.80000019073486328125</ele>
        <time>2026-05-08T14:38:18.000Z</time>
        <extensions>
          <ns3:TrackPointExtension>
            <ns3:atemp>23.0</ns3:atemp>
            <ns3:hr>96</ns3:hr>
          </ns3:TrackPointExtension>
        </extensions>
      </trkpt>
      <trkpt lat="48.7605500780045986175537109375" lon="-3.565616346895694732666015625">
        <ele>10.80000019073486328125</ele>
        <time>2026-05-08T14:38:19.000Z</time>
        <extensions>
          <ns3:TrackPointExtension>
            <ns3:atemp>23.0</ns3:atemp>
            <ns3:hr>96</ns3:hr>
          </ns3:TrackPointExtension>
        </extensions>
      </trkpt>
      <trkpt lat="48.76055787317454814910888671875" lon="-3.5655779577791690826416015625">
        <ele>11</ele>
        <time>2026-05-08T14:38:27.000Z</time>
        <extensions>
          <ns3:TrackPointExtension>
            <ns3:atemp>23.0</ns3:atemp>
            <ns3:hr>95</ns3:hr>
          </ns3:TrackPointExtension>
        </extensions>
      </trkpt>
      <trkpt lat="48.76056726090610027313232421875" lon="-3.56553177349269390106201171875">
        <ele>11</ele>
        <time>2026-05-08T14:38:43.000Z</time>
        <extensions>
          <ns3:TrackPointExtension>
            <ns3:atemp>23.0</ns3:atemp>
            <ns3:hr>97</ns3:hr>
          </ns3:TrackPointExtension>
        </extensions>
      </trkpt>
      <trkpt lat="48.7605718709528446197509765625" lon="-3.56552355922758579254150390625">
        <ele>11.19999980926513671875</ele>
        <time>2026-05-08T14:38:51.000Z</time>
        <extensions>
          <ns3:TrackPointExtension>
            <ns3:atemp>23.0</ns3:atemp>
            <ns3:hr>94</ns3:hr>
          </ns3:TrackPointExtension>
        </extensions>
      </trkpt>
      <trkpt lat="48.7605718709528446197509765625" lon="-3.56552355922758579254150390625">
        <ele>11.19999980926513671875</ele>
        <time>2026-05-08T14:38:53.000Z</time>
        <extensions>
          <ns3:TrackPointExtension>
            <ns3:atemp>23.0</ns3:atemp>
            <ns3:hr>90</ns3:hr>
          </ns3:TrackPointExtension>
        </extensions>
      </trkpt>
      <trkpt lat="48.7605718709528446197509765625" lon="-3.56552355922758579254150390625">
        <ele>11.19999980926513671875</ele>
        <time>2026-05-08T14:38:54.000Z</time>
        <extensions>
          <ns3:TrackPointExtension>
            <ns3:atemp>23.0</ns3:atemp>
            <ns3:hr>84</ns3:hr>
          </ns3:TrackPointExtension>
        </extensions>
      </trkpt>
      <trkpt lat="48.7605725415050983428955078125" lon="-3.5655233077704906463623046875">
        <ele>11.19999980926513671875</ele>
        <time>2026-05-08T14:38:55.000Z</time>
        <extensions>
          <ns3:TrackPointExtension>
            <ns3:atemp>23.0</ns3:atemp>
            <ns3:hr>84</ns3:hr>
          </ns3:TrackPointExtension>
        </extensions>
      </trkpt>
      <trkpt lat="48.76057849265635013580322265625" lon="-3.56550578959286212921142578125">
        <ele>11.6000003814697265625</ele>
        <time>2026-05-08T14:39:03.000Z</time>
        <extensions>
          <ns3:TrackPointExtension>
            <ns3:atemp>23.0</ns3:atemp>
            <ns3:hr>84</ns3:hr>
          </ns3:TrackPointExtension>
        </extensions>
      </trkpt>
      <trkpt lat="48.76057840883731842041015625" lon="-3.56550562195479869842529296875">
        <ele>11.6000003814697265625</ele>
        <time>2026-05-08T14:39:10.000Z</time>
        <extensions>
          <ns3:TrackPointExtension>
            <ns3:atemp>23.0</ns3:atemp>
            <ns3:hr>87</ns3:hr>
          </ns3:TrackPointExtension>
        </extensions>
      </trkpt>
      <trkpt lat="48.76058871857821941375732421875" lon="-3.56548885814845561981201171875">
        <ele>11.3999996185302734375</ele>
        <time>2026-05-08T14:39:16.000Z</time>
        <extensions>
          <ns3:TrackPointExtension>
            <ns3:atemp>23.0</ns3:atemp>
            <ns3:hr>88</ns3:hr>
          </ns3:TrackPointExtension>
        </extensions>
      </trkpt>
      <trkpt lat="48.76061000861227512359619140625" lon="-3.56548282317817211151123046875">
        <ele>12.19999980926513671875</ele>
        <time>2026-05-08T14:39:20.000Z</time>
        <extensions>
          <ns3:TrackPointExtension>
            <ns3:atemp>23.0</ns3:atemp>
            <ns3:hr>88</ns3:hr>
          </ns3:TrackPointExtension>
        </extensions>
      </trkpt>
      <trkpt lat="48.760610930621623992919921875" lon="-3.56547695584595203399658203125">
        <ele>12.3999996185302734375</ele>
        <time>2026-05-08T14:39:23.000Z</time>
        <extensions>
          <ns3:TrackPointExtension>
            <ns3:atemp>23.0</ns3:atemp>
            <ns3:hr>88</ns3:hr>
          </ns3:TrackPointExtension>
        </extensions>
      </trkpt>
      <trkpt lat="48.76064823009073734283447265625" lon="-3.56546379625797271728515625">
        <ele>13.19999980926513671875</ele>
        <time>2026-05-08T14:39:31.000Z</time>
        <extensions>
          <ns3:TrackPointExtension>
            <ns3:atemp>23.0</ns3:atemp>
            <ns3:hr>90</ns3:hr>
          </ns3:TrackPointExtension>
        </extensions>
      </trkpt>
      <trkpt lat="48.7606925703585147857666015625" lon="-3.565436303615570068359375">
        <ele>13.80000019073486328125</ele>
        <time>2026-05-08T14:39:37.000Z</time>
        <extensions>
          <ns3:TrackPointExtension>
            <ns3:atemp>23.0</ns3:atemp>
            <ns3:hr>93</ns3:hr>
          </ns3:TrackPointExtension>
        </extensions>
      </trkpt>
      <trkpt lat="48.76072433777153491973876953125" lon="-3.56542079709470272064208984375">
        <ele>13.6000003814697265625</ele>
        <time>2026-05-08T14:39:43.000Z</time>
        <extensions>
          <ns3:TrackPointExtension>
            <ns3:atemp>23.0</ns3:atemp>
            <ns3:hr>96</ns3:hr>
          </ns3:TrackPointExtension>
        </extensions>
      </trkpt>
      <trkpt lat="48.76077286899089813232421875" lon="-3.56539003551006317138671875">
        <ele>14.19999980926513671875</ele>
        <time>2026-05-08T14:39:52.000Z</time>
        <extensions>
          <ns3:TrackPointExtension>
            <ns3:atemp>23.0</ns3:atemp>
            <ns3:hr>96</ns3:hr>
          </ns3:TrackPointExtension>
        </extensions>
      </trkpt>
      <trkpt lat="48.76077957451343536376953125" lon="-3.56538710184395313262939453125">
        <ele>14.3999996185302734375</ele>
        <time>2026-05-08T14:39:53.000Z</time>
        <extensions>
          <ns3:TrackPointExtension>
            <ns3:atemp>23.0</ns3:atemp>
            <ns3:hr>96</ns3:hr>
          </ns3:TrackPointExtension>
        </extensions>
      </trkpt>
      <trkpt lat="48.76080631278455257415771484375" lon="-3.56537385843694210052490234375">
        <ele>15.3999996185302734375</ele>
        <time>2026-05-08T14:39:58.000Z</time>
        <extensions>
          <ns3:TrackPointExtension>
            <ns3:atemp>23.0</ns3:atemp>
            <ns3:hr>97</ns3:hr>
          </ns3:TrackPointExtension>
        </extensions>
      </trkpt>
      <trkpt lat="48.76081787981092929840087890625" lon="-3.565364219248294830322265625">
        <ele>15.19999980926513671875</ele>
        <time>2026-05-08T14:40:00.000Z</time>
        <extensions>
          <ns3:TrackPointExtension>
            <ns3:atemp>23.0</ns3:atemp>
            <ns3:hr>98</ns3:hr>
          </ns3:TrackPointExtension>
        </extensions>
      </trkpt>
      <trkpt lat="48.7608669139444828033447265625" lon="-3.56535675935447216033935546875">
        <ele>16.3999996185302734375</ele>
        <time>2026-05-08T14:40:05.000Z</time>
        <extensions>
          <ns3:TrackPointExtension>
            <ns3:atemp>23.0</ns3:atemp>
            <ns3:hr>96</ns3:hr>
          </ns3:TrackPointExtension>
        </extensions>
      </trkpt>
      <trkpt lat="48.76087772659957408905029296875" lon="-3.5653546638786792755126953125">
        <ele>16.6000003814697265625</ele>
        <time>2026-05-08T14:40:06.000Z</time>
        <extensions>
          <ns3:TrackPointExtension>
            <ns3:atemp>23.0</ns3:atemp>
            <ns3:hr>95</ns3:hr>
          </ns3:TrackPointExtension>
        </extensions>
      </trkpt>
      <trkpt lat="48.7608969211578369140625" lon="-3.56534133665263652801513671875">
        <ele>16.799999237060546875</ele>
        <time>2026-05-08T14:40:08.000Z</time>
        <extensions>
          <ns3:TrackPointExtension>
            <ns3:atemp>23.0</ns3:atemp>
            <ns3:hr>91</ns3:hr>
          </ns3:TrackPointExtension>
        </extensions>
      </trkpt>
      <trkpt lat="48.76091527752578258514404296875" lon="-3.565334714949131011962890625">
        <ele>16.3999996185302734375</ele>
        <time>2026-05-08T14:40:12.000Z</time>
        <extensions>
          <ns3:TrackPointExtension>
            <ns3:atemp>23.0</ns3:atemp>
            <ns3:hr>88</ns3:hr>
          </ns3:TrackPointExtension>
        </extensions>
      </trkpt>
      <trkpt lat="48.760925419628620147705078125" lon="-3.565331362187862396240234375">
        <ele>16.6000003814697265625</ele>
        <time>2026-05-08T14:40:14.000Z</time>
        <extensions>
          <ns3:TrackPointExtension>
            <ns3:atemp>23.0</ns3:atemp>
            <ns3:hr>88</ns3:hr>
          </ns3:TrackPointExtension>
        </extensions>
      </trkpt>
      <trkpt lat="48.76093656755983829498291015625" lon="-3.56532356701791286468505859375">
        <ele>17.200000762939453125</ele>
        <time>2026-05-08T14:40:21.000Z</time>
        <extensions>
          <ns3:TrackPointExtension>
            <ns3:atemp>24.0</ns3:atemp>
            <ns3:hr>86</ns3:hr>
          </ns3:TrackPointExtension>
        </extensions>
      </trkpt>
      <trkpt lat="48.76093673519790172576904296875" lon="-3.565323315560817718505859375">
        <ele>17.200000762939453125</ele>
        <time>2026-05-08T14:40:22.000Z</time>
        <extensions>
          <ns3:TrackPointExtension>
            <ns3:atemp>24.0</ns3:atemp>
            <ns3:hr>87</ns3:hr>
          </ns3:TrackPointExtension>
        </extensions>
      </trkpt>
      <trkpt lat="48.76094344072043895721435546875" lon="-3.5653196275234222412109375">
        <ele>17.3999996185302734375</ele>
        <time>2026-05-08T14:40:23.000Z</time>
        <extensions>
          <ns3:TrackPointExtension>
            <ns3:atemp>24.0</ns3:atemp>
            <ns3:hr>93</ns3:hr>
          </ns3:TrackPointExtension>
        </extensions>
      </trkpt>
      <trkpt lat="48.7609493918716907501220703125" lon="-3.56531686149537563323974609375">
        <ele>17.3999996185302734375</ele>
        <time>2026-05-08T14:40:24.000Z</time>
        <extensions>
          <ns3:TrackPointExtension>
            <ns3:atemp>24.0</ns3:atemp>
            <ns3:hr>96</ns3:hr>
          </ns3:TrackPointExtension>
        </extensions>
      </trkpt>
      <trkpt lat="48.760955594480037689208984375" lon="-3.56531359255313873291015625">
        <ele>17.6000003814697265625</ele>
        <time>2026-05-08T14:40:25.000Z</time>
        <extensions>
          <ns3:TrackPointExtension>
            <ns3:atemp>24.0</ns3:atemp>
            <ns3:hr>102</ns3:hr>
          </ns3:TrackPointExtension>
        </extensions>
      </trkpt>
      <trkpt lat="48.76096020452678203582763671875" lon="-3.56531568802893161773681640625">
        <ele>17.6000003814697265625</ele>
        <time>2026-05-08T14:40:26.000Z</time>
        <extensions>
          <ns3:TrackPointExtension>
            <ns3:atemp>24.0</ns3:atemp>
            <ns3:hr>106</ns3:hr>
          </ns3:TrackPointExtension>
        </extensions>
      </trkpt>
      <trkpt lat="48.760973028838634490966796875" lon="-3.56531803496181964874267578125">
        <ele>18</ele>
        <time>2026-05-08T14:40:28.000Z</time>
        <extensions>
          <ns3:TrackPointExtension>
            <ns3:atemp>24.0</ns3:atemp>
            <ns3:hr>110</ns3:hr>
          </ns3:TrackPointExtension>
        </extensions>
      </trkpt>
      <trkpt lat="48.76098903827369213104248046875" lon="-3.5653154365718364715576171875">
        <ele>18.200000762939453125</ele>
        <time>2026-05-08T14:40:30.000Z</time>
        <extensions>
          <ns3:TrackPointExtension>
            <ns3:atemp>24.0</ns3:atemp>
            <ns3:hr>112</ns3:hr>
          </ns3:TrackPointExtension>
        </extensions>
      </trkpt>
      <trkpt lat="48.7610218115150928497314453125" lon="-3.56531753204762935638427734375">
        <ele>18.6000003814697265625</ele>
        <time>2026-05-08T14:40:33.000Z</time>
        <extensions>
          <ns3:TrackPointExtension>
            <ns3:atemp>24.0</ns3:atemp>
            <ns3:hr>113</ns3:hr>
          </ns3:TrackPointExtension>
        </extensions>
      </trkpt>
      <trkpt lat="48.76106799580156803131103515625" lon="-3.56531334109604358673095703125">
        <ele>19.3999996185302734375</ele>
        <time>2026-05-08T14:40:37.000Z</time>
        <extensions>
          <ns3:TrackPointExtension>
            <ns3:atemp>24.0</ns3:atemp>
            <ns3:hr>110</ns3:hr>
          </ns3:TrackPointExtension>
        </extensions>
      </trkpt>
      <trkpt lat="48.76107788644731044769287109375" lon="-3.5653147660195827484130859375">
        <ele>19.799999237060546875</ele>
        <time>2026-05-08T14:40:38.000Z</time>
        <extensions>
          <ns3:TrackPointExtension>
            <ns3:atemp>24.0</ns3:atemp>
            <ns3:hr>109</ns3:hr>
          </ns3:TrackPointExtension>
        </extensions>
      </trkpt>
      <trkpt lat="48.761094398796558380126953125" lon="-3.5653167776763439178466796875">
        <ele>20.6000003814697265625</ele>
        <time>2026-05-08T14:40:40.000Z</time>
        <extensions>
          <ns3:TrackPointExtension>
            <ns3:atemp>24.0</ns3:atemp>
            <ns3:hr>108</ns3:hr>
          </ns3:TrackPointExtension>
        </extensions>
      </trkpt>
      <trkpt lat="48.76110370270907878875732421875" lon="-3.56531401164829730987548828125">
        <ele>21</ele>
        <time>2026-05-08T14:40:41.000Z</time>
        <extensions>
          <ns3:TrackPointExtension>
            <ns3:atemp>24.0</ns3:atemp>
            <ns3:hr>108</ns3:hr>
          </ns3:TrackPointExtension>
        </extensions>
      </trkpt>
      <trkpt lat="48.76116941682994365692138671875" lon="-3.565323986113071441650390625">
        <ele>22</ele>
        <time>2026-05-08T14:40:47.000Z</time>
        <extensions>
          <ns3:TrackPointExtension>
            <ns3:atemp>24.0</ns3:atemp>
            <ns3:hr>108</ns3:hr>
          </ns3:TrackPointExtension>
        </extensions>
      </trkpt>
      <trkpt lat="48.76122892834246158599853515625" lon="-3.56533781625330448150634765625">
        <ele>22.799999237060546875</ele>
        <time>2026-05-08T14:40:54.000Z</time>
        <extensions>
          <ns3:TrackPointExtension>
            <ns3:atemp>24.0</ns3:atemp>
            <ns3:hr>110</ns3:hr>
          </ns3:TrackPointExtension>
        </extensions>
      </trkpt>
      <trkpt lat="48.76123630441725254058837890625" lon="-3.56532608158886432647705078125">
        <ele>22.799999237060546875</ele>
        <time>2026-05-08T14:40:56.000Z</time>
        <extensions>
          <ns3:TrackPointExtension>
            <ns3:atemp>24.0</ns3:atemp>
            <ns3:hr>111</ns3:hr>
          </ns3:TrackPointExtension>
        </extensions>
      </trkpt>
      <trkpt lat="48.76123395748436450958251953125" lon="-3.56531091034412384033203125">
        <ele>22.799999237060546875</ele>
        <time>2026-05-08T14:40:58.000Z</time>
        <extensions>
          <ns3:TrackPointExtension>
            <ns3:atemp>24.0</ns3:atemp>
            <ns3:hr>112</ns3:hr>
          </ns3:TrackPointExtension>
        </extensions>
      </trkpt>
      <trkpt lat="48.7612202949821949005126953125" lon="-3.565310575067996978759765625">
        <ele>22.799999237060546875</ele>
        <time>2026-05-08T14:41:00.000Z</time>
        <extensions>
          <ns3:TrackPointExtension>
            <ns3:atemp>24.0</ns3:atemp>
            <ns3:hr>113</ns3:hr>
          </ns3:TrackPointExtension>
        </extensions>
      </trkpt>
      <trkpt lat="48.761213086545467376708984375" lon="-3.56536027975380420684814453125">
        <ele>22.799999237060546875</ele>
        <time>2026-05-08T14:41:06.000Z</time>
        <extensions>
          <ns3:TrackPointExtension>
            <ns3:atemp>24.0</ns3:atemp>
            <ns3:hr>115</ns3:hr>
          </ns3:TrackPointExtension>
        </extensions>
      </trkpt>
      <trkpt lat="48.76121501438319683074951171875" lon="-3.56539481319487094879150390625">
        <ele>23.200000762939453125</ele>
        <time>2026-05-08T14:41:09.000Z</time>
        <extensions>
          <ns3:TrackPointExtension>
            <ns3:atemp>24.0</ns3:atemp>
            <ns3:hr>117</ns3:hr>
          </ns3:TrackPointExtension>
        </extensions>
      </trkpt>
      <trkpt lat="48.76120378263294696807861328125" lon="-3.5654492117464542388916015625">
        <ele>23.6000003814697265625</ele>
        <time>2026-05-08T14:41:14.000Z</time>
        <extensions>
          <ns3:TrackPointExtension>
            <ns3:atemp>24.0</ns3:atemp>
            <ns3:hr>117</ns3:hr>
          </ns3:TrackPointExtension>
        </extensions>
      </trkpt>
      <trkpt lat="48.761198334395885467529296875" lon="-3.56556513346731662750244140625">
        <ele>24</ele>
        <time>2026-05-08T14:41:20.000Z</time>
        <extensions>
          <ns3:TrackPointExtension>
            <ns3:atemp>24.0</ns3:atemp>
            <ns3:hr>117</ns3:hr>
          </ns3:TrackPointExtension>
        </extensions>
      </trkpt>
      <trkpt lat="48.76119774766266345977783203125" lon="-3.56560586951673030853271484375">
        <ele>24.200000762939453125</ele>
        <time>2026-05-08T14:41:22.000Z</time>
        <extensions>
          <ns3:TrackPointExtension>
            <ns3:atemp>24.0</ns3:atemp>
            <ns3:hr>117</ns3:hr>
          </ns3:TrackPointExtension>
        </extensions>
      </trkpt>
      <trkpt lat="48.76118802465498447418212890625" lon="-3.56566973961889743804931640625">
        <ele>24.6000003814697265625</ele>
        <time>2026-05-08T14:41:28.000Z</time>
        <extensions>
          <ns3:TrackPointExtension>
            <ns3:atemp>24.0</ns3:atemp>
            <ns3:hr>118</ns3:hr>
          </ns3:TrackPointExtension>
        </extensions>
      </trkpt>
      <trkpt lat="48.7611713446676731109619140625" lon="-3.5657459311187267303466796875">
        <ele>24.799999237060546875</ele>
        <time>2026-05-08T14:41:34.000Z</time>
        <extensions>
          <ns3:TrackPointExtension>
            <ns3:atemp>24.0</ns3:atemp>
            <ns3:hr>119</ns3:hr>
          </ns3:TrackPointExtension>
        </extensions>
      </trkpt>
      <trkpt lat="48.76116572879254817962646484375" lon="-3.56578624807298183441162109375">
        <ele>25.3999996185302734375</ele>
        <time>2026-05-08T14:41:37.000Z</time>
        <extensions>
          <ns3:TrackPointExtension>
            <ns3:atemp>24.0</ns3:atemp>
            <ns3:hr>118</ns3:hr>
          </ns3:TrackPointExtension>
        </extensions>
      </trkpt>
      <trkpt lat="48.7611616216599941253662109375" lon="-3.56584743596613407135009765625">
        <ele>26</ele>
        <time>2026-05-08T14:41:41.000Z</time>
        <extensions>
          <ns3:TrackPointExtension>
            <ns3:atemp>24.0</ns3:atemp>
            <ns3:hr>118</ns3:hr>
          </ns3:TrackPointExtension>
        </extensions>
      </trkpt>
      <trkpt lat="48.76116371713578701019287109375" lon="-3.56588716618716716766357421875">
        <ele>26.3999996185302734375</ele>
        <time>2026-05-08T14:41:44.000Z</time>
        <extensions>
          <ns3:TrackPointExtension>
            <ns3:atemp>24.0</ns3:atemp>
            <ns3:hr>118</ns3:hr>
          </ns3:TrackPointExtension>
        </extensions>
      </trkpt>
      <trkpt lat="48.76116287894546985626220703125" lon="-3.565967381000518798828125">
        <ele>27.3999996185302734375</ele>
        <time>2026-05-08T14:41:49.000Z</time>
        <extensions>
          <ns3:TrackPointExtension>
            <ns3:atemp>24.0</ns3:atemp>
            <ns3:hr>119</ns3:hr>
          </ns3:TrackPointExtension>
        </extensions>
      </trkpt>
      <trkpt lat="48.761157095432281494140625" lon="-3.56608380563557147979736328125">
        <ele>28.3999996185302734375</ele>
        <time>2026-05-08T14:41:57.000Z</time>
        <extensions>
          <ns3:TrackPointExtension>
            <ns3:atemp>24.0</ns3:atemp>
            <ns3:hr>121</ns3:hr>
          </ns3:TrackPointExtension>
        </extensions>
      </trkpt>
      <trkpt lat="48.76115550287067890167236328125" lon="-3.56609637849032878875732421875">
        <ele>28.6000003814697265625</ele>
        <time>2026-05-08T14:41:58.000Z</time>
        <extensions>
          <ns3:TrackPointExtension>
            <ns3:atemp>24.0</ns3:atemp>
            <ns3:hr>121</ns3:hr>
          </ns3:TrackPointExtension>
        </extensions>
      </trkpt>
      <trkpt lat="48.76114904880523681640625" lon="-3.56619712896645069122314453125">
        <ele>29.6000003814697265625</ele>
        <time>2026-05-08T14:42:04.000Z</time>
        <extensions>
          <ns3:TrackPointExtension>
            <ns3:atemp>24.0</ns3:atemp>
            <ns3:hr>122</ns3:hr>
          </ns3:TrackPointExtension>
        </extensions>
      </trkpt>
      <trkpt lat="48.7611505575478076934814453125" lon="-3.566209785640239715576171875">
        <ele>29.799999237060546875</ele>
        <time>2026-05-08T14:42:05.000Z</time>
        <extensions>
          <ns3:TrackPointExtension>
            <ns3:atemp>24.0</ns3:atemp>
            <ns3:hr>121</ns3:hr>
          </ns3:TrackPointExtension>
        </extensions>
      </trkpt>
      <trkpt lat="48.761183582246303558349609375" lon="-3.5662967897951602935791015625">
        <ele>30.6000003814697265625</ele>
        <time>2026-05-08T14:42:11.000Z</time>
        <extensions>
          <ns3:TrackPointExtension>
            <ns3:atemp>24.0</ns3:atemp>
            <ns3:hr>121</ns3:hr>
          </ns3:TrackPointExtension>
        </extensions>
      </trkpt>
      <trkpt lat="48.7611941434442996978759765625" lon="-3.5663252882659435272216796875">
        <ele>30.799999237060546875</ele>
        <time>2026-05-08T14:42:13.000Z</time>
        <extensions>
          <ns3:TrackPointExtension>
            <ns3:atemp>24.0</ns3:atemp>
            <ns3:hr>121</ns3:hr>
          </ns3:TrackPointExtension>
        </extensions>
      </trkpt>
      <trkpt lat="48.7612099014222621917724609375" lon="-3.56640298850834369659423828125">
        <ele>32</ele>
        <time>2026-05-08T14:42:19.000Z</time>
        <extensions>
          <ns3:TrackPointExtension>
            <ns3:atemp>24.0</ns3:atemp>
            <ns3:hr>123</ns3:hr>
          </ns3:TrackPointExtension>
        </extensions>
      </trkpt>
      <trkpt lat="48.7612125836312770843505859375" lon="-3.56641606427729129791259765625">
        <ele>32.200000762939453125</ele>
        <time>2026-05-08T14:42:20.000Z</time>
        <extensions>
          <ns3:TrackPointExtension>
            <ns3:atemp>24.0</ns3:atemp>
            <ns3:hr>123</ns3:hr>
          </ns3:TrackPointExtension>
        </extensions>
      </trkpt>
      <trkpt lat="48.76121853478252887725830078125" lon="-3.56647607870399951934814453125">
        <ele>33</ele>
        <time>2026-05-08T14:42:24.000Z</time>
        <extensions>
          <ns3:TrackPointExtension>
            <ns3:atemp>24.0</ns3:atemp>
            <ns3:hr>125</ns3:hr>
          </ns3:TrackPointExtension>
        </extensions>
      </trkpt>
      <trkpt lat="48.76122339628636837005615234375" lon="-3.5665231011807918548583984375">
        <ele>33.59999847412109375</ele>
        <time>2026-05-08T14:42:27.000Z</time>
        <extensions>
          <ns3:TrackPointExtension>
            <ns3:atemp>24.0</ns3:atemp>
            <ns3:hr>126</ns3:hr>
          </ns3:TrackPointExtension>
        </extensions>
      </trkpt>
      <trkpt lat="48.76121811568737030029296875" lon="-3.56658185832202434539794921875">
        <ele>34</ele>
        <time>2026-05-08T14:42:30.000Z</time>
        <extensions>
          <ns3:TrackPointExtension>
            <ns3:atemp>24.0</ns3:atemp>
            <ns3:hr>128</ns3:hr>
          </ns3:TrackPointExtension>
        </extensions>
      </trkpt>
      <trkpt lat="48.76120864413678646087646484375" lon="-3.56665109284222126007080078125">
        <ele>34.799999237060546875</ele>
        <time>2026-05-08T14:42:34.000Z</time>
        <extensions>
          <ns3:TrackPointExtension>
            <ns3:atemp>24.0</ns3:atemp>
            <ns3:hr>129</ns3:hr>
          </ns3:TrackPointExtension>
        </extensions>
      </trkpt>
      <trkpt lat="48.76120411790907382965087890625" lon="-3.56669652275741100311279296875">
        <ele>35.200000762939453125</ele>
        <time>2026-05-08T14:42:37.000Z</time>
        <extensions>
          <ns3:TrackPointExtension>
            <ns3:atemp>24.0</ns3:atemp>
            <ns3:hr>130</ns3:hr>
          </ns3:TrackPointExtension>
        </extensions>
      </trkpt>
      <trkpt lat="48.76119925640523433685302734375" lon="-3.5667487420141696929931640625">
        <ele>35.59999847412109375</ele>
        <time>2026-05-08T14:42:41.000Z</time>
        <extensions>
          <ns3:TrackPointExtension>
            <ns3:atemp>24.0</ns3:atemp>
            <ns3:hr>131</ns3:hr>
          </ns3:TrackPointExtension>
        </extensions>
      </trkpt>
      <trkpt lat="48.761201016604900360107421875" lon="-3.5668027214705944061279296875">
        <ele>36.200000762939453125</ele>
        <time>2026-05-08T14:42:44.000Z</time>
        <extensions>
          <ns3:TrackPointExtension>
            <ns3:atemp>24.0</ns3:atemp>
            <ns3:hr>132</ns3:hr>
          </ns3:TrackPointExtension>
        </extensions>
      </trkpt>
      <trkpt lat="48.761202357709407806396484375" lon="-3.5668214969336986541748046875">
        <ele>36.59999847412109375</ele>
        <time>2026-05-08T14:42:46.000Z</time>
        <extensions>
          <ns3:TrackPointExtension>
            <ns3:atemp>24.0</ns3:atemp>
            <ns3:hr>132</ns3:hr>
          </ns3:TrackPointExtension>
        </extensions>
      </trkpt>
      <trkpt lat="48.7612213008105754852294921875" lon="-3.566838093101978302001953125">
        <ele>36.799999237060546875</ele>
        <time>2026-05-08T14:42:53.000Z</time>
        <extensions>
          <ns3:TrackPointExtension>
            <ns3:atemp>24.0</ns3:atemp>
            <ns3:hr>134</ns3:hr>
          </ns3:TrackPointExtension>
        </extensions>
      </trkpt>
      <trkpt lat="48.76120763830840587615966796875" lon="-3.56686013750731945037841796875">
        <ele>36.59999847412109375</ele>
        <time>2026-05-08T14:42:58.000Z</time>
        <extensions>
          <ns3:TrackPointExtension>
            <ns3:atemp>24.0</ns3:atemp>
            <ns3:hr>131</ns3:hr>
          </ns3:TrackPointExtension>
        </extensions>
      </trkpt>
      <trkpt lat="48.7612038664519786834716796875" lon="-3.56685879640281200408935546875">
        <ele>36.59999847412109375</ele>
        <time>2026-05-08T14:43:02.000Z</time>
        <extensions>
          <ns3:TrackPointExtension>
            <ns3:atemp>24.0</ns3:atemp>
            <ns3:hr>130</ns3:hr>
          </ns3:TrackPointExtension>
        </extensions>
      </trkpt>
      <trkpt lat="48.761183582246303558349609375" lon="-3.5668848641216754913330078125">
        <ele>36.200000762939453125</ele>
        <time>2026-05-08T14:43:09.000Z</time>
        <extensions>
          <ns3:TrackPointExtension>
            <ns3:atemp>24.0</ns3:atemp>
            <ns3:hr>127</ns3:hr>
          </ns3:TrackPointExtension>
        </extensions>
      </trkpt>
      <trkpt lat="48.76117796637117862701416015625" lon="-3.566896431148052215576171875">
        <ele>36.200000762939453125</ele>
        <time>2026-05-08T14:43:10.000Z</time>
        <extensions>
          <ns3:TrackPointExtension>
            <ns3:atemp>24.0</ns3:atemp>
            <ns3:hr>127</ns3:hr>
          </ns3:TrackPointExtension>
        </extensions>
      </trkpt>
      <trkpt lat="48.761123232543468475341796875" lon="-3.56696574948728084564208984375">
        <ele>36.200000762939453125</ele>
        <time>2026-05-08T14:43:17.000Z</time>
        <extensions>
          <ns3:TrackPointExtension>
            <ns3:atemp>24.0</ns3:atemp>
            <ns3:hr>125</ns3:hr>
          </ns3:TrackPointExtension>
        </extensions>
      </trkpt>
      <trkpt lat="48.7610952369868755340576171875" lon="-3.56700648553669452667236328125">
        <ele>35.799999237060546875</ele>
        <time>2026-05-08T14:43:21.000Z</time>
        <extensions>
          <ns3:TrackPointExtension>
            <ns3:atemp>23.0</ns3:atemp>
            <ns3:hr>122</ns3:hr>
          </ns3:TrackPointExtension>
        </extensions>
      </trkpt>
      <trkpt lat="48.76108928583562374114990234375" lon="-3.567018806934356689453125">
        <ele>35.40000152587890625</ele>
        <time>2026-05-08T14:43:23.000Z</time>
        <extensions>
          <ns3:TrackPointExtension>
            <ns3:atemp>23.0</ns3:atemp>
            <ns3:hr>121</ns3:hr>
          </ns3:TrackPointExtension>
        </extensions>
      </trkpt>
      <trkpt lat="48.76105391420423984527587890625" lon="-3.56706105172634124755859375">
        <ele>35.200000762939453125</ele>
        <time>2026-05-08T14:43:29.000Z</time>
        <extensions>
          <ns3:TrackPointExtension>
            <ns3:atemp>23.0</ns3:atemp>
            <ns3:hr>118</ns3:hr>
          </ns3:TrackPointExtension>
        </extensions>
      </trkpt>
      <trkpt lat="48.76104519702494144439697265625" lon="-3.5670711100101470947265625">
        <ele>35.200000762939453125</ele>
        <time>2026-05-08T14:43:30.000Z</time>
        <extensions>
          <ns3:TrackPointExtension>
            <ns3:atemp>23.0</ns3:atemp>
            <ns3:hr>119</ns3:hr>
          </ns3:TrackPointExtension>
        </extensions>
      </trkpt>
      <trkpt lat="48.76098669134080410003662109375" lon="-3.5671322979032993316650390625">
        <ele>35.200000762939453125</ele>
        <time>2026-05-08T14:43:36.000Z</time>
        <extensions>
          <ns3:TrackPointExtension>
            <ns3:atemp>23.0</ns3:atemp>
            <ns3:hr>117</ns3:hr>
          </ns3:TrackPointExtension>
        </extensions>
      </trkpt>
      <trkpt lat="48.7609473802149295806884765625" lon="-3.567226342856884002685546875">
        <ele>35</ele>
        <time>2026-05-08T14:43:42.000Z</time>
        <extensions>
          <ns3:TrackPointExtension>
            <ns3:atemp>23.0</ns3:atemp>
            <ns3:hr>115</ns3:hr>
          </ns3:TrackPointExtension>
        </extensions>
      </trkpt>
      <trkpt lat="48.7608980946242809295654296875" lon="-3.5672989301383495330810546875">
        <ele>34.40000152587890625</ele>
        <time>2026-05-08T14:43:48.000Z</time>
        <extensions>
          <ns3:TrackPointExtension>
            <ns3:atemp>23.0</ns3:atemp>
            <ns3:hr>114</ns3:hr>
          </ns3:TrackPointExtension>
        </extensions>
      </trkpt>
      <trkpt lat="48.760861717164516448974609375" lon="-3.56736891902983188629150390625">
        <ele>34.40000152587890625</ele>
        <time>2026-05-08T14:43:53.000Z</time>
        <extensions>
          <ns3:TrackPointExtension>
            <ns3:atemp>23.0</ns3:atemp>
            <ns3:hr>117</ns3:hr>
          </ns3:TrackPointExtension>
        </extensions>
      </trkpt>
      <trkpt lat="48.76084939576685428619384765625" lon="-3.56740093789994716644287109375">
        <ele>34.200000762939453125</ele>
        <time>2026-05-08T14:43:55.000Z</time>
        <extensions>
          <ns3:TrackPointExtension>
            <ns3:atemp>23.0</ns3:atemp>
            <ns3:hr>117</ns3:hr>
          </ns3:TrackPointExtension>
        </extensions>
      </trkpt>
      <trkpt lat="48.7607948295772075653076171875" lon="-3.567517362534999847412109375">
        <ele>34.200000762939453125</ele>
        <time>2026-05-08T14:44:03.000Z</time>
        <extensions>
          <ns3:TrackPointExtension>
            <ns3:atemp>23.0</ns3:atemp>
            <ns3:hr>115</ns3:hr>
          </ns3:TrackPointExtension>
        </extensions>
      </trkpt>
      <trkpt lat="48.7607748806476593017578125" lon="-3.56754544191062450408935546875">
        <ele>34.200000762939453125</ele>
        <time>2026-05-08T14:44:05.000Z</time>
        <extensions>
          <ns3:TrackPointExtension>
            <ns3:atemp>23.0</ns3:atemp>
            <ns3:hr>115</ns3:hr>
          </ns3:TrackPointExtension>
        </extensions>
      </trkpt>
      <trkpt lat="48.76072031445801258087158203125" lon="-3.56761300005018711090087890625">
        <ele>33.59999847412109375</ele>
        <time>2026-05-08T14:44:11.000Z</time>
        <extensions>
          <ns3:TrackPointExtension>
            <ns3:atemp>23.0</ns3:atemp>
            <ns3:hr>114</ns3:hr>
          </ns3:TrackPointExtension>
        </extensions>
      </trkpt>
      <trkpt lat="48.7606858648359775543212890625" lon="-3.5676504671573638916015625">
        <ele>33</ele>
        <time>2026-05-08T14:44:15.000Z</time>
        <extensions>
          <ns3:TrackPointExtension>
            <ns3:atemp>23.0</ns3:atemp>
            <ns3:hr>114</ns3:hr>
          </ns3:TrackPointExtension>
        </extensions>
      </trkpt>
      <trkpt lat="48.7606580369174480438232421875" lon="-3.5676925443112850189208984375">
        <ele>32.799999237060546875</ele>
        <time>2026-05-08T14:44:19.000Z</time>
        <extensions>
          <ns3:TrackPointExtension>
            <ns3:atemp>23.0</ns3:atemp>
            <ns3:hr>113</ns3:hr>
          </ns3:TrackPointExtension>
        </extensions>
      </trkpt>
      <trkpt lat="48.760580085217952728271484375" lon="-3.56774442829191684722900390625">
        <ele>32.200000762939453125</ele>
        <time>2026-05-08T14:44:25.000Z</time>
        <extensions>
          <ns3:TrackPointExtension>
            <ns3:atemp>23.0</ns3:atemp>
            <ns3:hr>111</ns3:hr>
          </ns3:TrackPointExtension>
        </extensions>
      </trkpt>
      <trkpt lat="48.76055602915585041046142578125" lon="-3.56776052154600620269775390625">
        <ele>32</ele>
        <time>2026-05-08T14:44:27.000Z</time>
        <extensions>
          <ns3:TrackPointExtension>
            <ns3:atemp>23.0</ns3:atemp>
            <ns3:hr>111</ns3:hr>
          </ns3:TrackPointExtension>
        </extensions>
      </trkpt>
      <trkpt lat="48.76049534417688846588134765625" lon="-3.56780511327087879180908203125">
        <ele>31.3999996185302734375</ele>
        <time>2026-05-08T14:44:32.000Z</time>
        <extensions>
          <ns3:TrackPointExtension>
            <ns3:atemp>23.0</ns3:atemp>
            <ns3:hr>110</ns3:hr>
          </ns3:TrackPointExtension>
        </extensions>
      </trkpt>
      <trkpt lat="48.7604481540620326995849609375" lon="-3.56783545576035976409912109375">
        <ele>31</ele>
        <time>2026-05-08T14:44:36.000Z</time>
        <extensions>
          <ns3:TrackPointExtension>
            <ns3:atemp>23.0</ns3:atemp>
            <ns3:hr>109</ns3:hr>
          </ns3:TrackPointExtension>
        </extensions>
      </trkpt>
      <trkpt lat="48.76042560674250125885009765625" lon="-3.5678528062999248504638671875">
        <ele>30.799999237060546875</ele>
        <time>2026-05-08T14:44:38.000Z</time>
        <extensions>
          <ns3:TrackPointExtension>
            <ns3:atemp>23.0</ns3:atemp>
            <ns3:hr>109</ns3:hr>
          </ns3:TrackPointExtension>
        </extensions>
      </trkpt>
      <trkpt lat="48.760338686406612396240234375" lon="-3.56792447157204151153564453125">
        <ele>30.200000762939453125</ele>
        <time>2026-05-08T14:44:46.000Z</time>
        <extensions>
          <ns3:TrackPointExtension>
            <ns3:atemp>23.0</ns3:atemp>
            <ns3:hr>108</ns3:hr>
          </ns3:TrackPointExtension>
        </extensions>
      </trkpt>
      <trkpt lat="48.76029166392982006072998046875" lon="-3.5679503716528415679931640625">
        <ele>30</ele>
        <time>2026-05-08T14:44:49.000Z</time>
        <extensions>
          <ns3:TrackPointExtension>
            <ns3:atemp>23.0</ns3:atemp>
            <ns3:hr>108</ns3:hr>
          </ns3:TrackPointExtension>
        </extensions>
      </trkpt>
      <trkpt lat="48.76024941913783550262451171875" lon="-3.56796705164015293121337890625">
        <ele>29.799999237060546875</ele>
        <time>2026-05-08T14:44:53.000Z</time>
        <extensions>
          <ns3:TrackPointExtension>
            <ns3:atemp>23.0</ns3:atemp>
            <ns3:hr>107</ns3:hr>
          </ns3:TrackPointExtension>
        </extensions>
      </trkpt>
      <trkpt lat="48.76017834059894084930419921875" lon="-3.56799152679741382598876953125">
        <ele>29</ele>
        <time>2026-05-08T14:45:00.000Z</time>
        <extensions>
          <ns3:TrackPointExtension>
            <ns3:atemp>23.0</ns3:atemp>
            <ns3:hr>105</ns3:hr>
          </ns3:TrackPointExtension>
        </extensions>
      </trkpt>
      <trkpt lat="48.7601158954203128814697265625" lon="-3.56799806468188762664794921875">
        <ele>28.200000762939453125</ele>
        <time>2026-05-08T14:45:06.000Z</time>
        <extensions>
          <ns3:TrackPointExtension>
            <ns3:atemp>23.0</ns3:atemp>
            <ns3:hr>105</ns3:hr>
          </ns3:TrackPointExtension>
        </extensions>
      </trkpt>
      <trkpt lat="48.76008630730211734771728515625" lon="-3.56800577603280544281005859375">
        <ele>27.799999237060546875</ele>
        <time>2026-05-08T14:45:09.000Z</time>
        <extensions>
          <ns3:TrackPointExtension>
            <ns3:atemp>23.0</ns3:atemp>
            <ns3:hr>104</ns3:hr>
          </ns3:TrackPointExtension>
        </extensions>
      </trkpt>
      <trkpt lat="48.76005797646939754486083984375" lon="-3.56802572496235370635986328125">
        <ele>27.799999237060546875</ele>
        <time>2026-05-08T14:45:12.000Z</time>
        <extensions>
          <ns3:TrackPointExtension>
            <ns3:atemp>23.0</ns3:atemp>
            <ns3:hr>104</ns3:hr>
          </ns3:TrackPointExtension>
        </extensions>
      </trkpt>
      <trkpt lat="48.76000835560262203216552734375" lon="-3.5680313408374786376953125">
        <ele>26.799999237060546875</ele>
        <time>2026-05-08T14:45:18.000Z</time>
        <extensions>
          <ns3:TrackPointExtension>
            <ns3:atemp>23.0</ns3:atemp>
            <ns3:hr>104</ns3:hr>
          </ns3:TrackPointExtension>
        </extensions>
      </trkpt>
      <trkpt lat="48.7600077688694000244140625" lon="-3.5680335201323032379150390625">
        <ele>26.799999237060546875</ele>
        <time>2026-05-08T14:45:19.000Z</time>
        <extensions>
          <ns3:TrackPointExtension>
            <ns3:atemp>22.0</ns3:atemp>
            <ns3:hr>103</ns3:hr>
          </ns3:TrackPointExtension>
        </extensions>
      </trkpt>
      <trkpt lat="48.7599889934062957763671875" lon="-3.56805824674665927886962890625">
        <ele>26.6000003814697265625</ele>
        <time>2026-05-08T14:45:26.000Z</time>
        <extensions>
          <ns3:TrackPointExtension>
            <ns3:atemp>22.0</ns3:atemp>
            <ns3:hr>100</ns3:hr>
          </ns3:TrackPointExtension>
        </extensions>
      </trkpt>
      <trkpt lat="48.7599791027605533599853515625" lon="-3.56806176714599132537841796875">
        <ele>26.3999996185302734375</ele>
        <time>2026-05-08T14:45:28.000Z</time>
        <extensions>
          <ns3:TrackPointExtension>
            <ns3:atemp>22.0</ns3:atemp>
            <ns3:hr>100</ns3:hr>
          </ns3:TrackPointExtension>
        </extensions>
      </trkpt>
      <trkpt lat="48.75996057875454425811767578125" lon="-3.568080961704254150390625">
        <ele>26</ele>
        <time>2026-05-08T14:45:32.000Z</time>
        <extensions>
          <ns3:TrackPointExtension>
            <ns3:atemp>22.0</ns3:atemp>
            <ns3:hr>103</ns3:hr>
          </ns3:TrackPointExtension>
        </extensions>
      </trkpt>
      <trkpt lat="48.75994247384369373321533203125" lon="-3.5680935345590114593505859375">
        <ele>26</ele>
        <time>2026-05-08T14:45:34.000Z</time>
        <extensions>
          <ns3:TrackPointExtension>
            <ns3:atemp>22.0</ns3:atemp>
            <ns3:hr>102</ns3:hr>
          </ns3:TrackPointExtension>
        </extensions>
      </trkpt>
      <trkpt lat="48.75990609638392925262451171875" lon="-3.5681198537349700927734375">
        <ele>25.799999237060546875</ele>
        <time>2026-05-08T14:45:38.000Z</time>
        <extensions>
          <ns3:TrackPointExtension>
            <ns3:atemp>22.0</ns3:atemp>
            <ns3:hr>101</ns3:hr>
          </ns3:TrackPointExtension>
        </extensions>
      </trkpt>
      <trkpt lat="48.7598872371017932891845703125" lon="-3.56813267804682254791259765625">
        <ele>25.3999996185302734375</ele>
        <time>2026-05-08T14:45:40.000Z</time>
        <extensions>
          <ns3:TrackPointExtension>
            <ns3:atemp>22.0</ns3:atemp>
            <ns3:hr>102</ns3:hr>
          </ns3:TrackPointExtension>
        </extensions>
      </trkpt>
      <trkpt lat="48.7598154880106449127197265625" lon="-3.56817291118204593658447265625">
        <ele>24.799999237060546875</ele>
        <time>2026-05-08T14:45:48.000Z</time>
        <extensions>
          <ns3:TrackPointExtension>
            <ns3:atemp>22.0</ns3:atemp>
            <ns3:hr>102</ns3:hr>
          </ns3:TrackPointExtension>
        </extensions>
      </trkpt>
      <trkpt lat="48.7598111294209957122802734375" lon="-3.56817609630525112152099609375">
        <ele>24.6000003814697265625</ele>
        <time>2026-05-08T14:45:49.000Z</time>
        <extensions>
          <ns3:TrackPointExtension>
            <ns3:atemp>22.0</ns3:atemp>
            <ns3:hr>102</ns3:hr>
          </ns3:TrackPointExtension>
        </extensions>
      </trkpt>
      <trkpt lat="48.75974851660430431365966796875" lon="-3.56821783818304538726806640625">
        <ele>23.799999237060546875</ele>
        <time>2026-05-08T14:45:56.000Z</time>
        <extensions>
          <ns3:TrackPointExtension>
            <ns3:atemp>22.0</ns3:atemp>
            <ns3:hr>101</ns3:hr>
          </ns3:TrackPointExtension>
        </extensions>
      </trkpt>
      <trkpt lat="48.75967509113252162933349609375" lon="-3.56825840659439563751220703125">
        <ele>23.799999237060546875</ele>
        <time>2026-05-08T14:46:02.000Z</time>
        <extensions>
          <ns3:TrackPointExtension>
            <ns3:atemp>22.0</ns3:atemp>
            <ns3:hr>101</ns3:hr>
          </ns3:TrackPointExtension>
        </extensions>
      </trkpt>
      <trkpt lat="48.7595985643565654754638671875" lon="-3.568349182605743408203125">
        <ele>23.6000003814697265625</ele>
        <time>2026-05-08T14:46:09.000Z</time>
        <extensions>
          <ns3:TrackPointExtension>
            <ns3:atemp>22.0</ns3:atemp>
            <ns3:hr>102</ns3:hr>
          </ns3:TrackPointExtension>
        </extensions>
      </trkpt>
      <trkpt lat="48.75952471978962421417236328125" lon="-3.56842629611492156982421875">
        <ele>23.200000762939453125</ele>
        <time>2026-05-08T14:46:16.000Z</time>
        <extensions>
          <ns3:TrackPointExtension>
            <ns3:atemp>22.0</ns3:atemp>
            <ns3:hr>102</ns3:hr>
          </ns3:TrackPointExtension>
        </extensions>
      </trkpt>
      <trkpt lat="48.759485073387622833251953125" lon="-3.56845085509121417999267578125">
        <ele>23.200000762939453125</ele>
        <time>2026-05-08T14:46:21.000Z</time>
        <extensions>
          <ns3:TrackPointExtension>
            <ns3:atemp>22.0</ns3:atemp>
            <ns3:hr>102</ns3:hr>
          </ns3:TrackPointExtension>
        </extensions>
      </trkpt>
      <trkpt lat="48.759473003447055816650390625" lon="-3.56845856644213199615478515625">
        <ele>23</ele>
        <time>2026-05-08T14:46:22.000Z</time>
        <extensions>
          <ns3:TrackPointExtension>
            <ns3:atemp>22.0</ns3:atemp>
            <ns3:hr>102</ns3:hr>
          </ns3:TrackPointExtension>
        </extensions>
      </trkpt>
      <trkpt lat="48.759417347609996795654296875" lon="-3.568531237542629241943359375">
        <ele>22.6000003814697265625</ele>
        <time>2026-05-08T14:46:27.000Z</time>
        <extensions>
          <ns3:TrackPointExtension>
            <ns3:atemp>22.0</ns3:atemp>
            <ns3:hr>101</ns3:hr>
          </ns3:TrackPointExtension>
        </extensions>
      </trkpt>
      <trkpt lat="48.75939823687076568603515625" lon="-3.56856308877468109130859375">
        <ele>22.3999996185302734375</ele>
        <time>2026-05-08T14:46:29.000Z</time>
        <extensions>
          <ns3:TrackPointExtension>
            <ns3:atemp>22.0</ns3:atemp>
            <ns3:hr>100</ns3:hr>
          </ns3:TrackPointExtension>
        </extensions>
      </trkpt>
      <trkpt lat="48.75937250442802906036376953125" lon="-3.56866635382175445556640625">
        <ele>22</ele>
        <time>2026-05-08T14:46:36.000Z</time>
        <extensions>
          <ns3:TrackPointExtension>
            <ns3:atemp>22.0</ns3:atemp>
            <ns3:hr>99</ns3:hr>
          </ns3:TrackPointExtension>
        </extensions>
      </trkpt>
      <trkpt lat="48.7593685649335384368896484375" lon="-3.56870046816766262054443359375">
        <ele>21.6000003814697265625</ele>
        <time>2026-05-08T14:46:39.000Z</time>
        <extensions>
          <ns3:TrackPointExtension>
            <ns3:atemp>22.0</ns3:atemp>
            <ns3:hr>98</ns3:hr>
          </ns3:TrackPointExtension>
        </extensions>
      </trkpt>
      <trkpt lat="48.75936009921133518218994140625" lon="-3.5687583871185779571533203125">
        <ele>21.3999996185302734375</ele>
        <time>2026-05-08T14:46:42.000Z</time>
        <extensions>
          <ns3:TrackPointExtension>
            <ns3:atemp>22.0</ns3:atemp>
            <ns3:hr>98</ns3:hr>
          </ns3:TrackPointExtension>
        </extensions>
      </trkpt>
      <trkpt lat="48.7593333609402179718017578125" lon="-3.5689337365329265594482421875">
        <ele>20.6000003814697265625</ele>
        <time>2026-05-08T14:46:51.000Z</time>
        <extensions>
          <ns3:TrackPointExtension>
            <ns3:atemp>22.0</ns3:atemp>
            <ns3:hr>98</ns3:hr>
          </ns3:TrackPointExtension>
        </extensions>
      </trkpt>
      <trkpt lat="48.759326152503490447998046875" lon="-3.56899249367415904998779296875">
        <ele>20.6000003814697265625</ele>
        <time>2026-05-08T14:46:54.000Z</time>
        <extensions>
          <ns3:TrackPointExtension>
            <ns3:atemp>22.0</ns3:atemp>
            <ns3:hr>98</ns3:hr>
          </ns3:TrackPointExtension>
        </extensions>
      </trkpt>
      <trkpt lat="48.7593152560293674468994140625" lon="-3.569075055420398712158203125">
        <ele>20.3999996185302734375</ele>
        <time>2026-05-08T14:46:59.000Z</time>
        <extensions>
          <ns3:TrackPointExtension>
            <ns3:atemp>22.0</ns3:atemp>
            <ns3:hr>98</ns3:hr>
          </ns3:TrackPointExtension>
        </extensions>
      </trkpt>
      <trkpt lat="48.7593078799545764923095703125" lon="-3.56922836042940616607666015625">
        <ele>20.200000762939453125</ele>
        <time>2026-05-08T14:47:07.000Z</time>
        <extensions>
          <ns3:TrackPointExtension>
            <ns3:atemp>22.0</ns3:atemp>
            <ns3:hr>96</ns3:hr>
          </ns3:TrackPointExtension>
        </extensions>
      </trkpt>
      <trkpt lat="48.7593015097081661224365234375" lon="-3.569323830306529998779296875">
        <ele>20</ele>
        <time>2026-05-08T14:47:14.000Z</time>
        <extensions>
          <ns3:TrackPointExtension>
            <ns3:atemp>22.0</ns3:atemp>
            <ns3:hr>95</ns3:hr>
          </ns3:TrackPointExtension>
        </extensions>
      </trkpt>
      <trkpt lat="48.75930838286876678466796875" lon="-3.56942030601203441619873046875">
        <ele>20.3999996185302734375</ele>
        <time>2026-05-08T14:47:20.000Z</time>
        <extensions>
          <ns3:TrackPointExtension>
            <ns3:atemp>22.0</ns3:atemp>
            <ns3:hr>96</ns3:hr>
          </ns3:TrackPointExtension>
        </extensions>
      </trkpt>
      <trkpt lat="48.75933696515858173370361328125" lon="-3.56951854191720485687255859375">
        <ele>20.6000003814697265625</ele>
        <time>2026-05-08T14:47:26.000Z</time>
        <extensions>
          <ns3:TrackPointExtension>
            <ns3:atemp>22.0</ns3:atemp>
            <ns3:hr>95</ns3:hr>
          </ns3:TrackPointExtension>
        </extensions>
      </trkpt>
      <trkpt lat="48.75939161516726016998291015625" lon="-3.5695674084126949310302734375">
        <ele>21.6000003814697265625</ele>
        <time>2026-05-08T14:47:32.000Z</time>
        <extensions>
          <ns3:TrackPointExtension>
            <ns3:atemp>22.0</ns3:atemp>
            <ns3:hr>95</ns3:hr>
          </ns3:TrackPointExtension>
        </extensions>
      </trkpt>
      <trkpt lat="48.75939882360398769378662109375" lon="-3.5695831663906574249267578125">
        <ele>21.799999237060546875</ele>
        <time>2026-05-08T14:47:33.000Z</time>
        <extensions>
          <ns3:TrackPointExtension>
            <ns3:atemp>22.0</ns3:atemp>
            <ns3:hr>95</ns3:hr>
          </ns3:TrackPointExtension>
        </extensions>
      </trkpt>
      <trkpt lat="48.759397231042385101318359375" lon="-3.56969774700701236724853515625">
        <ele>22.200000762939453125</ele>
        <time>2026-05-08T14:47:39.000Z</time>
        <extensions>
          <ns3:TrackPointExtension>
            <ns3:atemp>22.0</ns3:atemp>
            <ns3:hr>98</ns3:hr>
          </ns3:TrackPointExtension>
        </extensions>
      </trkpt>
      <trkpt lat="48.75940921716392040252685546875" lon="-3.56981744058430194854736328125">
        <ele>22.200000762939453125</ele>
        <time>2026-05-08T14:47:45.000Z</time>
        <extensions>
          <ns3:TrackPointExtension>
            <ns3:atemp>22.0</ns3:atemp>
            <ns3:hr>100</ns3:hr>
          </ns3:TrackPointExtension>
        </extensions>
      </trkpt>
      <trkpt lat="48.75943042337894439697265625" lon="-3.56997015886008739471435546875">
        <ele>22.200000762939453125</ele>
        <time>2026-05-08T14:47:53.000Z</time>
        <extensions>
          <ns3:TrackPointExtension>
            <ns3:atemp>22.0</ns3:atemp>
            <ns3:hr>102</ns3:hr>
          </ns3:TrackPointExtension>
        </extensions>
      </trkpt>
      <trkpt lat="48.75945514999330043792724609375" lon="-3.5700939595699310302734375">
        <ele>22.3999996185302734375</ele>
        <time>2026-05-08T14:48:00.000Z</time>
        <extensions>
          <ns3:TrackPointExtension>
            <ns3:atemp>22.0</ns3:atemp>
            <ns3:hr>103</ns3:hr>
          </ns3:TrackPointExtension>
        </extensions>
      </trkpt>
      <trkpt lat="48.75945364125072956085205078125" lon="-3.5700921155512332916259765625">
        <ele>22.200000762939453125</ele>
        <time>2026-05-08T14:48:03.000Z</time>
        <extensions>
          <ns3:TrackPointExtension>
            <ns3:atemp>22.0</ns3:atemp>
            <ns3:hr>104</ns3:hr>
          </ns3:TrackPointExtension>
        </extensions>
      </trkpt>
      <trkpt lat="48.75945414416491985321044921875" lon="-3.5700870864093303680419921875">
        <ele>22.200000762939453125</ele>
        <time>2026-05-08T14:48:04.000Z</time>
        <extensions>
          <ns3:TrackPointExtension>
            <ns3:atemp>22.0</ns3:atemp>
            <ns3:hr>103</ns3:hr>
          </ns3:TrackPointExtension>
        </extensions>
      </trkpt>
      <trkpt lat="48.75945498235523700714111328125" lon="-3.5700874216854572296142578125">
        <ele>22.200000762939453125</ele>
        <time>2026-05-08T14:48:06.000Z</time>
        <extensions>
          <ns3:TrackPointExtension>
            <ns3:atemp>22.0</ns3:atemp>
            <ns3:hr>104</ns3:hr>
          </ns3:TrackPointExtension>
        </extensions>
      </trkpt>
      <trkpt lat="48.75947610475122928619384765625" lon="-3.5701383836567401885986328125">
        <ele>22.200000762939453125</ele>
        <time>2026-05-08T14:48:10.000Z</time>
        <extensions>
          <ns3:TrackPointExtension>
            <ns3:atemp>22.0</ns3:atemp>
            <ns3:hr>103</ns3:hr>
          </ns3:TrackPointExtension>
        </extensions>
      </trkpt>
      <trkpt lat="48.7595021724700927734375" lon="-3.57022010721266269683837890625">
        <ele>22.6000003814697265625</ele>
        <time>2026-05-08T14:48:15.000Z</time>
        <extensions>
          <ns3:TrackPointExtension>
            <ns3:atemp>22.0</ns3:atemp>
            <ns3:hr>104</ns3:hr>
          </ns3:TrackPointExtension>
        </extensions>
      </trkpt>
      <trkpt lat="48.7595130689442157745361328125" lon="-3.57025681994855403900146484375">
        <ele>22.799999237060546875</ele>
        <time>2026-05-08T14:48:17.000Z</time>
        <extensions>
          <ns3:TrackPointExtension>
            <ns3:atemp>22.0</ns3:atemp>
            <ns3:hr>103</ns3:hr>
          </ns3:TrackPointExtension>
        </extensions>
      </trkpt>
      <trkpt lat="48.7595583312213420867919921875" lon="-3.57040719129145145416259765625">
        <ele>23.200000762939453125</ele>
        <time>2026-05-08T14:48:26.000Z</time>
        <extensions>
          <ns3:TrackPointExtension>
            <ns3:atemp>22.0</ns3:atemp>
            <ns3:hr>104</ns3:hr>
          </ns3:TrackPointExtension>
        </extensions>
      </trkpt>
      <trkpt lat="48.7596134841442108154296875" lon="-3.570519424974918365478515625">
        <ele>23.6000003814697265625</ele>
        <time>2026-05-08T14:48:33.000Z</time>
        <extensions>
          <ns3:TrackPointExtension>
            <ns3:atemp>22.0</ns3:atemp>
            <ns3:hr>107</ns3:hr>
          </ns3:TrackPointExtension>
        </extensions>
      </trkpt>
      <trkpt lat="48.75962161459028720855712890625" lon="-3.5705323331058025360107421875">
        <ele>23.799999237060546875</ele>
        <time>2026-05-08T14:48:34.000Z</time>
        <extensions>
          <ns3:TrackPointExtension>
            <ns3:atemp>22.0</ns3:atemp>
            <ns3:hr>108</ns3:hr>
          </ns3:TrackPointExtension>
        </extensions>
      </trkpt>
      <trkpt lat="48.7596738338470458984375" lon="-3.57062897644937038421630859375">
        <ele>24.6000003814697265625</ele>
        <time>2026-05-08T14:48:41.000Z</time>
        <extensions>
          <ns3:TrackPointExtension>
            <ns3:atemp>22.0</ns3:atemp>
            <ns3:hr>110</ns3:hr>
          </ns3:TrackPointExtension>
        </extensions>
      </trkpt>
      <trkpt lat="48.75969302840530872344970703125" lon="-3.5707586444914340972900390625">
        <ele>24</ele>
        <time>2026-05-08T14:48:48.000Z</time>
        <extensions>
          <ns3:TrackPointExtension>
            <ns3:atemp>22.0</ns3:atemp>
            <ns3:hr>113</ns3:hr>
          </ns3:TrackPointExtension>
        </extensions>
      </trkpt>
      <trkpt lat="48.75969101674854755401611328125" lon="-3.570778928697109222412109375">
        <ele>24</ele>
        <time>2026-05-08T14:48:49.000Z</time>
        <extensions>
          <ns3:TrackPointExtension>
            <ns3:atemp>22.0</ns3:atemp>
            <ns3:hr>113</ns3:hr>
          </ns3:TrackPointExtension>
        </extensions>
      </trkpt>
      <trkpt lat="48.759730160236358642578125" lon="-3.57087255455553531646728515625">
        <ele>23.799999237060546875</ele>
        <time>2026-05-08T14:48:56.000Z</time>
        <extensions>
          <ns3:TrackPointExtension>
            <ns3:atemp>22.0</ns3:atemp>
            <ns3:hr>112</ns3:hr>
          </ns3:TrackPointExtension>
        </extensions>
      </trkpt>
      <trkpt lat="48.75981674529612064361572265625" lon="-3.57092284597456455230712890625">
        <ele>24.799999237060546875</ele>
        <time>2026-05-08T14:49:07.000Z</time>
        <extensions>
          <ns3:TrackPointExtension>
            <ns3:atemp>22.0</ns3:atemp>
            <ns3:hr>112</ns3:hr>
          </ns3:TrackPointExtension>
        </extensions>
      </trkpt>
      <trkpt lat="48.75984138809144496917724609375" lon="-3.5709764063358306884765625">
        <ele>25.3999996185302734375</ele>
        <time>2026-05-08T14:49:12.000Z</time>
        <extensions>
          <ns3:TrackPointExtension>
            <ns3:atemp>22.0</ns3:atemp>
            <ns3:hr>115</ns3:hr>
          </ns3:TrackPointExtension>
        </extensions>
      </trkpt>
      <trkpt lat="48.759847171604633331298828125" lon="-3.57102879323065280914306640625">
        <ele>25.3999996185302734375</ele>
        <time>2026-05-08T14:49:16.000Z</time>
        <extensions>
          <ns3:TrackPointExtension>
            <ns3:atemp>22.0</ns3:atemp>
            <ns3:hr>116</ns3:hr>
          </ns3:TrackPointExtension>
        </extensions>
      </trkpt>
      <trkpt lat="48.75985044054687023162841796875" lon="-3.5710835270583629608154296875">
        <ele>25.799999237060546875</ele>
        <time>2026-05-08T14:49:19.000Z</time>
        <extensions>
          <ns3:TrackPointExtension>
            <ns3:atemp>23.0</ns3:atemp>
            <ns3:hr>117</ns3:hr>
          </ns3:TrackPointExtension>
        </extensions>
      </trkpt>
      <trkpt lat="48.75985245220363140106201171875" lon="-3.57111495919525623321533203125">
        <ele>26.200000762939453125</ele>
        <time>2026-05-08T14:49:21.000Z</time>
        <extensions>
          <ns3:TrackPointExtension>
            <ns3:atemp>23.0</ns3:atemp>
            <ns3:hr>117</ns3:hr>
          </ns3:TrackPointExtension>
        </extensions>
      </trkpt>
      <trkpt lat="48.75985077582299709320068359375" lon="-3.57122358866035938262939453125">
        <ele>26.200000762939453125</ele>
        <time>2026-05-08T14:49:30.000Z</time>
        <extensions>
          <ns3:TrackPointExtension>
            <ns3:atemp>23.0</ns3:atemp>
            <ns3:hr>120</ns3:hr>
          </ns3:TrackPointExtension>
        </extensions>
      </trkpt>
      <trkpt lat="48.759857900440692901611328125" lon="-3.57125024311244487762451171875">
        <ele>26.200000762939453125</ele>
        <time>2026-05-08T14:49:38.000Z</time>
        <extensions>
          <ns3:TrackPointExtension>
            <ns3:atemp>23.0</ns3:atemp>
            <ns3:hr>120</ns3:hr>
          </ns3:TrackPointExtension>
        </extensions>
      </trkpt>
      <trkpt lat="48.759849853813648223876953125" lon="-3.57130204327404499053955078125">
        <ele>26.3999996185302734375</ele>
        <time>2026-05-08T14:49:44.000Z</time>
        <extensions>
          <ns3:TrackPointExtension>
            <ns3:atemp>23.0</ns3:atemp>
            <ns3:hr>117</ns3:hr>
          </ns3:TrackPointExtension>
        </extensions>
      </trkpt>
      <trkpt lat="48.75986049883067607879638671875" lon="-3.5713584534823894500732421875">
        <ele>26.200000762939453125</ele>
        <time>2026-05-08T14:49:50.000Z</time>
        <extensions>
          <ns3:TrackPointExtension>
            <ns3:atemp>23.0</ns3:atemp>
            <ns3:hr>116</ns3:hr>
          </ns3:TrackPointExtension>
        </extensions>
      </trkpt>
      <trkpt lat="48.7598637677729129791259765625" lon="-3.57148108072578907012939453125">
        <ele>26.3999996185302734375</ele>
        <time>2026-05-08T14:49:57.000Z</time>
        <extensions>
          <ns3:TrackPointExtension>
            <ns3:atemp>23.0</ns3:atemp>
            <ns3:hr>115</ns3:hr>
          </ns3:TrackPointExtension>
        </extensions>
      </trkpt>
      <trkpt lat="48.75985630787909030914306640625" lon="-3.57160815037786960601806640625">
        <ele>26</ele>
        <time>2026-05-08T14:50:03.000Z</time>
        <extensions>
          <ns3:TrackPointExtension>
            <ns3:atemp>23.0</ns3:atemp>
            <ns3:hr>114</ns3:hr>
          </ns3:TrackPointExtension>
        </extensions>
      </trkpt>
      <trkpt lat="48.75986552797257900238037109375" lon="-3.5717515647411346435546875">
        <ele>26.200000762939453125</ele>
        <time>2026-05-08T14:50:11.000Z</time>
        <extensions>
          <ns3:TrackPointExtension>
            <ns3:atemp>23.0</ns3:atemp>
            <ns3:hr>113</ns3:hr>
          </ns3:TrackPointExtension>
        </extensions>
      </trkpt>
      <trkpt lat="48.7598701380193233489990234375" lon="-3.571881316602230072021484375">
        <ele>26.200000762939453125</ele>
        <time>2026-05-08T14:50:18.000Z</time>
        <extensions>
          <ns3:TrackPointExtension>
            <ns3:atemp>23.0</ns3:atemp>
            <ns3:hr>113</ns3:hr>
          </ns3:TrackPointExtension>
        </extensions>
      </trkpt>
      <trkpt lat="48.75987290404736995697021484375" lon="-3.5719076357781887054443359375">
        <ele>26.3999996185302734375</ele>
        <time>2026-05-08T14:50:20.000Z</time>
        <extensions>
          <ns3:TrackPointExtension>
            <ns3:atemp>22.0</ns3:atemp>
            <ns3:hr>113</ns3:hr>
          </ns3:TrackPointExtension>
        </extensions>
      </trkpt>
      <trkpt lat="48.759864270687103271484375" lon="-3.57193202711641788482666015625">
        <ele>26</ele>
        <time>2026-05-08T14:50:23.000Z</time>
        <extensions>
          <ns3:TrackPointExtension>
            <ns3:atemp>22.0</ns3:atemp>
            <ns3:hr>113</ns3:hr>
          </ns3:TrackPointExtension>
        </extensions>
      </trkpt>
      <trkpt lat="48.75984507612884044647216796875" lon="-3.5719602741301059722900390625">
        <ele>25</ele>
        <time>2026-05-08T14:50:27.000Z</time>
        <extensions>
          <ns3:TrackPointExtension>
            <ns3:atemp>22.0</ns3:atemp>
            <ns3:hr>112</ns3:hr>
          </ns3:TrackPointExtension>
        </extensions>
      </trkpt>
      <trkpt lat="48.75984574668109416961669921875" lon="-3.5719659738242626190185546875">
        <ele>24.799999237060546875</ele>
        <time>2026-05-08T14:50:28.000Z</time>
        <extensions>
          <ns3:TrackPointExtension>
            <ns3:atemp>22.0</ns3:atemp>
            <ns3:hr>111</ns3:hr>
          </ns3:TrackPointExtension>
        </extensions>
      </trkpt>
      <trkpt lat="48.759825713932514190673828125" lon="-3.571989275515079498291015625">
        <ele>24</ele>
        <time>2026-05-08T14:50:35.000Z</time>
        <extensions>
          <ns3:TrackPointExtension>
            <ns3:atemp>22.0</ns3:atemp>
            <ns3:hr>110</ns3:hr>
          </ns3:TrackPointExtension>
        </extensions>
      </trkpt>
      <trkpt lat="48.75982009805738925933837890625" lon="-3.5719961486756801605224609375">
        <ele>23.799999237060546875</ele>
        <time>2026-05-08T14:50:36.000Z</time>
        <extensions>
          <ns3:TrackPointExtension>
            <ns3:atemp>22.0</ns3:atemp>
            <ns3:hr>110</ns3:hr>
          </ns3:TrackPointExtension>
        </extensions>
      </trkpt>
      <trkpt lat="48.75979847274720668792724609375" lon="-3.572034202516078948974609375">
        <ele>22.6000003814697265625</ele>
        <time>2026-05-08T14:50:41.000Z</time>
        <extensions>
          <ns3:TrackPointExtension>
            <ns3:atemp>22.0</ns3:atemp>
            <ns3:hr>110</ns3:hr>
          </ns3:TrackPointExtension>
        </extensions>
      </trkpt>
      <trkpt lat="48.75978288240730762481689453125" lon="-3.57204484753310680389404296875">
        <ele>21.799999237060546875</ele>
        <time>2026-05-08T14:50:44.000Z</time>
        <extensions>
          <ns3:TrackPointExtension>
            <ns3:atemp>22.0</ns3:atemp>
            <ns3:hr>109</ns3:hr>
          </ns3:TrackPointExtension>
        </extensions>
      </trkpt>
      <trkpt lat="48.75977634452283382415771484375" lon="-3.572053648531436920166015625">
        <ele>21.799999237060546875</ele>
        <time>2026-05-08T14:50:54.000Z</time>
        <extensions>
          <ns3:TrackPointExtension>
            <ns3:atemp>22.0</ns3:atemp>
            <ns3:hr>107</ns3:hr>
          </ns3:TrackPointExtension>
        </extensions>
      </trkpt>
      <trkpt lat="48.7597682140767574310302734375" lon="-3.5720923729240894317626953125">
        <ele>21.6000003814697265625</ele>
        <time>2026-05-08T14:50:58.000Z</time>
        <extensions>
          <ns3:TrackPointExtension>
            <ns3:atemp>22.0</ns3:atemp>
            <ns3:hr>104</ns3:hr>
          </ns3:TrackPointExtension>
        </extensions>
      </trkpt>
      <trkpt lat="48.75976444222033023834228515625" lon="-3.5721155069768428802490234375">
        <ele>21.3999996185302734375</ele>
        <time>2026-05-08T14:50:59.000Z</time>
        <extensions>
          <ns3:TrackPointExtension>
            <ns3:atemp>22.0</ns3:atemp>
            <ns3:hr>104</ns3:hr>
          </ns3:TrackPointExtension>
        </extensions>
      </trkpt>
      <trkpt lat="48.75976226292550563812255859375" lon="-3.572140149772167205810546875">
        <ele>21.200000762939453125</ele>
        <time>2026-05-08T14:51:00.000Z</time>
        <extensions>
          <ns3:TrackPointExtension>
            <ns3:atemp>22.0</ns3:atemp>
            <ns3:hr>103</ns3:hr>
          </ns3:TrackPointExtension>
        </extensions>
      </trkpt>
      <trkpt lat="48.75976058654487133026123046875" lon="-3.5722016729414463043212890625">
        <ele>20.3999996185302734375</ele>
        <time>2026-05-08T14:51:04.000Z</time>
        <extensions>
          <ns3:TrackPointExtension>
            <ns3:atemp>22.0</ns3:atemp>
            <ns3:hr>101</ns3:hr>
          </ns3:TrackPointExtension>
        </extensions>
      </trkpt>
      <trkpt lat="48.75975488685071468353271484375" lon="-3.572262860834598541259765625">
        <ele>19.799999237060546875</ele>
        <time>2026-05-08T14:51:08.000Z</time>
        <extensions>
          <ns3:TrackPointExtension>
            <ns3:atemp>22.0</ns3:atemp>
            <ns3:hr>101</ns3:hr>
          </ns3:TrackPointExtension>
        </extensions>
      </trkpt>
      <trkpt lat="48.75974818132817745208740234375" lon="-3.57231876812875270843505859375">
        <ele>19.200000762939453125</ele>
        <time>2026-05-08T14:51:11.000Z</time>
        <extensions>
          <ns3:TrackPointExtension>
            <ns3:atemp>22.0</ns3:atemp>
            <ns3:hr>100</ns3:hr>
          </ns3:TrackPointExtension>
        </extensions>
      </trkpt>
      <trkpt lat="48.759730495512485504150390625" lon="-3.5723666287958621978759765625">
        <ele>19.200000762939453125</ele>
        <time>2026-05-08T14:51:14.000Z</time>
        <extensions>
          <ns3:TrackPointExtension>
            <ns3:atemp>22.0</ns3:atemp>
            <ns3:hr>99</ns3:hr>
          </ns3:TrackPointExtension>
        </extensions>
      </trkpt>
      <trkpt lat="48.7596857361495494842529296875" lon="-3.57247400097548961639404296875">
        <ele>19.200000762939453125</ele>
        <time>2026-05-08T14:51:22.000Z</time>
        <extensions>
          <ns3:TrackPointExtension>
            <ns3:atemp>23.0</ns3:atemp>
            <ns3:hr>97</ns3:hr>
          </ns3:TrackPointExtension>
        </extensions>
      </trkpt>
      <trkpt lat="48.75967324711382389068603515625" lon="-3.5725701414048671722412109375">
        <ele>18.6000003814697265625</ele>
        <time>2026-05-08T14:51:28.000Z</time>
        <extensions>
          <ns3:TrackPointExtension>
            <ns3:atemp>23.0</ns3:atemp>
            <ns3:hr>96</ns3:hr>
          </ns3:TrackPointExtension>
        </extensions>
      </trkpt>
      <trkpt lat="48.7596917711198329925537109375" lon="-3.5726589895784854888916015625">
        <ele>18.6000003814697265625</ele>
        <time>2026-05-08T14:51:33.000Z</time>
        <extensions>
          <ns3:TrackPointExtension>
            <ns3:atemp>23.0</ns3:atemp>
            <ns3:hr>93</ns3:hr>
          </ns3:TrackPointExtension>
        </extensions>
      </trkpt>
      <trkpt lat="48.75970308668911457061767578125" lon="-3.57269645668566226959228515625">
        <ele>18.3999996185302734375</ele>
        <time>2026-05-08T14:51:35.000Z</time>
        <extensions>
          <ns3:TrackPointExtension>
            <ns3:atemp>23.0</ns3:atemp>
            <ns3:hr>91</ns3:hr>
          </ns3:TrackPointExtension>
        </extensions>
      </trkpt>
      <trkpt lat="48.75970861874520778656005859375" lon="-3.57271271757781505584716796875">
        <ele>18.200000762939453125</ele>
        <time>2026-05-08T14:51:36.000Z</time>
        <extensions>
          <ns3:TrackPointExtension>
            <ns3:atemp>23.0</ns3:atemp>
            <ns3:hr>91</ns3:hr>
          </ns3:TrackPointExtension>
        </extensions>
      </trkpt>
      <trkpt lat="48.7597073614597320556640625" lon="-3.57283651828765869140625">
        <ele>18.200000762939453125</ele>
        <time>2026-05-08T14:51:43.000Z</time>
        <extensions>
          <ns3:TrackPointExtension>
            <ns3:atemp>23.0</ns3:atemp>
            <ns3:hr>91</ns3:hr>
          </ns3:TrackPointExtension>
        </extensions>
      </trkpt>
      <trkpt lat="48.7597142346203327178955078125" lon="-3.57297255657613277435302734375">
        <ele>17.3999996185302734375</ele>
        <time>2026-05-08T14:51:49.000Z</time>
        <extensions>
          <ns3:TrackPointExtension>
            <ns3:atemp>23.0</ns3:atemp>
            <ns3:hr>89</ns3:hr>
          </ns3:TrackPointExtension>
        </extensions>
      </trkpt>
      <trkpt lat="48.7597564794123172760009765625" lon="-3.57303508557379245758056640625">
        <ele>17.6000003814697265625</ele>
        <time>2026-05-08T14:51:55.000Z</time>
        <extensions>
          <ns3:TrackPointExtension>
            <ns3:atemp>23.0</ns3:atemp>
            <ns3:hr>89</ns3:hr>
          </ns3:TrackPointExtension>
        </extensions>
      </trkpt>
      <trkpt lat="48.75979788601398468017578125" lon="-3.57309333980083465576171875">
        <ele>18.6000003814697265625</ele>
        <time>2026-05-08T14:52:02.000Z</time>
        <extensions>
          <ns3:TrackPointExtension>
            <ns3:atemp>23.0</ns3:atemp>
            <ns3:hr>89</ns3:hr>
          </ns3:TrackPointExtension>
        </extensions>
      </trkpt>
      <trkpt lat="48.759819678962230682373046875" lon="-3.5731208324432373046875">
        <ele>19.3999996185302734375</ele>
        <time>2026-05-08T14:52:05.000Z</time>
        <extensions>
          <ns3:TrackPointExtension>
            <ns3:atemp>23.0</ns3:atemp>
            <ns3:hr>90</ns3:hr>
          </ns3:TrackPointExtension>
        </extensions>
      </trkpt>
      <trkpt lat="48.759849183261394500732421875" lon="-3.57315771281719207763671875">
        <ele>20.3999996185302734375</ele>
        <time>2026-05-08T14:52:08.000Z</time>
        <extensions>
          <ns3:TrackPointExtension>
            <ns3:atemp>23.0</ns3:atemp>
            <ns3:hr>93</ns3:hr>
          </ns3:TrackPointExtension>
        </extensions>
      </trkpt>
      <trkpt lat="48.7598570622503757476806640625" lon="-3.5731702856719493865966796875">
        <ele>20.6000003814697265625</ele>
        <time>2026-05-08T14:52:09.000Z</time>
        <extensions>
          <ns3:TrackPointExtension>
            <ns3:atemp>23.0</ns3:atemp>
            <ns3:hr>94</ns3:hr>
          </ns3:TrackPointExtension>
        </extensions>
      </trkpt>
      <trkpt lat="48.75989578664302825927734375" lon="-3.5732145421206951141357421875">
        <ele>21.799999237060546875</ele>
        <time>2026-05-08T14:52:15.000Z</time>
        <extensions>
          <ns3:TrackPointExtension>
            <ns3:atemp>23.0</ns3:atemp>
            <ns3:hr>96</ns3:hr>
          </ns3:TrackPointExtension>
        </extensions>
      </trkpt>
      <trkpt lat="48.75991187989711761474609375" lon="-3.57325452379882335662841796875">
        <ele>22.799999237060546875</ele>
        <time>2026-05-08T14:52:19.000Z</time>
        <extensions>
          <ns3:TrackPointExtension>
            <ns3:atemp>22.0</ns3:atemp>
            <ns3:hr>97</ns3:hr>
          </ns3:TrackPointExtension>
        </extensions>
      </trkpt>
      <trkpt lat="48.7599165737628936767578125" lon="-3.57326156459748744964599609375">
        <ele>23</ele>
        <time>2026-05-08T14:52:20.000Z</time>
        <extensions>
          <ns3:TrackPointExtension>
            <ns3:atemp>22.0</ns3:atemp>
            <ns3:hr>98</ns3:hr>
          </ns3:TrackPointExtension>
        </extensions>
      </trkpt>
      <trkpt lat="48.75992663204669952392578125" lon="-3.5732842795550823211669921875">
        <ele>23.6000003814697265625</ele>
        <time>2026-05-08T14:52:23.000Z</time>
        <extensions>
          <ns3:TrackPointExtension>
            <ns3:atemp>22.0</ns3:atemp>
            <ns3:hr>101</ns3:hr>
          </ns3:TrackPointExtension>
        </extensions>
      </trkpt>
      <trkpt lat="48.75992855988442897796630859375" lon="-3.5732943378388881683349609375">
        <ele>23.799999237060546875</ele>
        <time>2026-05-08T14:52:26.000Z</time>
        <extensions>
          <ns3:TrackPointExtension>
            <ns3:atemp>22.0</ns3:atemp>
            <ns3:hr>104</ns3:hr>
          </ns3:TrackPointExtension>
        </extensions>
      </trkpt>
      <trkpt lat="48.75992855988442897796630859375" lon="-3.5732943378388881683349609375">
        <ele>23.3999996185302734375</ele>
        <time>2026-05-08T14:52:31.000Z</time>
        <extensions>
          <ns3:TrackPointExtension>
            <ns3:atemp>22.0</ns3:atemp>
            <ns3:hr>107</ns3:hr>
          </ns3:TrackPointExtension>
        </extensions>
      </trkpt>
      <trkpt lat="48.75992855988442897796630859375" lon="-3.5732943378388881683349609375">
        <ele>23.6000003814697265625</ele>
        <time>2026-05-08T14:52:35.000Z</time>
        <extensions>
          <ns3:TrackPointExtension>
            <ns3:atemp>22.0</ns3:atemp>
            <ns3:hr>108</ns3:hr>
          </ns3:TrackPointExtension>
        </extensions>
      </trkpt>
      <trkpt lat="48.75993878580629825592041015625" lon="-3.5733154602348804473876953125">
        <ele>24</ele>
        <time>2026-05-08T14:52:38.000Z</time>
        <extensions>
          <ns3:TrackPointExtension>
            <ns3:atemp>22.0</ns3:atemp>
            <ns3:hr>108</ns3:hr>
          </ns3:TrackPointExtension>
        </extensions>
      </trkpt>
      <trkpt lat="48.75995487906038761138916015625" lon="-3.57335560955107212066650390625">
        <ele>24.799999237060546875</ele>
        <time>2026-05-08T14:52:42.000Z</time>
        <extensions>
          <ns3:TrackPointExtension>
            <ns3:atemp>22.0</ns3:atemp>
            <ns3:hr>108</ns3:hr>
          </ns3:TrackPointExtension>
        </extensions>
      </trkpt>
      <trkpt lat="48.75995974056422710418701171875" lon="-3.57337907887995243072509765625">
        <ele>25.200000762939453125</ele>
        <time>2026-05-08T14:52:44.000Z</time>
        <extensions>
          <ns3:TrackPointExtension>
            <ns3:atemp>22.0</ns3:atemp>
            <ns3:hr>108</ns3:hr>
          </ns3:TrackPointExtension>
        </extensions>
      </trkpt>
      <trkpt lat="48.75998572446405887603759765625" lon="-3.57346214354038238525390625">
        <ele>26.200000762939453125</ele>
        <time>2026-05-08T14:52:50.000Z</time>
        <extensions>
          <ns3:TrackPointExtension>
            <ns3:atemp>22.0</ns3:atemp>
            <ns3:hr>111</ns3:hr>
          </ns3:TrackPointExtension>
        </extensions>
      </trkpt>
      <trkpt lat="48.7599998898804187774658203125" lon="-3.5735387541353702545166015625">
        <ele>27</ele>
        <time>2026-05-08T14:52:54.000Z</time>
        <extensions>
          <ns3:TrackPointExtension>
            <ns3:atemp>22.0</ns3:atemp>
            <ns3:hr>114</ns3:hr>
          </ns3:TrackPointExtension>
        </extensions>
      </trkpt>
      <trkpt lat="48.760002069175243377685546875" lon="-3.573568426072597503662109375">
        <ele>27.3999996185302734375</ele>
        <time>2026-05-08T14:52:56.000Z</time>
        <extensions>
          <ns3:TrackPointExtension>
            <ns3:atemp>22.0</ns3:atemp>
            <ns3:hr>118</ns3:hr>
          </ns3:TrackPointExtension>
        </extensions>
      </trkpt>
      <trkpt lat="48.760003745555877685546875" lon="-3.57358627952635288238525390625">
        <ele>27.6000003814697265625</ele>
        <time>2026-05-08T14:52:57.000Z</time>
        <extensions>
          <ns3:TrackPointExtension>
            <ns3:atemp>22.0</ns3:atemp>
            <ns3:hr>118</ns3:hr>
          </ns3:TrackPointExtension>
        </extensions>
      </trkpt>
      <trkpt lat="48.7600146420300006866455078125" lon="-3.573624081909656524658203125">
        <ele>28.3999996185302734375</ele>
        <time>2026-05-08T14:53:00.000Z</time>
        <extensions>
          <ns3:TrackPointExtension>
            <ns3:atemp>22.0</ns3:atemp>
            <ns3:hr>121</ns3:hr>
          </ns3:TrackPointExtension>
        </extensions>
      </trkpt>
      <trkpt lat="48.7600179947912693023681640625" lon="-3.57363657094538211822509765625">
        <ele>28.6000003814697265625</ele>
        <time>2026-05-08T14:53:01.000Z</time>
        <extensions>
          <ns3:TrackPointExtension>
            <ns3:atemp>22.0</ns3:atemp>
            <ns3:hr>121</ns3:hr>
          </ns3:TrackPointExtension>
        </extensions>
      </trkpt>
      <trkpt lat="48.76002394594252109527587890625" lon="-3.57366825453937053680419921875">
        <ele>29.200000762939453125</ele>
        <time>2026-05-08T14:53:04.000Z</time>
        <extensions>
          <ns3:TrackPointExtension>
            <ns3:atemp>22.0</ns3:atemp>
            <ns3:hr>122</ns3:hr>
          </ns3:TrackPointExtension>
        </extensions>
      </trkpt>
      <trkpt lat="48.760022185742855072021484375" lon="-3.573701195418834686279296875">
        <ele>29.6000003814697265625</ele>
        <time>2026-05-08T14:53:06.000Z</time>
        <extensions>
          <ns3:TrackPointExtension>
            <ns3:atemp>22.0</ns3:atemp>
            <ns3:hr>123</ns3:hr>
          </ns3:TrackPointExtension>
        </extensions>
      </trkpt>
      <trkpt lat="48.76000441610813140869140625" lon="-3.573770262300968170166015625">
        <ele>30.3999996185302734375</ele>
        <time>2026-05-08T14:53:11.000Z</time>
        <extensions>
          <ns3:TrackPointExtension>
            <ns3:atemp>22.0</ns3:atemp>
            <ns3:hr>125</ns3:hr>
          </ns3:TrackPointExtension>
        </extensions>
      </trkpt>
      <trkpt lat="48.75993543304502964019775390625" lon="-3.5738669894635677337646484375">
        <ele>28.799999237060546875</ele>
        <time>2026-05-08T14:53:19.000Z</time>
        <extensions>
          <ns3:TrackPointExtension>
            <ns3:atemp>22.0</ns3:atemp>
            <ns3:hr>127</ns3:hr>
          </ns3:TrackPointExtension>
        </extensions>
      </trkpt>
      <trkpt lat="48.7599160708487033843994140625" lon="-3.57389456592500209808349609375">
        <ele>28.6000003814697265625</ele>
        <time>2026-05-08T14:53:21.000Z</time>
        <extensions>
          <ns3:TrackPointExtension>
            <ns3:atemp>22.0</ns3:atemp>
            <ns3:hr>126</ns3:hr>
          </ns3:TrackPointExtension>
        </extensions>
      </trkpt>
      <trkpt lat="48.75987776555120944976806640625" lon="-3.57400151900947093963623046875">
        <ele>28.200000762939453125</ele>
        <time>2026-05-08T14:53:27.000Z</time>
        <extensions>
          <ns3:TrackPointExtension>
            <ns3:atemp>22.0</ns3:atemp>
            <ns3:hr>123</ns3:hr>
          </ns3:TrackPointExtension>
        </extensions>
      </trkpt>
      <trkpt lat="48.75987374223768711090087890625" lon="-3.57401601970195770263671875">
        <ele>28.200000762939453125</ele>
        <time>2026-05-08T14:53:28.000Z</time>
        <extensions>
          <ns3:TrackPointExtension>
            <ns3:atemp>22.0</ns3:atemp>
            <ns3:hr>123</ns3:hr>
          </ns3:TrackPointExtension>
        </extensions>
      </trkpt>
      <trkpt lat="48.7598527036607265472412109375" lon="-3.57410511933267116546630859375">
        <ele>28.200000762939453125</ele>
        <time>2026-05-08T14:53:33.000Z</time>
        <extensions>
          <ns3:TrackPointExtension>
            <ns3:atemp>22.0</ns3:atemp>
            <ns3:hr>120</ns3:hr>
          </ns3:TrackPointExtension>
        </extensions>
      </trkpt>
      <trkpt lat="48.759844489395618438720703125" lon="-3.5741717554628849029541015625">
        <ele>28.3999996185302734375</ele>
        <time>2026-05-08T14:53:37.000Z</time>
        <extensions>
          <ns3:TrackPointExtension>
            <ns3:atemp>22.0</ns3:atemp>
            <ns3:hr>119</ns3:hr>
          </ns3:TrackPointExtension>
        </extensions>
      </trkpt>
      <trkpt lat="48.75980836339294910430908203125" lon="-3.5743088833987712860107421875">
        <ele>29.200000762939453125</ele>
        <time>2026-05-08T14:53:45.000Z</time>
        <extensions>
          <ns3:TrackPointExtension>
            <ns3:atemp>22.0</ns3:atemp>
            <ns3:hr>118</ns3:hr>
          </ns3:TrackPointExtension>
        </extensions>
      </trkpt>
      <trkpt lat="48.7597605027258396148681640625" lon="-3.57438222505152225494384765625">
        <ele>29.3999996185302734375</ele>
        <time>2026-05-08T14:53:51.000Z</time>
        <extensions>
          <ns3:TrackPointExtension>
            <ns3:atemp>22.0</ns3:atemp>
            <ns3:hr>117</ns3:hr>
          </ns3:TrackPointExtension>
        </extensions>
      </trkpt>
      <trkpt lat="48.7597138993442058563232421875" lon="-3.57447559945285320281982421875">
        <ele>29.200000762939453125</ele>
        <time>2026-05-08T14:53:57.000Z</time>
        <extensions>
          <ns3:TrackPointExtension>
            <ns3:atemp>22.0</ns3:atemp>
            <ns3:hr>118</ns3:hr>
          </ns3:TrackPointExtension>
        </extensions>
      </trkpt>
      <trkpt lat="48.7596455030143260955810546875" lon="-3.5745968855917453765869140625">
        <ele>28.799999237060546875</ele>
        <time>2026-05-08T14:54:05.000Z</time>
        <extensions>
          <ns3:TrackPointExtension>
            <ns3:atemp>22.0</ns3:atemp>
            <ns3:hr>116</ns3:hr>
          </ns3:TrackPointExtension>
        </extensions>
      </trkpt>
      <trkpt lat="48.75956914387643337249755859375" lon="-3.574723117053508758544921875">
        <ele>28.3999996185302734375</ele>
        <time>2026-05-08T14:54:15.000Z</time>
        <extensions>
          <ns3:TrackPointExtension>
            <ns3:atemp>22.0</ns3:atemp>
            <ns3:hr>114</ns3:hr>
          </ns3:TrackPointExtension>
        </extensions>
      </trkpt>
      <trkpt lat="48.7595357000827789306640625" lon="-3.574762009084224700927734375">
        <ele>28</ele>
        <time>2026-05-08T14:54:21.000Z</time>
        <extensions>
          <ns3:TrackPointExtension>
            <ns3:atemp>22.0</ns3:atemp>
            <ns3:hr>111</ns3:hr>
          </ns3:TrackPointExtension>
        </extensions>
      </trkpt>
      <trkpt lat="48.75952505506575107574462890625" lon="-3.574766032397747039794921875">
        <ele>27.3999996185302734375</ele>
        <time>2026-05-08T14:54:23.000Z</time>
        <extensions>
          <ns3:TrackPointExtension>
            <ns3:atemp>22.0</ns3:atemp>
            <ns3:hr>110</ns3:hr>
          </ns3:TrackPointExtension>
        </extensions>
      </trkpt>
      <trkpt lat="48.7594807147979736328125" lon="-3.57477583922445774078369140625">
        <ele>26.200000762939453125</ele>
        <time>2026-05-08T14:54:27.000Z</time>
        <extensions>
          <ns3:TrackPointExtension>
            <ns3:atemp>22.0</ns3:atemp>
            <ns3:hr>110</ns3:hr>
          </ns3:TrackPointExtension>
        </extensions>
      </trkpt>
      <trkpt lat="48.7594471871852874755859375" lon="-3.57478983700275421142578125">
        <ele>25.3999996185302734375</ele>
        <time>2026-05-08T14:54:30.000Z</time>
        <extensions>
          <ns3:TrackPointExtension>
            <ns3:atemp>22.0</ns3:atemp>
            <ns3:hr>109</ns3:hr>
          </ns3:TrackPointExtension>
        </extensions>
      </trkpt>
      <trkpt lat="48.75943654216825962066650390625" lon="-3.57479411177337169647216796875">
        <ele>25.200000762939453125</ele>
        <time>2026-05-08T14:54:31.000Z</time>
        <extensions>
          <ns3:TrackPointExtension>
            <ns3:atemp>22.0</ns3:atemp>
            <ns3:hr>109</ns3:hr>
          </ns3:TrackPointExtension>
        </extensions>
      </trkpt>
      <trkpt lat="48.7594176828861236572265625" lon="-3.574826382100582122802734375">
        <ele>24.6000003814697265625</ele>
        <time>2026-05-08T14:54:34.000Z</time>
        <extensions>
          <ns3:TrackPointExtension>
            <ns3:atemp>22.0</ns3:atemp>
            <ns3:hr>108</ns3:hr>
          </ns3:TrackPointExtension>
        </extensions>
      </trkpt>
      <trkpt lat="48.7594205327332019805908203125" lon="-3.574869297444820404052734375">
        <ele>24.6000003814697265625</ele>
        <time>2026-05-08T14:54:37.000Z</time>
        <extensions>
          <ns3:TrackPointExtension>
            <ns3:atemp>22.0</ns3:atemp>
            <ns3:hr>108</ns3:hr>
          </ns3:TrackPointExtension>
        </extensions>
      </trkpt>
      <trkpt lat="48.75940502621233463287353515625" lon="-3.574904501438140869140625">
        <ele>25</ele>
        <time>2026-05-08T14:54:40.000Z</time>
        <extensions>
          <ns3:TrackPointExtension>
            <ns3:atemp>22.0</ns3:atemp>
            <ns3:hr>108</ns3:hr>
          </ns3:TrackPointExtension>
        </extensions>
      </trkpt>
      <trkpt lat="48.75938155688345432281494140625" lon="-3.57494330964982509613037109375">
        <ele>25.3999996185302734375</ele>
        <time>2026-05-08T14:54:43.000Z</time>
        <extensions>
          <ns3:TrackPointExtension>
            <ns3:atemp>22.0</ns3:atemp>
            <ns3:hr>107</ns3:hr>
          </ns3:TrackPointExtension>
        </extensions>
      </trkpt>
      <trkpt lat="48.75934191048145294189453125" lon="-3.575038611888885498046875">
        <ele>25.3999996185302734375</ele>
        <time>2026-05-08T14:54:50.000Z</time>
        <extensions>
          <ns3:TrackPointExtension>
            <ns3:atemp>22.0</ns3:atemp>
            <ns3:hr>108</ns3:hr>
          </ns3:TrackPointExtension>
        </extensions>
      </trkpt>
      <trkpt lat="48.7593108974397182464599609375" lon="-3.57513852417469024658203125">
        <ele>25.200000762939453125</ele>
        <time>2026-05-08T14:54:57.000Z</time>
        <extensions>
          <ns3:TrackPointExtension>
            <ns3:atemp>22.0</ns3:atemp>
            <ns3:hr>109</ns3:hr>
          </ns3:TrackPointExtension>
        </extensions>
      </trkpt>
      <trkpt lat="48.75932036899030208587646484375" lon="-3.5751852951943874359130859375">
        <ele>25.3999996185302734375</ele>
        <time>2026-05-08T14:55:04.000Z</time>
        <extensions>
          <ns3:TrackPointExtension>
            <ns3:atemp>22.0</ns3:atemp>
            <ns3:hr>108</ns3:hr>
          </ns3:TrackPointExtension>
        </extensions>
      </trkpt>
      <trkpt lat="48.759306371212005615234375" lon="-3.57518948614597320556640625">
        <ele>25.3999996185302734375</ele>
        <time>2026-05-08T14:55:09.000Z</time>
        <extensions>
          <ns3:TrackPointExtension>
            <ns3:atemp>22.0</ns3:atemp>
            <ns3:hr>107</ns3:hr>
          </ns3:TrackPointExtension>
        </extensions>
      </trkpt>
      <trkpt lat="48.75928667373955249786376953125" lon="-3.57523332349956035614013671875">
        <ele>25.3999996185302734375</ele>
        <time>2026-05-08T14:55:12.000Z</time>
        <extensions>
          <ns3:TrackPointExtension>
            <ns3:atemp>22.0</ns3:atemp>
            <ns3:hr>106</ns3:hr>
          </ns3:TrackPointExtension>
        </extensions>
      </trkpt>
      <trkpt lat="48.759274184703826904296875" lon="-3.57524715363979339599609375">
        <ele>25.200000762939453125</ele>
        <time>2026-05-08T14:55:17.000Z</time>
        <extensions>
          <ns3:TrackPointExtension>
            <ns3:atemp>22.0</ns3:atemp>
            <ns3:hr>103</ns3:hr>
          </ns3:TrackPointExtension>
        </extensions>
      </trkpt>
      <trkpt lat="48.75927544198930263519287109375" lon="-3.5752416215837001800537109375">
        <ele>25.200000762939453125</ele>
        <time>2026-05-08T14:55:19.000Z</time>
        <extensions>
          <ns3:TrackPointExtension>
            <ns3:atemp>22.0</ns3:atemp>
            <ns3:hr>103</ns3:hr>
          </ns3:TrackPointExtension>
        </extensions>
      </trkpt>
      <trkpt lat="48.75927292741835117340087890625" lon="-3.5752446390688419342041015625">
        <ele>25.200000762939453125</ele>
        <time>2026-05-08T14:55:21.000Z</time>
        <extensions>
          <ns3:TrackPointExtension>
            <ns3:atemp>21.0</ns3:atemp>
            <ns3:hr>102</ns3:hr>
          </ns3:TrackPointExtension>
        </extensions>
      </trkpt>
      <trkpt lat="48.75925197266042232513427734375" lon="-3.575329296290874481201171875">
        <ele>25</ele>
        <time>2026-05-08T14:55:27.000Z</time>
        <extensions>
          <ns3:TrackPointExtension>
            <ns3:atemp>21.0</ns3:atemp>
            <ns3:hr>100</ns3:hr>
          </ns3:TrackPointExtension>
        </extensions>
      </trkpt>
      <trkpt lat="48.7592240609228610992431640625" lon="-3.57540347613394260406494140625">
        <ele>24.799999237060546875</ele>
        <time>2026-05-08T14:55:34.000Z</time>
        <extensions>
          <ns3:TrackPointExtension>
            <ns3:atemp>21.0</ns3:atemp>
            <ns3:hr>101</ns3:hr>
          </ns3:TrackPointExtension>
        </extensions>
      </trkpt>
      <trkpt lat="48.75921039842069149017333984375" lon="-3.57543298043310642242431640625">
        <ele>24.200000762939453125</ele>
        <time>2026-05-08T14:55:38.000Z</time>
        <extensions>
          <ns3:TrackPointExtension>
            <ns3:atemp>21.0</ns3:atemp>
            <ns3:hr>102</ns3:hr>
          </ns3:TrackPointExtension>
        </extensions>
      </trkpt>
      <trkpt lat="48.75918676145374774932861328125" lon="-3.5754592157900333404541015625">
        <ele>23.3999996185302734375</ele>
        <time>2026-05-08T14:55:41.000Z</time>
        <extensions>
          <ns3:TrackPointExtension>
            <ns3:atemp>21.0</ns3:atemp>
            <ns3:hr>103</ns3:hr>
          </ns3:TrackPointExtension>
        </extensions>
      </trkpt>
      <trkpt lat="48.75917024910449981689453125" lon="-3.57548846863210201263427734375">
        <ele>23</ele>
        <time>2026-05-08T14:55:43.000Z</time>
        <extensions>
          <ns3:TrackPointExtension>
            <ns3:atemp>21.0</ns3:atemp>
            <ns3:hr>102</ns3:hr>
          </ns3:TrackPointExtension>
        </extensions>
      </trkpt>
      <trkpt lat="48.75913898460566997528076171875" lon="-3.57558519579470157623291015625">
        <ele>22.6000003814697265625</ele>
        <time>2026-05-08T14:55:48.000Z</time>
        <extensions>
          <ns3:TrackPointExtension>
            <ns3:atemp>21.0</ns3:atemp>
            <ns3:hr>102</ns3:hr>
          </ns3:TrackPointExtension>
        </extensions>
      </trkpt>
      <trkpt lat="48.759107552468776702880859375" lon="-3.5757123492658138275146484375">
        <ele>22.200000762939453125</ele>
        <time>2026-05-08T14:55:55.000Z</time>
        <extensions>
          <ns3:TrackPointExtension>
            <ns3:atemp>21.0</ns3:atemp>
            <ns3:hr>101</ns3:hr>
          </ns3:TrackPointExtension>
        </extensions>
      </trkpt>
      <trkpt lat="48.75910880975425243377685546875" lon="-3.57571746222674846649169921875">
        <ele>22</ele>
        <time>2026-05-08T14:55:59.000Z</time>
        <extensions>
          <ns3:TrackPointExtension>
            <ns3:atemp>21.0</ns3:atemp>
            <ns3:hr>101</ns3:hr>
          </ns3:TrackPointExtension>
        </extensions>
      </trkpt>
      <trkpt lat="48.75910880975425243377685546875" lon="-3.5757177136838436126708984375">
        <ele>21.799999237060546875</ele>
        <time>2026-05-08T14:56:01.000Z</time>
        <extensions>
          <ns3:TrackPointExtension>
            <ns3:atemp>21.0</ns3:atemp>
            <ns3:hr>101</ns3:hr>
          </ns3:TrackPointExtension>
        </extensions>
      </trkpt>
      <trkpt lat="48.75909875147044658660888671875" lon="-3.57575333677232265472412109375">
        <ele>21.200000762939453125</ele>
        <time>2026-05-08T14:56:12.000Z</time>
        <extensions>
          <ns3:TrackPointExtension>
            <ns3:atemp>21.0</ns3:atemp>
            <ns3:hr>100</ns3:hr>
          </ns3:TrackPointExtension>
        </extensions>
      </trkpt>
      <trkpt lat="48.75906698405742645263671875" lon="-3.575864396989345550537109375">
        <ele>21</ele>
        <time>2026-05-08T14:56:19.000Z</time>
        <extensions>
          <ns3:TrackPointExtension>
            <ns3:atemp>21.0</ns3:atemp>
            <ns3:hr>100</ns3:hr>
          </ns3:TrackPointExtension>
        </extensions>
      </trkpt>
      <trkpt lat="48.75905281864106655120849609375" lon="-3.57592600397765636444091796875">
        <ele>21</ele>
        <time>2026-05-08T14:56:23.000Z</time>
        <extensions>
          <ns3:TrackPointExtension>
            <ns3:atemp>21.0</ns3:atemp>
            <ns3:hr>101</ns3:hr>
          </ns3:TrackPointExtension>
        </extensions>
      </trkpt>
      <trkpt lat="48.75903639011085033416748046875" lon="-3.57599004171788692474365234375">
        <ele>20.6000003814697265625</ele>
        <time>2026-05-08T14:56:27.000Z</time>
        <extensions>
          <ns3:TrackPointExtension>
            <ns3:atemp>21.0</ns3:atemp>
            <ns3:hr>102</ns3:hr>
          </ns3:TrackPointExtension>
        </extensions>
      </trkpt>
      <trkpt lat="48.75901023857295513153076171875" lon="-3.5760995931923389434814453125">
        <ele>20.3999996185302734375</ele>
        <time>2026-05-08T14:56:34.000Z</time>
        <extensions>
          <ns3:TrackPointExtension>
            <ns3:atemp>21.0</ns3:atemp>
            <ns3:hr>102</ns3:hr>
          </ns3:TrackPointExtension>
        </extensions>
      </trkpt>
      <trkpt lat="48.758999593555927276611328125" lon="-3.57622473500669002532958984375">
        <ele>20.799999237060546875</ele>
        <time>2026-05-08T14:56:42.000Z</time>
        <extensions>
          <ns3:TrackPointExtension>
            <ns3:atemp>21.0</ns3:atemp>
            <ns3:hr>101</ns3:hr>
          </ns3:TrackPointExtension>
        </extensions>
      </trkpt>
      <trkpt lat="48.75898492522537708282470703125" lon="-3.5763634555041790008544921875">
        <ele>21</ele>
        <time>2026-05-08T14:56:50.000Z</time>
        <extensions>
          <ns3:TrackPointExtension>
            <ns3:atemp>21.0</ns3:atemp>
            <ns3:hr>99</ns3:hr>
          </ns3:TrackPointExtension>
        </extensions>
      </trkpt>
      <trkpt lat="48.7589612044394016265869140625" lon="-3.5764670558273792266845703125">
        <ele>21.200000762939453125</ele>
        <time>2026-05-08T14:56:56.000Z</time>
        <extensions>
          <ns3:TrackPointExtension>
            <ns3:atemp>21.0</ns3:atemp>
            <ns3:hr>98</ns3:hr>
          </ns3:TrackPointExtension>
        </extensions>
      </trkpt>
      <trkpt lat="48.7589555047452449798583984375" lon="-3.57662572525441646575927734375">
        <ele>21.200000762939453125</ele>
        <time>2026-05-08T14:57:05.000Z</time>
        <extensions>
          <ns3:TrackPointExtension>
            <ns3:atemp>21.0</ns3:atemp>
            <ns3:hr>100</ns3:hr>
          </ns3:TrackPointExtension>
        </extensions>
      </trkpt>
      <trkpt lat="48.7589558400213718414306640625" lon="-3.57673703692853450775146484375">
        <ele>20.3999996185302734375</ele>
        <time>2026-05-08T14:57:13.000Z</time>
        <extensions>
          <ns3:TrackPointExtension>
            <ns3:atemp>21.0</ns3:atemp>
            <ns3:hr>102</ns3:hr>
          </ns3:TrackPointExtension>
        </extensions>
      </trkpt>
      <trkpt lat="48.75895525328814983367919921875" lon="-3.57673737220466136932373046875">
        <ele>20.3999996185302734375</ele>
        <time>2026-05-08T14:57:18.000Z</time>
        <extensions>
          <ns3:TrackPointExtension>
            <ns3:atemp>21.0</ns3:atemp>
            <ns3:hr>99</ns3:hr>
          </ns3:TrackPointExtension>
        </extensions>
      </trkpt>
      <trkpt lat="48.75895525328814983367919921875" lon="-3.57673737220466136932373046875">
        <ele>20.3999996185302734375</ele>
        <time>2026-05-08T14:57:22.000Z</time>
        <extensions>
          <ns3:TrackPointExtension>
            <ns3:atemp>21.0</ns3:atemp>
            <ns3:hr>103</ns3:hr>
          </ns3:TrackPointExtension>
        </extensions>
      </trkpt>
      <trkpt lat="48.75895525328814983367919921875" lon="-3.57673737220466136932373046875">
        <ele>20.3999996185302734375</ele>
        <time>2026-05-08T14:57:23.000Z</time>
        <extensions>
          <ns3:TrackPointExtension>
            <ns3:atemp>21.0</ns3:atemp>
            <ns3:hr>108</ns3:hr>
          </ns3:TrackPointExtension>
        </extensions>
      </trkpt>
      <trkpt lat="48.758953996002674102783203125" lon="-3.57677106745541095733642578125">
        <ele>20.200000762939453125</ele>
        <time>2026-05-08T14:57:28.000Z</time>
        <extensions>
          <ns3:TrackPointExtension>
            <ns3:atemp>21.0</ns3:atemp>
            <ns3:hr>110</ns3:hr>
          </ns3:TrackPointExtension>
        </extensions>
      </trkpt>
      <trkpt lat="48.75894620083272457122802734375" lon="-3.5769094526767730712890625">
        <ele>20.6000003814697265625</ele>
        <time>2026-05-08T14:57:36.000Z</time>
        <extensions>
          <ns3:TrackPointExtension>
            <ns3:atemp>21.0</ns3:atemp>
            <ns3:hr>112</ns3:hr>
          </ns3:TrackPointExtension>
        </extensions>
      </trkpt>
      <trkpt lat="48.75894200988113880157470703125" lon="-3.57706611044704914093017578125">
        <ele>20.3999996185302734375</ele>
        <time>2026-05-08T14:57:44.000Z</time>
        <extensions>
          <ns3:TrackPointExtension>
            <ns3:atemp>21.0</ns3:atemp>
            <ns3:hr>112</ns3:hr>
          </ns3:TrackPointExtension>
        </extensions>
      </trkpt>
      <trkpt lat="48.75892189331352710723876953125" lon="-3.57723693363368511199951171875">
        <ele>20</ele>
        <time>2026-05-08T14:57:53.000Z</time>
        <extensions>
          <ns3:TrackPointExtension>
            <ns3:atemp>21.0</ns3:atemp>
            <ns3:hr>111</ns3:hr>
          </ns3:TrackPointExtension>
        </extensions>
      </trkpt>
      <trkpt lat="48.758917115628719329833984375" lon="-3.57728823088109493255615234375">
        <ele>20</ele>
        <time>2026-05-08T14:57:59.000Z</time>
        <extensions>
          <ns3:TrackPointExtension>
            <ns3:atemp>21.0</ns3:atemp>
            <ns3:hr>111</ns3:hr>
          </ns3:TrackPointExtension>
        </extensions>
      </trkpt>
      <trkpt lat="48.75895122997462749481201171875" lon="-3.57740088365972042083740234375">
        <ele>20.3999996185302734375</ele>
        <time>2026-05-08T14:58:05.000Z</time>
        <extensions>
          <ns3:TrackPointExtension>
            <ns3:atemp>21.0</ns3:atemp>
            <ns3:hr>111</ns3:hr>
          </ns3:TrackPointExtension>
        </extensions>
      </trkpt>
      <trkpt lat="48.75897034071385860443115234375" lon="-3.577496521174907684326171875">
        <ele>21</ele>
        <time>2026-05-08T14:58:10.000Z</time>
        <extensions>
          <ns3:TrackPointExtension>
            <ns3:atemp>21.0</ns3:atemp>
            <ns3:hr>109</ns3:hr>
          </ns3:TrackPointExtension>
        </extensions>
      </trkpt>
      <trkpt lat="48.75897520221769809722900390625" lon="-3.57752409763634204864501953125">
        <ele>21.200000762939453125</ele>
        <time>2026-05-08T14:58:16.000Z</time>
        <extensions>
          <ns3:TrackPointExtension>
            <ns3:atemp>21.0</ns3:atemp>
            <ns3:hr>110</ns3:hr>
          </ns3:TrackPointExtension>
        </extensions>
      </trkpt>
      <trkpt lat="48.75899783335626125335693359375" lon="-3.57763038016855716705322265625">
        <ele>21.799999237060546875</ele>
        <time>2026-05-08T14:58:23.000Z</time>
        <extensions>
          <ns3:TrackPointExtension>
            <ns3:atemp>21.0</ns3:atemp>
            <ns3:hr>113</ns3:hr>
          </ns3:TrackPointExtension>
        </extensions>
      </trkpt>
      <trkpt lat="48.75900303013622760772705078125" lon="-3.57769056223332881927490234375">
        <ele>22</ele>
        <time>2026-05-08T14:58:26.000Z</time>
        <extensions>
          <ns3:TrackPointExtension>
            <ns3:atemp>21.0</ns3:atemp>
            <ns3:hr>113</ns3:hr>
          </ns3:TrackPointExtension>
        </extensions>
      </trkpt>
      <trkpt lat="48.7589913792908191680908203125" lon="-3.5777623951435089111328125">
        <ele>21.6000003814697265625</ele>
        <time>2026-05-08T14:58:30.000Z</time>
        <extensions>
          <ns3:TrackPointExtension>
            <ns3:atemp>21.0</ns3:atemp>
            <ns3:hr>112</ns3:hr>
          </ns3:TrackPointExtension>
        </extensions>
      </trkpt>
      <trkpt lat="48.75895340926945209503173828125" lon="-3.577876389026641845703125">
        <ele>20.799999237060546875</ele>
        <time>2026-05-08T14:58:36.000Z</time>
        <extensions>
          <ns3:TrackPointExtension>
            <ns3:atemp>21.0</ns3:atemp>
            <ns3:hr>113</ns3:hr>
          </ns3:TrackPointExtension>
        </extensions>
      </trkpt>
      <trkpt lat="48.75894234515726566314697265625" lon="-3.577914945781230926513671875">
        <ele>20.6000003814697265625</ele>
        <time>2026-05-08T14:58:38.000Z</time>
        <extensions>
          <ns3:TrackPointExtension>
            <ns3:atemp>21.0</ns3:atemp>
            <ns3:hr>114</ns3:hr>
          </ns3:TrackPointExtension>
        </extensions>
      </trkpt>
      <trkpt lat="48.75894670374691486358642578125" lon="-3.578040339052677154541015625">
        <ele>20.6000003814697265625</ele>
        <time>2026-05-08T14:58:45.000Z</time>
        <extensions>
          <ns3:TrackPointExtension>
            <ns3:atemp>21.0</ns3:atemp>
            <ns3:hr>115</ns3:hr>
          </ns3:TrackPointExtension>
        </extensions>
      </trkpt>
      <trkpt lat="48.7589657306671142578125" lon="-3.57808752916753292083740234375">
        <ele>20.799999237060546875</ele>
        <time>2026-05-08T14:58:52.000Z</time>
        <extensions>
          <ns3:TrackPointExtension>
            <ns3:atemp>21.0</ns3:atemp>
            <ns3:hr>115</ns3:hr>
          </ns3:TrackPointExtension>
        </extensions>
      </trkpt>
      <trkpt lat="48.7589997611939907073974609375" lon="-3.57818928547203540802001953125">
        <ele>21.799999237060546875</ele>
        <time>2026-05-08T14:58:59.000Z</time>
        <extensions>
          <ns3:TrackPointExtension>
            <ns3:atemp>21.0</ns3:atemp>
            <ns3:hr>115</ns3:hr>
          </ns3:TrackPointExtension>
        </extensions>
      </trkpt>
      <trkpt lat="48.7590019404888153076171875" lon="-3.57820102013647556304931640625">
        <ele>21.799999237060546875</ele>
        <time>2026-05-08T14:59:00.000Z</time>
        <extensions>
          <ns3:TrackPointExtension>
            <ns3:atemp>21.0</ns3:atemp>
            <ns3:hr>116</ns3:hr>
          </ns3:TrackPointExtension>
        </extensions>
      </trkpt>
      <trkpt lat="48.7589836679399013519287109375" lon="-3.57830260880291461944580078125">
        <ele>22</ele>
        <time>2026-05-08T14:59:06.000Z</time>
        <extensions>
          <ns3:TrackPointExtension>
            <ns3:atemp>21.0</ns3:atemp>
            <ns3:hr>116</ns3:hr>
          </ns3:TrackPointExtension>
        </extensions>
      </trkpt>
      <trkpt lat="48.75894888304173946380615234375" lon="-3.578388690948486328125">
        <ele>20.799999237060546875</ele>
        <time>2026-05-08T14:59:12.000Z</time>
        <extensions>
          <ns3:TrackPointExtension>
            <ns3:atemp>21.0</ns3:atemp>
            <ns3:hr>117</ns3:hr>
          </ns3:TrackPointExtension>
        </extensions>
      </trkpt>
      <trkpt lat="48.7589444406330585479736328125" lon="-3.5784061253070831298828125">
        <ele>20.799999237060546875</ele>
        <time>2026-05-08T14:59:13.000Z</time>
        <extensions>
          <ns3:TrackPointExtension>
            <ns3:atemp>21.0</ns3:atemp>
            <ns3:hr>117</ns3:hr>
          </ns3:TrackPointExtension>
        </extensions>
      </trkpt>
      <trkpt lat="48.75891719944775104522705078125" lon="-3.57851031236350536346435546875">
        <ele>20</ele>
        <time>2026-05-08T14:59:19.000Z</time>
        <extensions>
          <ns3:TrackPointExtension>
            <ns3:atemp>21.0</ns3:atemp>
            <ns3:hr>116</ns3:hr>
          </ns3:TrackPointExtension>
        </extensions>
      </trkpt>
      <trkpt lat="48.758920133113861083984375" lon="-3.5785348713397979736328125">
        <ele>19.799999237060546875</ele>
        <time>2026-05-08T14:59:24.000Z</time>
        <extensions>
          <ns3:TrackPointExtension>
            <ns3:atemp>21.0</ns3:atemp>
            <ns3:hr>114</ns3:hr>
          </ns3:TrackPointExtension>
        </extensions>
      </trkpt>
      <trkpt lat="48.75891971401870250701904296875" lon="-3.57853646390140056610107421875">
        <ele>19.799999237060546875</ele>
        <time>2026-05-08T14:59:26.000Z</time>
        <extensions>
          <ns3:TrackPointExtension>
            <ns3:atemp>21.0</ns3:atemp>
            <ns3:hr>113</ns3:hr>
          </ns3:TrackPointExtension>
        </extensions>
      </trkpt>
      <trkpt lat="48.75889624468982219696044921875" lon="-3.57860469259321689605712890625">
        <ele>19.799999237060546875</ele>
        <time>2026-05-08T14:59:30.000Z</time>
        <extensions>
          <ns3:TrackPointExtension>
            <ns3:atemp>21.0</ns3:atemp>
            <ns3:hr>112</ns3:hr>
          </ns3:TrackPointExtension>
        </extensions>
      </trkpt>
      <trkpt lat="48.7588810734450817108154296875" lon="-3.57875456102192401885986328125">
        <ele>19.3999996185302734375</ele>
        <time>2026-05-08T14:59:37.000Z</time>
        <extensions>
          <ns3:TrackPointExtension>
            <ns3:atemp>21.0</ns3:atemp>
            <ns3:hr>112</ns3:hr>
          </ns3:TrackPointExtension>
        </extensions>
      </trkpt>
      <trkpt lat="48.7588545866310596466064453125" lon="-3.57891381718218326568603515625">
        <ele>19.3999996185302734375</ele>
        <time>2026-05-08T14:59:45.000Z</time>
        <extensions>
          <ns3:TrackPointExtension>
            <ns3:atemp>21.0</ns3:atemp>
            <ns3:hr>111</ns3:hr>
          </ns3:TrackPointExtension>
        </extensions>
      </trkpt>
      <trkpt lat="48.7588348053395748138427734375" lon="-3.5790128074586391448974609375">
        <ele>19.3999996185302734375</ele>
        <time>2026-05-08T14:59:51.000Z</time>
        <extensions>
          <ns3:TrackPointExtension>
            <ns3:atemp>21.0</ns3:atemp>
            <ns3:hr>110</ns3:hr>
          </ns3:TrackPointExtension>
        </extensions>
      </trkpt>
      <trkpt lat="48.7588297761976718902587890625" lon="-3.57909671030938625335693359375">
        <ele>18.799999237060546875</ele>
        <time>2026-05-08T14:59:57.000Z</time>
        <extensions>
          <ns3:TrackPointExtension>
            <ns3:atemp>21.0</ns3:atemp>
            <ns3:hr>110</ns3:hr>
          </ns3:TrackPointExtension>
        </extensions>
      </trkpt>
      <trkpt lat="48.75883002765476703643798828125" lon="-3.57916158623993396759033203125">
        <ele>18.799999237060546875</ele>
        <time>2026-05-08T15:00:01.000Z</time>
        <extensions>
          <ns3:TrackPointExtension>
            <ns3:atemp>21.0</ns3:atemp>
            <ns3:hr>111</ns3:hr>
          </ns3:TrackPointExtension>
        </extensions>
      </trkpt>
      <trkpt lat="48.75882902182638645172119140625" lon="-3.57917767949402332305908203125">
        <ele>18.799999237060546875</ele>
        <time>2026-05-08T15:00:02.000Z</time>
        <extensions>
          <ns3:TrackPointExtension>
            <ns3:atemp>21.0</ns3:atemp>
            <ns3:hr>110</ns3:hr>
          </ns3:TrackPointExtension>
        </extensions>
      </trkpt>
      <trkpt lat="48.7588156946003437042236328125" lon="-3.5792716406285762786865234375">
        <ele>18.6000003814697265625</ele>
        <time>2026-05-08T15:00:08.000Z</time>
        <extensions>
          <ns3:TrackPointExtension>
            <ns3:atemp>21.0</ns3:atemp>
            <ns3:hr>109</ns3:hr>
          </ns3:TrackPointExtension>
        </extensions>
      </trkpt>
      <trkpt lat="48.7587992660701274871826171875" lon="-3.5793561302125453948974609375">
        <ele>17.799999237060546875</ele>
        <time>2026-05-08T15:00:15.000Z</time>
        <extensions>
          <ns3:TrackPointExtension>
            <ns3:atemp>21.0</ns3:atemp>
            <ns3:hr>109</ns3:hr>
          </ns3:TrackPointExtension>
        </extensions>
      </trkpt>
      <trkpt lat="48.75879515893757343292236328125" lon="-3.57937146909534931182861328125">
        <ele>17.6000003814697265625</ele>
        <time>2026-05-08T15:00:16.000Z</time>
        <extensions>
          <ns3:TrackPointExtension>
            <ns3:atemp>21.0</ns3:atemp>
            <ns3:hr>108</ns3:hr>
          </ns3:TrackPointExtension>
        </extensions>
      </trkpt>
      <trkpt lat="48.75878811813890933990478515625" lon="-3.57938119210302829742431640625">
        <ele>17.3999996185302734375</ele>
        <time>2026-05-08T15:00:21.000Z</time>
        <extensions>
          <ns3:TrackPointExtension>
            <ns3:atemp>21.0</ns3:atemp>
            <ns3:hr>108</ns3:hr>
          </ns3:TrackPointExtension>
        </extensions>
      </trkpt>
      <trkpt lat="48.75878828577697277069091796875" lon="-3.5793769173324108123779296875">
        <ele>17.3999996185302734375</ele>
        <time>2026-05-08T15:00:23.000Z</time>
        <extensions>
          <ns3:TrackPointExtension>
            <ns3:atemp>21.0</ns3:atemp>
            <ns3:hr>108</ns3:hr>
          </ns3:TrackPointExtension>
        </extensions>
      </trkpt>
      <trkpt lat="48.758788369596004486083984375" lon="-3.57937666587531566619873046875">
        <ele>17.200000762939453125</ele>
        <time>2026-05-08T15:00:28.000Z</time>
        <extensions>
          <ns3:TrackPointExtension>
            <ns3:atemp>21.0</ns3:atemp>
            <ns3:hr>105</ns3:hr>
          </ns3:TrackPointExtension>
        </extensions>
      </trkpt>
      <trkpt lat="48.75878325663506984710693359375" lon="-3.57942678965628147125244140625">
        <ele>17.200000762939453125</ele>
        <time>2026-05-08T15:00:32.000Z</time>
        <extensions>
          <ns3:TrackPointExtension>
            <ns3:atemp>21.0</ns3:atemp>
            <ns3:hr>102</ns3:hr>
          </ns3:TrackPointExtension>
        </extensions>
      </trkpt>
      <trkpt lat="48.75877604819834232330322265625" lon="-3.57951764948666095733642578125">
        <ele>17.200000762939453125</ele>
        <time>2026-05-08T15:00:38.000Z</time>
        <extensions>
          <ns3:TrackPointExtension>
            <ns3:atemp>21.0</ns3:atemp>
            <ns3:hr>100</ns3:hr>
          </ns3:TrackPointExtension>
        </extensions>
      </trkpt>
      <trkpt lat="48.75874905847012996673583984375" lon="-3.57960901223123073577880859375">
        <ele>16.799999237060546875</ele>
        <time>2026-05-08T15:00:44.000Z</time>
        <extensions>
          <ns3:TrackPointExtension>
            <ns3:atemp>21.0</ns3:atemp>
            <ns3:hr>101</ns3:hr>
          </ns3:TrackPointExtension>
        </extensions>
      </trkpt>
      <trkpt lat="48.75874914228916168212890625" lon="-3.5796340741217136383056640625">
        <ele>16.6000003814697265625</ele>
        <time>2026-05-08T15:00:46.000Z</time>
        <extensions>
          <ns3:TrackPointExtension>
            <ns3:atemp>21.0</ns3:atemp>
            <ns3:hr>101</ns3:hr>
          </ns3:TrackPointExtension>
        </extensions>
      </trkpt>
      <trkpt lat="48.7587281875312328338623046875" lon="-3.579688556492328643798828125">
        <ele>16.3999996185302734375</ele>
        <time>2026-05-08T15:00:51.000Z</time>
        <extensions>
          <ns3:TrackPointExtension>
            <ns3:atemp>21.0</ns3:atemp>
            <ns3:hr>101</ns3:hr>
          </ns3:TrackPointExtension>
        </extensions>
      </trkpt>
      <trkpt lat="48.75871033407747745513916015625" lon="-3.5798426158726215362548828125">
        <ele>16</ele>
        <time>2026-05-08T15:00:59.000Z</time>
        <extensions>
          <ns3:TrackPointExtension>
            <ns3:atemp>21.0</ns3:atemp>
            <ns3:hr>101</ns3:hr>
          </ns3:TrackPointExtension>
        </extensions>
      </trkpt>
      <trkpt lat="48.7587100826203823089599609375" lon="-3.57989064417779445648193359375">
        <ele>15.80000019073486328125</ele>
        <time>2026-05-08T15:01:05.000Z</time>
        <extensions>
          <ns3:TrackPointExtension>
            <ns3:atemp>21.0</ns3:atemp>
            <ns3:hr>101</ns3:hr>
          </ns3:TrackPointExtension>
        </extensions>
      </trkpt>
      <trkpt lat="48.75868250615894794464111328125" lon="-3.57997194863855838775634765625">
        <ele>15.80000019073486328125</ele>
        <time>2026-05-08T15:01:14.000Z</time>
        <extensions>
          <ns3:TrackPointExtension>
            <ns3:atemp>21.0</ns3:atemp>
            <ns3:hr>100</ns3:hr>
          </ns3:TrackPointExtension>
        </extensions>
      </trkpt>
      <trkpt lat="48.75870396383106708526611328125" lon="-3.5800503194332122802734375">
        <ele>16.3999996185302734375</ele>
        <time>2026-05-08T15:01:19.000Z</time>
        <extensions>
          <ns3:TrackPointExtension>
            <ns3:atemp>21.0</ns3:atemp>
            <ns3:hr>101</ns3:hr>
          </ns3:TrackPointExtension>
        </extensions>
      </trkpt>
      <trkpt lat="48.75872558914124965667724609375" lon="-3.5801212303340435028076171875">
        <ele>17.3999996185302734375</ele>
        <time>2026-05-08T15:01:25.000Z</time>
        <extensions>
          <ns3:TrackPointExtension>
            <ns3:atemp>21.0</ns3:atemp>
            <ns3:hr>103</ns3:hr>
          </ns3:TrackPointExtension>
        </extensions>
      </trkpt>
      <trkpt lat="48.7587258405983448028564453125" lon="-3.5801307857036590576171875">
        <ele>17.3999996185302734375</ele>
        <time>2026-05-08T15:01:26.000Z</time>
        <extensions>
          <ns3:TrackPointExtension>
            <ns3:atemp>21.0</ns3:atemp>
            <ns3:hr>103</ns3:hr>
          </ns3:TrackPointExtension>
        </extensions>
      </trkpt>
      <trkpt lat="48.75872642733156681060791015625" lon="-3.5801369883120059967041015625">
        <ele>17.3999996185302734375</ele>
        <time>2026-05-08T15:01:32.000Z</time>
        <extensions>
          <ns3:TrackPointExtension>
            <ns3:atemp>21.0</ns3:atemp>
            <ns3:hr>110</ns3:hr>
          </ns3:TrackPointExtension>
        </extensions>
      </trkpt>
      <trkpt lat="48.75872642733156681060791015625" lon="-3.5801369883120059967041015625">
        <ele>17.200000762939453125</ele>
        <time>2026-05-08T15:01:33.000Z</time>
        <extensions>
          <ns3:TrackPointExtension>
            <ns3:atemp>21.0</ns3:atemp>
            <ns3:hr>112</ns3:hr>
          </ns3:TrackPointExtension>
        </extensions>
      </trkpt>
      <trkpt lat="48.75873598270118236541748046875" lon="-3.5801879502832889556884765625">
        <ele>16.799999237060546875</ele>
        <time>2026-05-08T15:01:40.000Z</time>
        <extensions>
          <ns3:TrackPointExtension>
            <ns3:atemp>21.0</ns3:atemp>
            <ns3:hr>111</ns3:hr>
          </ns3:TrackPointExtension>
        </extensions>
      </trkpt>
      <trkpt lat="48.75874687917530536651611328125" lon="-3.58021569438278675079345703125">
        <ele>17</ele>
        <time>2026-05-08T15:01:47.000Z</time>
        <extensions>
          <ns3:TrackPointExtension>
            <ns3:atemp>21.0</ns3:atemp>
            <ns3:hr>113</ns3:hr>
          </ns3:TrackPointExtension>
        </extensions>
      </trkpt>
      <trkpt lat="48.7587670795619487762451171875" lon="-3.58027336187660694122314453125">
        <ele>17</ele>
        <time>2026-05-08T15:01:55.000Z</time>
        <extensions>
          <ns3:TrackPointExtension>
            <ns3:atemp>21.0</ns3:atemp>
            <ns3:hr>112</ns3:hr>
          </ns3:TrackPointExtension>
        </extensions>
      </trkpt>
      <trkpt lat="48.75877202488481998443603515625" lon="-3.58029372990131378173828125">
        <ele>17.3999996185302734375</ele>
        <time>2026-05-08T15:02:00.000Z</time>
        <extensions>
          <ns3:TrackPointExtension>
            <ns3:atemp>21.0</ns3:atemp>
            <ns3:hr>111</ns3:hr>
          </ns3:TrackPointExtension>
        </extensions>
      </trkpt>
      <trkpt lat="48.75878937542438507080078125" lon="-3.5803348012268543243408203125">
        <ele>17.3999996185302734375</ele>
        <time>2026-05-08T15:02:06.000Z</time>
        <extensions>
          <ns3:TrackPointExtension>
            <ns3:atemp>21.0</ns3:atemp>
            <ns3:hr>109</ns3:hr>
          </ns3:TrackPointExtension>
        </extensions>
      </trkpt>
      <trkpt lat="48.7588317878544330596923828125" lon="-3.58035500161349773406982421875">
        <ele>17.200000762939453125</ele>
        <time>2026-05-08T15:02:13.000Z</time>
        <extensions>
          <ns3:TrackPointExtension>
            <ns3:atemp>21.0</ns3:atemp>
            <ns3:hr>108</ns3:hr>
          </ns3:TrackPointExtension>
        </extensions>
      </trkpt>
      <trkpt lat="48.758890293538570404052734375" lon="-3.58035483397543430328369140625">
        <ele>15.80000019073486328125</ele>
        <time>2026-05-08T15:02:21.000Z</time>
        <extensions>
          <ns3:TrackPointExtension>
            <ns3:atemp>21.0</ns3:atemp>
            <ns3:hr>109</ns3:hr>
          </ns3:TrackPointExtension>
        </extensions>
      </trkpt>
      <trkpt lat="48.75889607705175876617431640625" lon="-3.5803480446338653564453125">
        <ele>15.6000003814697265625</ele>
        <time>2026-05-08T15:02:22.000Z</time>
        <extensions>
          <ns3:TrackPointExtension>
            <ns3:atemp>21.0</ns3:atemp>
            <ns3:hr>109</ns3:hr>
          </ns3:TrackPointExtension>
        </extensions>
      </trkpt>
      <trkpt lat="48.758912421762943267822265625" lon="-3.5803185403347015380859375">
        <ele>15.80000019073486328125</ele>
        <time>2026-05-08T15:02:26.000Z</time>
        <extensions>
          <ns3:TrackPointExtension>
            <ns3:atemp>21.0</ns3:atemp>
            <ns3:hr>109</ns3:hr>
          </ns3:TrackPointExtension>
        </extensions>
      </trkpt>
      <trkpt lat="48.7589670717716217041015625" lon="-3.580338992178440093994140625">
        <ele>14.80000019073486328125</ele>
        <time>2026-05-08T15:02:34.000Z</time>
        <extensions>
          <ns3:TrackPointExtension>
            <ns3:atemp>21.0</ns3:atemp>
            <ns3:hr>109</ns3:hr>
          </ns3:TrackPointExtension>
        </extensions>
      </trkpt>
      <trkpt lat="48.75897352583706378936767578125" lon="-3.58034142293035984039306640625">
        <ele>14.6000003814697265625</ele>
        <time>2026-05-08T15:02:35.000Z</time>
        <extensions>
          <ns3:TrackPointExtension>
            <ns3:atemp>21.0</ns3:atemp>
            <ns3:hr>108</ns3:hr>
          </ns3:TrackPointExtension>
        </extensions>
      </trkpt>
      <trkpt lat="48.75901736319065093994140625" lon="-3.58034477569162845611572265625">
        <ele>13.80000019073486328125</ele>
        <time>2026-05-08T15:02:40.000Z</time>
        <extensions>
          <ns3:TrackPointExtension>
            <ns3:atemp>21.0</ns3:atemp>
            <ns3:hr>108</ns3:hr>
          </ns3:TrackPointExtension>
        </extensions>
      </trkpt>
      <trkpt lat="48.75903773121535778045654296875" lon="-3.58035198412835597991943359375">
        <ele>13.6000003814697265625</ele>
        <time>2026-05-08T15:02:42.000Z</time>
        <extensions>
          <ns3:TrackPointExtension>
            <ns3:atemp>21.0</ns3:atemp>
            <ns3:hr>108</ns3:hr>
          </ns3:TrackPointExtension>
        </extensions>
      </trkpt>
      <trkpt lat="48.75910378061234951019287109375" lon="-3.580377884209156036376953125">
        <ele>12.80000019073486328125</ele>
        <time>2026-05-08T15:02:50.000Z</time>
        <extensions>
          <ns3:TrackPointExtension>
            <ns3:atemp>21.0</ns3:atemp>
            <ns3:hr>106</ns3:hr>
          </ns3:TrackPointExtension>
        </extensions>
      </trkpt>
      <trkpt lat="48.7591730989515781402587890625" lon="-3.58035148121416568756103515625">
        <ele>13</ele>
        <time>2026-05-08T15:02:55.000Z</time>
        <extensions>
          <ns3:TrackPointExtension>
            <ns3:atemp>21.0</ns3:atemp>
            <ns3:hr>106</ns3:hr>
          </ns3:TrackPointExtension>
        </extensions>
      </trkpt>
      <trkpt lat="48.75923596322536468505859375" lon="-3.5802208073437213897705078125">
        <ele>13</ele>
        <time>2026-05-08T15:03:03.000Z</time>
        <extensions>
          <ns3:TrackPointExtension>
            <ns3:atemp>21.0</ns3:atemp>
            <ns3:hr>106</ns3:hr>
          </ns3:TrackPointExtension>
        </extensions>
      </trkpt>
      <trkpt lat="48.75926605425775051116943359375" lon="-3.58013723976910114288330078125">
        <ele>13.3999996185302734375</ele>
        <time>2026-05-08T15:03:09.000Z</time>
        <extensions>
          <ns3:TrackPointExtension>
            <ns3:atemp>21.0</ns3:atemp>
            <ns3:hr>106</ns3:hr>
          </ns3:TrackPointExtension>
        </extensions>
      </trkpt>
      <trkpt lat="48.7593450956046581268310546875" lon="-3.580066077411174774169921875">
        <ele>13.6000003814697265625</ele>
        <time>2026-05-08T15:03:17.000Z</time>
        <extensions>
          <ns3:TrackPointExtension>
            <ns3:atemp>21.0</ns3:atemp>
            <ns3:hr>105</ns3:hr>
          </ns3:TrackPointExtension>
        </extensions>
      </trkpt>
      <trkpt lat="48.759358339011669158935546875" lon="-3.5800538398325443267822265625">
        <ele>14</ele>
        <time>2026-05-08T15:03:19.000Z</time>
        <extensions>
          <ns3:TrackPointExtension>
            <ns3:atemp>21.0</ns3:atemp>
            <ns3:hr>105</ns3:hr>
          </ns3:TrackPointExtension>
        </extensions>
      </trkpt>
      <trkpt lat="48.7593585066497325897216796875" lon="-3.5800504870712757110595703125">
        <ele>14.3999996185302734375</ele>
        <time>2026-05-08T15:03:23.000Z</time>
        <extensions>
          <ns3:TrackPointExtension>
            <ns3:atemp>21.0</ns3:atemp>
            <ns3:hr>105</ns3:hr>
          </ns3:TrackPointExtension>
        </extensions>
      </trkpt>
      <trkpt lat="48.75937703065574169158935546875" lon="-3.580039925873279571533203125">
        <ele>14.19999980926513671875</ele>
        <time>2026-05-08T15:03:36.000Z</time>
        <extensions>
          <ns3:TrackPointExtension>
            <ns3:atemp>21.0</ns3:atemp>
            <ns3:hr>108</ns3:hr>
          </ns3:TrackPointExtension>
        </extensions>
      </trkpt>
      <trkpt lat="48.75938750803470611572265625" lon="-3.580038584768772125244140625">
        <ele>14.19999980926513671875</ele>
        <time>2026-05-08T15:03:37.000Z</time>
        <extensions>
          <ns3:TrackPointExtension>
            <ns3:atemp>21.0</ns3:atemp>
            <ns3:hr>108</ns3:hr>
          </ns3:TrackPointExtension>
        </extensions>
      </trkpt>
      <trkpt lat="48.75945867039263248443603515625" lon="-3.57997613959014415740966796875">
        <ele>14</ele>
        <time>2026-05-08T15:03:44.000Z</time>
        <extensions>
          <ns3:TrackPointExtension>
            <ns3:atemp>21.0</ns3:atemp>
            <ns3:hr>109</ns3:hr>
          </ns3:TrackPointExtension>
        </extensions>
      </trkpt>
      <trkpt lat="48.75948540866374969482421875" lon="-3.5799388401210308074951171875">
        <ele>13.6000003814697265625</ele>
        <time>2026-05-08T15:03:47.000Z</time>
        <extensions>
          <ns3:TrackPointExtension>
            <ns3:atemp>21.0</ns3:atemp>
            <ns3:hr>106</ns3:hr>
          </ns3:TrackPointExtension>
        </extensions>
      </trkpt>
      <trkpt lat="48.759511224925518035888671875" lon="-3.57988494448363780975341796875">
        <ele>13</ele>
        <time>2026-05-08T15:03:51.000Z</time>
        <extensions>
          <ns3:TrackPointExtension>
            <ns3:atemp>21.0</ns3:atemp>
            <ns3:hr>106</ns3:hr>
          </ns3:TrackPointExtension>
        </extensions>
      </trkpt>
      <trkpt lat="48.7595519609749317169189453125" lon="-3.5798167996108531951904296875">
        <ele>13.6000003814697265625</ele>
        <time>2026-05-08T15:03:57.000Z</time>
        <extensions>
          <ns3:TrackPointExtension>
            <ns3:atemp>21.0</ns3:atemp>
            <ns3:hr>109</ns3:hr>
          </ns3:TrackPointExtension>
        </extensions>
      </trkpt>
      <trkpt lat="48.7595598399639129638671875" lon="-3.57980648986995220184326171875">
        <ele>13.3999996185302734375</ele>
        <time>2026-05-08T15:03:58.000Z</time>
        <extensions>
          <ns3:TrackPointExtension>
            <ns3:atemp>21.0</ns3:atemp>
            <ns3:hr>109</ns3:hr>
          </ns3:TrackPointExtension>
        </extensions>
      </trkpt>
      <trkpt lat="48.75961138866841793060302734375" lon="-3.5796971060335636138916015625">
        <ele>13.19999980926513671875</ele>
        <time>2026-05-08T15:04:07.000Z</time>
        <extensions>
          <ns3:TrackPointExtension>
            <ns3:atemp>21.0</ns3:atemp>
            <ns3:hr>108</ns3:hr>
          </ns3:TrackPointExtension>
        </extensions>
      </trkpt>
      <trkpt lat="48.75962890684604644775390625" lon="-3.57965712435543537139892578125">
        <ele>13.3999996185302734375</ele>
        <time>2026-05-08T15:04:13.000Z</time>
        <extensions>
          <ns3:TrackPointExtension>
            <ns3:atemp>21.0</ns3:atemp>
            <ns3:hr>107</ns3:hr>
          </ns3:TrackPointExtension>
        </extensions>
      </trkpt>
      <trkpt lat="48.75967584550380706787109375" lon="-3.579577915370464324951171875">
        <ele>14.19999980926513671875</ele>
        <time>2026-05-08T15:04:22.000Z</time>
        <extensions>
          <ns3:TrackPointExtension>
            <ns3:atemp>21.0</ns3:atemp>
            <ns3:hr>106</ns3:hr>
          </ns3:TrackPointExtension>
        </extensions>
      </trkpt>
      <trkpt lat="48.75969327986240386962890625" lon="-3.57953860424458980560302734375">
        <ele>14.6000003814697265625</ele>
        <time>2026-05-08T15:04:25.000Z</time>
        <extensions>
          <ns3:TrackPointExtension>
            <ns3:atemp>21.0</ns3:atemp>
            <ns3:hr>107</ns3:hr>
          </ns3:TrackPointExtension>
        </extensions>
      </trkpt>
      <trkpt lat="48.7597179226577281951904296875" lon="-3.57945411466062068939208984375">
        <ele>15.19999980926513671875</ele>
        <time>2026-05-08T15:04:30.000Z</time>
        <extensions>
          <ns3:TrackPointExtension>
            <ns3:atemp>21.0</ns3:atemp>
            <ns3:hr>108</ns3:hr>
          </ns3:TrackPointExtension>
        </extensions>
      </trkpt>
      <trkpt lat="48.7597246281802654266357421875" lon="-3.57941488735377788543701171875">
        <ele>15.6000003814697265625</ele>
        <time>2026-05-08T15:04:33.000Z</time>
        <extensions>
          <ns3:TrackPointExtension>
            <ns3:atemp>21.0</ns3:atemp>
            <ns3:hr>109</ns3:hr>
          </ns3:TrackPointExtension>
        </extensions>
      </trkpt>
      <trkpt lat="48.7597276456654071807861328125" lon="-3.57936711050570011138916015625">
        <ele>16.200000762939453125</ele>
        <time>2026-05-08T15:04:37.000Z</time>
        <extensions>
          <ns3:TrackPointExtension>
            <ns3:atemp>21.0</ns3:atemp>
            <ns3:hr>110</ns3:hr>
          </ns3:TrackPointExtension>
        </extensions>
      </trkpt>
      <trkpt lat="48.75972840003669261932373046875" lon="-3.57934447936713695526123046875">
        <ele>16.799999237060546875</ele>
        <time>2026-05-08T15:04:39.000Z</time>
        <extensions>
          <ns3:TrackPointExtension>
            <ns3:atemp>21.0</ns3:atemp>
            <ns3:hr>110</ns3:hr>
          </ns3:TrackPointExtension>
        </extensions>
      </trkpt>
      <trkpt lat="48.75974063761532306671142578125" lon="-3.579306341707706451416015625">
        <ele>17.799999237060546875</ele>
        <time>2026-05-08T15:04:42.000Z</time>
        <extensions>
          <ns3:TrackPointExtension>
            <ns3:atemp>21.0</ns3:atemp>
            <ns3:hr>110</ns3:hr>
          </ns3:TrackPointExtension>
        </extensions>
      </trkpt>
      <trkpt lat="48.75975354574620723724365234375" lon="-3.57929569669067859649658203125">
        <ele>18.3999996185302734375</ele>
        <time>2026-05-08T15:04:44.000Z</time>
        <extensions>
          <ns3:TrackPointExtension>
            <ns3:atemp>21.0</ns3:atemp>
            <ns3:hr>110</ns3:hr>
          </ns3:TrackPointExtension>
        </extensions>
      </trkpt>
      <trkpt lat="48.759773410856723785400390625" lon="-3.5792907513678073883056640625">
        <ele>18.799999237060546875</ele>
        <time>2026-05-08T15:04:47.000Z</time>
        <extensions>
          <ns3:TrackPointExtension>
            <ns3:atemp>21.0</ns3:atemp>
            <ns3:hr>111</ns3:hr>
          </ns3:TrackPointExtension>
        </extensions>
      </trkpt>
      <trkpt lat="48.75980031676590442657470703125" lon="-3.5792706348001956939697265625">
        <ele>19.200000762939453125</ele>
        <time>2026-05-08T15:04:50.000Z</time>
        <extensions>
          <ns3:TrackPointExtension>
            <ns3:atemp>21.0</ns3:atemp>
            <ns3:hr>112</ns3:hr>
          </ns3:TrackPointExtension>
        </extensions>
      </trkpt>
      <trkpt lat="48.75985010527074337005615234375" lon="-3.57924087904393672943115234375">
        <ele>20</ele>
        <time>2026-05-08T15:04:55.000Z</time>
        <extensions>
          <ns3:TrackPointExtension>
            <ns3:atemp>21.0</ns3:atemp>
            <ns3:hr>112</ns3:hr>
          </ns3:TrackPointExtension>
        </extensions>
      </trkpt>
      <trkpt lat="48.75988262705504894256591796875" lon="-3.57921556569635868072509765625">
        <ele>20.200000762939453125</ele>
        <time>2026-05-08T15:04:58.000Z</time>
        <extensions>
          <ns3:TrackPointExtension>
            <ns3:atemp>21.0</ns3:atemp>
            <ns3:hr>114</ns3:hr>
          </ns3:TrackPointExtension>
        </extensions>
      </trkpt>
      <trkpt lat="48.75992336310446262359619140625" lon="-3.57920550741255283355712890625">
        <ele>20.799999237060546875</ele>
        <time>2026-05-08T15:05:02.000Z</time>
        <extensions>
          <ns3:TrackPointExtension>
            <ns3:atemp>21.0</ns3:atemp>
            <ns3:hr>117</ns3:hr>
          </ns3:TrackPointExtension>
        </extensions>
      </trkpt>
      <trkpt lat="48.75994465313851833343505859375" lon="-3.57919871807098388671875">
        <ele>20.799999237060546875</ele>
        <time>2026-05-08T15:05:04.000Z</time>
        <extensions>
          <ns3:TrackPointExtension>
            <ns3:atemp>21.0</ns3:atemp>
            <ns3:hr>118</ns3:hr>
          </ns3:TrackPointExtension>
        </extensions>
      </trkpt>
      <trkpt lat="48.7599928490817546844482421875" lon="-3.57918103225529193878173828125">
        <ele>20.799999237060546875</ele>
        <time>2026-05-08T15:05:09.000Z</time>
        <extensions>
          <ns3:TrackPointExtension>
            <ns3:atemp>21.0</ns3:atemp>
            <ns3:hr>121</ns3:hr>
          </ns3:TrackPointExtension>
        </extensions>
      </trkpt>
      <trkpt lat="48.75999913550913333892822265625" lon="-3.57918740250170230865478515625">
        <ele>20.799999237060546875</ele>
        <time>2026-05-08T15:05:10.000Z</time>
        <extensions>
          <ns3:TrackPointExtension>
            <ns3:atemp>21.0</ns3:atemp>
            <ns3:hr>121</ns3:hr>
          </ns3:TrackPointExtension>
        </extensions>
      </trkpt>
      <trkpt lat="48.76001874916255474090576171875" lon="-3.57918522320687770843505859375">
        <ele>21</ele>
        <time>2026-05-08T15:05:12.000Z</time>
        <extensions>
          <ns3:TrackPointExtension>
            <ns3:atemp>21.0</ns3:atemp>
            <ns3:hr>121</ns3:hr>
          </ns3:TrackPointExtension>
        </extensions>
      </trkpt>
      <trkpt lat="48.76008966006338596343994140625" lon="-3.57916544191539287567138671875">
        <ele>21.3999996185302734375</ele>
        <time>2026-05-08T15:05:19.000Z</time>
        <extensions>
          <ns3:TrackPointExtension>
            <ns3:atemp>23.0</ns3:atemp>
            <ns3:hr>121</ns3:hr>
          </ns3:TrackPointExtension>
        </extensions>
      </trkpt>
      <trkpt lat="48.760160319507122039794921875" lon="-3.57913761399686336517333984375">
        <ele>21.799999237060546875</ele>
        <time>2026-05-08T15:05:25.000Z</time>
        <extensions>
          <ns3:TrackPointExtension>
            <ns3:atemp>23.0</ns3:atemp>
            <ns3:hr>124</ns3:hr>
          </ns3:TrackPointExtension>
        </extensions>
      </trkpt>
      <trkpt lat="48.76017146743834018707275390625" lon="-3.57913258485496044158935546875">
        <ele>22</ele>
        <time>2026-05-08T15:05:26.000Z</time>
        <extensions>
          <ns3:TrackPointExtension>
            <ns3:atemp>23.0</ns3:atemp>
            <ns3:hr>124</ns3:hr>
          </ns3:TrackPointExtension>
        </extensions>
      </trkpt>
      <trkpt lat="48.76017934642732143402099609375" lon="-3.57912956736981868743896484375">
        <ele>22.200000762939453125</ele>
        <time>2026-05-08T15:05:27.000Z</time>
        <extensions>
          <ns3:TrackPointExtension>
            <ns3:atemp>23.0</ns3:atemp>
            <ns3:hr>123</ns3:hr>
          </ns3:TrackPointExtension>
        </extensions>
      </trkpt>
      <trkpt lat="48.7602577172219753265380859375" lon="-3.5791093669831752777099609375">
        <ele>23</ele>
        <time>2026-05-08T15:05:37.000Z</time>
        <extensions>
          <ns3:TrackPointExtension>
            <ns3:atemp>23.0</ns3:atemp>
            <ns3:hr>122</ns3:hr>
          </ns3:TrackPointExtension>
        </extensions>
      </trkpt>
      <trkpt lat="48.76029518432915210723876953125" lon="-3.57909771613776683807373046875">
        <ele>23.6000003814697265625</ele>
        <time>2026-05-08T15:05:44.000Z</time>
        <extensions>
          <ns3:TrackPointExtension>
            <ns3:atemp>23.0</ns3:atemp>
            <ns3:hr>119</ns3:hr>
          </ns3:TrackPointExtension>
        </extensions>
      </trkpt>
      <trkpt lat="48.76029585488140583038330078125" lon="-3.57909838669002056121826171875">
        <ele>23.6000003814697265625</ele>
        <time>2026-05-08T15:05:45.000Z</time>
        <extensions>
          <ns3:TrackPointExtension>
            <ns3:atemp>23.0</ns3:atemp>
            <ns3:hr>119</ns3:hr>
          </ns3:TrackPointExtension>
        </extensions>
      </trkpt>
      <trkpt lat="48.76030339859426021575927734375" lon="-3.57909679412841796875">
        <ele>23.3999996185302734375</ele>
        <time>2026-05-08T15:05:53.000Z</time>
        <extensions>
          <ns3:TrackPointExtension>
            <ns3:atemp>23.0</ns3:atemp>
            <ns3:hr>119</ns3:hr>
          </ns3:TrackPointExtension>
        </extensions>
      </trkpt>
      <trkpt lat="48.76029945909976959228515625" lon="-3.5790956206619739532470703125">
        <ele>23.200000762939453125</ele>
        <time>2026-05-08T15:06:01.000Z</time>
        <extensions>
          <ns3:TrackPointExtension>
            <ns3:atemp>23.0</ns3:atemp>
            <ns3:hr>116</ns3:hr>
          </ns3:TrackPointExtension>
        </extensions>
      </trkpt>
      <trkpt lat="48.76029887236654758453369140625" lon="-3.57909570448100566864013671875">
        <ele>23.200000762939453125</ele>
        <time>2026-05-08T15:06:02.000Z</time>
        <extensions>
          <ns3:TrackPointExtension>
            <ns3:atemp>23.0</ns3:atemp>
            <ns3:hr>112</ns3:hr>
          </ns3:TrackPointExtension>
        </extensions>
      </trkpt>
      <trkpt lat="48.76029468141496181488037109375" lon="-3.5790966264903545379638671875">
        <ele>23</ele>
        <time>2026-05-08T15:06:05.000Z</time>
        <extensions>
          <ns3:TrackPointExtension>
            <ns3:atemp>23.0</ns3:atemp>
            <ns3:hr>110</ns3:hr>
          </ns3:TrackPointExtension>
        </extensions>
      </trkpt>
      <trkpt lat="48.7602888979017734527587890625" lon="-3.5790962912142276763916015625">
        <ele>23</ele>
        <time>2026-05-08T15:06:10.000Z</time>
        <extensions>
          <ns3:TrackPointExtension>
            <ns3:atemp>23.0</ns3:atemp>
            <ns3:hr>113</ns3:hr>
          </ns3:TrackPointExtension>
        </extensions>
      </trkpt>
      <trkpt lat="48.7602895684540271759033203125" lon="-3.5790939442813396453857421875">
        <ele>23</ele>
        <time>2026-05-08T15:06:18.000Z</time>
        <extensions>
          <ns3:TrackPointExtension>
            <ns3:atemp>23.0</ns3:atemp>
            <ns3:hr>114</ns3:hr>
          </ns3:TrackPointExtension>
        </extensions>
      </trkpt>
      <trkpt lat="48.7603160552680492401123046875" lon="-3.5790758393704891204833984375">
        <ele>23.200000762939453125</ele>
        <time>2026-05-08T15:06:27.000Z</time>
        <extensions>
          <ns3:TrackPointExtension>
            <ns3:atemp>23.0</ns3:atemp>
            <ns3:hr>111</ns3:hr>
          </ns3:TrackPointExtension>
        </extensions>
      </trkpt>
      <trkpt lat="48.76032217405736446380615234375" lon="-3.5790661163628101348876953125">
        <ele>23.6000003814697265625</ele>
        <time>2026-05-08T15:06:29.000Z</time>
        <extensions>
          <ns3:TrackPointExtension>
            <ns3:atemp>23.0</ns3:atemp>
            <ns3:hr>108</ns3:hr>
          </ns3:TrackPointExtension>
        </extensions>
      </trkpt>
      <trkpt lat="48.7603405304253101348876953125" lon="-3.57905345968902111053466796875">
        <ele>24</ele>
        <time>2026-05-08T15:06:33.000Z</time>
        <extensions>
          <ns3:TrackPointExtension>
            <ns3:atemp>23.0</ns3:atemp>
            <ns3:hr>106</ns3:hr>
          </ns3:TrackPointExtension>
        </extensions>
      </trkpt>
      <trkpt lat="48.76035042107105255126953125" lon="-3.57902328483760356903076171875">
        <ele>25.200000762939453125</ele>
        <time>2026-05-08T15:06:38.000Z</time>
        <extensions>
          <ns3:TrackPointExtension>
            <ns3:atemp>23.0</ns3:atemp>
            <ns3:hr>105</ns3:hr>
          </ns3:TrackPointExtension>
        </extensions>
      </trkpt>
      <trkpt lat="48.760349750518798828125" lon="-3.57901389710605144500732421875">
        <ele>25.3999996185302734375</ele>
        <time>2026-05-08T15:06:39.000Z</time>
        <extensions>
          <ns3:TrackPointExtension>
            <ns3:atemp>23.0</ns3:atemp>
            <ns3:hr>105</ns3:hr>
          </ns3:TrackPointExtension>
        </extensions>
      </trkpt>
      <trkpt lat="48.76034446991980075836181640625" lon="-3.5789799503982067108154296875">
        <ele>26.3999996185302734375</ele>
        <time>2026-05-08T15:06:42.000Z</time>
        <extensions>
          <ns3:TrackPointExtension>
            <ns3:atemp>23.0</ns3:atemp>
            <ns3:hr>106</ns3:hr>
          </ns3:TrackPointExtension>
        </extensions>
      </trkpt>
      <trkpt lat="48.76034212298691272735595703125" lon="-3.57896176166832447052001953125">
        <ele>27</ele>
        <time>2026-05-08T15:06:44.000Z</time>
        <extensions>
          <ns3:TrackPointExtension>
            <ns3:atemp>23.0</ns3:atemp>
            <ns3:hr>109</ns3:hr>
          </ns3:TrackPointExtension>
        </extensions>
      </trkpt>
      <trkpt lat="48.7603495828807353973388671875" lon="-3.57894483022391796112060546875">
        <ele>27.6000003814697265625</ele>
        <time>2026-05-08T15:06:46.000Z</time>
        <extensions>
          <ns3:TrackPointExtension>
            <ns3:atemp>23.0</ns3:atemp>
            <ns3:hr>109</ns3:hr>
          </ns3:TrackPointExtension>
        </extensions>
      </trkpt>
      <trkpt lat="48.76035042107105255126953125" lon="-3.57894097454845905303955078125">
        <ele>27.799999237060546875</ele>
        <time>2026-05-08T15:06:47.000Z</time>
        <extensions>
          <ns3:TrackPointExtension>
            <ns3:atemp>23.0</ns3:atemp>
            <ns3:hr>110</ns3:hr>
          </ns3:TrackPointExtension>
        </extensions>
      </trkpt>
      <trkpt lat="48.760355450212955474853515625" lon="-3.5789387114346027374267578125">
        <ele>28</ele>
        <time>2026-05-08T15:06:49.000Z</time>
        <extensions>
          <ns3:TrackPointExtension>
            <ns3:atemp>23.0</ns3:atemp>
            <ns3:hr>113</ns3:hr>
          </ns3:TrackPointExtension>
        </extensions>
      </trkpt>
      <trkpt lat="48.76035176217555999755859375" lon="-3.5789343528449535369873046875">
        <ele>28.200000762939453125</ele>
        <time>2026-05-08T15:06:54.000Z</time>
        <extensions>
          <ns3:TrackPointExtension>
            <ns3:atemp>23.0</ns3:atemp>
            <ns3:hr>116</ns3:hr>
          </ns3:TrackPointExtension>
        </extensions>
      </trkpt>
      <trkpt lat="48.76034899614751338958740234375" lon="-3.57893242500722408294677734375">
        <ele>28.3999996185302734375</ele>
        <time>2026-05-08T15:06:55.000Z</time>
        <extensions>
          <ns3:TrackPointExtension>
            <ns3:atemp>23.0</ns3:atemp>
            <ns3:hr>116</ns3:hr>
          </ns3:TrackPointExtension>
        </extensions>
      </trkpt>
      <trkpt lat="48.760348744690418243408203125" lon="-3.5789085365831851959228515625">
        <ele>28.799999237060546875</ele>
        <time>2026-05-08T15:07:02.000Z</time>
        <extensions>
          <ns3:TrackPointExtension>
            <ns3:atemp>23.0</ns3:atemp>
            <ns3:hr>115</ns3:hr>
          </ns3:TrackPointExtension>
        </extensions>
      </trkpt>
      <trkpt lat="48.760348744690418243408203125" lon="-3.57890459708869457244873046875">
        <ele>29</ele>
        <time>2026-05-08T15:07:03.000Z</time>
        <extensions>
          <ns3:TrackPointExtension>
            <ns3:atemp>23.0</ns3:atemp>
            <ns3:hr>115</ns3:hr>
          </ns3:TrackPointExtension>
        </extensions>
      </trkpt>
      <trkpt lat="48.76035855151712894439697265625" lon="-3.57888950966298580169677734375">
        <ele>29</ele>
        <time>2026-05-08T15:07:10.000Z</time>
        <extensions>
          <ns3:TrackPointExtension>
            <ns3:atemp>23.0</ns3:atemp>
            <ns3:hr>112</ns3:hr>
          </ns3:TrackPointExtension>
        </extensions>
      </trkpt>
      <trkpt lat="48.760361485183238983154296875" lon="-3.57888364233076572418212890625">
        <ele>29</ele>
        <time>2026-05-08T15:07:11.000Z</time>
        <extensions>
          <ns3:TrackPointExtension>
            <ns3:atemp>23.0</ns3:atemp>
            <ns3:hr>108</ns3:hr>
          </ns3:TrackPointExtension>
        </extensions>
      </trkpt>
      <trkpt lat="48.76036542467772960662841796875" lon="-3.578877188265323638916015625">
        <ele>29</ele>
        <time>2026-05-08T15:07:12.000Z</time>
        <extensions>
          <ns3:TrackPointExtension>
            <ns3:atemp>23.0</ns3:atemp>
            <ns3:hr>105</ns3:hr>
          </ns3:TrackPointExtension>
        </extensions>
      </trkpt>
      <trkpt lat="48.7603713758289813995361328125" lon="-3.57886738143861293792724609375">
        <ele>29.200000762939453125</ele>
        <time>2026-05-08T15:07:13.000Z</time>
        <extensions>
          <ns3:TrackPointExtension>
            <ns3:atemp>23.0</ns3:atemp>
            <ns3:hr>102</ns3:hr>
          </ns3:TrackPointExtension>
        </extensions>
      </trkpt>
      <trkpt lat="48.76040381379425525665283203125" lon="-3.57883469201624393463134765625">
        <ele>29</ele>
        <time>2026-05-08T15:07:20.000Z</time>
        <extensions>
          <ns3:TrackPointExtension>
            <ns3:atemp>23.0</ns3:atemp>
            <ns3:hr>100</ns3:hr>
          </ns3:TrackPointExtension>
        </extensions>
      </trkpt>
      <trkpt lat="48.76041219569742679595947265625" lon="-3.5788213647902011871337890625">
        <ele>28.3999996185302734375</ele>
        <time>2026-05-08T15:07:25.000Z</time>
        <extensions>
          <ns3:TrackPointExtension>
            <ns3:atemp>23.0</ns3:atemp>
            <ns3:hr>105</ns3:hr>
          </ns3:TrackPointExtension>
        </extensions>
      </trkpt>
      <trkpt lat="48.76041688956320285797119140625" lon="-3.5788099654018878936767578125">
        <ele>28.3999996185302734375</ele>
        <time>2026-05-08T15:07:26.000Z</time>
        <extensions>
          <ns3:TrackPointExtension>
            <ns3:atemp>23.0</ns3:atemp>
            <ns3:hr>110</ns3:hr>
          </ns3:TrackPointExtension>
        </extensions>
      </trkpt>
      <trkpt lat="48.760421834886074066162109375" lon="-3.57880149967968463897705078125">
        <ele>28.200000762939453125</ele>
        <time>2026-05-08T15:07:27.000Z</time>
        <extensions>
          <ns3:TrackPointExtension>
            <ns3:atemp>23.0</ns3:atemp>
            <ns3:hr>115</ns3:hr>
          </ns3:TrackPointExtension>
        </extensions>
      </trkpt>
      <trkpt lat="48.7604364193975925445556640625" lon="-3.57877635397017002105712890625">
        <ele>27.799999237060546875</ele>
        <time>2026-05-08T15:07:29.000Z</time>
        <extensions>
          <ns3:TrackPointExtension>
            <ns3:atemp>23.0</ns3:atemp>
            <ns3:hr>118</ns3:hr>
          </ns3:TrackPointExtension>
        </extensions>
      </trkpt>
      <trkpt lat="48.76044572331011295318603515625" lon="-3.57876327820122241973876953125">
        <ele>27.3999996185302734375</ele>
        <time>2026-05-08T15:07:30.000Z</time>
        <extensions>
          <ns3:TrackPointExtension>
            <ns3:atemp>23.0</ns3:atemp>
            <ns3:hr>118</ns3:hr>
          </ns3:TrackPointExtension>
        </extensions>
      </trkpt>
      <trkpt lat="48.76046902500092983245849609375" lon="-3.578734360635280609130859375">
        <ele>26.6000003814697265625</ele>
        <time>2026-05-08T15:07:34.000Z</time>
        <extensions>
          <ns3:TrackPointExtension>
            <ns3:atemp>23.0</ns3:atemp>
            <ns3:hr>116</ns3:hr>
          </ns3:TrackPointExtension>
        </extensions>
      </trkpt>
      <trkpt lat="48.76049350015819072723388671875" lon="-3.57870762236416339874267578125">
        <ele>26.3999996185302734375</ele>
        <time>2026-05-08T15:07:37.000Z</time>
        <extensions>
          <ns3:TrackPointExtension>
            <ns3:atemp>23.0</ns3:atemp>
            <ns3:hr>116</ns3:hr>
          </ns3:TrackPointExtension>
        </extensions>
      </trkpt>
      <trkpt lat="48.76052610576152801513671875" lon="-3.5786681436002254486083984375">
        <ele>26</ele>
        <time>2026-05-08T15:07:41.000Z</time>
        <extensions>
          <ns3:TrackPointExtension>
            <ns3:atemp>23.0</ns3:atemp>
            <ns3:hr>116</ns3:hr>
          </ns3:TrackPointExtension>
        </extensions>
      </trkpt>
      <trkpt lat="48.76058435998857021331787109375" lon="-3.57856680639088153839111328125">
        <ele>26</ele>
        <time>2026-05-08T15:07:49.000Z</time>
        <extensions>
          <ns3:TrackPointExtension>
            <ns3:atemp>23.0</ns3:atemp>
            <ns3:hr>115</ns3:hr>
          </ns3:TrackPointExtension>
        </extensions>
      </trkpt>
      <trkpt lat="48.7606107629835605621337890625" lon="-3.5785518027842044830322265625">
        <ele>25.799999237060546875</ele>
        <time>2026-05-08T15:07:54.000Z</time>
        <extensions>
          <ns3:TrackPointExtension>
            <ns3:atemp>23.0</ns3:atemp>
            <ns3:hr>115</ns3:hr>
          </ns3:TrackPointExtension>
        </extensions>
      </trkpt>
      <trkpt lat="48.76061771996319293975830078125" lon="-3.57855691574513912200927734375">
        <ele>25.799999237060546875</ele>
        <time>2026-05-08T15:07:55.000Z</time>
        <extensions>
          <ns3:TrackPointExtension>
            <ns3:atemp>23.0</ns3:atemp>
            <ns3:hr>114</ns3:hr>
          </ns3:TrackPointExtension>
        </extensions>
      </trkpt>
      <trkpt lat="48.76062777824699878692626953125" lon="-3.578588180243968963623046875">
        <ele>25.200000762939453125</ele>
        <time>2026-05-08T15:07:58.000Z</time>
        <extensions>
          <ns3:TrackPointExtension>
            <ns3:atemp>23.0</ns3:atemp>
            <ns3:hr>114</ns3:hr>
          </ns3:TrackPointExtension>
        </extensions>
      </trkpt>
      <trkpt lat="48.76065619289875030517578125" lon="-3.5786393098533153533935546875">
        <ele>25.3999996185302734375</ele>
        <time>2026-05-08T15:08:02.000Z</time>
        <extensions>
          <ns3:TrackPointExtension>
            <ns3:atemp>23.0</ns3:atemp>
            <ns3:hr>114</ns3:hr>
          </ns3:TrackPointExtension>
        </extensions>
      </trkpt>
      <trkpt lat="48.7607254274189472198486328125" lon="-3.57866588048636913299560546875">
        <ele>25</ele>
        <time>2026-05-08T15:08:08.000Z</time>
        <extensions>
          <ns3:TrackPointExtension>
            <ns3:atemp>23.0</ns3:atemp>
            <ns3:hr>112</ns3:hr>
          </ns3:TrackPointExtension>
        </extensions>
      </trkpt>
      <trkpt lat="48.7607467174530029296875" lon="-3.57864894904196262359619140625">
        <ele>25</ele>
        <time>2026-05-08T15:08:10.000Z</time>
        <extensions>
          <ns3:TrackPointExtension>
            <ns3:atemp>23.0</ns3:atemp>
            <ns3:hr>112</ns3:hr>
          </ns3:TrackPointExtension>
        </extensions>
      </trkpt>
      <trkpt lat="48.76077312044799327850341796875" lon="-3.5786446742713451385498046875">
        <ele>25</ele>
        <time>2026-05-08T15:08:12.000Z</time>
        <extensions>
          <ns3:TrackPointExtension>
            <ns3:atemp>23.0</ns3:atemp>
            <ns3:hr>112</ns3:hr>
          </ns3:TrackPointExtension>
        </extensions>
      </trkpt>
      <trkpt lat="48.7607894651591777801513671875" lon="-3.57864408753812313079833984375">
        <ele>24.799999237060546875</ele>
        <time>2026-05-08T15:08:14.000Z</time>
        <extensions>
          <ns3:TrackPointExtension>
            <ns3:atemp>23.0</ns3:atemp>
            <ns3:hr>111</ns3:hr>
          </ns3:TrackPointExtension>
        </extensions>
      </trkpt>
      <trkpt lat="48.760824166238307952880859375" lon="-3.57864006422460079193115234375">
        <ele>24.200000762939453125</ele>
        <time>2026-05-08T15:08:18.000Z</time>
        <extensions>
          <ns3:TrackPointExtension>
            <ns3:atemp>23.0</ns3:atemp>
            <ns3:hr>110</ns3:hr>
          </ns3:TrackPointExtension>
        </extensions>
      </trkpt>
      <trkpt lat="48.7608226574957370758056640625" lon="-3.5786433331668376922607421875">
        <ele>24</ele>
        <time>2026-05-08T15:08:19.000Z</time>
        <extensions>
          <ns3:TrackPointExtension>
            <ns3:atemp>22.0</ns3:atemp>
            <ns3:hr>110</ns3:hr>
          </ns3:TrackPointExtension>
        </extensions>
      </trkpt>
      <trkpt lat="48.7608374096453189849853515625" lon="-3.57864593155682086944580078125">
        <ele>23.799999237060546875</ele>
        <time>2026-05-08T15:08:21.000Z</time>
        <extensions>
          <ns3:TrackPointExtension>
            <ns3:atemp>22.0</ns3:atemp>
            <ns3:hr>110</ns3:hr>
          </ns3:TrackPointExtension>
        </extensions>
      </trkpt>
      <trkpt lat="48.76089935190975666046142578125" lon="-3.57863235287368297576904296875">
        <ele>23.6000003814697265625</ele>
        <time>2026-05-08T15:08:27.000Z</time>
        <extensions>
          <ns3:TrackPointExtension>
            <ns3:atemp>22.0</ns3:atemp>
            <ns3:hr>107</ns3:hr>
          </ns3:TrackPointExtension>
        </extensions>
      </trkpt>
      <trkpt lat="48.7609235756099224090576171875" lon="-3.57862665317952632904052734375">
        <ele>23.200000762939453125</ele>
        <time>2026-05-08T15:08:29.000Z</time>
        <extensions>
          <ns3:TrackPointExtension>
            <ns3:atemp>22.0</ns3:atemp>
            <ns3:hr>106</ns3:hr>
          </ns3:TrackPointExtension>
        </extensions>
      </trkpt>
      <trkpt lat="48.76093455590307712554931640625" lon="-3.578619025647640228271484375">
        <ele>23</ele>
        <time>2026-05-08T15:08:32.000Z</time>
        <extensions>
          <ns3:TrackPointExtension>
            <ns3:atemp>22.0</ns3:atemp>
            <ns3:hr>106</ns3:hr>
          </ns3:TrackPointExtension>
        </extensions>
      </trkpt>
      <trkpt lat="48.76097512431442737579345703125" lon="-3.57859329320490360260009765625">
        <ele>23</ele>
        <time>2026-05-08T15:08:40.000Z</time>
        <extensions>
          <ns3:TrackPointExtension>
            <ns3:atemp>22.0</ns3:atemp>
            <ns3:hr>104</ns3:hr>
          </ns3:TrackPointExtension>
        </extensions>
      </trkpt>
      <trkpt lat="48.761030025780200958251953125" lon="-3.57856412418186664581298828125">
        <ele>24.200000762939453125</ele>
        <time>2026-05-08T15:08:47.000Z</time>
        <extensions>
          <ns3:TrackPointExtension>
            <ns3:atemp>22.0</ns3:atemp>
            <ns3:hr>104</ns3:hr>
          </ns3:TrackPointExtension>
        </extensions>
      </trkpt>
      <trkpt lat="48.7611022777855396270751953125" lon="-3.578540571033954620361328125">
        <ele>24.200000762939453125</ele>
        <time>2026-05-08T15:08:54.000Z</time>
        <extensions>
          <ns3:TrackPointExtension>
            <ns3:atemp>22.0</ns3:atemp>
            <ns3:hr>103</ns3:hr>
          </ns3:TrackPointExtension>
        </extensions>
      </trkpt>
      <trkpt lat="48.7611612863838672637939453125" lon="-3.57854492962360382080078125">
        <ele>24.200000762939453125</ele>
        <time>2026-05-08T15:09:02.000Z</time>
        <extensions>
          <ns3:TrackPointExtension>
            <ns3:atemp>22.0</ns3:atemp>
            <ns3:hr>103</ns3:hr>
          </ns3:TrackPointExtension>
        </extensions>
      </trkpt>
      <trkpt lat="48.76116170547902584075927734375" lon="-3.57854266650974750518798828125">
        <ele>24</ele>
        <time>2026-05-08T15:09:11.000Z</time>
        <extensions>
          <ns3:TrackPointExtension>
            <ns3:atemp>22.0</ns3:atemp>
            <ns3:hr>105</ns3:hr>
          </ns3:TrackPointExtension>
        </extensions>
      </trkpt>
      <trkpt lat="48.76116170547902584075927734375" lon="-3.57854266650974750518798828125">
        <ele>24</ele>
        <time>2026-05-08T15:09:14.000Z</time>
        <extensions>
          <ns3:TrackPointExtension>
            <ns3:atemp>22.0</ns3:atemp>
            <ns3:hr>109</ns3:hr>
          </ns3:TrackPointExtension>
        </extensions>
      </trkpt>
      <trkpt lat="48.7611817382276058197021484375" lon="-3.57850880362093448638916015625">
        <ele>23.6000003814697265625</ele>
        <time>2026-05-08T15:09:24.000Z</time>
        <extensions>
          <ns3:TrackPointExtension>
            <ns3:atemp>22.0</ns3:atemp>
            <ns3:hr>111</ns3:hr>
          </ns3:TrackPointExtension>
        </extensions>
      </trkpt>
      <trkpt lat="48.761253319680690765380859375" lon="-3.57845113612711429595947265625">
        <ele>24.3999996185302734375</ele>
        <time>2026-05-08T15:09:32.000Z</time>
        <extensions>
          <ns3:TrackPointExtension>
            <ns3:atemp>22.0</ns3:atemp>
            <ns3:hr>112</ns3:hr>
          </ns3:TrackPointExtension>
        </extensions>
      </trkpt>
      <trkpt lat="48.76130771823227405548095703125" lon="-3.578418195247650146484375">
        <ele>24</ele>
        <time>2026-05-08T15:09:39.000Z</time>
        <extensions>
          <ns3:TrackPointExtension>
            <ns3:atemp>22.0</ns3:atemp>
            <ns3:hr>112</ns3:hr>
          </ns3:TrackPointExtension>
        </extensions>
      </trkpt>
      <trkpt lat="48.76137443818151950836181640625" lon="-3.57840687967836856842041015625">
        <ele>23.200000762939453125</ele>
        <time>2026-05-08T15:09:46.000Z</time>
        <extensions>
          <ns3:TrackPointExtension>
            <ns3:atemp>22.0</ns3:atemp>
            <ns3:hr>111</ns3:hr>
          </ns3:TrackPointExtension>
        </extensions>
      </trkpt>
      <trkpt lat="48.7614549882709980010986328125" lon="-3.57838374562561511993408203125">
        <ele>23.6000003814697265625</ele>
        <time>2026-05-08T15:09:53.000Z</time>
        <extensions>
          <ns3:TrackPointExtension>
            <ns3:atemp>22.0</ns3:atemp>
            <ns3:hr>110</ns3:hr>
          </ns3:TrackPointExtension>
        </extensions>
      </trkpt>
      <trkpt lat="48.7615232169628143310546875" lon="-3.578363545238971710205078125">
        <ele>24</ele>
        <time>2026-05-08T15:09:59.000Z</time>
        <extensions>
          <ns3:TrackPointExtension>
            <ns3:atemp>22.0</ns3:atemp>
            <ns3:hr>110</ns3:hr>
          </ns3:TrackPointExtension>
        </extensions>
      </trkpt>
      <trkpt lat="48.7615800462663173675537109375" lon="-3.5783744417130947113037109375">
        <ele>24</ele>
        <time>2026-05-08T15:10:04.000Z</time>
        <extensions>
          <ns3:TrackPointExtension>
            <ns3:atemp>22.0</ns3:atemp>
            <ns3:hr>109</ns3:hr>
          </ns3:TrackPointExtension>
        </extensions>
      </trkpt>
      <trkpt lat="48.761646263301372528076171875" lon="-3.57837519608438014984130859375">
        <ele>23.200000762939453125</ele>
        <time>2026-05-08T15:10:09.000Z</time>
        <extensions>
          <ns3:TrackPointExtension>
            <ns3:atemp>22.0</ns3:atemp>
            <ns3:hr>107</ns3:hr>
          </ns3:TrackPointExtension>
        </extensions>
      </trkpt>
      <trkpt lat="48.76165824942290782928466796875" lon="-3.57837318442761898040771484375">
        <ele>23</ele>
        <time>2026-05-08T15:10:10.000Z</time>
        <extensions>
          <ns3:TrackPointExtension>
            <ns3:atemp>22.0</ns3:atemp>
            <ns3:hr>108</ns3:hr>
          </ns3:TrackPointExtension>
        </extensions>
      </trkpt>
      <trkpt lat="48.76172815449535846710205078125" lon="-3.57835122384130954742431640625">
        <ele>23.3999996185302734375</ele>
        <time>2026-05-08T15:10:17.000Z</time>
        <extensions>
          <ns3:TrackPointExtension>
            <ns3:atemp>22.0</ns3:atemp>
            <ns3:hr>108</ns3:hr>
          </ns3:TrackPointExtension>
        </extensions>
      </trkpt>
      <trkpt lat="48.7617996521294116973876953125" lon="-3.57829925604164600372314453125">
        <ele>23.799999237060546875</ele>
        <time>2026-05-08T15:10:24.000Z</time>
        <extensions>
          <ns3:TrackPointExtension>
            <ns3:atemp>22.0</ns3:atemp>
            <ns3:hr>108</ns3:hr>
          </ns3:TrackPointExtension>
        </extensions>
      </trkpt>
      <trkpt lat="48.761819936335086822509765625" lon="-3.578301854431629180908203125">
        <ele>23.6000003814697265625</ele>
        <time>2026-05-08T15:10:26.000Z</time>
        <extensions>
          <ns3:TrackPointExtension>
            <ns3:atemp>22.0</ns3:atemp>
            <ns3:hr>108</ns3:hr>
          </ns3:TrackPointExtension>
        </extensions>
      </trkpt>
      <trkpt lat="48.76189042814075946807861328125" lon="-3.57826757244765758514404296875">
        <ele>24</ele>
        <time>2026-05-08T15:10:33.000Z</time>
        <extensions>
          <ns3:TrackPointExtension>
            <ns3:atemp>22.0</ns3:atemp>
            <ns3:hr>109</ns3:hr>
          </ns3:TrackPointExtension>
        </extensions>
      </trkpt>
      <trkpt lat="48.76191792078316211700439453125" lon="-3.57826195657253265380859375">
        <ele>23.6000003814697265625</ele>
        <time>2026-05-08T15:10:36.000Z</time>
        <extensions>
          <ns3:TrackPointExtension>
            <ns3:atemp>22.0</ns3:atemp>
            <ns3:hr>109</ns3:hr>
          </ns3:TrackPointExtension>
        </extensions>
      </trkpt>
      <trkpt lat="48.76194239594042301177978515625" lon="-3.578258939087390899658203125">
        <ele>23.200000762939453125</ele>
        <time>2026-05-08T15:10:39.000Z</time>
        <extensions>
          <ns3:TrackPointExtension>
            <ns3:atemp>22.0</ns3:atemp>
            <ns3:hr>109</ns3:hr>
          </ns3:TrackPointExtension>
        </extensions>
      </trkpt>
      <trkpt lat="48.76202085055410861968994140625" lon="-3.5782490484416484832763671875">
        <ele>23</ele>
        <time>2026-05-08T15:10:47.000Z</time>
        <extensions>
          <ns3:TrackPointExtension>
            <ns3:atemp>22.0</ns3:atemp>
            <ns3:hr>109</ns3:hr>
          </ns3:TrackPointExtension>
        </extensions>
      </trkpt>
      <trkpt lat="48.762092851102352142333984375" lon="-3.578228093683719635009765625">
        <ele>23.3999996185302734375</ele>
        <time>2026-05-08T15:10:53.000Z</time>
        <extensions>
          <ns3:TrackPointExtension>
            <ns3:atemp>22.0</ns3:atemp>
            <ns3:hr>108</ns3:hr>
          </ns3:TrackPointExtension>
        </extensions>
      </trkpt>
      <trkpt lat="48.7621919251978397369384765625" lon="-3.578192889690399169921875">
        <ele>22.799999237060546875</ele>
        <time>2026-05-08T15:11:00.000Z</time>
        <extensions>
          <ns3:TrackPointExtension>
            <ns3:atemp>22.0</ns3:atemp>
            <ns3:hr>108</ns3:hr>
          </ns3:TrackPointExtension>
        </extensions>
      </trkpt>
      <trkpt lat="48.76227633096277713775634765625" lon="-3.5782011039555072784423828125">
        <ele>22.200000762939453125</ele>
        <time>2026-05-08T15:11:07.000Z</time>
        <extensions>
          <ns3:TrackPointExtension>
            <ns3:atemp>22.0</ns3:atemp>
            <ns3:hr>107</ns3:hr>
          </ns3:TrackPointExtension>
        </extensions>
      </trkpt>
      <trkpt lat="48.76228907145559787750244140625" lon="-3.57820454053580760955810546875">
        <ele>22</ele>
        <time>2026-05-08T15:11:08.000Z</time>
        <extensions>
          <ns3:TrackPointExtension>
            <ns3:atemp>22.0</ns3:atemp>
            <ns3:hr>107</ns3:hr>
          </ns3:TrackPointExtension>
        </extensions>
      </trkpt>
      <trkpt lat="48.76234573312103748321533203125" lon="-3.578190542757511138916015625">
        <ele>20.799999237060546875</ele>
        <time>2026-05-08T15:11:13.000Z</time>
        <extensions>
          <ns3:TrackPointExtension>
            <ns3:atemp>22.0</ns3:atemp>
            <ns3:hr>107</ns3:hr>
          </ns3:TrackPointExtension>
        </extensions>
      </trkpt>
      <trkpt lat="48.76235696487128734588623046875" lon="-3.57818157412111759185791015625">
        <ele>20.6000003814697265625</ele>
        <time>2026-05-08T15:11:14.000Z</time>
        <extensions>
          <ns3:TrackPointExtension>
            <ns3:atemp>22.0</ns3:atemp>
            <ns3:hr>107</ns3:hr>
          </ns3:TrackPointExtension>
        </extensions>
      </trkpt>
      <trkpt lat="48.762419410049915313720703125" lon="-3.57815056107938289642333984375">
        <ele>19.6000003814697265625</ele>
        <time>2026-05-08T15:11:20.000Z</time>
        <extensions>
          <ns3:TrackPointExtension>
            <ns3:atemp>22.0</ns3:atemp>
            <ns3:hr>108</ns3:hr>
          </ns3:TrackPointExtension>
        </extensions>
      </trkpt>
      <trkpt lat="48.76243156380951404571533203125" lon="-3.578144609928131103515625">
        <ele>19.3999996185302734375</ele>
        <time>2026-05-08T15:11:21.000Z</time>
        <extensions>
          <ns3:TrackPointExtension>
            <ns3:atemp>22.0</ns3:atemp>
            <ns3:hr>108</ns3:hr>
          </ns3:TrackPointExtension>
        </extensions>
      </trkpt>
      <trkpt lat="48.76244011335074901580810546875" lon="-3.57813379727303981781005859375">
        <ele>19.200000762939453125</ele>
        <time>2026-05-08T15:11:22.000Z</time>
        <extensions>
          <ns3:TrackPointExtension>
            <ns3:atemp>22.0</ns3:atemp>
            <ns3:hr>108</ns3:hr>
          </ns3:TrackPointExtension>
        </extensions>
      </trkpt>
      <trkpt lat="48.762469701468944549560546875" lon="-3.57810437679290771484375">
        <ele>18.6000003814697265625</ele>
        <time>2026-05-08T15:11:26.000Z</time>
        <extensions>
          <ns3:TrackPointExtension>
            <ns3:atemp>22.0</ns3:atemp>
            <ns3:hr>108</ns3:hr>
          </ns3:TrackPointExtension>
        </extensions>
      </trkpt>
      <trkpt lat="48.76250247471034526824951171875" lon="-3.57808400876820087432861328125">
        <ele>18.3999996185302734375</ele>
        <time>2026-05-08T15:11:29.000Z</time>
        <extensions>
          <ns3:TrackPointExtension>
            <ns3:atemp>22.0</ns3:atemp>
            <ns3:hr>109</ns3:hr>
          </ns3:TrackPointExtension>
        </extensions>
      </trkpt>
      <trkpt lat="48.76255259849131107330322265625" lon="-3.5780381597578525543212890625">
        <ele>17.6000003814697265625</ele>
        <time>2026-05-08T15:11:34.000Z</time>
        <extensions>
          <ns3:TrackPointExtension>
            <ns3:atemp>22.0</ns3:atemp>
            <ns3:hr>108</ns3:hr>
          </ns3:TrackPointExtension>
        </extensions>
      </trkpt>
      <trkpt lat="48.7625624053180217742919921875" lon="-3.57802801765501499176025390625">
        <ele>17.3999996185302734375</ele>
        <time>2026-05-08T15:11:35.000Z</time>
        <extensions>
          <ns3:TrackPointExtension>
            <ns3:atemp>22.0</ns3:atemp>
            <ns3:hr>109</ns3:hr>
          </ns3:TrackPointExtension>
        </extensions>
      </trkpt>
      <trkpt lat="48.7626197375357151031494140625" lon="-3.577954508364200592041015625">
        <ele>17.3999996185302734375</ele>
        <time>2026-05-08T15:11:41.000Z</time>
        <extensions>
          <ns3:TrackPointExtension>
            <ns3:atemp>22.0</ns3:atemp>
            <ns3:hr>109</ns3:hr>
          </ns3:TrackPointExtension>
        </extensions>
      </trkpt>
      <trkpt lat="48.762673549354076385498046875" lon="-3.577901534736156463623046875">
        <ele>17</ele>
        <time>2026-05-08T15:11:48.000Z</time>
        <extensions>
          <ns3:TrackPointExtension>
            <ns3:atemp>22.0</ns3:atemp>
            <ns3:hr>109</ns3:hr>
          </ns3:TrackPointExtension>
        </extensions>
      </trkpt>
      <trkpt lat="48.762741275131702423095703125" lon="-3.57787362299859523773193359375">
        <ele>16.799999237060546875</ele>
        <time>2026-05-08T15:11:54.000Z</time>
        <extensions>
          <ns3:TrackPointExtension>
            <ns3:atemp>22.0</ns3:atemp>
            <ns3:hr>109</ns3:hr>
          </ns3:TrackPointExtension>
        </extensions>
      </trkpt>
      <trkpt lat="48.762766085565090179443359375" lon="-3.57786473818123340606689453125">
        <ele>16.3999996185302734375</ele>
        <time>2026-05-08T15:11:56.000Z</time>
        <extensions>
          <ns3:TrackPointExtension>
            <ns3:atemp>22.0</ns3:atemp>
            <ns3:hr>109</ns3:hr>
          </ns3:TrackPointExtension>
        </extensions>
      </trkpt>
      <trkpt lat="48.76282685436308383941650390625" lon="-3.57784428633749485015869140625">
        <ele>15.3999996185302734375</ele>
        <time>2026-05-08T15:12:02.000Z</time>
        <extensions>
          <ns3:TrackPointExtension>
            <ns3:atemp>22.0</ns3:atemp>
            <ns3:hr>109</ns3:hr>
          </ns3:TrackPointExtension>
        </extensions>
      </trkpt>
      <trkpt lat="48.762897513806819915771484375" lon="-3.57783121056854724884033203125">
        <ele>14.6000003814697265625</ele>
        <time>2026-05-08T15:12:08.000Z</time>
        <extensions>
          <ns3:TrackPointExtension>
            <ns3:atemp>22.0</ns3:atemp>
            <ns3:hr>107</ns3:hr>
          </ns3:TrackPointExtension>
        </extensions>
      </trkpt>
      <trkpt lat="48.76294453628361225128173828125" lon="-3.57782333157956600189208984375">
        <ele>14.3999996185302734375</ele>
        <time>2026-05-08T15:12:11.000Z</time>
        <extensions>
          <ns3:TrackPointExtension>
            <ns3:atemp>22.0</ns3:atemp>
            <ns3:hr>107</ns3:hr>
          </ns3:TrackPointExtension>
        </extensions>
      </trkpt>
      <trkpt lat="48.76298393122851848602294921875" lon="-3.577811010181903839111328125">
        <ele>14.19999980926513671875</ele>
        <time>2026-05-08T15:12:15.000Z</time>
        <extensions>
          <ns3:TrackPointExtension>
            <ns3:atemp>22.0</ns3:atemp>
            <ns3:hr>107</ns3:hr>
          </ns3:TrackPointExtension>
        </extensions>
      </trkpt>
      <trkpt lat="48.76305232755839824676513671875" lon="-3.57781880535185337066650390625">
        <ele>14</ele>
        <time>2026-05-08T15:12:20.000Z</time>
        <extensions>
          <ns3:TrackPointExtension>
            <ns3:atemp>22.0</ns3:atemp>
            <ns3:hr>107</ns3:hr>
          </ns3:TrackPointExtension>
        </extensions>
      </trkpt>
      <trkpt lat="48.7631273455917835235595703125" lon="-3.57784328050911426544189453125">
        <ele>13.19999980926513671875</ele>
        <time>2026-05-08T15:12:27.000Z</time>
        <extensions>
          <ns3:TrackPointExtension>
            <ns3:atemp>22.0</ns3:atemp>
            <ns3:hr>107</ns3:hr>
          </ns3:TrackPointExtension>
        </extensions>
      </trkpt>
      <trkpt lat="48.76320563256740570068359375" lon="-3.5778621397912502288818359375">
        <ele>12.6000003814697265625</ele>
        <time>2026-05-08T15:12:33.000Z</time>
        <extensions>
          <ns3:TrackPointExtension>
            <ns3:atemp>22.0</ns3:atemp>
            <ns3:hr>107</ns3:hr>
          </ns3:TrackPointExtension>
        </extensions>
      </trkpt>
      <trkpt lat="48.76327277161180973052978515625" lon="-3.57787932269275188446044921875">
        <ele>12.19999980926513671875</ele>
        <time>2026-05-08T15:12:39.000Z</time>
        <extensions>
          <ns3:TrackPointExtension>
            <ns3:atemp>22.0</ns3:atemp>
            <ns3:hr>106</ns3:hr>
          </ns3:TrackPointExtension>
        </extensions>
      </trkpt>
      <trkpt lat="48.76336463727056980133056640625" lon="-3.5779224894940853118896484375">
        <ele>11.3999996185302734375</ele>
        <time>2026-05-08T15:12:47.000Z</time>
        <extensions>
          <ns3:TrackPointExtension>
            <ns3:atemp>22.0</ns3:atemp>
            <ns3:hr>105</ns3:hr>
          </ns3:TrackPointExtension>
        </extensions>
      </trkpt>
      <trkpt lat="48.76338458620011806488037109375" lon="-3.57792743481695652008056640625">
        <ele>11.19999980926513671875</ele>
        <time>2026-05-08T15:12:49.000Z</time>
        <extensions>
          <ns3:TrackPointExtension>
            <ns3:atemp>22.0</ns3:atemp>
            <ns3:hr>104</ns3:hr>
          </ns3:TrackPointExtension>
        </extensions>
      </trkpt>
      <trkpt lat="48.76342817209661006927490234375" lon="-3.57798158191144466400146484375">
        <ele>10.80000019073486328125</ele>
        <time>2026-05-08T15:12:55.000Z</time>
        <extensions>
          <ns3:TrackPointExtension>
            <ns3:atemp>22.0</ns3:atemp>
            <ns3:hr>104</ns3:hr>
          </ns3:TrackPointExtension>
        </extensions>
      </trkpt>
      <trkpt lat="48.76345616765320301055908203125" lon="-3.57800756581127643585205078125">
        <ele>10.19999980926513671875</ele>
        <time>2026-05-08T15:13:00.000Z</time>
        <extensions>
          <ns3:TrackPointExtension>
            <ns3:atemp>22.0</ns3:atemp>
            <ns3:hr>104</ns3:hr>
          </ns3:TrackPointExtension>
        </extensions>
      </trkpt>
      <trkpt lat="48.76345868222415447235107421875" lon="-3.57801862992346286773681640625">
        <ele>10</ele>
        <time>2026-05-08T15:13:01.000Z</time>
        <extensions>
          <ns3:TrackPointExtension>
            <ns3:atemp>22.0</ns3:atemp>
            <ns3:hr>103</ns3:hr>
          </ns3:TrackPointExtension>
        </extensions>
      </trkpt>
      <trkpt lat="48.7634984962642192840576171875" lon="-3.5780861042439937591552734375">
        <ele>9.19999980926513671875</ele>
        <time>2026-05-08T15:13:07.000Z</time>
        <extensions>
          <ns3:TrackPointExtension>
            <ns3:atemp>22.0</ns3:atemp>
            <ns3:hr>104</ns3:hr>
          </ns3:TrackPointExtension>
        </extensions>
      </trkpt>
      <trkpt lat="48.7636108137667179107666015625" lon="-3.57812893576920032501220703125">
        <ele>9.19999980926513671875</ele>
        <time>2026-05-08T15:13:16.000Z</time>
        <extensions>
          <ns3:TrackPointExtension>
            <ns3:atemp>22.0</ns3:atemp>
            <ns3:hr>104</ns3:hr>
          </ns3:TrackPointExtension>
        </extensions>
      </trkpt>
      <trkpt lat="48.76366437412798404693603515625" lon="-3.57813991606235504150390625">
        <ele>9</ele>
        <time>2026-05-08T15:13:21.000Z</time>
        <extensions>
          <ns3:TrackPointExtension>
            <ns3:atemp>22.0</ns3:atemp>
            <ns3:hr>105</ns3:hr>
          </ns3:TrackPointExtension>
        </extensions>
      </trkpt>
      <trkpt lat="48.763687424361705780029296875" lon="-3.578155338764190673828125">
        <ele>9</ele>
        <time>2026-05-08T15:13:23.000Z</time>
        <extensions>
          <ns3:TrackPointExtension>
            <ns3:atemp>22.0</ns3:atemp>
            <ns3:hr>105</ns3:hr>
          </ns3:TrackPointExtension>
        </extensions>
      </trkpt>
      <trkpt lat="48.7637452594935894012451171875" lon="-3.57818710617721080780029296875">
        <ele>8.80000019073486328125</ele>
        <time>2026-05-08T15:13:30.000Z</time>
        <extensions>
          <ns3:TrackPointExtension>
            <ns3:atemp>22.0</ns3:atemp>
            <ns3:hr>104</ns3:hr>
          </ns3:TrackPointExtension>
        </extensions>
      </trkpt>
      <trkpt lat="48.7637489475309848785400390625" lon="-3.5781984217464923858642578125">
        <ele>8.6000003814697265625</ele>
        <time>2026-05-08T15:13:31.000Z</time>
        <extensions>
          <ns3:TrackPointExtension>
            <ns3:atemp>22.0</ns3:atemp>
            <ns3:hr>104</ns3:hr>
          </ns3:TrackPointExtension>
        </extensions>
      </trkpt>
      <trkpt lat="48.76377836801111698150634765625" lon="-3.57823957689106464385986328125">
        <ele>8.3999996185302734375</ele>
        <time>2026-05-08T15:13:35.000Z</time>
        <extensions>
          <ns3:TrackPointExtension>
            <ns3:atemp>22.0</ns3:atemp>
            <ns3:hr>103</ns3:hr>
          </ns3:TrackPointExtension>
        </extensions>
      </trkpt>
      <trkpt lat="48.7637794576585292816162109375" lon="-3.57824192382395267486572265625">
        <ele>8</ele>
        <time>2026-05-08T15:13:38.000Z</time>
        <extensions>
          <ns3:TrackPointExtension>
            <ns3:atemp>22.0</ns3:atemp>
            <ns3:hr>103</ns3:hr>
          </ns3:TrackPointExtension>
        </extensions>
      </trkpt>
      <trkpt lat="48.7637794576585292816162109375" lon="-3.57824192382395267486572265625">
        <ele>8.3999996185302734375</ele>
        <time>2026-05-08T15:13:43.000Z</time>
        <extensions>
          <ns3:TrackPointExtension>
            <ns3:atemp>22.0</ns3:atemp>
            <ns3:hr>100</ns3:hr>
          </ns3:TrackPointExtension>
        </extensions>
      </trkpt>
      <trkpt lat="48.76378339715301990509033203125" lon="-3.57823236845433712005615234375">
        <ele>7.80000019073486328125</ele>
        <time>2026-05-08T15:13:51.000Z</time>
        <extensions>
          <ns3:TrackPointExtension>
            <ns3:atemp>22.0</ns3:atemp>
            <ns3:hr>99</ns3:hr>
          </ns3:TrackPointExtension>
        </extensions>
      </trkpt>
      <trkpt lat="48.7637794576585292816162109375" lon="-3.57824192382395267486572265625">
        <ele>7.599999904632568359375</ele>
        <time>2026-05-08T15:13:59.000Z</time>
        <extensions>
          <ns3:TrackPointExtension>
            <ns3:atemp>22.0</ns3:atemp>
            <ns3:hr>99</ns3:hr>
          </ns3:TrackPointExtension>
        </extensions>
      </trkpt>
      <trkpt lat="48.76379462890326976776123046875" lon="-3.578234128654003143310546875">
        <ele>7.599999904632568359375</ele>
        <time>2026-05-08T15:14:06.000Z</time>
        <extensions>
          <ns3:TrackPointExtension>
            <ns3:atemp>22.0</ns3:atemp>
            <ns3:hr>96</ns3:hr>
          </ns3:TrackPointExtension>
        </extensions>
      </trkpt>
      <trkpt lat="48.76383251510560512542724609375" lon="-3.57824728824198246002197265625">
        <ele>7.400000095367431640625</ele>
        <time>2026-05-08T15:14:13.000Z</time>
        <extensions>
          <ns3:TrackPointExtension>
            <ns3:atemp>22.0</ns3:atemp>
            <ns3:hr>95</ns3:hr>
          </ns3:TrackPointExtension>
        </extensions>
      </trkpt>
      <trkpt lat="48.76392203383147716522216796875" lon="-3.57827411033213138580322265625">
        <ele>7.19999980926513671875</ele>
        <time>2026-05-08T15:14:21.000Z</time>
        <extensions>
          <ns3:TrackPointExtension>
            <ns3:atemp>23.0</ns3:atemp>
            <ns3:hr>98</ns3:hr>
          </ns3:TrackPointExtension>
        </extensions>
      </trkpt>
      <trkpt lat="48.76393360085785388946533203125" lon="-3.57827612198889255523681640625">
        <ele>7.19999980926513671875</ele>
        <time>2026-05-08T15:14:22.000Z</time>
        <extensions>
          <ns3:TrackPointExtension>
            <ns3:atemp>23.0</ns3:atemp>
            <ns3:hr>98</ns3:hr>
          </ns3:TrackPointExtension>
        </extensions>
      </trkpt>
      <trkpt lat="48.76400803215801715850830078125" lon="-3.57830545864999294281005859375">
        <ele>8.19999980926513671875</ele>
        <time>2026-05-08T15:14:29.000Z</time>
        <extensions>
          <ns3:TrackPointExtension>
            <ns3:atemp>23.0</ns3:atemp>
            <ns3:hr>101</ns3:hr>
          </ns3:TrackPointExtension>
        </extensions>
      </trkpt>
      <trkpt lat="48.76402865163981914520263671875" lon="-3.578313253819942474365234375">
        <ele>7.80000019073486328125</ele>
        <time>2026-05-08T15:14:31.000Z</time>
        <extensions>
          <ns3:TrackPointExtension>
            <ns3:atemp>23.0</ns3:atemp>
            <ns3:hr>100</ns3:hr>
          </ns3:TrackPointExtension>
        </extensions>
      </trkpt>
      <trkpt lat="48.76410157419741153717041015625" lon="-3.57835122384130954742431640625">
        <ele>7.80000019073486328125</ele>
        <time>2026-05-08T15:14:38.000Z</time>
        <extensions>
          <ns3:TrackPointExtension>
            <ns3:atemp>23.0</ns3:atemp>
            <ns3:hr>99</ns3:hr>
          </ns3:TrackPointExtension>
        </extensions>
      </trkpt>
      <trkpt lat="48.76418841071426868438720703125" lon="-3.5783767886459827423095703125">
        <ele>7.19999980926513671875</ele>
        <time>2026-05-08T15:14:46.000Z</time>
        <extensions>
          <ns3:TrackPointExtension>
            <ns3:atemp>23.0</ns3:atemp>
            <ns3:hr>101</ns3:hr>
          </ns3:TrackPointExtension>
        </extensions>
      </trkpt>
      <trkpt lat="48.76428388059139251708984375" lon="-3.5784230567514896392822265625">
        <ele>7.400000095367431640625</ele>
        <time>2026-05-08T15:14:55.000Z</time>
        <extensions>
          <ns3:TrackPointExtension>
            <ns3:atemp>23.0</ns3:atemp>
            <ns3:hr>99</ns3:hr>
          </ns3:TrackPointExtension>
        </extensions>
      </trkpt>
      <trkpt lat="48.7643581442534923553466796875" lon="-3.57844795100390911102294921875">
        <ele>7.19999980926513671875</ele>
        <time>2026-05-08T15:15:02.000Z</time>
        <extensions>
          <ns3:TrackPointExtension>
            <ns3:atemp>23.0</ns3:atemp>
            <ns3:hr>98</ns3:hr>
          </ns3:TrackPointExtension>
        </extensions>
      </trkpt>
      <trkpt lat="48.76447473652660846710205078125" lon="-3.578504361212253570556640625">
        <ele>7.599999904632568359375</ele>
        <time>2026-05-08T15:15:12.000Z</time>
        <extensions>
          <ns3:TrackPointExtension>
            <ns3:atemp>23.0</ns3:atemp>
            <ns3:hr>98</ns3:hr>
          </ns3:TrackPointExtension>
        </extensions>
      </trkpt>
      <trkpt lat="48.76454698853194713592529296875" lon="-3.5785333625972270965576171875">
        <ele>7.599999904632568359375</ele>
        <time>2026-05-08T15:15:18.000Z</time>
        <extensions>
          <ns3:TrackPointExtension>
            <ns3:atemp>23.0</ns3:atemp>
            <ns3:hr>101</ns3:hr>
          </ns3:TrackPointExtension>
        </extensions>
      </trkpt>
      <trkpt lat="48.76456744037568569183349609375" lon="-3.5785464383661746978759765625">
        <ele>7.599999904632568359375</ele>
        <time>2026-05-08T15:15:20.000Z</time>
        <extensions>
          <ns3:TrackPointExtension>
            <ns3:atemp>23.0</ns3:atemp>
            <ns3:hr>101</ns3:hr>
          </ns3:TrackPointExtension>
        </extensions>
      </trkpt>
      <trkpt lat="48.7645777501165866851806640625" lon="-3.57854903675615787506103515625">
        <ele>7.599999904632568359375</ele>
        <time>2026-05-08T15:15:21.000Z</time>
        <extensions>
          <ns3:TrackPointExtension>
            <ns3:atemp>23.0</ns3:atemp>
            <ns3:hr>102</ns3:hr>
          </ns3:TrackPointExtension>
        </extensions>
      </trkpt>
      <trkpt lat="48.76465679146349430084228515625" lon="-3.5785927064716815948486328125">
        <ele>7.599999904632568359375</ele>
        <time>2026-05-08T15:15:28.000Z</time>
        <extensions>
          <ns3:TrackPointExtension>
            <ns3:atemp>23.0</ns3:atemp>
            <ns3:hr>103</ns3:hr>
          </ns3:TrackPointExtension>
        </extensions>
      </trkpt>
      <trkpt lat="48.76472066156566143035888671875" lon="-3.57862262986600399017333984375">
        <ele>7.80000019073486328125</ele>
        <time>2026-05-08T15:15:34.000Z</time>
        <extensions>
          <ns3:TrackPointExtension>
            <ns3:atemp>23.0</ns3:atemp>
            <ns3:hr>103</ns3:hr>
          </ns3:TrackPointExtension>
        </extensions>
      </trkpt>
      <trkpt lat="48.7648245133459568023681640625" lon="-3.578661940991878509521484375">
        <ele>8.6000003814697265625</ele>
        <time>2026-05-08T15:15:43.000Z</time>
        <extensions>
          <ns3:TrackPointExtension>
            <ns3:atemp>23.0</ns3:atemp>
            <ns3:hr>106</ns3:hr>
          </ns3:TrackPointExtension>
        </extensions>
      </trkpt>
      <trkpt lat="48.76489274203777313232421875" lon="-3.57868314720690250396728515625">
        <ele>8</ele>
        <time>2026-05-08T15:15:50.000Z</time>
        <extensions>
          <ns3:TrackPointExtension>
            <ns3:atemp>23.0</ns3:atemp>
            <ns3:hr>106</ns3:hr>
          </ns3:TrackPointExtension>
        </extensions>
      </trkpt>
      <trkpt lat="48.76489617861807346343994140625" lon="-3.57867174781858921051025390625">
        <ele>8</ele>
        <time>2026-05-08T15:15:51.000Z</time>
        <extensions>
          <ns3:TrackPointExtension>
            <ns3:atemp>23.0</ns3:atemp>
            <ns3:hr>106</ns3:hr>
          </ns3:TrackPointExtension>
        </extensions>
      </trkpt>
      <trkpt lat="48.7648989446461200714111328125" lon="-3.57866487465798854827880859375">
        <ele>8</ele>
        <time>2026-05-08T15:15:55.000Z</time>
        <extensions>
          <ns3:TrackPointExtension>
            <ns3:atemp>23.0</ns3:atemp>
            <ns3:hr>107</ns3:hr>
          </ns3:TrackPointExtension>
        </extensions>
      </trkpt>
      <trkpt lat="48.7648989446461200714111328125" lon="-3.57866487465798854827880859375">
        <ele>7.599999904632568359375</ele>
        <time>2026-05-08T15:16:03.000Z</time>
        <extensions>
          <ns3:TrackPointExtension>
            <ns3:atemp>23.0</ns3:atemp>
            <ns3:hr>104</ns3:hr>
          </ns3:TrackPointExtension>
        </extensions>
      </trkpt>
      <trkpt lat="48.7648989446461200714111328125" lon="-3.57866487465798854827880859375">
        <ele>7.400000095367431640625</ele>
        <time>2026-05-08T15:16:05.000Z</time>
        <extensions>
          <ns3:TrackPointExtension>
            <ns3:atemp>23.0</ns3:atemp>
            <ns3:hr>101</ns3:hr>
          </ns3:TrackPointExtension>
        </extensions>
      </trkpt>
      <trkpt lat="48.7648989446461200714111328125" lon="-3.57866487465798854827880859375">
        <ele>7.400000095367431640625</ele>
        <time>2026-05-08T15:16:08.000Z</time>
        <extensions>
          <ns3:TrackPointExtension>
            <ns3:atemp>23.0</ns3:atemp>
            <ns3:hr>101</ns3:hr>
          </ns3:TrackPointExtension>
        </extensions>
      </trkpt>
      <trkpt lat="48.7648989446461200714111328125" lon="-3.57866487465798854827880859375">
        <ele>7.400000095367431640625</ele>
        <time>2026-05-08T15:16:23.000Z</time>
        <extensions>
          <ns3:TrackPointExtension>
            <ns3:atemp>24.0</ns3:atemp>
            <ns3:hr>102</ns3:hr>
          </ns3:TrackPointExtension>
        </extensions>
      </trkpt>
      <trkpt lat="48.76492090523242950439453125" lon="-3.5786976478993892669677734375">
        <ele>7.599999904632568359375</ele>
        <time>2026-05-08T15:16:32.000Z</time>
        <extensions>
          <ns3:TrackPointExtension>
            <ns3:atemp>24.0</ns3:atemp>
            <ns3:hr>102</ns3:hr>
          </ns3:TrackPointExtension>
        </extensions>
      </trkpt>
      <trkpt lat="48.76498754136264324188232421875" lon="-3.5787533037364482879638671875">
        <ele>7.599999904632568359375</ele>
        <time>2026-05-08T15:16:39.000Z</time>
        <extensions>
          <ns3:TrackPointExtension>
            <ns3:atemp>24.0</ns3:atemp>
            <ns3:hr>103</ns3:hr>
          </ns3:TrackPointExtension>
        </extensions>
      </trkpt>
      <trkpt lat="48.7650380842387676239013671875" lon="-3.578777275979518890380859375">
        <ele>7.19999980926513671875</ele>
        <time>2026-05-08T15:16:45.000Z</time>
        <extensions>
          <ns3:TrackPointExtension>
            <ns3:atemp>24.0</ns3:atemp>
            <ns3:hr>104</ns3:hr>
          </ns3:TrackPointExtension>
        </extensions>
      </trkpt>
      <trkpt lat="48.76510036177933216094970703125" lon="-3.578801415860652923583984375">
        <ele>7.400000095367431640625</ele>
        <time>2026-05-08T15:16:51.000Z</time>
        <extensions>
          <ns3:TrackPointExtension>
            <ns3:atemp>24.0</ns3:atemp>
            <ns3:hr>103</ns3:hr>
          </ns3:TrackPointExtension>
        </extensions>
      </trkpt>
      <trkpt lat="48.7651654891669750213623046875" lon="-3.5788481868803501129150390625">
        <ele>7</ele>
        <time>2026-05-08T15:16:58.000Z</time>
        <extensions>
          <ns3:TrackPointExtension>
            <ns3:atemp>24.0</ns3:atemp>
            <ns3:hr>101</ns3:hr>
          </ns3:TrackPointExtension>
        </extensions>
      </trkpt>
      <trkpt lat="48.76519373618066310882568359375" lon="-3.5788647830486297607421875">
        <ele>7</ele>
        <time>2026-05-08T15:17:02.000Z</time>
        <extensions>
          <ns3:TrackPointExtension>
            <ns3:atemp>24.0</ns3:atemp>
            <ns3:hr>101</ns3:hr>
          </ns3:TrackPointExtension>
        </extensions>
      </trkpt>
      <trkpt lat="48.76522759906947612762451171875" lon="-3.57887408696115016937255859375">
        <ele>6.80000019073486328125</ele>
        <time>2026-05-08T15:17:05.000Z</time>
        <extensions>
          <ns3:TrackPointExtension>
            <ns3:atemp>24.0</ns3:atemp>
            <ns3:hr>101</ns3:hr>
          </ns3:TrackPointExtension>
        </extensions>
      </trkpt>
      <trkpt lat="48.7652995996177196502685546875" lon="-3.57893108390271663665771484375">
        <ele>7.599999904632568359375</ele>
        <time>2026-05-08T15:17:13.000Z</time>
        <extensions>
          <ns3:TrackPointExtension>
            <ns3:atemp>24.0</ns3:atemp>
            <ns3:hr>101</ns3:hr>
          </ns3:TrackPointExtension>
        </extensions>
      </trkpt>
      <trkpt lat="48.76536154188215732574462890625" lon="-3.57897165231406688690185546875">
        <ele>7.400000095367431640625</ele>
        <time>2026-05-08T15:17:19.000Z</time>
        <extensions>
          <ns3:TrackPointExtension>
            <ns3:atemp>24.0</ns3:atemp>
            <ns3:hr>102</ns3:hr>
          </ns3:TrackPointExtension>
        </extensions>
      </trkpt>
      <trkpt lat="48.76538199372589588165283203125" lon="-3.578987158834934234619140625">
        <ele>7.19999980926513671875</ele>
        <time>2026-05-08T15:17:21.000Z</time>
        <extensions>
          <ns3:TrackPointExtension>
            <ns3:atemp>24.0</ns3:atemp>
            <ns3:hr>101</ns3:hr>
          </ns3:TrackPointExtension>
        </extensions>
      </trkpt>
      <trkpt lat="48.7654487974941730499267578125" lon="-3.57904792763292789459228515625">
        <ele>7.400000095367431640625</ele>
        <time>2026-05-08T15:17:28.000Z</time>
        <extensions>
          <ns3:TrackPointExtension>
            <ns3:atemp>24.0</ns3:atemp>
            <ns3:hr>102</ns3:hr>
          </ns3:TrackPointExtension>
        </extensions>
      </trkpt>
      <trkpt lat="48.76551342196762561798095703125" lon="-3.5790791921317577362060546875">
        <ele>7</ele>
        <time>2026-05-08T15:17:34.000Z</time>
        <extensions>
          <ns3:TrackPointExtension>
            <ns3:atemp>24.0</ns3:atemp>
            <ns3:hr>102</ns3:hr>
          </ns3:TrackPointExtension>
        </extensions>
      </trkpt>
      <trkpt lat="48.76559858210384845733642578125" lon="-3.57914264313876628875732421875">
        <ele>7.19999980926513671875</ele>
        <time>2026-05-08T15:17:42.000Z</time>
        <extensions>
          <ns3:TrackPointExtension>
            <ns3:atemp>24.0</ns3:atemp>
            <ns3:hr>103</ns3:hr>
          </ns3:TrackPointExtension>
        </extensions>
      </trkpt>
      <trkpt lat="48.76563973724842071533203125" lon="-3.57916879467666149139404296875">
        <ele>7.599999904632568359375</ele>
        <time>2026-05-08T15:17:49.000Z</time>
        <extensions>
          <ns3:TrackPointExtension>
            <ns3:atemp>24.0</ns3:atemp>
            <ns3:hr>103</ns3:hr>
          </ns3:TrackPointExtension>
        </extensions>
      </trkpt>
      <trkpt lat="48.76568307168781757354736328125" lon="-3.57919109053909778594970703125">
        <ele>7.400000095367431640625</ele>
        <time>2026-05-08T15:17:55.000Z</time>
        <extensions>
          <ns3:TrackPointExtension>
            <ns3:atemp>24.0</ns3:atemp>
            <ns3:hr>102</ns3:hr>
          </ns3:TrackPointExtension>
        </extensions>
      </trkpt>
      <trkpt lat="48.7657052837312221527099609375" lon="-3.57920483686029911041259765625">
        <ele>7.19999980926513671875</ele>
        <time>2026-05-08T15:17:58.000Z</time>
        <extensions>
          <ns3:TrackPointExtension>
            <ns3:atemp>24.0</ns3:atemp>
            <ns3:hr>102</ns3:hr>
          </ns3:TrackPointExtension>
        </extensions>
      </trkpt>
      <trkpt lat="48.76573436893522739410400390625" lon="-3.579223193228244781494140625">
        <ele>7.400000095367431640625</ele>
        <time>2026-05-08T15:18:01.000Z</time>
        <extensions>
          <ns3:TrackPointExtension>
            <ns3:atemp>24.0</ns3:atemp>
            <ns3:hr>102</ns3:hr>
          </ns3:TrackPointExtension>
        </extensions>
      </trkpt>
      <trkpt lat="48.76577594317495822906494140625" lon="-3.57926920987665653228759765625">
        <ele>7.80000019073486328125</ele>
        <time>2026-05-08T15:18:07.000Z</time>
        <extensions>
          <ns3:TrackPointExtension>
            <ns3:atemp>24.0</ns3:atemp>
            <ns3:hr>105</ns3:hr>
          </ns3:TrackPointExtension>
        </extensions>
      </trkpt>
      <trkpt lat="48.76578164286911487579345703125" lon="-3.57927558012306690216064453125">
        <ele>7.80000019073486328125</ele>
        <time>2026-05-08T15:18:08.000Z</time>
        <extensions>
          <ns3:TrackPointExtension>
            <ns3:atemp>24.0</ns3:atemp>
            <ns3:hr>105</ns3:hr>
          </ns3:TrackPointExtension>
        </extensions>
      </trkpt>
      <trkpt lat="48.765845596790313720703125" lon="-3.5793279670178890228271484375">
        <ele>7.80000019073486328125</ele>
        <time>2026-05-08T15:18:15.000Z</time>
        <extensions>
          <ns3:TrackPointExtension>
            <ns3:atemp>24.0</ns3:atemp>
            <ns3:hr>105</ns3:hr>
          </ns3:TrackPointExtension>
        </extensions>
      </trkpt>
      <trkpt lat="48.765920698642730712890625" lon="-3.579383790493011474609375">
        <ele>7.599999904632568359375</ele>
        <time>2026-05-08T15:18:23.000Z</time>
        <extensions>
          <ns3:TrackPointExtension>
            <ns3:atemp>25.0</ns3:atemp>
            <ns3:hr>105</ns3:hr>
          </ns3:TrackPointExtension>
        </extensions>
      </trkpt>
      <trkpt lat="48.76596964895725250244140625" lon="-3.57941891066730022430419921875">
        <ele>7.599999904632568359375</ele>
        <time>2026-05-08T15:18:29.000Z</time>
        <extensions>
          <ns3:TrackPointExtension>
            <ns3:atemp>25.0</ns3:atemp>
            <ns3:hr>103</ns3:hr>
          </ns3:TrackPointExtension>
        </extensions>
      </trkpt>
      <trkpt lat="48.7660167552530765533447265625" lon="-3.57946098782122135162353515625">
        <ele>7.599999904632568359375</ele>
        <time>2026-05-08T15:18:35.000Z</time>
        <extensions>
          <ns3:TrackPointExtension>
            <ns3:atemp>25.0</ns3:atemp>
            <ns3:hr>103</ns3:hr>
          </ns3:TrackPointExtension>
        </extensions>
      </trkpt>
      <trkpt lat="48.76608498394489288330078125" lon="-3.57950842939317226409912109375">
        <ele>7.599999904632568359375</ele>
        <time>2026-05-08T15:18:42.000Z</time>
        <extensions>
          <ns3:TrackPointExtension>
            <ns3:atemp>25.0</ns3:atemp>
            <ns3:hr>100</ns3:hr>
          </ns3:TrackPointExtension>
        </extensions>
      </trkpt>
      <trkpt lat="48.76609512604773044586181640625" lon="-3.57951479963958263397216796875">
        <ele>7.599999904632568359375</ele>
        <time>2026-05-08T15:18:43.000Z</time>
        <extensions>
          <ns3:TrackPointExtension>
            <ns3:atemp>25.0</ns3:atemp>
            <ns3:hr>100</ns3:hr>
          </ns3:TrackPointExtension>
        </extensions>
      </trkpt>
      <trkpt lat="48.7661552242934703826904296875" lon="-3.5795666836202144622802734375">
        <ele>7.400000095367431640625</ele>
        <time>2026-05-08T15:18:50.000Z</time>
        <extensions>
          <ns3:TrackPointExtension>
            <ns3:atemp>25.0</ns3:atemp>
            <ns3:hr>101</ns3:hr>
          </ns3:TrackPointExtension>
        </extensions>
      </trkpt>
      <trkpt lat="48.76621549017727375030517578125" lon="-3.579618819057941436767578125">
        <ele>7.599999904632568359375</ele>
        <time>2026-05-08T15:18:56.000Z</time>
        <extensions>
          <ns3:TrackPointExtension>
            <ns3:atemp>25.0</ns3:atemp>
            <ns3:hr>101</ns3:hr>
          </ns3:TrackPointExtension>
        </extensions>
      </trkpt>
      <trkpt lat="48.766281791031360626220703125" lon="-3.5796722956001758575439453125">
        <ele>7.19999980926513671875</ele>
        <time>2026-05-08T15:19:03.000Z</time>
        <extensions>
          <ns3:TrackPointExtension>
            <ns3:atemp>25.0</ns3:atemp>
            <ns3:hr>100</ns3:hr>
          </ns3:TrackPointExtension>
        </extensions>
      </trkpt>
      <trkpt lat="48.7663565576076507568359375" lon="-3.579738177359104156494140625">
        <ele>7.80000019073486328125</ele>
        <time>2026-05-08T15:19:11.000Z</time>
        <extensions>
          <ns3:TrackPointExtension>
            <ns3:atemp>25.0</ns3:atemp>
            <ns3:hr>101</ns3:hr>
          </ns3:TrackPointExtension>
        </extensions>
      </trkpt>
      <trkpt lat="48.7663895823061466217041015625" lon="-3.57975536026060581207275390625">
        <ele>8</ele>
        <time>2026-05-08T15:19:14.000Z</time>
        <extensions>
          <ns3:TrackPointExtension>
            <ns3:atemp>25.0</ns3:atemp>
            <ns3:hr>100</ns3:hr>
          </ns3:TrackPointExtension>
        </extensions>
      </trkpt>
      <trkpt lat="48.76641145907342433929443359375" lon="-3.5797794163227081298828125">
        <ele>7.80000019073486328125</ele>
        <time>2026-05-08T15:19:17.000Z</time>
        <extensions>
          <ns3:TrackPointExtension>
            <ns3:atemp>25.0</ns3:atemp>
            <ns3:hr>100</ns3:hr>
          </ns3:TrackPointExtension>
        </extensions>
      </trkpt>
      <trkpt lat="48.76642696559429168701171875" lon="-3.57978813350200653076171875">
        <ele>7.599999904632568359375</ele>
        <time>2026-05-08T15:19:19.000Z</time>
        <extensions>
          <ns3:TrackPointExtension>
            <ns3:atemp>25.0</ns3:atemp>
            <ns3:hr>101</ns3:hr>
          </ns3:TrackPointExtension>
        </extensions>
      </trkpt>
      <trkpt lat="48.7664853036403656005859375" lon="-3.579834401607513427734375">
        <ele>7.80000019073486328125</ele>
        <time>2026-05-08T15:19:25.000Z</time>
        <extensions>
          <ns3:TrackPointExtension>
            <ns3:atemp>25.0</ns3:atemp>
            <ns3:hr>99</ns3:hr>
          </ns3:TrackPointExtension>
        </extensions>
      </trkpt>
      <trkpt lat="48.76654556952416896820068359375" lon="-3.57988209463655948638916015625">
        <ele>8.19999980926513671875</ele>
        <time>2026-05-08T15:19:31.000Z</time>
        <extensions>
          <ns3:TrackPointExtension>
            <ns3:atemp>25.0</ns3:atemp>
            <ns3:hr>97</ns3:hr>
          </ns3:TrackPointExtension>
        </extensions>
      </trkpt>
      <trkpt lat="48.7666113674640655517578125" lon="-3.5799381695687770843505859375">
        <ele>8</ele>
        <time>2026-05-08T15:19:38.000Z</time>
        <extensions>
          <ns3:TrackPointExtension>
            <ns3:atemp>25.0</ns3:atemp>
            <ns3:hr>96</ns3:hr>
          </ns3:TrackPointExtension>
        </extensions>
      </trkpt>
      <trkpt lat="48.7666816078126430511474609375" lon="-3.57999977655708789825439453125">
        <ele>7.80000019073486328125</ele>
        <time>2026-05-08T15:19:46.000Z</time>
        <extensions>
          <ns3:TrackPointExtension>
            <ns3:atemp>25.0</ns3:atemp>
            <ns3:hr>98</ns3:hr>
          </ns3:TrackPointExtension>
        </extensions>
      </trkpt>
      <trkpt lat="48.76673676073551177978515625" lon="-3.5800558514893054962158203125">
        <ele>7.599999904632568359375</ele>
        <time>2026-05-08T15:19:52.000Z</time>
        <extensions>
          <ns3:TrackPointExtension>
            <ns3:atemp>25.0</ns3:atemp>
            <ns3:hr>97</ns3:hr>
          </ns3:TrackPointExtension>
        </extensions>
      </trkpt>
      <trkpt lat="48.766792081296443939208984375" lon="-3.58010329306125640869140625">
        <ele>8</ele>
        <time>2026-05-08T15:19:58.000Z</time>
        <extensions>
          <ns3:TrackPointExtension>
            <ns3:atemp>25.0</ns3:atemp>
            <ns3:hr>98</ns3:hr>
          </ns3:TrackPointExtension>
        </extensions>
      </trkpt>
      <trkpt lat="48.76685385592281818389892578125" lon="-3.5801978409290313720703125">
        <ele>7.599999904632568359375</ele>
        <time>2026-05-08T15:20:06.000Z</time>
        <extensions>
          <ns3:TrackPointExtension>
            <ns3:atemp>25.0</ns3:atemp>
            <ns3:hr>99</ns3:hr>
          </ns3:TrackPointExtension>
        </extensions>
      </trkpt>
      <trkpt lat="48.7669253535568714141845703125" lon="-3.5802932269871234893798828125">
        <ele>7.599999904632568359375</ele>
        <time>2026-05-08T15:20:14.000Z</time>
        <extensions>
          <ns3:TrackPointExtension>
            <ns3:atemp>25.0</ns3:atemp>
            <ns3:hr>101</ns3:hr>
          </ns3:TrackPointExtension>
        </extensions>
      </trkpt>
      <trkpt lat="48.7669649161398410797119140625" lon="-3.58034946955740451812744140625">
        <ele>7</ele>
        <time>2026-05-08T15:20:19.000Z</time>
        <extensions>
          <ns3:TrackPointExtension>
            <ns3:atemp>25.0</ns3:atemp>
            <ns3:hr>100</ns3:hr>
          </ns3:TrackPointExtension>
        </extensions>
      </trkpt>
      <trkpt lat="48.76701009459793567657470703125" lon="-3.5804249905049800872802734375">
        <ele>7.400000095367431640625</ele>
        <time>2026-05-08T15:20:25.000Z</time>
        <extensions>
          <ns3:TrackPointExtension>
            <ns3:atemp>25.0</ns3:atemp>
            <ns3:hr>98</ns3:hr>
          </ns3:TrackPointExtension>
        </extensions>
      </trkpt>
      <trkpt lat="48.76705401577055454254150390625" lon="-3.580485172569751739501953125">
        <ele>7.19999980926513671875</ele>
        <time>2026-05-08T15:20:30.000Z</time>
        <extensions>
          <ns3:TrackPointExtension>
            <ns3:atemp>25.0</ns3:atemp>
            <ns3:hr>98</ns3:hr>
          </ns3:TrackPointExtension>
        </extensions>
      </trkpt>
      <trkpt lat="48.76709709875285625457763671875" lon="-3.58054309152066707611083984375">
        <ele>7.400000095367431640625</ele>
        <time>2026-05-08T15:20:36.000Z</time>
        <extensions>
          <ns3:TrackPointExtension>
            <ns3:atemp>25.0</ns3:atemp>
            <ns3:hr>98</ns3:hr>
          </ns3:TrackPointExtension>
        </extensions>
      </trkpt>
      <trkpt lat="48.767145462334156036376953125" lon="-3.58060210011899471282958984375">
        <ele>6.80000019073486328125</ele>
        <time>2026-05-08T15:20:41.000Z</time>
        <extensions>
          <ns3:TrackPointExtension>
            <ns3:atemp>25.0</ns3:atemp>
            <ns3:hr>98</ns3:hr>
          </ns3:TrackPointExtension>
        </extensions>
      </trkpt>
      <trkpt lat="48.767214529216289520263671875" lon="-3.58069078065454959869384765625">
        <ele>6.80000019073486328125</ele>
        <time>2026-05-08T15:20:49.000Z</time>
        <extensions>
          <ns3:TrackPointExtension>
            <ns3:atemp>25.0</ns3:atemp>
            <ns3:hr>95</ns3:hr>
          </ns3:TrackPointExtension>
        </extensions>
      </trkpt>
      <trkpt lat="48.76722265966236591339111328125" lon="-3.58070000074803829193115234375">
        <ele>6.80000019073486328125</ele>
        <time>2026-05-08T15:20:50.000Z</time>
        <extensions>
          <ns3:TrackPointExtension>
            <ns3:atemp>25.0</ns3:atemp>
            <ns3:hr>94</ns3:hr>
          </ns3:TrackPointExtension>
        </extensions>
      </trkpt>
      <trkpt lat="48.76726121641695499420166015625" lon="-3.58076688833534717559814453125">
        <ele>6.599999904632568359375</ele>
        <time>2026-05-08T15:20:55.000Z</time>
        <extensions>
          <ns3:TrackPointExtension>
            <ns3:atemp>25.0</ns3:atemp>
            <ns3:hr>93</ns3:hr>
          </ns3:TrackPointExtension>
        </extensions>
      </trkpt>
      <trkpt lat="48.76733363606035709381103515625" lon="-3.58086076565086841583251953125">
        <ele>6.400000095367431640625</ele>
        <time>2026-05-08T15:21:03.000Z</time>
        <extensions>
          <ns3:TrackPointExtension>
            <ns3:atemp>25.0</ns3:atemp>
            <ns3:hr>94</ns3:hr>
          </ns3:TrackPointExtension>
        </extensions>
      </trkpt>
      <trkpt lat="48.76740890555083751678466796875" lon="-3.58097073622047901153564453125">
        <ele>6.599999904632568359375</ele>
        <time>2026-05-08T15:21:12.000Z</time>
        <extensions>
          <ns3:TrackPointExtension>
            <ns3:atemp>25.0</ns3:atemp>
            <ns3:hr>93</ns3:hr>
          </ns3:TrackPointExtension>
        </extensions>
      </trkpt>
      <trkpt lat="48.76747109927237033843994140625" lon="-3.58104365877807140350341796875">
        <ele>6.80000019073486328125</ele>
        <time>2026-05-08T15:21:19.000Z</time>
        <extensions>
          <ns3:TrackPointExtension>
            <ns3:atemp>26.0</ns3:atemp>
            <ns3:hr>95</ns3:hr>
          </ns3:TrackPointExtension>
        </extensions>
      </trkpt>
      <trkpt lat="48.76751451753079891204833984375" lon="-3.581105768680572509765625">
        <ele>6.599999904632568359375</ele>
        <time>2026-05-08T15:21:25.000Z</time>
        <extensions>
          <ns3:TrackPointExtension>
            <ns3:atemp>26.0</ns3:atemp>
            <ns3:hr>96</ns3:hr>
          </ns3:TrackPointExtension>
        </extensions>
      </trkpt>
      <trkpt lat="48.7675657309591770172119140625" lon="-3.581183217465877532958984375">
        <ele>6.599999904632568359375</ele>
        <time>2026-05-08T15:21:32.000Z</time>
        <extensions>
          <ns3:TrackPointExtension>
            <ns3:atemp>26.0</ns3:atemp>
            <ns3:hr>96</ns3:hr>
          </ns3:TrackPointExtension>
        </extensions>
      </trkpt>
      <trkpt lat="48.7675928883254528045654296875" lon="-3.5812370292842388153076171875">
        <ele>6.599999904632568359375</ele>
        <time>2026-05-08T15:21:36.000Z</time>
        <extensions>
          <ns3:TrackPointExtension>
            <ns3:atemp>26.0</ns3:atemp>
            <ns3:hr>99</ns3:hr>
          </ns3:TrackPointExtension>
        </extensions>
      </trkpt>
      <trkpt lat="48.76762188971042633056640625" lon="-3.5812762565910816192626953125">
        <ele>6.400000095367431640625</ele>
        <time>2026-05-08T15:21:40.000Z</time>
        <extensions>
          <ns3:TrackPointExtension>
            <ns3:atemp>26.0</ns3:atemp>
            <ns3:hr>99</ns3:hr>
          </ns3:TrackPointExtension>
        </extensions>
      </trkpt>
      <trkpt lat="48.76767997629940509796142578125" lon="-3.58137600123882293701171875">
        <ele>6.599999904632568359375</ele>
        <time>2026-05-08T15:21:48.000Z</time>
        <extensions>
          <ns3:TrackPointExtension>
            <ns3:atemp>26.0</ns3:atemp>
            <ns3:hr>99</ns3:hr>
          </ns3:TrackPointExtension>
        </extensions>
      </trkpt>
      <trkpt lat="48.76773362047970294952392578125" lon="-3.58145453967154026031494140625">
        <ele>6.400000095367431640625</ele>
        <time>2026-05-08T15:21:55.000Z</time>
        <extensions>
          <ns3:TrackPointExtension>
            <ns3:atemp>26.0</ns3:atemp>
            <ns3:hr>99</ns3:hr>
          </ns3:TrackPointExtension>
        </extensions>
      </trkpt>
      <trkpt lat="48.7677843309938907623291015625" lon="-3.5815334133803844451904296875">
        <ele>6.19999980926513671875</ele>
        <time>2026-05-08T15:22:02.000Z</time>
        <extensions>
          <ns3:TrackPointExtension>
            <ns3:atemp>26.0</ns3:atemp>
            <ns3:hr>99</ns3:hr>
          </ns3:TrackPointExtension>
        </extensions>
      </trkpt>
      <trkpt lat="48.7678237259387969970703125" lon="-3.58161513693630695343017578125">
        <ele>6</ele>
        <time>2026-05-08T15:22:09.000Z</time>
        <extensions>
          <ns3:TrackPointExtension>
            <ns3:atemp>26.0</ns3:atemp>
            <ns3:hr>98</ns3:hr>
          </ns3:TrackPointExtension>
        </extensions>
      </trkpt>
      <trkpt lat="48.7678440101444721221923828125" lon="-3.581667356193065643310546875">
        <ele>6.19999980926513671875</ele>
        <time>2026-05-08T15:22:13.000Z</time>
        <extensions>
          <ns3:TrackPointExtension>
            <ns3:atemp>26.0</ns3:atemp>
            <ns3:hr>97</ns3:hr>
          </ns3:TrackPointExtension>
        </extensions>
      </trkpt>
      <trkpt lat="48.76787812449038028717041015625" lon="-3.58171689324080944061279296875">
        <ele>6</ele>
        <time>2026-05-08T15:22:18.000Z</time>
        <extensions>
          <ns3:TrackPointExtension>
            <ns3:atemp>26.0</ns3:atemp>
            <ns3:hr>96</ns3:hr>
          </ns3:TrackPointExtension>
        </extensions>
      </trkpt>
      <trkpt lat="48.76788499765098094940185546875" lon="-3.58173273503780364990234375">
        <ele>6</ele>
        <time>2026-05-08T15:22:20.000Z</time>
        <extensions>
          <ns3:TrackPointExtension>
            <ns3:atemp>26.0</ns3:atemp>
            <ns3:hr>95</ns3:hr>
          </ns3:TrackPointExtension>
        </extensions>
      </trkpt>
      <trkpt lat="48.767914585769176483154296875" lon="-3.5817898996174335479736328125">
        <ele>5.80000019073486328125</ele>
        <time>2026-05-08T15:22:24.000Z</time>
        <extensions>
          <ns3:TrackPointExtension>
            <ns3:atemp>26.0</ns3:atemp>
            <ns3:hr>96</ns3:hr>
          </ns3:TrackPointExtension>
        </extensions>
      </trkpt>
      <trkpt lat="48.7679626978933811187744140625" lon="-3.58189073391258716583251953125">
        <ele>5.80000019073486328125</ele>
        <time>2026-05-08T15:22:32.000Z</time>
        <extensions>
          <ns3:TrackPointExtension>
            <ns3:atemp>26.0</ns3:atemp>
            <ns3:hr>97</ns3:hr>
          </ns3:TrackPointExtension>
        </extensions>
      </trkpt>
      <trkpt lat="48.768014498054981231689453125" lon="-3.581965081393718719482421875">
        <ele>5.80000019073486328125</ele>
        <time>2026-05-08T15:22:41.000Z</time>
        <extensions>
          <ns3:TrackPointExtension>
            <ns3:atemp>26.0</ns3:atemp>
            <ns3:hr>98</ns3:hr>
          </ns3:TrackPointExtension>
        </extensions>
      </trkpt>
      <trkpt lat="48.76806269399821758270263671875" lon="-3.58205384574830532073974609375">
        <ele>5.80000019073486328125</ele>
        <time>2026-05-08T15:22:49.000Z</time>
        <extensions>
          <ns3:TrackPointExtension>
            <ns3:atemp>26.0</ns3:atemp>
            <ns3:hr>98</ns3:hr>
          </ns3:TrackPointExtension>
        </extensions>
      </trkpt>
      <trkpt lat="48.7681115604937076568603515625" lon="-3.58208837918937206268310546875">
        <ele>6</ele>
        <time>2026-05-08T15:22:55.000Z</time>
        <extensions>
          <ns3:TrackPointExtension>
            <ns3:atemp>26.0</ns3:atemp>
            <ns3:hr>98</ns3:hr>
          </ns3:TrackPointExtension>
        </extensions>
      </trkpt>
      <trkpt lat="48.76815690658986568450927734375" lon="-3.58216633088886737823486328125">
        <ele>6</ele>
        <time>2026-05-08T15:23:03.000Z</time>
        <extensions>
          <ns3:TrackPointExtension>
            <ns3:atemp>26.0</ns3:atemp>
            <ns3:hr>98</ns3:hr>
          </ns3:TrackPointExtension>
        </extensions>
      </trkpt>
      <trkpt lat="48.76820317469537258148193359375" lon="-3.582259453833103179931640625">
        <ele>6</ele>
        <time>2026-05-08T15:23:10.000Z</time>
        <extensions>
          <ns3:TrackPointExtension>
            <ns3:atemp>26.0</ns3:atemp>
            <ns3:hr>98</ns3:hr>
          </ns3:TrackPointExtension>
        </extensions>
      </trkpt>
      <trkpt lat="48.7682339362800121307373046875" lon="-3.58231787569820880889892578125">
        <ele>6</ele>
        <time>2026-05-08T15:23:15.000Z</time>
        <extensions>
          <ns3:TrackPointExtension>
            <ns3:atemp>26.0</ns3:atemp>
            <ns3:hr>97</ns3:hr>
          </ns3:TrackPointExtension>
        </extensions>
      </trkpt>
      <trkpt lat="48.768252544105052947998046875" lon="-3.58236037194728851318359375">
        <ele>5.80000019073486328125</ele>
        <time>2026-05-08T15:23:19.000Z</time>
        <extensions>
          <ns3:TrackPointExtension>
            <ns3:atemp>27.0</ns3:atemp>
            <ns3:hr>98</ns3:hr>
          </ns3:TrackPointExtension>
        </extensions>
      </trkpt>
      <trkpt lat="48.76827358268201351165771484375" lon="-3.58238643966615200042724609375">
        <ele>5.80000019073486328125</ele>
        <time>2026-05-08T15:23:22.000Z</time>
        <extensions>
          <ns3:TrackPointExtension>
            <ns3:atemp>27.0</ns3:atemp>
            <ns3:hr>99</ns3:hr>
          </ns3:TrackPointExtension>
        </extensions>
      </trkpt>
      <trkpt lat="48.76831255853176116943359375" lon="-3.582466654479503631591796875">
        <ele>5.80000019073486328125</ele>
        <time>2026-05-08T15:23:29.000Z</time>
        <extensions>
          <ns3:TrackPointExtension>
            <ns3:atemp>27.0</ns3:atemp>
            <ns3:hr>99</ns3:hr>
          </ns3:TrackPointExtension>
        </extensions>
      </trkpt>
      <trkpt lat="48.7683291547000408172607421875" lon="-3.58252608217298984527587890625">
        <ele>5.599999904632568359375</ele>
        <time>2026-05-08T15:23:34.000Z</time>
        <extensions>
          <ns3:TrackPointExtension>
            <ns3:atemp>27.0</ns3:atemp>
            <ns3:hr>99</ns3:hr>
          </ns3:TrackPointExtension>
        </extensions>
      </trkpt>
      <trkpt lat="48.76833342947065830230712890625" lon="-3.58255357481539249420166015625">
        <ele>5.400000095367431640625</ele>
        <time>2026-05-08T15:23:39.000Z</time>
        <extensions>
          <ns3:TrackPointExtension>
            <ns3:atemp>27.0</ns3:atemp>
            <ns3:hr>99</ns3:hr>
          </ns3:TrackPointExtension>
        </extensions>
      </trkpt>
      <trkpt lat="48.7683335132896900177001953125" lon="-3.582548461854457855224609375">
        <ele>5</ele>
        <time>2026-05-08T15:23:43.000Z</time>
        <extensions>
          <ns3:TrackPointExtension>
            <ns3:atemp>27.0</ns3:atemp>
            <ns3:hr>98</ns3:hr>
          </ns3:TrackPointExtension>
        </extensions>
      </trkpt>
      <trkpt lat="48.7683335132896900177001953125" lon="-3.582548461854457855224609375">
        <ele>5</ele>
        <time>2026-05-08T15:23:46.000Z</time>
        <extensions>
          <ns3:TrackPointExtension>
            <ns3:atemp>27.0</ns3:atemp>
            <ns3:hr>97</ns3:hr>
          </ns3:TrackPointExtension>
        </extensions>
      </trkpt>
      <trkpt lat="48.76833225600421428680419921875" lon="-3.58254678547382354736328125">
        <ele>5</ele>
        <time>2026-05-08T15:23:56.000Z</time>
        <extensions>
          <ns3:TrackPointExtension>
            <ns3:atemp>27.0</ns3:atemp>
            <ns3:hr>97</ns3:hr>
          </ns3:TrackPointExtension>
        </extensions>
      </trkpt>
      <trkpt lat="48.7683335132896900177001953125" lon="-3.582548461854457855224609375">
        <ele>5</ele>
        <time>2026-05-08T15:24:02.000Z</time>
        <extensions>
          <ns3:TrackPointExtension>
            <ns3:atemp>27.0</ns3:atemp>
            <ns3:hr>97</ns3:hr>
          </ns3:TrackPointExtension>
        </extensions>
      </trkpt>
      <trkpt lat="48.76836628653109073638916015625" lon="-3.58258794061839580535888671875">
        <ele>5</ele>
        <time>2026-05-08T15:24:07.000Z</time>
        <extensions>
          <ns3:TrackPointExtension>
            <ns3:atemp>27.0</ns3:atemp>
            <ns3:hr>97</ns3:hr>
          </ns3:TrackPointExtension>
        </extensions>
      </trkpt>
      <trkpt lat="48.76839377917349338531494140625" lon="-3.58265399001538753509521484375">
        <ele>5.19999980926513671875</ele>
        <time>2026-05-08T15:24:12.000Z</time>
        <extensions>
          <ns3:TrackPointExtension>
            <ns3:atemp>27.0</ns3:atemp>
            <ns3:hr>98</ns3:hr>
          </ns3:TrackPointExtension>
        </extensions>
      </trkpt>
      <trkpt lat="48.76842345111072063446044921875" lon="-3.58274082653224468231201171875">
        <ele>5.19999980926513671875</ele>
        <time>2026-05-08T15:24:19.000Z</time>
        <extensions>
          <ns3:TrackPointExtension>
            <ns3:atemp>26.0</ns3:atemp>
            <ns3:hr>99</ns3:hr>
          </ns3:TrackPointExtension>
        </extensions>
      </trkpt>
      <trkpt lat="48.76843954436480998992919921875" lon="-3.58278508298099040985107421875">
        <ele>5.19999980926513671875</ele>
        <time>2026-05-08T15:24:22.000Z</time>
        <extensions>
          <ns3:TrackPointExtension>
            <ns3:atemp>26.0</ns3:atemp>
            <ns3:hr>99</ns3:hr>
          </ns3:TrackPointExtension>
        </extensions>
      </trkpt>
      <trkpt lat="48.76844021491706371307373046875" lon="-3.58280369080603122711181640625">
        <ele>5.19999980926513671875</ele>
        <time>2026-05-08T15:24:24.000Z</time>
        <extensions>
          <ns3:TrackPointExtension>
            <ns3:atemp>26.0</ns3:atemp>
            <ns3:hr>100</ns3:hr>
          </ns3:TrackPointExtension>
        </extensions>
      </trkpt>
      <trkpt lat="48.76847374252974987030029296875" lon="-3.58284987509250640869140625">
        <ele>5</ele>
        <time>2026-05-08T15:24:28.000Z</time>
        <extensions>
          <ns3:TrackPointExtension>
            <ns3:atemp>26.0</ns3:atemp>
            <ns3:hr>100</ns3:hr>
          </ns3:TrackPointExtension>
        </extensions>
      </trkpt>
      <trkpt lat="48.768504671752452850341796875" lon="-3.5829315148293972015380859375">
        <ele>5.400000095367431640625</ele>
        <time>2026-05-08T15:24:34.000Z</time>
        <extensions>
          <ns3:TrackPointExtension>
            <ns3:atemp>26.0</ns3:atemp>
            <ns3:hr>100</ns3:hr>
          </ns3:TrackPointExtension>
        </extensions>
      </trkpt>
      <trkpt lat="48.768546581268310546875" lon="-3.58301751315593719482421875">
        <ele>5</ele>
        <time>2026-05-08T15:24:41.000Z</time>
        <extensions>
          <ns3:TrackPointExtension>
            <ns3:atemp>26.0</ns3:atemp>
            <ns3:hr>100</ns3:hr>
          </ns3:TrackPointExtension>
        </extensions>
      </trkpt>
      <trkpt lat="48.76857868395745754241943359375" lon="-3.58309990726411342620849609375">
        <ele>5.19999980926513671875</ele>
        <time>2026-05-08T15:24:47.000Z</time>
        <extensions>
          <ns3:TrackPointExtension>
            <ns3:atemp>26.0</ns3:atemp>
            <ns3:hr>100</ns3:hr>
          </ns3:TrackPointExtension>
        </extensions>
      </trkpt>
      <trkpt lat="48.76861019991338253021240234375" lon="-3.583165369927883148193359375">
        <ele>5.19999980926513671875</ele>
        <time>2026-05-08T15:24:52.000Z</time>
        <extensions>
          <ns3:TrackPointExtension>
            <ns3:atemp>26.0</ns3:atemp>
            <ns3:hr>99</ns3:hr>
          </ns3:TrackPointExtension>
        </extensions>
      </trkpt>
      <trkpt lat="48.7686285562813282012939453125" lon="-3.583249859511852264404296875">
        <ele>5.19999980926513671875</ele>
        <time>2026-05-08T15:24:58.000Z</time>
        <extensions>
          <ns3:TrackPointExtension>
            <ns3:atemp>26.0</ns3:atemp>
            <ns3:hr>99</ns3:hr>
          </ns3:TrackPointExtension>
        </extensions>
      </trkpt>
      <trkpt lat="48.768651187419891357421875" lon="-3.58333594165742397308349609375">
        <ele>5</ele>
        <time>2026-05-08T15:25:04.000Z</time>
        <extensions>
          <ns3:TrackPointExtension>
            <ns3:atemp>26.0</ns3:atemp>
            <ns3:hr>100</ns3:hr>
          </ns3:TrackPointExtension>
        </extensions>
      </trkpt>
      <trkpt lat="48.76867842860519886016845703125" lon="-3.5834468342363834381103515625">
        <ele>5</ele>
        <time>2026-05-08T15:25:11.000Z</time>
        <extensions>
          <ns3:TrackPointExtension>
            <ns3:atemp>26.0</ns3:atemp>
            <ns3:hr>99</ns3:hr>
          </ns3:TrackPointExtension>
        </extensions>
      </trkpt>
      <trkpt lat="48.7686912529170513153076171875" lon="-3.58351640403270721435546875">
        <ele>5.19999980926513671875</ele>
        <time>2026-05-08T15:25:16.000Z</time>
        <extensions>
          <ns3:TrackPointExtension>
            <ns3:atemp>26.0</ns3:atemp>
            <ns3:hr>101</ns3:hr>
          </ns3:TrackPointExtension>
        </extensions>
      </trkpt>
      <trkpt lat="48.76871497370302677154541015625" lon="-3.58360148034989833831787109375">
        <ele>5.599999904632568359375</ele>
        <time>2026-05-08T15:25:22.000Z</time>
        <extensions>
          <ns3:TrackPointExtension>
            <ns3:atemp>27.0</ns3:atemp>
            <ns3:hr>99</ns3:hr>
          </ns3:TrackPointExtension>
        </extensions>
      </trkpt>
      <trkpt lat="48.7687277980148792266845703125" lon="-3.58366032131016254425048828125">
        <ele>5.80000019073486328125</ele>
        <time>2026-05-08T15:25:26.000Z</time>
        <extensions>
          <ns3:TrackPointExtension>
            <ns3:atemp>27.0</ns3:atemp>
            <ns3:hr>96</ns3:hr>
          </ns3:TrackPointExtension>
        </extensions>
      </trkpt>
      <trkpt lat="48.768740035593509674072265625" lon="-3.58369954861700534820556640625">
        <ele>6</ele>
        <time>2026-05-08T15:25:29.000Z</time>
        <extensions>
          <ns3:TrackPointExtension>
            <ns3:atemp>27.0</ns3:atemp>
            <ns3:hr>96</ns3:hr>
          </ns3:TrackPointExtension>
        </extensions>
      </trkpt>
      <trkpt lat="48.768742382526397705078125" lon="-3.58371715061366558074951171875">
        <ele>6</ele>
        <time>2026-05-08T15:25:30.000Z</time>
        <extensions>
          <ns3:TrackPointExtension>
            <ns3:atemp>27.0</ns3:atemp>
            <ns3:hr>95</ns3:hr>
          </ns3:TrackPointExtension>
        </extensions>
      </trkpt>
      <trkpt lat="48.76875654794275760650634765625" lon="-3.58378060162067413330078125">
        <ele>5.599999904632568359375</ele>
        <time>2026-05-08T15:25:36.000Z</time>
        <extensions>
          <ns3:TrackPointExtension>
            <ns3:atemp>27.0</ns3:atemp>
            <ns3:hr>97</ns3:hr>
          </ns3:TrackPointExtension>
        </extensions>
      </trkpt>
      <trkpt lat="48.7687636725604534149169921875" lon="-3.58386240899562835693359375">
        <ele>5.599999904632568359375</ele>
        <time>2026-05-08T15:25:41.000Z</time>
        <extensions>
          <ns3:TrackPointExtension>
            <ns3:atemp>27.0</ns3:atemp>
            <ns3:hr>97</ns3:hr>
          </ns3:TrackPointExtension>
        </extensions>
      </trkpt>
      <trkpt lat="48.76878001727163791656494140625" lon="-3.583942539989948272705078125">
        <ele>5.400000095367431640625</ele>
        <time>2026-05-08T15:25:47.000Z</time>
        <extensions>
          <ns3:TrackPointExtension>
            <ns3:atemp>27.0</ns3:atemp>
            <ns3:hr>98</ns3:hr>
          </ns3:TrackPointExtension>
        </extensions>
      </trkpt>
      <trkpt lat="48.7687973678112030029296875" lon="-3.58402359299361705780029296875">
        <ele>5.80000019073486328125</ele>
        <time>2026-05-08T15:25:53.000Z</time>
        <extensions>
          <ns3:TrackPointExtension>
            <ns3:atemp>27.0</ns3:atemp>
            <ns3:hr>99</ns3:hr>
          </ns3:TrackPointExtension>
        </extensions>
      </trkpt>
      <trkpt lat="48.7688394449651241302490234375" lon="-3.5840986110270023345947265625">
        <ele>5.80000019073486328125</ele>
        <time>2026-05-08T15:25:59.000Z</time>
        <extensions>
          <ns3:TrackPointExtension>
            <ns3:atemp>27.0</ns3:atemp>
            <ns3:hr>100</ns3:hr>
          </ns3:TrackPointExtension>
        </extensions>
      </trkpt>
      <trkpt lat="48.76890256069600582122802734375" lon="-3.584137670695781707763671875">
        <ele>6.19999980926513671875</ele>
        <time>2026-05-08T15:26:07.000Z</time>
        <extensions>
          <ns3:TrackPointExtension>
            <ns3:atemp>27.0</ns3:atemp>
            <ns3:hr>100</ns3:hr>
          </ns3:TrackPointExtension>
        </extensions>
      </trkpt>
      <trkpt lat="48.76899073831737041473388671875" lon="-3.58417161740362644195556640625">
        <ele>6.80000019073486328125</ele>
        <time>2026-05-08T15:26:16.000Z</time>
        <extensions>
          <ns3:TrackPointExtension>
            <ns3:atemp>27.0</ns3:atemp>
            <ns3:hr>101</ns3:hr>
          </ns3:TrackPointExtension>
        </extensions>
      </trkpt>
      <trkpt lat="48.7690402753651142120361328125" lon="-3.58417396433651447296142578125">
        <ele>7</ele>
        <time>2026-05-08T15:26:21.000Z</time>
        <extensions>
          <ns3:TrackPointExtension>
            <ns3:atemp>26.0</ns3:atemp>
            <ns3:hr>102</ns3:hr>
          </ns3:TrackPointExtension>
        </extensions>
      </trkpt>
      <trkpt lat="48.769049160182476043701171875" lon="-3.584175221621990203857421875">
        <ele>7</ele>
        <time>2026-05-08T15:26:22.000Z</time>
        <extensions>
          <ns3:TrackPointExtension>
            <ns3:atemp>26.0</ns3:atemp>
            <ns3:hr>102</ns3:hr>
          </ns3:TrackPointExtension>
        </extensions>
      </trkpt>
      <trkpt lat="48.76906986348330974578857421875" lon="-3.58417312614619731903076171875">
        <ele>7</ele>
        <time>2026-05-08T15:26:24.000Z</time>
        <extensions>
          <ns3:TrackPointExtension>
            <ns3:atemp>26.0</ns3:atemp>
            <ns3:hr>103</ns3:hr>
          </ns3:TrackPointExtension>
        </extensions>
      </trkpt>
      <trkpt lat="48.76913188956677913665771484375" lon="-3.5841914825141429901123046875">
        <ele>7.400000095367431640625</ele>
        <time>2026-05-08T15:26:30.000Z</time>
        <extensions>
          <ns3:TrackPointExtension>
            <ns3:atemp>26.0</ns3:atemp>
            <ns3:hr>104</ns3:hr>
          </ns3:TrackPointExtension>
        </extensions>
      </trkpt>
      <trkpt lat="48.7691916525363922119140625" lon="-3.5842635668814182281494140625">
        <ele>7.400000095367431640625</ele>
        <time>2026-05-08T15:26:38.000Z</time>
        <extensions>
          <ns3:TrackPointExtension>
            <ns3:atemp>26.0</ns3:atemp>
            <ns3:hr>105</ns3:hr>
          </ns3:TrackPointExtension>
        </extensions>
      </trkpt>
      <trkpt lat="48.76922593452036380767822265625" lon="-3.5843135230243206024169921875">
        <ele>7.599999904632568359375</ele>
        <time>2026-05-08T15:26:43.000Z</time>
        <extensions>
          <ns3:TrackPointExtension>
            <ns3:atemp>26.0</ns3:atemp>
            <ns3:hr>106</ns3:hr>
          </ns3:TrackPointExtension>
        </extensions>
      </trkpt>
      <trkpt lat="48.76927421428263187408447265625" lon="-3.5843946598470211029052734375">
        <ele>7.80000019073486328125</ele>
        <time>2026-05-08T15:26:50.000Z</time>
        <extensions>
          <ns3:TrackPointExtension>
            <ns3:atemp>26.0</ns3:atemp>
            <ns3:hr>108</ns3:hr>
          </ns3:TrackPointExtension>
        </extensions>
      </trkpt>
      <trkpt lat="48.7693123519420623779296875" lon="-3.5844469629228115081787109375">
        <ele>7.80000019073486328125</ele>
        <time>2026-05-08T15:26:55.000Z</time>
        <extensions>
          <ns3:TrackPointExtension>
            <ns3:atemp>26.0</ns3:atemp>
            <ns3:hr>106</ns3:hr>
          </ns3:TrackPointExtension>
        </extensions>
      </trkpt>
      <trkpt lat="48.769354261457920074462890625" lon="-3.5844985954463481903076171875">
        <ele>7</ele>
        <time>2026-05-08T15:27:01.000Z</time>
        <extensions>
          <ns3:TrackPointExtension>
            <ns3:atemp>26.0</ns3:atemp>
            <ns3:hr>104</ns3:hr>
          </ns3:TrackPointExtension>
        </extensions>
      </trkpt>
      <trkpt lat="48.7693701870739459991455078125" lon="-3.58449314720928668975830078125">
        <ele>7</ele>
        <time>2026-05-08T15:27:02.000Z</time>
        <extensions>
          <ns3:TrackPointExtension>
            <ns3:atemp>26.0</ns3:atemp>
            <ns3:hr>104</ns3:hr>
          </ns3:TrackPointExtension>
        </extensions>
      </trkpt>
      <trkpt lat="48.76941134221851825714111328125" lon="-3.5844650678336620330810546875">
        <ele>7.19999980926513671875</ele>
        <time>2026-05-08T15:27:06.000Z</time>
        <extensions>
          <ns3:TrackPointExtension>
            <ns3:atemp>26.0</ns3:atemp>
            <ns3:hr>103</ns3:hr>
          </ns3:TrackPointExtension>
        </extensions>
      </trkpt>
      <trkpt lat="48.76946196891367435455322265625" lon="-3.58445241115987300872802734375">
        <ele>7.19999980926513671875</ele>
        <time>2026-05-08T15:27:13.000Z</time>
        <extensions>
          <ns3:TrackPointExtension>
            <ns3:atemp>26.0</ns3:atemp>
            <ns3:hr>103</ns3:hr>
          </ns3:TrackPointExtension>
        </extensions>
      </trkpt>
      <trkpt lat="48.76946481876075267791748046875" lon="-3.58444084413349628448486328125">
        <ele>7</ele>
        <time>2026-05-08T15:27:17.000Z</time>
        <extensions>
          <ns3:TrackPointExtension>
            <ns3:atemp>26.0</ns3:atemp>
            <ns3:hr>102</ns3:hr>
          </ns3:TrackPointExtension>
        </extensions>
      </trkpt>
      <trkpt lat="48.76944805495440959930419921875" lon="-3.584448136389255523681640625">
        <ele>7</ele>
        <time>2026-05-08T15:27:22.000Z</time>
        <extensions>
          <ns3:TrackPointExtension>
            <ns3:atemp>26.0</ns3:atemp>
            <ns3:hr>101</ns3:hr>
          </ns3:TrackPointExtension>
        </extensions>
      </trkpt>
      <trkpt lat="48.7694053910672664642333984375" lon="-3.5844962485134601593017578125">
        <ele>6.80000019073486328125</ele>
        <time>2026-05-08T15:27:28.000Z</time>
        <extensions>
          <ns3:TrackPointExtension>
            <ns3:atemp>26.0</ns3:atemp>
            <ns3:hr>100</ns3:hr>
          </ns3:TrackPointExtension>
        </extensions>
      </trkpt>
      <trkpt lat="48.76941804774105548858642578125" lon="-3.58455114997923374176025390625">
        <ele>6.80000019073486328125</ele>
        <time>2026-05-08T15:27:31.000Z</time>
        <extensions>
          <ns3:TrackPointExtension>
            <ns3:atemp>26.0</ns3:atemp>
            <ns3:hr>100</ns3:hr>
          </ns3:TrackPointExtension>
        </extensions>
      </trkpt>
      <trkpt lat="48.76943238079547882080078125" lon="-3.58458836562931537628173828125">
        <ele>7</ele>
        <time>2026-05-08T15:27:33.000Z</time>
        <extensions>
          <ns3:TrackPointExtension>
            <ns3:atemp>26.0</ns3:atemp>
            <ns3:hr>100</ns3:hr>
          </ns3:TrackPointExtension>
        </extensions>
      </trkpt>
      <trkpt lat="48.76947370357811450958251953125" lon="-3.58465424738824367523193359375">
        <ele>7.400000095367431640625</ele>
        <time>2026-05-08T15:27:38.000Z</time>
        <extensions>
          <ns3:TrackPointExtension>
            <ns3:atemp>26.0</ns3:atemp>
            <ns3:hr>100</ns3:hr>
          </ns3:TrackPointExtension>
        </extensions>
      </trkpt>
      <trkpt lat="48.76952617429196834564208984375" lon="-3.5847517289221286773681640625">
        <ele>6.80000019073486328125</ele>
        <time>2026-05-08T15:27:45.000Z</time>
        <extensions>
          <ns3:TrackPointExtension>
            <ns3:atemp>26.0</ns3:atemp>
            <ns3:hr>101</ns3:hr>
          </ns3:TrackPointExtension>
        </extensions>
      </trkpt>
      <trkpt lat="48.76958501525223255157470703125" lon="-3.58476069755852222442626953125">
        <ele>7</ele>
        <time>2026-05-08T15:27:51.000Z</time>
        <extensions>
          <ns3:TrackPointExtension>
            <ns3:atemp>26.0</ns3:atemp>
            <ns3:hr>102</ns3:hr>
          </ns3:TrackPointExtension>
        </extensions>
      </trkpt>
      <trkpt lat="48.76961954869329929351806640625" lon="-3.584739156067371368408203125">
        <ele>6.80000019073486328125</ele>
        <time>2026-05-08T15:27:58.000Z</time>
        <extensions>
          <ns3:TrackPointExtension>
            <ns3:atemp>26.0</ns3:atemp>
            <ns3:hr>101</ns3:hr>
          </ns3:TrackPointExtension>
        </extensions>
      </trkpt>
      <trkpt lat="48.76957981847226619720458984375" lon="-3.58474343083798885345458984375">
        <ele>7.19999980926513671875</ele>
        <time>2026-05-08T15:28:06.000Z</time>
        <extensions>
          <ns3:TrackPointExtension>
            <ns3:atemp>26.0</ns3:atemp>
            <ns3:hr>101</ns3:hr>
          </ns3:TrackPointExtension>
        </extensions>
      </trkpt>
      <trkpt lat="48.76957411877810955047607421875" lon="-3.58475717715919017791748046875">
        <ele>7</ele>
        <time>2026-05-08T15:28:15.000Z</time>
        <extensions>
          <ns3:TrackPointExtension>
            <ns3:atemp>26.0</ns3:atemp>
            <ns3:hr>102</ns3:hr>
          </ns3:TrackPointExtension>
        </extensions>
      </trkpt>
      <trkpt lat="48.7695807404816150665283203125" lon="-3.5847688280045986175537109375">
        <ele>7.19999980926513671875</ele>
        <time>2026-05-08T15:28:21.000Z</time>
        <extensions>
          <ns3:TrackPointExtension>
            <ns3:atemp>26.0</ns3:atemp>
            <ns3:hr>102</ns3:hr>
          </ns3:TrackPointExtension>
        </extensions>
      </trkpt>
      <trkpt lat="48.7696122564375400543212890625" lon="-3.58472364954650402069091796875">
        <ele>7.400000095367431640625</ele>
        <time>2026-05-08T15:28:28.000Z</time>
        <extensions>
          <ns3:TrackPointExtension>
            <ns3:atemp>26.0</ns3:atemp>
            <ns3:hr>102</ns3:hr>
          </ns3:TrackPointExtension>
        </extensions>
      </trkpt>
      <trkpt lat="48.76964536495506763458251953125" lon="-3.58468609862029552459716796875">
        <ele>7.400000095367431640625</ele>
        <time>2026-05-08T15:28:34.000Z</time>
        <extensions>
          <ns3:TrackPointExtension>
            <ns3:atemp>26.0</ns3:atemp>
            <ns3:hr>102</ns3:hr>
          </ns3:TrackPointExtension>
        </extensions>
      </trkpt>
      <trkpt lat="48.7696826644241809844970703125" lon="-3.584641255438327789306640625">
        <ele>7.19999980926513671875</ele>
        <time>2026-05-08T15:28:40.000Z</time>
        <extensions>
          <ns3:TrackPointExtension>
            <ns3:atemp>26.0</ns3:atemp>
            <ns3:hr>101</ns3:hr>
          </ns3:TrackPointExtension>
        </extensions>
      </trkpt>
      <trkpt lat="48.76969381235539913177490234375" lon="-3.58460965566337108612060546875">
        <ele>7</ele>
        <time>2026-05-08T15:28:47.000Z</time>
        <extensions>
          <ns3:TrackPointExtension>
            <ns3:atemp>26.0</ns3:atemp>
            <ns3:hr>103</ns3:hr>
          </ns3:TrackPointExtension>
        </extensions>
      </trkpt>
      <trkpt lat="48.769662044942378997802734375" lon="-3.58456221409142017364501953125">
        <ele>7</ele>
        <time>2026-05-08T15:28:53.000Z</time>
        <extensions>
          <ns3:TrackPointExtension>
            <ns3:atemp>26.0</ns3:atemp>
            <ns3:hr>104</ns3:hr>
          </ns3:TrackPointExtension>
        </extensions>
      </trkpt>
      <trkpt lat="48.76964159309864044189453125" lon="-3.5845227353274822235107421875">
        <ele>7.400000095367431640625</ele>
        <time>2026-05-08T15:29:00.000Z</time>
        <extensions>
          <ns3:TrackPointExtension>
            <ns3:atemp>26.0</ns3:atemp>
            <ns3:hr>105</ns3:hr>
          </ns3:TrackPointExtension>
        </extensions>
      </trkpt>
      <trkpt lat="48.7696166150271892547607421875" lon="-3.5845291055738925933837890625">
        <ele>7.400000095367431640625</ele>
        <time>2026-05-08T15:29:05.000Z</time>
        <extensions>
          <ns3:TrackPointExtension>
            <ns3:atemp>26.0</ns3:atemp>
            <ns3:hr>106</ns3:hr>
          </ns3:TrackPointExtension>
        </extensions>
      </trkpt>
      <trkpt lat="48.76960496418178081512451171875" lon="-3.5845398344099521636962890625">
        <ele>7.599999904632568359375</ele>
        <time>2026-05-08T15:29:13.000Z</time>
        <extensions>
          <ns3:TrackPointExtension>
            <ns3:atemp>26.0</ns3:atemp>
            <ns3:hr>107</ns3:hr>
          </ns3:TrackPointExtension>
        </extensions>
      </trkpt>
      <trkpt lat="48.76960446126759052276611328125" lon="-3.58454092405736446380615234375">
        <ele>7.599999904632568359375</ele>
        <time>2026-05-08T15:29:17.000Z</time>
        <extensions>
          <ns3:TrackPointExtension>
            <ns3:atemp>26.0</ns3:atemp>
            <ns3:hr>103</ns3:hr>
          </ns3:TrackPointExtension>
        </extensions>
      </trkpt>
      <trkpt lat="48.7696146033704280853271484375" lon="-3.58456623740494251251220703125">
        <ele>7.80000019073486328125</ele>
        <time>2026-05-08T15:29:19.000Z</time>
        <extensions>
          <ns3:TrackPointExtension>
            <ns3:atemp>26.0</ns3:atemp>
            <ns3:hr>97</ns3:hr>
          </ns3:TrackPointExtension>
        </extensions>
      </trkpt>
      <trkpt lat="48.7696216441690921783447265625" lon="-3.5845703445374965667724609375">
        <ele>7.80000019073486328125</ele>
        <time>2026-05-08T15:29:20.000Z</time>
        <extensions>
          <ns3:TrackPointExtension>
            <ns3:atemp>26.0</ns3:atemp>
            <ns3:hr>91</ns3:hr>
          </ns3:TrackPointExtension>
        </extensions>
      </trkpt>
      <trkpt lat="48.76963061280548572540283203125" lon="-3.584576547145843505859375">
        <ele>7.80000019073486328125</ele>
        <time>2026-05-08T15:29:21.000Z</time>
        <extensions>
          <ns3:TrackPointExtension>
            <ns3:atemp>25.0</ns3:atemp>
            <ns3:hr>90</ns3:hr>
          </ns3:TrackPointExtension>
        </extensions>
      </trkpt>
      <trkpt lat="48.76967604272067546844482421875" lon="-3.5846397466957569122314453125">
        <ele>7.599999904632568359375</ele>
        <time>2026-05-08T15:29:29.000Z</time>
        <extensions>
          <ns3:TrackPointExtension>
            <ns3:atemp>25.0</ns3:atemp>
            <ns3:hr>90</ns3:hr>
          </ns3:TrackPointExtension>
        </extensions>
      </trkpt>
      <trkpt lat="48.7696756236255168914794921875" lon="-3.58465525321662425994873046875">
        <ele>7.599999904632568359375</ele>
        <time>2026-05-08T15:29:31.000Z</time>
        <extensions>
          <ns3:TrackPointExtension>
            <ns3:atemp>25.0</ns3:atemp>
            <ns3:hr>91</ns3:hr>
          </ns3:TrackPointExtension>
        </extensions>
      </trkpt>
      <trkpt lat="48.769654668867588043212890625" lon="-3.58469515107572078704833984375">
        <ele>7.80000019073486328125</ele>
        <time>2026-05-08T15:29:36.000Z</time>
        <extensions>
          <ns3:TrackPointExtension>
            <ns3:atemp>25.0</ns3:atemp>
            <ns3:hr>91</ns3:hr>
          </ns3:TrackPointExtension>
        </extensions>
      </trkpt>
      <trkpt lat="48.76964720897376537322998046875" lon="-3.584716357290744781494140625">
        <ele>7.599999904632568359375</ele>
        <time>2026-05-08T15:29:47.000Z</time>
        <extensions>
          <ns3:TrackPointExtension>
            <ns3:atemp>25.0</ns3:atemp>
            <ns3:hr>93</ns3:hr>
          </ns3:TrackPointExtension>
        </extensions>
      </trkpt>
      <trkpt lat="48.76964804716408252716064453125" lon="-3.5846987552940845489501953125">
        <ele>7.80000019073486328125</ele>
        <time>2026-05-08T15:30:11.000Z</time>
        <extensions>
          <ns3:TrackPointExtension>
            <ns3:atemp>25.0</ns3:atemp>
            <ns3:hr>96</ns3:hr>
          </ns3:TrackPointExtension>
        </extensions>
      </trkpt>
      <trkpt lat="48.76964469440281391143798828125" lon="-3.584698922932147979736328125">
        <ele>8</ele>
        <time>2026-05-08T15:30:16.000Z</time>
        <extensions>
          <ns3:TrackPointExtension>
            <ns3:atemp>25.0</ns3:atemp>
            <ns3:hr>96</ns3:hr>
          </ns3:TrackPointExtension>
        </extensions>
      </trkpt>
      <trkpt lat="48.7696404196321964263916015625" lon="-3.584695570170879364013671875">
        <ele>8</ele>
        <time>2026-05-08T15:30:19.000Z</time>
        <extensions>
          <ns3:TrackPointExtension>
            <ns3:atemp>25.0</ns3:atemp>
            <ns3:hr>95</ns3:hr>
          </ns3:TrackPointExtension>
        </extensions>
      </trkpt>
      <trkpt lat="48.7696410901844501495361328125" lon="-3.58469028957188129425048828125">
        <ele>8</ele>
        <time>2026-05-08T15:30:21.000Z</time>
        <extensions>
          <ns3:TrackPointExtension>
            <ns3:atemp>24.0</ns3:atemp>
            <ns3:hr>95</ns3:hr>
          </ns3:TrackPointExtension>
        </extensions>
      </trkpt>
      <trkpt lat="48.7696444429457187652587890625" lon="-3.58467838726937770843505859375">
        <ele>8</ele>
        <time>2026-05-08T15:30:34.000Z</time>
        <extensions>
          <ns3:TrackPointExtension>
            <ns3:atemp>24.0</ns3:atemp>
            <ns3:hr>96</ns3:hr>
          </ns3:TrackPointExtension>
        </extensions>
      </trkpt>
      <trkpt lat="48.7696454487740993499755859375" lon="-3.5846699215471744537353515625">
        <ele>8.3999996185302734375</ele>
        <time>2026-05-08T15:30:46.000Z</time>
        <extensions>
          <ns3:TrackPointExtension>
            <ns3:atemp>24.0</ns3:atemp>
            <ns3:hr>94</ns3:hr>
          </ns3:TrackPointExtension>
        </extensions>
      </trkpt>
      <trkpt lat="48.76964016817510128021240234375" lon="-3.58465659432113170623779296875">
        <ele>8.19999980926513671875</ele>
        <time>2026-05-08T15:30:55.000Z</time>
        <extensions>
          <ns3:TrackPointExtension>
            <ns3:atemp>24.0</ns3:atemp>
            <ns3:hr>93</ns3:hr>
          </ns3:TrackPointExtension>
        </extensions>
      </trkpt>
      <trkpt lat="48.7696449458599090576171875" lon="-3.584669418632984161376953125">
        <ele>8.19999980926513671875</ele>
        <time>2026-05-08T15:31:09.000Z</time>
        <extensions>
          <ns3:TrackPointExtension>
            <ns3:atemp>24.0</ns3:atemp>
            <ns3:hr>90</ns3:hr>
          </ns3:TrackPointExtension>
        </extensions>
      </trkpt>
      <trkpt lat="48.7696449458599090576171875" lon="-3.584669418632984161376953125">
        <ele>8</ele>
        <time>2026-05-08T15:31:16.000Z</time>
        <extensions>
          <ns3:TrackPointExtension>
            <ns3:atemp>24.0</ns3:atemp>
            <ns3:hr>87</ns3:hr>
          </ns3:TrackPointExtension>
        </extensions>
      </trkpt>
      <trkpt lat="48.7696449458599090576171875" lon="-3.584669418632984161376953125">
        <ele>8.3999996185302734375</ele>
        <time>2026-05-08T15:31:19.000Z</time>
        <extensions>
          <ns3:TrackPointExtension>
            <ns3:atemp>24.0</ns3:atemp>
            <ns3:hr>85</ns3:hr>
          </ns3:TrackPointExtension>
        </extensions>
      </trkpt>
      <trkpt lat="48.7696449458599090576171875" lon="-3.584669418632984161376953125">
        <ele>8.19999980926513671875</ele>
        <time>2026-05-08T15:31:21.000Z</time>
        <extensions>
          <ns3:TrackPointExtension>
            <ns3:atemp>23.0</ns3:atemp>
            <ns3:hr>83</ns3:hr>
          </ns3:TrackPointExtension>
        </extensions>
      </trkpt>
      <trkpt lat="48.7696449458599090576171875" lon="-3.584669418632984161376953125">
        <ele>8.19999980926513671875</ele>
        <time>2026-05-08T15:31:34.000Z</time>
        <extensions>
          <ns3:TrackPointExtension>
            <ns3:atemp>23.0</ns3:atemp>
            <ns3:hr>83</ns3:hr>
          </ns3:TrackPointExtension>
        </extensions>
      </trkpt>
      <trkpt lat="48.7696449458599090576171875" lon="-3.584669418632984161376953125">
        <ele>8.19999980926513671875</ele>
        <time>2026-05-08T15:31:38.000Z</time>
        <extensions>
          <ns3:TrackPointExtension>
            <ns3:atemp>23.0</ns3:atemp>
            <ns3:hr>86</ns3:hr>
          </ns3:TrackPointExtension>
        </extensions>
      </trkpt>
      <trkpt lat="48.7696449458599090576171875" lon="-3.584669418632984161376953125">
        <ele>8.3999996185302734375</ele>
        <time>2026-05-08T15:31:39.000Z</time>
        <extensions>
          <ns3:TrackPointExtension>
            <ns3:atemp>23.0</ns3:atemp>
            <ns3:hr>89</ns3:hr>
          </ns3:TrackPointExtension>
        </extensions>
      </trkpt>
      <trkpt lat="48.7696449458599090576171875" lon="-3.584669418632984161376953125">
        <ele>8.3999996185302734375</ele>
        <time>2026-05-08T15:31:40.000Z</time>
        <extensions>
          <ns3:TrackPointExtension>
            <ns3:atemp>23.0</ns3:atemp>
            <ns3:hr>93</ns3:hr>
          </ns3:TrackPointExtension>
        </extensions>
      </trkpt>
      <trkpt lat="48.7696449458599090576171875" lon="-3.584669418632984161376953125">
        <ele>8.3999996185302734375</ele>
        <time>2026-05-08T15:31:53.000Z</time>
        <extensions>
          <ns3:TrackPointExtension>
            <ns3:atemp>23.0</ns3:atemp>
            <ns3:hr>96</ns3:hr>
          </ns3:TrackPointExtension>
        </extensions>
      </trkpt>
      <trkpt lat="48.7696449458599090576171875" lon="-3.584669418632984161376953125">
        <ele>8.80000019073486328125</ele>
        <time>2026-05-08T15:31:56.000Z</time>
        <extensions>
          <ns3:TrackPointExtension>
            <ns3:atemp>23.0</ns3:atemp>
            <ns3:hr>97</ns3:hr>
          </ns3:TrackPointExtension>
        </extensions>
      </trkpt>
      <trkpt lat="48.7696449458599090576171875" lon="-3.584669418632984161376953125">
        <ele>9</ele>
        <time>2026-05-08T15:31:57.000Z</time>
        <extensions>
          <ns3:TrackPointExtension>
            <ns3:atemp>23.0</ns3:atemp>
            <ns3:hr>97</ns3:hr>
          </ns3:TrackPointExtension>
        </extensions>
      </trkpt>
      <trkpt lat="48.76963983289897441864013671875" lon="-3.58465827070176601409912109375">
        <ele>9</ele>
        <time>2026-05-08T15:32:20.000Z</time>
        <extensions>
          <ns3:TrackPointExtension>
            <ns3:atemp>23.0</ns3:atemp>
            <ns3:hr>94</ns3:hr>
          </ns3:TrackPointExtension>
        </extensions>
      </trkpt>
      <trkpt lat="48.76963966526091098785400390625" lon="-3.584660030901432037353515625">
        <ele>9</ele>
        <time>2026-05-08T15:32:21.000Z</time>
        <extensions>
          <ns3:TrackPointExtension>
            <ns3:atemp>22.0</ns3:atemp>
            <ns3:hr>94</ns3:hr>
          </ns3:TrackPointExtension>
        </extensions>
      </trkpt>
      <trkpt lat="48.76964285038411617279052734375" lon="-3.58466128818690776824951171875">
        <ele>8.80000019073486328125</ele>
        <time>2026-05-08T15:32:23.000Z</time>
        <extensions>
          <ns3:TrackPointExtension>
            <ns3:atemp>22.0</ns3:atemp>
            <ns3:hr>95</ns3:hr>
          </ns3:TrackPointExtension>
        </extensions>
      </trkpt>
      <trkpt lat="48.769680149853229522705078125" lon="-3.5846315324306488037109375">
        <ele>8.80000019073486328125</ele>
        <time>2026-05-08T15:32:30.000Z</time>
        <extensions>
          <ns3:TrackPointExtension>
            <ns3:atemp>22.0</ns3:atemp>
            <ns3:hr>95</ns3:hr>
          </ns3:TrackPointExtension>
        </extensions>
      </trkpt>
      <trkpt lat="48.7697004340589046478271484375" lon="-3.58461334370076656341552734375">
        <ele>9.3999996185302734375</ele>
        <time>2026-05-08T15:32:37.000Z</time>
        <extensions>
          <ns3:TrackPointExtension>
            <ns3:atemp>22.0</ns3:atemp>
            <ns3:hr>96</ns3:hr>
          </ns3:TrackPointExtension>
        </extensions>
      </trkpt>
      <trkpt lat="48.7697004340589046478271484375" lon="-3.58461334370076656341552734375">
        <ele>9</ele>
        <time>2026-05-08T15:32:41.000Z</time>
        <extensions>
          <ns3:TrackPointExtension>
            <ns3:atemp>22.0</ns3:atemp>
            <ns3:hr>99</ns3:hr>
          </ns3:TrackPointExtension>
        </extensions>
      </trkpt>
      <trkpt lat="48.7696840055286884307861328125" lon="-3.5846337117254734039306640625">
        <ele>8.3999996185302734375</ele>
        <time>2026-05-08T15:32:45.000Z</time>
        <extensions>
          <ns3:TrackPointExtension>
            <ns3:atemp>22.0</ns3:atemp>
            <ns3:hr>96</ns3:hr>
          </ns3:TrackPointExtension>
        </extensions>
      </trkpt>
      <trkpt lat="48.76965525560081005096435546875" lon="-3.5846632160246372222900390625">
        <ele>9.19999980926513671875</ele>
        <time>2026-05-08T15:32:48.000Z</time>
        <extensions>
          <ns3:TrackPointExtension>
            <ns3:atemp>22.0</ns3:atemp>
            <ns3:hr>93</ns3:hr>
          </ns3:TrackPointExtension>
        </extensions>
      </trkpt>
      <trkpt lat="48.7695991806685924530029296875" lon="-3.58472750522196292877197265625">
        <ele>9.3999996185302734375</ele>
        <time>2026-05-08T15:32:54.000Z</time>
        <extensions>
          <ns3:TrackPointExtension>
            <ns3:atemp>22.0</ns3:atemp>
            <ns3:hr>93</ns3:hr>
          </ns3:TrackPointExtension>
        </extensions>
      </trkpt>
      <trkpt lat="48.76958199776709079742431640625" lon="-3.5847762040793895721435546875">
        <ele>9.19999980926513671875</ele>
        <time>2026-05-08T15:32:57.000Z</time>
        <extensions>
          <ns3:TrackPointExtension>
            <ns3:atemp>22.0</ns3:atemp>
            <ns3:hr>93</ns3:hr>
          </ns3:TrackPointExtension>
        </extensions>
      </trkpt>
      <trkpt lat="48.76956774853169918060302734375" lon="-3.584800846874713897705078125">
        <ele>9</ele>
        <time>2026-05-08T15:33:00.000Z</time>
        <extensions>
          <ns3:TrackPointExtension>
            <ns3:atemp>22.0</ns3:atemp>
            <ns3:hr>94</ns3:hr>
          </ns3:TrackPointExtension>
        </extensions>
      </trkpt>
      <trkpt lat="48.7695589475333690643310546875" lon="-3.58481501229107379913330078125">
        <ele>9</ele>
        <time>2026-05-08T15:33:01.000Z</time>
        <extensions>
          <ns3:TrackPointExtension>
            <ns3:atemp>22.0</ns3:atemp>
            <ns3:hr>94</ns3:hr>
          </ns3:TrackPointExtension>
        </extensions>
      </trkpt>
      <trkpt lat="48.769508488476276397705078125" lon="-3.584878630936145782470703125">
        <ele>8.3999996185302734375</ele>
        <time>2026-05-08T15:33:08.000Z</time>
        <extensions>
          <ns3:TrackPointExtension>
            <ns3:atemp>22.0</ns3:atemp>
            <ns3:hr>96</ns3:hr>
          </ns3:TrackPointExtension>
        </extensions>
      </trkpt>
      <trkpt lat="48.7694426067173480987548828125" lon="-3.58493261039257049560546875">
        <ele>8.6000003814697265625</ele>
        <time>2026-05-08T15:33:14.000Z</time>
        <extensions>
          <ns3:TrackPointExtension>
            <ns3:atemp>22.0</ns3:atemp>
            <ns3:hr>98</ns3:hr>
          </ns3:TrackPointExtension>
        </extensions>
      </trkpt>
      <trkpt lat="48.76937731169164180755615234375" lon="-3.5850018449127674102783203125">
        <ele>8.6000003814697265625</ele>
        <time>2026-05-08T15:33:21.000Z</time>
        <extensions>
          <ns3:TrackPointExtension>
            <ns3:atemp>21.0</ns3:atemp>
            <ns3:hr>99</ns3:hr>
          </ns3:TrackPointExtension>
        </extensions>
      </trkpt>
      <trkpt lat="48.76931495033204555511474609375" lon="-3.5850796289741992950439453125">
        <ele>8.19999980926513671875</ele>
        <time>2026-05-08T15:33:28.000Z</time>
        <extensions>
          <ns3:TrackPointExtension>
            <ns3:atemp>21.0</ns3:atemp>
            <ns3:hr>100</ns3:hr>
          </ns3:TrackPointExtension>
        </extensions>
      </trkpt>
      <trkpt lat="48.7692612223327159881591796875" lon="-3.58515246771275997161865234375">
        <ele>8.19999980926513671875</ele>
        <time>2026-05-08T15:33:34.000Z</time>
        <extensions>
          <ns3:TrackPointExtension>
            <ns3:atemp>21.0</ns3:atemp>
            <ns3:hr>101</ns3:hr>
          </ns3:TrackPointExtension>
        </extensions>
      </trkpt>
      <trkpt lat="48.7692310474812984466552734375" lon="-3.58518381603062152862548828125">
        <ele>8</ele>
        <time>2026-05-08T15:33:37.000Z</time>
        <extensions>
          <ns3:TrackPointExtension>
            <ns3:atemp>21.0</ns3:atemp>
            <ns3:hr>100</ns3:hr>
          </ns3:TrackPointExtension>
        </extensions>
      </trkpt>
      <trkpt lat="48.76919500529766082763671875" lon="-3.5852368734776973724365234375">
        <ele>8.19999980926513671875</ele>
        <time>2026-05-08T15:33:41.000Z</time>
        <extensions>
          <ns3:TrackPointExtension>
            <ns3:atemp>21.0</ns3:atemp>
            <ns3:hr>100</ns3:hr>
          </ns3:TrackPointExtension>
        </extensions>
      </trkpt>
      <trkpt lat="48.7691354937851428985595703125" lon="-3.5853052698075771331787109375">
        <ele>7.80000019073486328125</ele>
        <time>2026-05-08T15:33:47.000Z</time>
        <extensions>
          <ns3:TrackPointExtension>
            <ns3:atemp>21.0</ns3:atemp>
            <ns3:hr>100</ns3:hr>
          </ns3:TrackPointExtension>
        </extensions>
      </trkpt>
      <trkpt lat="48.7690563686192035675048828125" lon="-3.58539554290473461151123046875">
        <ele>8.19999980926513671875</ele>
        <time>2026-05-08T15:33:55.000Z</time>
        <extensions>
          <ns3:TrackPointExtension>
            <ns3:atemp>21.0</ns3:atemp>
            <ns3:hr>100</ns3:hr>
          </ns3:TrackPointExtension>
        </extensions>
      </trkpt>
      <trkpt lat="48.7689420394599437713623046875" lon="-3.58552026562392711639404296875">
        <ele>7.599999904632568359375</ele>
        <time>2026-05-08T15:34:06.000Z</time>
        <extensions>
          <ns3:TrackPointExtension>
            <ns3:atemp>21.0</ns3:atemp>
            <ns3:hr>100</ns3:hr>
          </ns3:TrackPointExtension>
        </extensions>
      </trkpt>
      <trkpt lat="48.7688577175140380859375" lon="-3.5856040008366107940673828125">
        <ele>7.80000019073486328125</ele>
        <time>2026-05-08T15:34:14.000Z</time>
        <extensions>
          <ns3:TrackPointExtension>
            <ns3:atemp>21.0</ns3:atemp>
            <ns3:hr>98</ns3:hr>
          </ns3:TrackPointExtension>
        </extensions>
      </trkpt>
      <trkpt lat="48.76880818046629428863525390625" lon="-3.5856596566736698150634765625">
        <ele>7.599999904632568359375</ele>
        <time>2026-05-08T15:34:19.000Z</time>
        <extensions>
          <ns3:TrackPointExtension>
            <ns3:atemp>21.0</ns3:atemp>
            <ns3:hr>99</ns3:hr>
          </ns3:TrackPointExtension>
        </extensions>
      </trkpt>
      <trkpt lat="48.768791668117046356201171875" lon="-3.5856908373534679412841796875">
        <ele>7.599999904632568359375</ele>
        <time>2026-05-08T15:34:21.000Z</time>
        <extensions>
          <ns3:TrackPointExtension>
            <ns3:atemp>21.0</ns3:atemp>
            <ns3:hr>98</ns3:hr>
          </ns3:TrackPointExtension>
        </extensions>
      </trkpt>
      <trkpt lat="48.76872159540653228759765625" lon="-3.58578077517449855804443359375">
        <ele>7.19999980926513671875</ele>
        <time>2026-05-08T15:34:29.000Z</time>
        <extensions>
          <ns3:TrackPointExtension>
            <ns3:atemp>21.0</ns3:atemp>
            <ns3:hr>97</ns3:hr>
          </ns3:TrackPointExtension>
        </extensions>
      </trkpt>
      <trkpt lat="48.76865143887698650360107421875" lon="-3.58588873408734798431396484375">
        <ele>7.400000095367431640625</ele>
        <time>2026-05-08T15:34:37.000Z</time>
        <extensions>
          <ns3:TrackPointExtension>
            <ns3:atemp>21.0</ns3:atemp>
            <ns3:hr>96</ns3:hr>
          </ns3:TrackPointExtension>
        </extensions>
      </trkpt>
      <trkpt lat="48.76858572475612163543701171875" lon="-3.585961572825908660888671875">
        <ele>7.599999904632568359375</ele>
        <time>2026-05-08T15:34:44.000Z</time>
        <extensions>
          <ns3:TrackPointExtension>
            <ns3:atemp>21.0</ns3:atemp>
            <ns3:hr>96</ns3:hr>
          </ns3:TrackPointExtension>
        </extensions>
      </trkpt>
      <trkpt lat="48.7685071863234043121337890625" lon="-3.58603441156446933746337890625">
        <ele>7.80000019073486328125</ele>
        <time>2026-05-08T15:34:52.000Z</time>
        <extensions>
          <ns3:TrackPointExtension>
            <ns3:atemp>21.0</ns3:atemp>
            <ns3:hr>95</ns3:hr>
          </ns3:TrackPointExtension>
        </extensions>
      </trkpt>
      <trkpt lat="48.76844122074544429779052734375" lon="-3.58607917092740535736083984375">
        <ele>8</ele>
        <time>2026-05-08T15:34:59.000Z</time>
        <extensions>
          <ns3:TrackPointExtension>
            <ns3:atemp>21.0</ns3:atemp>
            <ns3:hr>95</ns3:hr>
          </ns3:TrackPointExtension>
        </extensions>
      </trkpt>
      <trkpt lat="48.7684243731200695037841796875" lon="-3.58611680567264556884765625">
        <ele>8.80000019073486328125</ele>
        <time>2026-05-08T15:35:03.000Z</time>
        <extensions>
          <ns3:TrackPointExtension>
            <ns3:atemp>21.0</ns3:atemp>
            <ns3:hr>96</ns3:hr>
          </ns3:TrackPointExtension>
        </extensions>
      </trkpt>
      <trkpt lat="48.76842445693910121917724609375" lon="-3.58613516204059123992919921875">
        <ele>8.80000019073486328125</ele>
        <time>2026-05-08T15:35:04.000Z</time>
        <extensions>
          <ns3:TrackPointExtension>
            <ns3:atemp>21.0</ns3:atemp>
            <ns3:hr>97</ns3:hr>
          </ns3:TrackPointExtension>
        </extensions>
      </trkpt>
      <trkpt lat="48.7684280611574649810791015625" lon="-3.58617044985294342041015625">
        <ele>9.19999980926513671875</ele>
        <time>2026-05-08T15:35:06.000Z</time>
        <extensions>
          <ns3:TrackPointExtension>
            <ns3:atemp>21.0</ns3:atemp>
            <ns3:hr>97</ns3:hr>
          </ns3:TrackPointExtension>
        </extensions>
      </trkpt>
      <trkpt lat="48.76844490878283977508544921875" lon="-3.5862621478736400604248046875">
        <ele>9.6000003814697265625</ele>
        <time>2026-05-08T15:35:12.000Z</time>
        <extensions>
          <ns3:TrackPointExtension>
            <ns3:atemp>21.0</ns3:atemp>
            <ns3:hr>97</ns3:hr>
          </ns3:TrackPointExtension>
        </extensions>
      </trkpt>
      <trkpt lat="48.7684733234345912933349609375" lon="-3.58633079566061496734619140625">
        <ele>9.6000003814697265625</ele>
        <time>2026-05-08T15:35:17.000Z</time>
        <extensions>
          <ns3:TrackPointExtension>
            <ns3:atemp>21.0</ns3:atemp>
            <ns3:hr>99</ns3:hr>
          </ns3:TrackPointExtension>
        </extensions>
      </trkpt>
      <trkpt lat="48.76847256906330585479736328125" lon="-3.586418889462947845458984375">
        <ele>9.80000019073486328125</ele>
        <time>2026-05-08T15:35:22.000Z</time>
        <extensions>
          <ns3:TrackPointExtension>
            <ns3:atemp>21.0</ns3:atemp>
            <ns3:hr>100</ns3:hr>
          </ns3:TrackPointExtension>
        </extensions>
      </trkpt>
      <trkpt lat="48.76846083439886569976806640625" lon="-3.58648032881319522857666015625">
        <ele>10.19999980926513671875</ele>
        <time>2026-05-08T15:35:26.000Z</time>
        <extensions>
          <ns3:TrackPointExtension>
            <ns3:atemp>21.0</ns3:atemp>
            <ns3:hr>101</ns3:hr>
          </ns3:TrackPointExtension>
        </extensions>
      </trkpt>
      <trkpt lat="48.76845614053308963775634765625" lon="-3.58655040152370929718017578125">
        <ele>10.6000003814697265625</ele>
        <time>2026-05-08T15:35:30.000Z</time>
        <extensions>
          <ns3:TrackPointExtension>
            <ns3:atemp>21.0</ns3:atemp>
            <ns3:hr>102</ns3:hr>
          </ns3:TrackPointExtension>
        </extensions>
      </trkpt>
      <trkpt lat="48.7684609182178974151611328125" lon="-3.586602620780467987060546875">
        <ele>11.3999996185302734375</ele>
        <time>2026-05-08T15:35:33.000Z</time>
        <extensions>
          <ns3:TrackPointExtension>
            <ns3:atemp>21.0</ns3:atemp>
            <ns3:hr>103</ns3:hr>
          </ns3:TrackPointExtension>
        </extensions>
      </trkpt>
      <trkpt lat="48.7684632651507854461669921875" lon="-3.5866353102028369903564453125">
        <ele>12</ele>
        <time>2026-05-08T15:35:35.000Z</time>
        <extensions>
          <ns3:TrackPointExtension>
            <ns3:atemp>21.0</ns3:atemp>
            <ns3:hr>106</ns3:hr>
          </ns3:TrackPointExtension>
        </extensions>
      </trkpt>
      <trkpt lat="48.7684689648449420928955078125" lon="-3.5866711847484111785888671875">
        <ele>12.3999996185302734375</ele>
        <time>2026-05-08T15:35:37.000Z</time>
        <extensions>
          <ns3:TrackPointExtension>
            <ns3:atemp>21.0</ns3:atemp>
            <ns3:hr>108</ns3:hr>
          </ns3:TrackPointExtension>
        </extensions>
      </trkpt>
      <trkpt lat="48.768471144139766693115234375" lon="-3.5866886191070079803466796875">
        <ele>12.6000003814697265625</ele>
        <time>2026-05-08T15:35:38.000Z</time>
        <extensions>
          <ns3:TrackPointExtension>
            <ns3:atemp>21.0</ns3:atemp>
            <ns3:hr>109</ns3:hr>
          </ns3:TrackPointExtension>
        </extensions>
      </trkpt>
      <trkpt lat="48.76847307197749614715576171875" lon="-3.58677252195775508880615234375">
        <ele>13.6000003814697265625</ele>
        <time>2026-05-08T15:35:43.000Z</time>
        <extensions>
          <ns3:TrackPointExtension>
            <ns3:atemp>21.0</ns3:atemp>
            <ns3:hr>110</ns3:hr>
          </ns3:TrackPointExtension>
        </extensions>
      </trkpt>
      <trkpt lat="48.7684827111661434173583984375" lon="-3.58681795187294483184814453125">
        <ele>14.19999980926513671875</ele>
        <time>2026-05-08T15:35:46.000Z</time>
        <extensions>
          <ns3:TrackPointExtension>
            <ns3:atemp>21.0</ns3:atemp>
            <ns3:hr>111</ns3:hr>
          </ns3:TrackPointExtension>
        </extensions>
      </trkpt>
      <trkpt lat="48.76849033869802951812744140625" lon="-3.5868394933640956878662109375">
        <ele>14.6000003814697265625</ele>
        <time>2026-05-08T15:35:48.000Z</time>
        <extensions>
          <ns3:TrackPointExtension>
            <ns3:atemp>21.0</ns3:atemp>
            <ns3:hr>111</ns3:hr>
          </ns3:TrackPointExtension>
        </extensions>
      </trkpt>
      <trkpt lat="48.76851783134043216705322265625" lon="-3.5868636332452297210693359375">
        <ele>14.6000003814697265625</ele>
        <time>2026-05-08T15:35:51.000Z</time>
        <extensions>
          <ns3:TrackPointExtension>
            <ns3:atemp>21.0</ns3:atemp>
            <ns3:hr>112</ns3:hr>
          </ns3:TrackPointExtension>
        </extensions>
      </trkpt>
      <trkpt lat="48.76858748495578765869140625" lon="-3.58689255081117153167724609375">
        <ele>14</ele>
        <time>2026-05-08T15:35:58.000Z</time>
        <extensions>
          <ns3:TrackPointExtension>
            <ns3:atemp>21.0</ns3:atemp>
            <ns3:hr>114</ns3:hr>
          </ns3:TrackPointExtension>
        </extensions>
      </trkpt>
      <trkpt lat="48.76862511970102787017822265625" lon="-3.5868995077908039093017578125">
        <ele>14.19999980926513671875</ele>
        <time>2026-05-08T15:36:06.000Z</time>
        <extensions>
          <ns3:TrackPointExtension>
            <ns3:atemp>21.0</ns3:atemp>
            <ns3:hr>116</ns3:hr>
          </ns3:TrackPointExtension>
        </extensions>
      </trkpt>
      <trkpt lat="48.7686469964683055877685546875" lon="-3.58691987581551074981689453125">
        <ele>13.80000019073486328125</ele>
        <time>2026-05-08T15:36:12.000Z</time>
        <extensions>
          <ns3:TrackPointExtension>
            <ns3:atemp>21.0</ns3:atemp>
            <ns3:hr>114</ns3:hr>
          </ns3:TrackPointExtension>
        </extensions>
      </trkpt>
      <trkpt lat="48.768664263188838958740234375" lon="-3.58695340342819690704345703125">
        <ele>13.80000019073486328125</ele>
        <time>2026-05-08T15:36:15.000Z</time>
        <extensions>
          <ns3:TrackPointExtension>
            <ns3:atemp>21.0</ns3:atemp>
            <ns3:hr>111</ns3:hr>
          </ns3:TrackPointExtension>
        </extensions>
      </trkpt>
      <trkpt lat="48.76867993734776973724365234375" lon="-3.58698047697544097900390625">
        <ele>14</ele>
        <time>2026-05-08T15:36:18.000Z</time>
        <extensions>
          <ns3:TrackPointExtension>
            <ns3:atemp>21.0</ns3:atemp>
            <ns3:hr>108</ns3:hr>
          </ns3:TrackPointExtension>
        </extensions>
      </trkpt>
      <trkpt lat="48.7686847150325775146484375" lon="-3.5869957320392131805419921875">
        <ele>14</ele>
        <time>2026-05-08T15:36:19.000Z</time>
        <extensions>
          <ns3:TrackPointExtension>
            <ns3:atemp>21.0</ns3:atemp>
            <ns3:hr>108</ns3:hr>
          </ns3:TrackPointExtension>
        </extensions>
      </trkpt>
      <trkpt lat="48.76868697814643383026123046875" lon="-3.58701576478779315948486328125">
        <ele>14</ele>
        <time>2026-05-08T15:36:21.000Z</time>
        <extensions>
          <ns3:TrackPointExtension>
            <ns3:atemp>21.0</ns3:atemp>
            <ns3:hr>108</ns3:hr>
          </ns3:TrackPointExtension>
        </extensions>
      </trkpt>
      <trkpt lat="48.76870910637080669403076171875" lon="-3.58705021440982818603515625">
        <ele>13.3999996185302734375</ele>
        <time>2026-05-08T15:36:27.000Z</time>
        <extensions>
          <ns3:TrackPointExtension>
            <ns3:atemp>21.0</ns3:atemp>
            <ns3:hr>108</ns3:hr>
          </ns3:TrackPointExtension>
        </extensions>
      </trkpt>
      <trkpt lat="48.7687090225517749786376953125" lon="-3.5870523937046527862548828125">
        <ele>13.19999980926513671875</ele>
        <time>2026-05-08T15:36:28.000Z</time>
        <extensions>
          <ns3:TrackPointExtension>
            <ns3:atemp>21.0</ns3:atemp>
            <ns3:hr>108</ns3:hr>
          </ns3:TrackPointExtension>
        </extensions>
      </trkpt>
      <trkpt lat="48.76872167922556400299072265625" lon="-3.58708986081182956695556640625">
        <ele>12.6000003814697265625</ele>
        <time>2026-05-08T15:36:37.000Z</time>
        <extensions>
          <ns3:TrackPointExtension>
            <ns3:atemp>21.0</ns3:atemp>
            <ns3:hr>106</ns3:hr>
          </ns3:TrackPointExtension>
        </extensions>
      </trkpt>
      <trkpt lat="48.7687606550753116607666015625" lon="-3.587205111980438232421875">
        <ele>13</ele>
        <time>2026-05-08T15:36:45.000Z</time>
        <extensions>
          <ns3:TrackPointExtension>
            <ns3:atemp>21.0</ns3:atemp>
            <ns3:hr>105</ns3:hr>
          </ns3:TrackPointExtension>
        </extensions>
      </trkpt>
      <trkpt lat="48.76878789626061916351318359375" lon="-3.58732254244387149810791015625">
        <ele>14.3999996185302734375</ele>
        <time>2026-05-08T15:36:53.000Z</time>
        <extensions>
          <ns3:TrackPointExtension>
            <ns3:atemp>21.0</ns3:atemp>
            <ns3:hr>102</ns3:hr>
          </ns3:TrackPointExtension>
        </extensions>
      </trkpt>
      <trkpt lat="48.76878404058516025543212890625" lon="-3.587327487766742706298828125">
        <ele>14.19999980926513671875</ele>
        <time>2026-05-08T15:36:54.000Z</time>
        <extensions>
          <ns3:TrackPointExtension>
            <ns3:atemp>21.0</ns3:atemp>
            <ns3:hr>103</ns3:hr>
          </ns3:TrackPointExtension>
        </extensions>
      </trkpt>
      <trkpt lat="48.7687687017023563385009765625" lon="-3.5873298346996307373046875">
        <ele>14.19999980926513671875</ele>
        <time>2026-05-08T15:36:56.000Z</time>
        <extensions>
          <ns3:TrackPointExtension>
            <ns3:atemp>21.0</ns3:atemp>
            <ns3:hr>103</ns3:hr>
          </ns3:TrackPointExtension>
        </extensions>
      </trkpt>
      <trkpt lat="48.76874347217381000518798828125" lon="-3.58736562542617321014404296875">
        <ele>14.3999996185302734375</ele>
        <time>2026-05-08T15:37:00.000Z</time>
        <extensions>
          <ns3:TrackPointExtension>
            <ns3:atemp>21.0</ns3:atemp>
            <ns3:hr>104</ns3:hr>
          </ns3:TrackPointExtension>
        </extensions>
      </trkpt>
      <trkpt lat="48.7687383592128753662109375" lon="-3.5873816348612308502197265625">
        <ele>14.3999996185302734375</ele>
        <time>2026-05-08T15:37:01.000Z</time>
        <extensions>
          <ns3:TrackPointExtension>
            <ns3:atemp>21.0</ns3:atemp>
            <ns3:hr>104</ns3:hr>
          </ns3:TrackPointExtension>
        </extensions>
      </trkpt>
      <trkpt lat="48.7686795182526111602783203125" lon="-3.5874926112592220306396484375">
        <ele>14.3999996185302734375</ele>
        <time>2026-05-08T15:37:08.000Z</time>
        <extensions>
          <ns3:TrackPointExtension>
            <ns3:atemp>21.0</ns3:atemp>
            <ns3:hr>103</ns3:hr>
          </ns3:TrackPointExtension>
        </extensions>
      </trkpt>
      <trkpt lat="48.7686198391020298004150390625" lon="-3.58758020214736461639404296875">
        <ele>15</ele>
        <time>2026-05-08T15:37:15.000Z</time>
        <extensions>
          <ns3:TrackPointExtension>
            <ns3:atemp>21.0</ns3:atemp>
            <ns3:hr>104</ns3:hr>
          </ns3:TrackPointExtension>
        </extensions>
      </trkpt>
      <trkpt lat="48.76860667951405048370361328125" lon="-3.58759730122983455657958984375">
        <ele>15.6000003814697265625</ele>
        <time>2026-05-08T15:37:17.000Z</time>
        <extensions>
          <ns3:TrackPointExtension>
            <ns3:atemp>21.0</ns3:atemp>
            <ns3:hr>105</ns3:hr>
          </ns3:TrackPointExtension>
        </extensions>
      </trkpt>
      <trkpt lat="48.76856200397014617919921875" lon="-3.5876515321433544158935546875">
        <ele>16.6000003814697265625</ele>
        <time>2026-05-08T15:37:22.000Z</time>
        <extensions>
          <ns3:TrackPointExtension>
            <ns3:atemp>20.0</ns3:atemp>
            <ns3:hr>106</ns3:hr>
          </ns3:TrackPointExtension>
        </extensions>
      </trkpt>
      <trkpt lat="48.7685573101043701171875" lon="-3.587664104998111724853515625">
        <ele>16.799999237060546875</ele>
        <time>2026-05-08T15:37:23.000Z</time>
        <extensions>
          <ns3:TrackPointExtension>
            <ns3:atemp>20.0</ns3:atemp>
            <ns3:hr>107</ns3:hr>
          </ns3:TrackPointExtension>
        </extensions>
      </trkpt>
      <trkpt lat="48.76855529844760894775390625" lon="-3.5876867361366748809814453125">
        <ele>17</ele>
        <time>2026-05-08T15:37:26.000Z</time>
        <extensions>
          <ns3:TrackPointExtension>
            <ns3:atemp>20.0</ns3:atemp>
            <ns3:hr>108</ns3:hr>
          </ns3:TrackPointExtension>
        </extensions>
      </trkpt>
      <trkpt lat="48.76856376416981220245361328125" lon="-3.5877242870628833770751953125">
        <ele>17</ele>
        <time>2026-05-08T15:37:29.000Z</time>
        <extensions>
          <ns3:TrackPointExtension>
            <ns3:atemp>20.0</ns3:atemp>
            <ns3:hr>110</ns3:hr>
          </ns3:TrackPointExtension>
        </extensions>
      </trkpt>
      <trkpt lat="48.76862193457782268524169921875" lon="-3.58784104697406291961669921875">
        <ele>16.3999996185302734375</ele>
        <time>2026-05-08T15:37:37.000Z</time>
        <extensions>
          <ns3:TrackPointExtension>
            <ns3:atemp>20.0</ns3:atemp>
            <ns3:hr>111</ns3:hr>
          </ns3:TrackPointExtension>
        </extensions>
      </trkpt>
      <trkpt lat="48.7686811946332454681396484375" lon="-3.5878957808017730712890625">
        <ele>16.200000762939453125</ele>
        <time>2026-05-08T15:37:43.000Z</time>
        <extensions>
          <ns3:TrackPointExtension>
            <ns3:atemp>20.0</ns3:atemp>
            <ns3:hr>112</ns3:hr>
          </ns3:TrackPointExtension>
        </extensions>
      </trkpt>
      <trkpt lat="48.76869971863925457000732421875" lon="-3.58792235143482685089111328125">
        <ele>15.6000003814697265625</ele>
        <time>2026-05-08T15:37:46.000Z</time>
        <extensions>
          <ns3:TrackPointExtension>
            <ns3:atemp>20.0</ns3:atemp>
            <ns3:hr>111</ns3:hr>
          </ns3:TrackPointExtension>
        </extensions>
      </trkpt>
      <trkpt lat="48.76871354877948760986328125" lon="-3.58792729675769805908203125">
        <ele>15.19999980926513671875</ele>
        <time>2026-05-08T15:37:49.000Z</time>
        <extensions>
          <ns3:TrackPointExtension>
            <ns3:atemp>20.0</ns3:atemp>
            <ns3:hr>110</ns3:hr>
          </ns3:TrackPointExtension>
        </extensions>
      </trkpt>
      <trkpt lat="48.76871564425528049468994140625" lon="-3.5879231058061122894287109375">
        <ele>15.19999980926513671875</ele>
        <time>2026-05-08T15:37:56.000Z</time>
        <extensions>
          <ns3:TrackPointExtension>
            <ns3:atemp>20.0</ns3:atemp>
            <ns3:hr>113</ns3:hr>
          </ns3:TrackPointExtension>
        </extensions>
      </trkpt>
      <trkpt lat="48.76872167922556400299072265625" lon="-3.58793475665152072906494140625">
        <ele>15.19999980926513671875</ele>
        <time>2026-05-08T15:37:58.000Z</time>
        <extensions>
          <ns3:TrackPointExtension>
            <ns3:atemp>20.0</ns3:atemp>
            <ns3:hr>114</ns3:hr>
          </ns3:TrackPointExtension>
        </extensions>
      </trkpt>
      <trkpt lat="48.7687391974031925201416015625" lon="-3.58803802169859409332275390625">
        <ele>14.80000019073486328125</ele>
        <time>2026-05-08T15:38:04.000Z</time>
        <extensions>
          <ns3:TrackPointExtension>
            <ns3:atemp>20.0</ns3:atemp>
            <ns3:hr>113</ns3:hr>
          </ns3:TrackPointExtension>
        </extensions>
      </trkpt>
      <trkpt lat="48.76874179579317569732666015625" lon="-3.58815335668623447418212890625">
        <ele>14.80000019073486328125</ele>
        <time>2026-05-08T15:38:10.000Z</time>
        <extensions>
          <ns3:TrackPointExtension>
            <ns3:atemp>20.0</ns3:atemp>
            <ns3:hr>110</ns3:hr>
          </ns3:TrackPointExtension>
        </extensions>
      </trkpt>
      <trkpt lat="48.76874179579317569732666015625" lon="-3.58816727064549922943115234375">
        <ele>14.80000019073486328125</ele>
        <time>2026-05-08T15:38:11.000Z</time>
        <extensions>
          <ns3:TrackPointExtension>
            <ns3:atemp>20.0</ns3:atemp>
            <ns3:hr>110</ns3:hr>
          </ns3:TrackPointExtension>
        </extensions>
      </trkpt>
      <trkpt lat="48.76873902976512908935546875" lon="-3.58822074718773365020751953125">
        <ele>14.6000003814697265625</ele>
        <time>2026-05-08T15:38:14.000Z</time>
        <extensions>
          <ns3:TrackPointExtension>
            <ns3:atemp>20.0</ns3:atemp>
            <ns3:hr>109</ns3:hr>
          </ns3:TrackPointExtension>
        </extensions>
      </trkpt>
      <trkpt lat="48.7687277980148792266845703125" lon="-3.588254861533641815185546875">
        <ele>14.3999996185302734375</ele>
        <time>2026-05-08T15:38:16.000Z</time>
        <extensions>
          <ns3:TrackPointExtension>
            <ns3:atemp>20.0</ns3:atemp>
            <ns3:hr>105</ns3:hr>
          </ns3:TrackPointExtension>
        </extensions>
      </trkpt>
      <trkpt lat="48.76871245913207530975341796875" lon="-3.5882955975830554962158203125">
        <ele>14.3999996185302734375</ele>
        <time>2026-05-08T15:38:19.000Z</time>
        <extensions>
          <ns3:TrackPointExtension>
            <ns3:atemp>20.0</ns3:atemp>
            <ns3:hr>103</ns3:hr>
          </ns3:TrackPointExtension>
        </extensions>
      </trkpt>
      <trkpt lat="48.768680356442928314208984375" lon="-3.58832652680575847625732421875">
        <ele>14</ele>
        <time>2026-05-08T15:38:22.000Z</time>
        <extensions>
          <ns3:TrackPointExtension>
            <ns3:atemp>20.0</ns3:atemp>
            <ns3:hr>102</ns3:hr>
          </ns3:TrackPointExtension>
        </extensions>
      </trkpt>
      <trkpt lat="48.7686203420162200927734375" lon="-3.58836055733263492584228515625">
        <ele>13.6000003814697265625</ele>
        <time>2026-05-08T15:38:27.000Z</time>
        <extensions>
          <ns3:TrackPointExtension>
            <ns3:atemp>20.0</ns3:atemp>
            <ns3:hr>102</ns3:hr>
          </ns3:TrackPointExtension>
        </extensions>
      </trkpt>
      <trkpt lat="48.7686094455420970916748046875" lon="-3.588365502655506134033203125">
        <ele>13.3999996185302734375</ele>
        <time>2026-05-08T15:38:28.000Z</time>
        <extensions>
          <ns3:TrackPointExtension>
            <ns3:atemp>20.0</ns3:atemp>
            <ns3:hr>102</ns3:hr>
          </ns3:TrackPointExtension>
        </extensions>
      </trkpt>
      <trkpt lat="48.76854515634477138519287109375" lon="-3.58835234306752681732177734375">
        <ele>12.6000003814697265625</ele>
        <time>2026-05-08T15:38:34.000Z</time>
        <extensions>
          <ns3:TrackPointExtension>
            <ns3:atemp>20.0</ns3:atemp>
            <ns3:hr>101</ns3:hr>
          </ns3:TrackPointExtension>
        </extensions>
      </trkpt>
      <trkpt lat="48.768522441387176513671875" lon="-3.58834178186953067779541015625">
        <ele>12.3999996185302734375</ele>
        <time>2026-05-08T15:38:36.000Z</time>
        <extensions>
          <ns3:TrackPointExtension>
            <ns3:atemp>20.0</ns3:atemp>
            <ns3:hr>100</ns3:hr>
          </ns3:TrackPointExtension>
        </extensions>
      </trkpt>
      <trkpt lat="48.768479526042938232421875" lon="-3.588318563997745513916015625">
        <ele>12.80000019073486328125</ele>
        <time>2026-05-08T15:38:40.000Z</time>
        <extensions>
          <ns3:TrackPointExtension>
            <ns3:atemp>20.0</ns3:atemp>
            <ns3:hr>100</ns3:hr>
          </ns3:TrackPointExtension>
        </extensions>
      </trkpt>
      <trkpt lat="48.76841171644628047943115234375" lon="-3.5882986150681972503662109375">
        <ele>13</ele>
        <time>2026-05-08T15:38:47.000Z</time>
        <extensions>
          <ns3:TrackPointExtension>
            <ns3:atemp>20.0</ns3:atemp>
            <ns3:hr>101</ns3:hr>
          </ns3:TrackPointExtension>
        </extensions>
      </trkpt>
      <trkpt lat="48.7683982215821743011474609375" lon="-3.58828939497470855712890625">
        <ele>13</ele>
        <time>2026-05-08T15:38:55.000Z</time>
        <extensions>
          <ns3:TrackPointExtension>
            <ns3:atemp>20.0</ns3:atemp>
            <ns3:hr>101</ns3:hr>
          </ns3:TrackPointExtension>
        </extensions>
      </trkpt>
      <trkpt lat="48.76834885217249393463134765625" lon="-3.58823918737471103668212890625">
        <ele>13.19999980926513671875</ele>
        <time>2026-05-08T15:39:01.000Z</time>
        <extensions>
          <ns3:TrackPointExtension>
            <ns3:atemp>20.0</ns3:atemp>
            <ns3:hr>100</ns3:hr>
          </ns3:TrackPointExtension>
        </extensions>
      </trkpt>
      <trkpt lat="48.76835941337049007415771484375" lon="-3.588232062757015228271484375">
        <ele>13.19999980926513671875</ele>
        <time>2026-05-08T15:39:05.000Z</time>
        <extensions>
          <ns3:TrackPointExtension>
            <ns3:atemp>20.0</ns3:atemp>
            <ns3:hr>103</ns3:hr>
          </ns3:TrackPointExtension>
        </extensions>
      </trkpt>
      <trkpt lat="48.76835941337049007415771484375" lon="-3.58823197893798351287841796875">
        <ele>13</ele>
        <time>2026-05-08T15:39:09.000Z</time>
        <extensions>
          <ns3:TrackPointExtension>
            <ns3:atemp>20.0</ns3:atemp>
            <ns3:hr>104</ns3:hr>
          </ns3:TrackPointExtension>
        </extensions>
      </trkpt>
      <trkpt lat="48.768359161913394927978515625" lon="-3.58823248185217380523681640625">
        <ele>13</ele>
        <time>2026-05-08T15:39:12.000Z</time>
        <extensions>
          <ns3:TrackPointExtension>
            <ns3:atemp>20.0</ns3:atemp>
            <ns3:hr>100</ns3:hr>
          </ns3:TrackPointExtension>
        </extensions>
      </trkpt>
      <trkpt lat="48.768310546875" lon="-3.58823449350893497467041015625">
        <ele>12.6000003814697265625</ele>
        <time>2026-05-08T15:39:17.000Z</time>
        <extensions>
          <ns3:TrackPointExtension>
            <ns3:atemp>20.0</ns3:atemp>
            <ns3:hr>99</ns3:hr>
          </ns3:TrackPointExtension>
        </extensions>
      </trkpt>
      <trkpt lat="48.7683110497891902923583984375" lon="-3.58821831643581390380859375">
        <ele>12.6000003814697265625</ele>
        <time>2026-05-08T15:39:19.000Z</time>
        <extensions>
          <ns3:TrackPointExtension>
            <ns3:atemp>21.0</ns3:atemp>
            <ns3:hr>99</ns3:hr>
          </ns3:TrackPointExtension>
        </extensions>
      </trkpt>
      <trkpt lat="48.768294788897037506103515625" lon="-3.588176406919956207275390625">
        <ele>13</ele>
        <time>2026-05-08T15:39:22.000Z</time>
        <extensions>
          <ns3:TrackPointExtension>
            <ns3:atemp>21.0</ns3:atemp>
            <ns3:hr>99</ns3:hr>
          </ns3:TrackPointExtension>
        </extensions>
      </trkpt>
      <trkpt lat="48.76822580583393573760986328125" lon="-3.58811580576002597808837890625">
        <ele>12.6000003814697265625</ele>
        <time>2026-05-08T15:39:29.000Z</time>
        <extensions>
          <ns3:TrackPointExtension>
            <ns3:atemp>21.0</ns3:atemp>
            <ns3:hr>100</ns3:hr>
          </ns3:TrackPointExtension>
        </extensions>
      </trkpt>
      <trkpt lat="48.7682138197124004364013671875" lon="-3.58807993121445178985595703125">
        <ele>12.6000003814697265625</ele>
        <time>2026-05-08T15:39:34.000Z</time>
        <extensions>
          <ns3:TrackPointExtension>
            <ns3:atemp>21.0</ns3:atemp>
            <ns3:hr>101</ns3:hr>
          </ns3:TrackPointExtension>
        </extensions>
      </trkpt>
      <trkpt lat="48.76820904202759265899658203125" lon="-3.5880615748465061187744140625">
        <ele>12.80000019073486328125</ele>
        <time>2026-05-08T15:39:36.000Z</time>
        <extensions>
          <ns3:TrackPointExtension>
            <ns3:atemp>21.0</ns3:atemp>
            <ns3:hr>101</ns3:hr>
          </ns3:TrackPointExtension>
        </extensions>
      </trkpt>
      <trkpt lat="48.76820233650505542755126953125" lon="-3.58800834976136684417724609375">
        <ele>13.6000003814697265625</ele>
        <time>2026-05-08T15:39:40.000Z</time>
        <extensions>
          <ns3:TrackPointExtension>
            <ns3:atemp>21.0</ns3:atemp>
            <ns3:hr>101</ns3:hr>
          </ns3:TrackPointExtension>
        </extensions>
      </trkpt>
      <trkpt lat="48.76820392906665802001953125" lon="-3.58799443580210208892822265625">
        <ele>13.80000019073486328125</ele>
        <time>2026-05-08T15:39:43.000Z</time>
        <extensions>
          <ns3:TrackPointExtension>
            <ns3:atemp>21.0</ns3:atemp>
            <ns3:hr>101</ns3:hr>
          </ns3:TrackPointExtension>
        </extensions>
      </trkpt>
      <trkpt lat="48.7682139873504638671875" lon="-3.58795939944684505462646484375">
        <ele>14.80000019073486328125</ele>
        <time>2026-05-08T15:39:49.000Z</time>
        <extensions>
          <ns3:TrackPointExtension>
            <ns3:atemp>21.0</ns3:atemp>
            <ns3:hr>101</ns3:hr>
          </ns3:TrackPointExtension>
        </extensions>
      </trkpt>
      <trkpt lat="48.76821289770305156707763671875" lon="-3.58795688487589359283447265625">
        <ele>15.19999980926513671875</ele>
        <time>2026-05-08T15:39:56.000Z</time>
        <extensions>
          <ns3:TrackPointExtension>
            <ns3:atemp>21.0</ns3:atemp>
            <ns3:hr>100</ns3:hr>
          </ns3:TrackPointExtension>
        </extensions>
      </trkpt>
      <trkpt lat="48.76821055077016353607177734375" lon="-3.58794984407722949981689453125">
        <ele>15.19999980926513671875</ele>
        <time>2026-05-08T15:40:06.000Z</time>
        <extensions>
          <ns3:TrackPointExtension>
            <ns3:atemp>21.0</ns3:atemp>
            <ns3:hr>99</ns3:hr>
          </ns3:TrackPointExtension>
        </extensions>
      </trkpt>
      <trkpt lat="48.76821893267333507537841796875" lon="-3.58789837919175624847412109375">
        <ele>15.6000003814697265625</ele>
        <time>2026-05-08T15:40:11.000Z</time>
        <extensions>
          <ns3:TrackPointExtension>
            <ns3:atemp>21.0</ns3:atemp>
            <ns3:hr>101</ns3:hr>
          </ns3:TrackPointExtension>
        </extensions>
      </trkpt>
      <trkpt lat="48.76822094433009624481201171875" lon="-3.5878855548799037933349609375">
        <ele>15.80000019073486328125</ele>
        <time>2026-05-08T15:40:12.000Z</time>
        <extensions>
          <ns3:TrackPointExtension>
            <ns3:atemp>21.0</ns3:atemp>
            <ns3:hr>102</ns3:hr>
          </ns3:TrackPointExtension>
        </extensions>
      </trkpt>
      <trkpt lat="48.76822513528168201446533203125" lon="-3.58782059513032436370849609375">
        <ele>16.6000003814697265625</ele>
        <time>2026-05-08T15:40:17.000Z</time>
        <extensions>
          <ns3:TrackPointExtension>
            <ns3:atemp>21.0</ns3:atemp>
            <ns3:hr>105</ns3:hr>
          </ns3:TrackPointExtension>
        </extensions>
      </trkpt>
      <trkpt lat="48.7682349421083927154541015625" lon="-3.58779930509626865386962890625">
        <ele>16.799999237060546875</ele>
        <time>2026-05-08T15:40:19.000Z</time>
        <extensions>
          <ns3:TrackPointExtension>
            <ns3:atemp>22.0</ns3:atemp>
            <ns3:hr>105</ns3:hr>
          </ns3:TrackPointExtension>
        </extensions>
      </trkpt>
      <trkpt lat="48.7682433240115642547607421875" lon="-3.58777977526187896728515625">
        <ele>17</ele>
        <time>2026-05-08T15:40:21.000Z</time>
        <extensions>
          <ns3:TrackPointExtension>
            <ns3:atemp>22.0</ns3:atemp>
            <ns3:hr>105</ns3:hr>
          </ns3:TrackPointExtension>
        </extensions>
      </trkpt>
      <trkpt lat="48.76824927516281604766845703125" lon="-3.58773543499410152435302734375">
        <ele>17.3999996185302734375</ele>
        <time>2026-05-08T15:40:24.000Z</time>
        <extensions>
          <ns3:TrackPointExtension>
            <ns3:atemp>22.0</ns3:atemp>
            <ns3:hr>103</ns3:hr>
          </ns3:TrackPointExtension>
        </extensions>
      </trkpt>
      <trkpt lat="48.76824609003961086273193359375" lon="-3.58767776750028133392333984375">
        <ele>17.799999237060546875</ele>
        <time>2026-05-08T15:40:31.000Z</time>
        <extensions>
          <ns3:TrackPointExtension>
            <ns3:atemp>22.0</ns3:atemp>
            <ns3:hr>106</ns3:hr>
          </ns3:TrackPointExtension>
        </extensions>
      </trkpt>
      <trkpt lat="48.76824173144996166229248046875" lon="-3.587678186595439910888671875">
        <ele>17.6000003814697265625</ele>
        <time>2026-05-08T15:40:36.000Z</time>
        <extensions>
          <ns3:TrackPointExtension>
            <ns3:atemp>22.0</ns3:atemp>
            <ns3:hr>109</ns3:hr>
          </ns3:TrackPointExtension>
        </extensions>
      </trkpt>
      <trkpt lat="48.76824173144996166229248046875" lon="-3.587678186595439910888671875">
        <ele>17.799999237060546875</ele>
        <time>2026-05-08T15:40:38.000Z</time>
        <extensions>
          <ns3:TrackPointExtension>
            <ns3:atemp>22.0</ns3:atemp>
            <ns3:hr>111</ns3:hr>
          </ns3:TrackPointExtension>
        </extensions>
      </trkpt>
      <trkpt lat="48.76824173144996166229248046875" lon="-3.587678186595439910888671875">
        <ele>18</ele>
        <time>2026-05-08T15:40:42.000Z</time>
        <extensions>
          <ns3:TrackPointExtension>
            <ns3:atemp>22.0</ns3:atemp>
            <ns3:hr>114</ns3:hr>
          </ns3:TrackPointExtension>
        </extensions>
      </trkpt>
      <trkpt lat="48.7682448327541351318359375" lon="-3.58767927624285221099853515625">
        <ele>17.799999237060546875</ele>
        <time>2026-05-08T15:40:49.000Z</time>
        <extensions>
          <ns3:TrackPointExtension>
            <ns3:atemp>22.0</ns3:atemp>
            <ns3:hr>113</ns3:hr>
          </ns3:TrackPointExtension>
        </extensions>
      </trkpt>
      <trkpt lat="48.76823879778385162353515625" lon="-3.587668128311634063720703125">
        <ele>18</ele>
        <time>2026-05-08T15:40:53.000Z</time>
        <extensions>
          <ns3:TrackPointExtension>
            <ns3:atemp>22.0</ns3:atemp>
            <ns3:hr>113</ns3:hr>
          </ns3:TrackPointExtension>
        </extensions>
      </trkpt>
      <trkpt lat="48.76822915859520435333251953125" lon="-3.58765614219009876251220703125">
        <ele>18</ele>
        <time>2026-05-08T15:40:54.000Z</time>
        <extensions>
          <ns3:TrackPointExtension>
            <ns3:atemp>22.0</ns3:atemp>
            <ns3:hr>113</ns3:hr>
          </ns3:TrackPointExtension>
        </extensions>
      </trkpt>
      <trkpt lat="48.76818859018385410308837890625" lon="-3.58756964094936847686767578125">
        <ele>17.3999996185302734375</ele>
        <time>2026-05-08T15:41:00.000Z</time>
        <extensions>
          <ns3:TrackPointExtension>
            <ns3:atemp>22.0</ns3:atemp>
            <ns3:hr>112</ns3:hr>
          </ns3:TrackPointExtension>
        </extensions>
      </trkpt>
      <trkpt lat="48.7681947089731693267822265625" lon="-3.5874818824231624603271484375">
        <ele>17.200000762939453125</ele>
        <time>2026-05-08T15:41:05.000Z</time>
        <extensions>
          <ns3:TrackPointExtension>
            <ns3:atemp>22.0</ns3:atemp>
            <ns3:hr>115</ns3:hr>
          </ns3:TrackPointExtension>
        </extensions>
      </trkpt>
      <trkpt lat="48.7681926973164081573486328125" lon="-3.58744852244853973388671875">
        <ele>17.200000762939453125</ele>
        <time>2026-05-08T15:41:07.000Z</time>
        <extensions>
          <ns3:TrackPointExtension>
            <ns3:atemp>22.0</ns3:atemp>
            <ns3:hr>115</ns3:hr>
          </ns3:TrackPointExtension>
        </extensions>
      </trkpt>
      <trkpt lat="48.768149949610233306884765625" lon="-3.5873481072485446929931640625">
        <ele>17</ele>
        <time>2026-05-08T15:41:13.000Z</time>
        <extensions>
          <ns3:TrackPointExtension>
            <ns3:atemp>22.0</ns3:atemp>
            <ns3:hr>116</ns3:hr>
          </ns3:TrackPointExtension>
        </extensions>
      </trkpt>
      <trkpt lat="48.7681414000689983367919921875" lon="-3.58733712695538997650146484375">
        <ele>17</ele>
        <time>2026-05-08T15:41:14.000Z</time>
        <extensions>
          <ns3:TrackPointExtension>
            <ns3:atemp>22.0</ns3:atemp>
            <ns3:hr>115</ns3:hr>
          </ns3:TrackPointExtension>
        </extensions>
      </trkpt>
      <trkpt lat="48.76811139285564422607421875" lon="-3.5872347839176654815673828125">
        <ele>17.3999996185302734375</ele>
        <time>2026-05-08T15:41:21.000Z</time>
        <extensions>
          <ns3:TrackPointExtension>
            <ns3:atemp>22.0</ns3:atemp>
            <ns3:hr>115</ns3:hr>
          </ns3:TrackPointExtension>
        </extensions>
      </trkpt>
      <trkpt lat="48.7680817209184169769287109375" lon="-3.5871286690235137939453125">
        <ele>17</ele>
        <time>2026-05-08T15:41:28.000Z</time>
        <extensions>
          <ns3:TrackPointExtension>
            <ns3:atemp>22.0</ns3:atemp>
            <ns3:hr>113</ns3:hr>
          </ns3:TrackPointExtension>
        </extensions>
      </trkpt>
      <trkpt lat="48.7680944614112377166748046875" lon="-3.58710729517042636871337890625">
        <ele>17.200000762939453125</ele>
        <time>2026-05-08T15:41:34.000Z</time>
        <extensions>
          <ns3:TrackPointExtension>
            <ns3:atemp>22.0</ns3:atemp>
            <ns3:hr>113</ns3:hr>
          </ns3:TrackPointExtension>
        </extensions>
      </trkpt>
      <trkpt lat="48.7680941261351108551025390625" lon="-3.58710964210331439971923828125">
        <ele>17</ele>
        <time>2026-05-08T15:41:44.000Z</time>
        <extensions>
          <ns3:TrackPointExtension>
            <ns3:atemp>22.0</ns3:atemp>
            <ns3:hr>110</ns3:hr>
          </ns3:TrackPointExtension>
        </extensions>
      </trkpt>
      <trkpt lat="48.7680941261351108551025390625" lon="-3.5871080495417118072509765625">
        <ele>17.200000762939453125</ele>
        <time>2026-05-08T15:41:46.000Z</time>
        <extensions>
          <ns3:TrackPointExtension>
            <ns3:atemp>22.0</ns3:atemp>
            <ns3:hr>110</ns3:hr>
          </ns3:TrackPointExtension>
        </extensions>
      </trkpt>
      <trkpt lat="48.7680937908589839935302734375" lon="-3.5870721749961376190185546875">
        <ele>17.200000762939453125</ele>
        <time>2026-05-08T15:41:48.000Z</time>
        <extensions>
          <ns3:TrackPointExtension>
            <ns3:atemp>22.0</ns3:atemp>
            <ns3:hr>101</ns3:hr>
          </ns3:TrackPointExtension>
        </extensions>
      </trkpt>
      <trkpt lat="48.76809504814445972442626953125" lon="-3.58705348335206508636474609375">
        <ele>17.3999996185302734375</ele>
        <time>2026-05-08T15:41:49.000Z</time>
        <extensions>
          <ns3:TrackPointExtension>
            <ns3:atemp>22.0</ns3:atemp>
            <ns3:hr>95</ns3:hr>
          </ns3:TrackPointExtension>
        </extensions>
      </trkpt>
      <trkpt lat="48.76809521578252315521240234375" lon="-3.587037138640880584716796875">
        <ele>17.6000003814697265625</ele>
        <time>2026-05-08T15:41:50.000Z</time>
        <extensions>
          <ns3:TrackPointExtension>
            <ns3:atemp>22.0</ns3:atemp>
            <ns3:hr>92</ns3:hr>
          </ns3:TrackPointExtension>
        </extensions>
      </trkpt>
      <trkpt lat="48.76809471286833286285400390625" lon="-3.58699900098145008087158203125">
        <ele>18</ele>
        <time>2026-05-08T15:41:52.000Z</time>
        <extensions>
          <ns3:TrackPointExtension>
            <ns3:atemp>22.0</ns3:atemp>
            <ns3:hr>89</ns3:hr>
          </ns3:TrackPointExtension>
        </extensions>
      </trkpt>
      <trkpt lat="48.76808985136449337005615234375" lon="-3.58698793686926364898681640625">
        <ele>18.200000762939453125</ele>
        <time>2026-05-08T15:41:53.000Z</time>
        <extensions>
          <ns3:TrackPointExtension>
            <ns3:atemp>22.0</ns3:atemp>
            <ns3:hr>89</ns3:hr>
          </ns3:TrackPointExtension>
        </extensions>
      </trkpt>
      <trkpt lat="48.7680763565003871917724609375" lon="-3.58698374591767787933349609375">
        <ele>18.799999237060546875</ele>
        <time>2026-05-08T15:42:00.000Z</time>
        <extensions>
          <ns3:TrackPointExtension>
            <ns3:atemp>22.0</ns3:atemp>
            <ns3:hr>89</ns3:hr>
          </ns3:TrackPointExtension>
        </extensions>
      </trkpt>
      <trkpt lat="48.768075518310070037841796875" lon="-3.586993552744388580322265625">
        <ele>18.799999237060546875</ele>
        <time>2026-05-08T15:42:08.000Z</time>
        <extensions>
          <ns3:TrackPointExtension>
            <ns3:atemp>22.0</ns3:atemp>
            <ns3:hr>92</ns3:hr>
          </ns3:TrackPointExtension>
        </extensions>
      </trkpt>
      <trkpt lat="48.768077194690704345703125" lon="-3.58699212782084941864013671875">
        <ele>18.6000003814697265625</ele>
        <time>2026-05-08T15:42:12.000Z</time>
        <extensions>
          <ns3:TrackPointExtension>
            <ns3:atemp>22.0</ns3:atemp>
            <ns3:hr>92</ns3:hr>
          </ns3:TrackPointExtension>
        </extensions>
      </trkpt>
      <trkpt lat="48.7680666334927082061767578125" lon="-3.5869145952165126800537109375">
        <ele>18.6000003814697265625</ele>
        <time>2026-05-08T15:42:21.000Z</time>
        <extensions>
          <ns3:TrackPointExtension>
            <ns3:atemp>21.0</ns3:atemp>
            <ns3:hr>92</ns3:hr>
          </ns3:TrackPointExtension>
        </extensions>
      </trkpt>
      <trkpt lat="48.76803251914680004119873046875" lon="-3.586819209158420562744140625">
        <ele>19.200000762939453125</ele>
        <time>2026-05-08T15:42:26.000Z</time>
        <extensions>
          <ns3:TrackPointExtension>
            <ns3:atemp>21.0</ns3:atemp>
            <ns3:hr>92</ns3:hr>
          </ns3:TrackPointExtension>
        </extensions>
      </trkpt>
      <trkpt lat="48.76799027435481548309326171875" lon="-3.586746789515018463134765625">
        <ele>19.3999996185302734375</ele>
        <time>2026-05-08T15:42:31.000Z</time>
        <extensions>
          <ns3:TrackPointExtension>
            <ns3:atemp>21.0</ns3:atemp>
            <ns3:hr>94</ns3:hr>
          </ns3:TrackPointExtension>
        </extensions>
      </trkpt>
      <trkpt lat="48.7679603509604930877685546875" lon="-3.58667671680450439453125">
        <ele>20.200000762939453125</ele>
        <time>2026-05-08T15:42:36.000Z</time>
        <extensions>
          <ns3:TrackPointExtension>
            <ns3:atemp>21.0</ns3:atemp>
            <ns3:hr>97</ns3:hr>
          </ns3:TrackPointExtension>
        </extensions>
      </trkpt>
      <trkpt lat="48.7679529748857021331787109375" lon="-3.58666690997779369354248046875">
        <ele>20.3999996185302734375</ele>
        <time>2026-05-08T15:42:37.000Z</time>
        <extensions>
          <ns3:TrackPointExtension>
            <ns3:atemp>21.0</ns3:atemp>
            <ns3:hr>97</ns3:hr>
          </ns3:TrackPointExtension>
        </extensions>
      </trkpt>
      <trkpt lat="48.7678922899067401885986328125" lon="-3.58661091886460781097412109375">
        <ele>20.6000003814697265625</ele>
        <time>2026-05-08T15:42:43.000Z</time>
        <extensions>
          <ns3:TrackPointExtension>
            <ns3:atemp>21.0</ns3:atemp>
            <ns3:hr>99</ns3:hr>
          </ns3:TrackPointExtension>
        </extensions>
      </trkpt>
      <trkpt lat="48.76782917417585849761962890625" lon="-3.58655308373272418975830078125">
        <ele>19.6000003814697265625</ele>
        <time>2026-05-08T15:42:50.000Z</time>
        <extensions>
          <ns3:TrackPointExtension>
            <ns3:atemp>21.0</ns3:atemp>
            <ns3:hr>101</ns3:hr>
          </ns3:TrackPointExtension>
        </extensions>
      </trkpt>
      <trkpt lat="48.767815344035625457763671875" lon="-3.586518801748752593994140625">
        <ele>19.200000762939453125</ele>
        <time>2026-05-08T15:42:53.000Z</time>
        <extensions>
          <ns3:TrackPointExtension>
            <ns3:atemp>21.0</ns3:atemp>
            <ns3:hr>100</ns3:hr>
          </ns3:TrackPointExtension>
        </extensions>
      </trkpt>
      <trkpt lat="48.76780235208570957183837890625" lon="-3.58651083894073963165283203125">
        <ele>19</ele>
        <time>2026-05-08T15:42:55.000Z</time>
        <extensions>
          <ns3:TrackPointExtension>
            <ns3:atemp>21.0</ns3:atemp>
            <ns3:hr>99</ns3:hr>
          </ns3:TrackPointExtension>
        </extensions>
      </trkpt>
      <trkpt lat="48.76777150668203830718994140625" lon="-3.58644361607730388641357421875">
        <ele>18.200000762939453125</ele>
        <time>2026-05-08T15:43:02.000Z</time>
        <extensions>
          <ns3:TrackPointExtension>
            <ns3:atemp>21.0</ns3:atemp>
            <ns3:hr>100</ns3:hr>
          </ns3:TrackPointExtension>
        </extensions>
      </trkpt>
      <trkpt lat="48.76776563934981822967529296875" lon="-3.58643271960318088531494140625">
        <ele>18.200000762939453125</ele>
        <time>2026-05-08T15:43:03.000Z</time>
        <extensions>
          <ns3:TrackPointExtension>
            <ns3:atemp>21.0</ns3:atemp>
            <ns3:hr>99</ns3:hr>
          </ns3:TrackPointExtension>
        </extensions>
      </trkpt>
      <trkpt lat="48.7677166052162647247314453125" lon="-3.58633934520184993743896484375">
        <ele>17</ele>
        <time>2026-05-08T15:43:10.000Z</time>
        <extensions>
          <ns3:TrackPointExtension>
            <ns3:atemp>21.0</ns3:atemp>
            <ns3:hr>97</ns3:hr>
          </ns3:TrackPointExtension>
        </extensions>
      </trkpt>
      <trkpt lat="48.7677035294473171234130859375" lon="-3.5862876288592815399169921875">
        <ele>16.6000003814697265625</ele>
        <time>2026-05-08T15:43:13.000Z</time>
        <extensions>
          <ns3:TrackPointExtension>
            <ns3:atemp>21.0</ns3:atemp>
            <ns3:hr>95</ns3:hr>
          </ns3:TrackPointExtension>
        </extensions>
      </trkpt>
      <trkpt lat="48.767697997391223907470703125" lon="-3.5862329788506031036376953125">
        <ele>16</ele>
        <time>2026-05-08T15:43:16.000Z</time>
        <extensions>
          <ns3:TrackPointExtension>
            <ns3:atemp>21.0</ns3:atemp>
            <ns3:hr>94</ns3:hr>
          </ns3:TrackPointExtension>
        </extensions>
      </trkpt>
      <trkpt lat="48.7676991708576679229736328125" lon="-3.58614630997180938720703125">
        <ele>16.200000762939453125</ele>
        <time>2026-05-08T15:43:21.000Z</time>
        <extensions>
          <ns3:TrackPointExtension>
            <ns3:atemp>22.0</ns3:atemp>
            <ns3:hr>95</ns3:hr>
          </ns3:TrackPointExtension>
        </extensions>
      </trkpt>
      <trkpt lat="48.76769908703863620758056640625" lon="-3.58612887561321258544921875">
        <ele>16</ele>
        <time>2026-05-08T15:43:22.000Z</time>
        <extensions>
          <ns3:TrackPointExtension>
            <ns3:atemp>22.0</ns3:atemp>
            <ns3:hr>95</ns3:hr>
          </ns3:TrackPointExtension>
        </extensions>
      </trkpt>
      <trkpt lat="48.767697326838970184326171875" lon="-3.58599937520921230316162109375">
        <ele>15.6000003814697265625</ele>
        <time>2026-05-08T15:43:31.000Z</time>
        <extensions>
          <ns3:TrackPointExtension>
            <ns3:atemp>22.0</ns3:atemp>
            <ns3:hr>95</ns3:hr>
          </ns3:TrackPointExtension>
        </extensions>
      </trkpt>
      <trkpt lat="48.76769422553479671478271484375" lon="-3.58596534468233585357666015625">
        <ele>15</ele>
        <time>2026-05-08T15:43:33.000Z</time>
        <extensions>
          <ns3:TrackPointExtension>
            <ns3:atemp>22.0</ns3:atemp>
            <ns3:hr>95</ns3:hr>
          </ns3:TrackPointExtension>
        </extensions>
      </trkpt>
      <trkpt lat="48.7676891125738620758056640625" lon="-3.5858554579317569732666015625">
        <ele>14</ele>
        <time>2026-05-08T15:43:40.000Z</time>
        <extensions>
          <ns3:TrackPointExtension>
            <ns3:atemp>22.0</ns3:atemp>
            <ns3:hr>92</ns3:hr>
          </ns3:TrackPointExtension>
        </extensions>
      </trkpt>
      <trkpt lat="48.7676871009171009063720703125" lon="-3.5858407057821750640869140625">
        <ele>14.19999980926513671875</ele>
        <time>2026-05-08T15:43:41.000Z</time>
        <extensions>
          <ns3:TrackPointExtension>
            <ns3:atemp>22.0</ns3:atemp>
            <ns3:hr>92</ns3:hr>
          </ns3:TrackPointExtension>
        </extensions>
      </trkpt>
      <trkpt lat="48.7676904536783695220947265625" lon="-3.585853613913059234619140625">
        <ele>14.6000003814697265625</ele>
        <time>2026-05-08T15:43:45.000Z</time>
        <extensions>
          <ns3:TrackPointExtension>
            <ns3:atemp>22.0</ns3:atemp>
            <ns3:hr>91</ns3:hr>
          </ns3:TrackPointExtension>
        </extensions>
      </trkpt>
      <trkpt lat="48.76769028604030609130859375" lon="-3.58582234941422939300537109375">
        <ele>14.3999996185302734375</ele>
        <time>2026-05-08T15:43:53.000Z</time>
        <extensions>
          <ns3:TrackPointExtension>
            <ns3:atemp>22.0</ns3:atemp>
            <ns3:hr>90</ns3:hr>
          </ns3:TrackPointExtension>
        </extensions>
      </trkpt>
      <trkpt lat="48.76769053749740123748779296875" lon="-3.5858237743377685546875">
        <ele>15</ele>
        <time>2026-05-08T15:44:03.000Z</time>
        <extensions>
          <ns3:TrackPointExtension>
            <ns3:atemp>22.0</ns3:atemp>
            <ns3:hr>89</ns3:hr>
          </ns3:TrackPointExtension>
        </extensions>
      </trkpt>
      <trkpt lat="48.7677244842052459716796875" lon="-3.58578412793576717376708984375">
        <ele>14.80000019073486328125</ele>
        <time>2026-05-08T15:44:10.000Z</time>
        <extensions>
          <ns3:TrackPointExtension>
            <ns3:atemp>22.0</ns3:atemp>
            <ns3:hr>90</ns3:hr>
          </ns3:TrackPointExtension>
        </extensions>
      </trkpt>
      <trkpt lat="48.76773814670741558074951171875" lon="-3.585738278925418853759765625">
        <ele>15</ele>
        <time>2026-05-08T15:44:15.000Z</time>
        <extensions>
          <ns3:TrackPointExtension>
            <ns3:atemp>22.0</ns3:atemp>
            <ns3:hr>90</ns3:hr>
          </ns3:TrackPointExtension>
        </extensions>
      </trkpt>
      <trkpt lat="48.76776580698788166046142578125" lon="-3.58568631112575531005859375">
        <ele>15.19999980926513671875</ele>
        <time>2026-05-08T15:44:22.000Z</time>
        <extensions>
          <ns3:TrackPointExtension>
            <ns3:atemp>22.0</ns3:atemp>
            <ns3:hr>91</ns3:hr>
          </ns3:TrackPointExtension>
        </extensions>
      </trkpt>
      <trkpt lat="48.767814002931118011474609375" lon="-3.58561179600656032562255859375">
        <ele>14.6000003814697265625</ele>
        <time>2026-05-08T15:44:29.000Z</time>
        <extensions>
          <ns3:TrackPointExtension>
            <ns3:atemp>22.0</ns3:atemp>
            <ns3:hr>91</ns3:hr>
          </ns3:TrackPointExtension>
        </extensions>
      </trkpt>
      <trkpt lat="48.7678255699574947357177734375" lon="-3.58558832667768001556396484375">
        <ele>15.6000003814697265625</ele>
        <time>2026-05-08T15:44:35.000Z</time>
        <extensions>
          <ns3:TrackPointExtension>
            <ns3:atemp>22.0</ns3:atemp>
            <ns3:hr>92</ns3:hr>
          </ns3:TrackPointExtension>
        </extensions>
      </trkpt>
      <trkpt lat="48.76786152832210063934326171875" lon="-3.58557675965130329132080078125">
        <ele>15.80000019073486328125</ele>
        <time>2026-05-08T15:44:42.000Z</time>
        <extensions>
          <ns3:TrackPointExtension>
            <ns3:atemp>22.0</ns3:atemp>
            <ns3:hr>92</ns3:hr>
          </ns3:TrackPointExtension>
        </extensions>
      </trkpt>
      <trkpt lat="48.76788885332643985748291015625" lon="-3.58556091785430908203125">
        <ele>16</ele>
        <time>2026-05-08T15:44:45.000Z</time>
        <extensions>
          <ns3:TrackPointExtension>
            <ns3:atemp>22.0</ns3:atemp>
            <ns3:hr>92</ns3:hr>
          </ns3:TrackPointExtension>
        </extensions>
      </trkpt>
      <trkpt lat="48.7679335288703441619873046875" lon="-3.585547506809234619140625">
        <ele>16.6000003814697265625</ele>
        <time>2026-05-08T15:44:49.000Z</time>
        <extensions>
          <ns3:TrackPointExtension>
            <ns3:atemp>22.0</ns3:atemp>
            <ns3:hr>92</ns3:hr>
          </ns3:TrackPointExtension>
        </extensions>
      </trkpt>
      <trkpt lat="48.767972253262996673583984375" lon="-3.58555161394178867340087890625">
        <ele>14.80000019073486328125</ele>
        <time>2026-05-08T15:44:54.000Z</time>
        <extensions>
          <ns3:TrackPointExtension>
            <ns3:atemp>22.0</ns3:atemp>
            <ns3:hr>92</ns3:hr>
          </ns3:TrackPointExtension>
        </extensions>
      </trkpt>
      <trkpt lat="48.76799144782125949859619140625" lon="-3.58557122759521007537841796875">
        <ele>13.6000003814697265625</ele>
        <time>2026-05-08T15:44:56.000Z</time>
        <extensions>
          <ns3:TrackPointExtension>
            <ns3:atemp>22.0</ns3:atemp>
            <ns3:hr>92</ns3:hr>
          </ns3:TrackPointExtension>
        </extensions>
      </trkpt>
      <trkpt lat="48.76799982972443103790283203125" lon="-3.58557776547968387603759765625">
        <ele>13.19999980926513671875</ele>
        <time>2026-05-08T15:44:57.000Z</time>
        <extensions>
          <ns3:TrackPointExtension>
            <ns3:atemp>22.0</ns3:atemp>
            <ns3:hr>92</ns3:hr>
          </ns3:TrackPointExtension>
        </extensions>
      </trkpt>
      <trkpt lat="48.7680195271968841552734375" lon="-3.58560048043727874755859375">
        <ele>12.6000003814697265625</ele>
        <time>2026-05-08T15:44:59.000Z</time>
        <extensions>
          <ns3:TrackPointExtension>
            <ns3:atemp>22.0</ns3:atemp>
            <ns3:hr>92</ns3:hr>
          </ns3:TrackPointExtension>
        </extensions>
      </trkpt>
      <trkpt lat="48.76807912252843379974365234375" lon="-3.5856744088232517242431640625">
        <ele>12.3999996185302734375</ele>
        <time>2026-05-08T15:45:05.000Z</time>
        <extensions>
          <ns3:TrackPointExtension>
            <ns3:atemp>22.0</ns3:atemp>
            <ns3:hr>91</ns3:hr>
          </ns3:TrackPointExtension>
        </extensions>
      </trkpt>
      <trkpt lat="48.76810678280889987945556640625" lon="-3.585691340267658233642578125">
        <ele>11.3999996185302734375</ele>
        <time>2026-05-08T15:45:09.000Z</time>
        <extensions>
          <ns3:TrackPointExtension>
            <ns3:atemp>22.0</ns3:atemp>
            <ns3:hr>91</ns3:hr>
          </ns3:TrackPointExtension>
        </extensions>
      </trkpt>
      <trkpt lat="48.76812748610973358154296875" lon="-3.5857045836746692657470703125">
        <ele>10.80000019073486328125</ele>
        <time>2026-05-08T15:45:11.000Z</time>
        <extensions>
          <ns3:TrackPointExtension>
            <ns3:atemp>22.0</ns3:atemp>
            <ns3:hr>90</ns3:hr>
          </ns3:TrackPointExtension>
        </extensions>
      </trkpt>
      <trkpt lat="48.768146596848964691162109375" lon="-3.58572847209870815277099609375">
        <ele>10.3999996185302734375</ele>
        <time>2026-05-08T15:45:13.000Z</time>
        <extensions>
          <ns3:TrackPointExtension>
            <ns3:atemp>22.0</ns3:atemp>
            <ns3:hr>90</ns3:hr>
          </ns3:TrackPointExtension>
        </extensions>
      </trkpt>
      <trkpt lat="48.76820116303861141204833984375" lon="-3.58580810017883777618408203125">
        <ele>9.6000003814697265625</ele>
        <time>2026-05-08T15:45:19.000Z</time>
        <extensions>
          <ns3:TrackPointExtension>
            <ns3:atemp>22.0</ns3:atemp>
            <ns3:hr>88</ns3:hr>
          </ns3:TrackPointExtension>
        </extensions>
      </trkpt>
      <trkpt lat="48.76822630874812602996826171875" lon="-3.58581664972007274627685546875">
        <ele>9.19999980926513671875</ele>
        <time>2026-05-08T15:45:21.000Z</time>
        <extensions>
          <ns3:TrackPointExtension>
            <ns3:atemp>22.0</ns3:atemp>
            <ns3:hr>88</ns3:hr>
          </ns3:TrackPointExtension>
        </extensions>
      </trkpt>
      <trkpt lat="48.7682569026947021484375" lon="-3.585836850106716156005859375">
        <ele>9</ele>
        <time>2026-05-08T15:45:25.000Z</time>
        <extensions>
          <ns3:TrackPointExtension>
            <ns3:atemp>22.0</ns3:atemp>
            <ns3:hr>87</ns3:hr>
          </ns3:TrackPointExtension>
        </extensions>
      </trkpt>
      <trkpt lat="48.768294788897037506103515625" lon="-3.58591874130070209503173828125">
        <ele>8.80000019073486328125</ele>
        <time>2026-05-08T15:45:31.000Z</time>
        <extensions>
          <ns3:TrackPointExtension>
            <ns3:atemp>22.0</ns3:atemp>
            <ns3:hr>85</ns3:hr>
          </ns3:TrackPointExtension>
        </extensions>
      </trkpt>
      <trkpt lat="48.7683355249464511871337890625" lon="-3.58602971769869327545166015625">
        <ele>8.6000003814697265625</ele>
        <time>2026-05-08T15:45:38.000Z</time>
        <extensions>
          <ns3:TrackPointExtension>
            <ns3:atemp>22.0</ns3:atemp>
            <ns3:hr>86</ns3:hr>
          </ns3:TrackPointExtension>
        </extensions>
      </trkpt>
      <trkpt lat="48.76834608614444732666015625" lon="-3.5860505886375904083251953125">
        <ele>8.19999980926513671875</ele>
        <time>2026-05-08T15:45:41.000Z</time>
        <extensions>
          <ns3:TrackPointExtension>
            <ns3:atemp>22.0</ns3:atemp>
            <ns3:hr>86</ns3:hr>
          </ns3:TrackPointExtension>
        </extensions>
      </trkpt>
      <trkpt lat="48.768361173570156097412109375" lon="-3.58608135022222995758056640625">
        <ele>8.19999980926513671875</ele>
        <time>2026-05-08T15:45:44.000Z</time>
        <extensions>
          <ns3:TrackPointExtension>
            <ns3:atemp>22.0</ns3:atemp>
            <ns3:hr>85</ns3:hr>
          </ns3:TrackPointExtension>
        </extensions>
      </trkpt>
      <trkpt lat="48.76843325793743133544921875" lon="-3.5861018858850002288818359375">
        <ele>7.599999904632568359375</ele>
        <time>2026-05-08T15:45:51.000Z</time>
        <extensions>
          <ns3:TrackPointExtension>
            <ns3:atemp>22.0</ns3:atemp>
            <ns3:hr>84</ns3:hr>
          </ns3:TrackPointExtension>
        </extensions>
      </trkpt>
      <trkpt lat="48.768443651497364044189453125" lon="-3.5860941745340824127197265625">
        <ele>7.400000095367431640625</ele>
        <time>2026-05-08T15:45:52.000Z</time>
        <extensions>
          <ns3:TrackPointExtension>
            <ns3:atemp>22.0</ns3:atemp>
            <ns3:hr>84</ns3:hr>
          </ns3:TrackPointExtension>
        </extensions>
      </trkpt>
      <trkpt lat="48.7684672884643077850341796875" lon="-3.58605084009468555450439453125">
        <ele>7.19999980926513671875</ele>
        <time>2026-05-08T15:45:55.000Z</time>
        <extensions>
          <ns3:TrackPointExtension>
            <ns3:atemp>22.0</ns3:atemp>
            <ns3:hr>84</ns3:hr>
          </ns3:TrackPointExtension>
        </extensions>
      </trkpt>
      <trkpt lat="48.76848313026130199432373046875" lon="-3.58601563610136508941650390625">
        <ele>7.19999980926513671875</ele>
        <time>2026-05-08T15:45:57.000Z</time>
        <extensions>
          <ns3:TrackPointExtension>
            <ns3:atemp>22.0</ns3:atemp>
            <ns3:hr>83</ns3:hr>
          </ns3:TrackPointExtension>
        </extensions>
      </trkpt>
      <trkpt lat="48.7685185857117176055908203125" lon="-3.58589954674243927001953125">
        <ele>7.19999980926513671875</ele>
        <time>2026-05-08T15:46:03.000Z</time>
        <extensions>
          <ns3:TrackPointExtension>
            <ns3:atemp>22.0</ns3:atemp>
            <ns3:hr>82</ns3:hr>
          </ns3:TrackPointExtension>
        </extensions>
      </trkpt>
      <trkpt lat="48.76850022934377193450927734375" lon="-3.5858021490275859832763671875">
        <ele>7.19999980926513671875</ele>
        <time>2026-05-08T15:46:08.000Z</time>
        <extensions>
          <ns3:TrackPointExtension>
            <ns3:atemp>22.0</ns3:atemp>
            <ns3:hr>81</ns3:hr>
          </ns3:TrackPointExtension>
        </extensions>
      </trkpt>
      <trkpt lat="48.7684636004269123077392578125" lon="-3.58570852316915988922119140625">
        <ele>7</ele>
        <time>2026-05-08T15:46:14.000Z</time>
        <extensions>
          <ns3:TrackPointExtension>
            <ns3:atemp>22.0</ns3:atemp>
            <ns3:hr>81</ns3:hr>
          </ns3:TrackPointExtension>
        </extensions>
      </trkpt>
      <trkpt lat="48.768432252109050750732421875" lon="-3.58558799140155315399169921875">
        <ele>6.599999904632568359375</ele>
        <time>2026-05-08T15:46:21.000Z</time>
        <extensions>
          <ns3:TrackPointExtension>
            <ns3:atemp>21.0</ns3:atemp>
            <ns3:hr>81</ns3:hr>
          </ns3:TrackPointExtension>
        </extensions>
      </trkpt>
      <trkpt lat="48.768390677869319915771484375" lon="-3.58546796254813671112060546875">
        <ele>6.80000019073486328125</ele>
        <time>2026-05-08T15:46:29.000Z</time>
        <extensions>
          <ns3:TrackPointExtension>
            <ns3:atemp>21.0</ns3:atemp>
            <ns3:hr>82</ns3:hr>
          </ns3:TrackPointExtension>
        </extensions>
      </trkpt>
      <trkpt lat="48.7683955393731594085693359375" lon="-3.5854665376245975494384765625">
        <ele>6.80000019073486328125</ele>
        <time>2026-05-08T15:46:31.000Z</time>
        <extensions>
          <ns3:TrackPointExtension>
            <ns3:atemp>21.0</ns3:atemp>
            <ns3:hr>82</ns3:hr>
          </ns3:TrackPointExtension>
        </extensions>
      </trkpt>
      <trkpt lat="48.76839394681155681610107421875" lon="-3.5854656994342803955078125">
        <ele>7</ele>
        <time>2026-05-08T15:46:33.000Z</time>
        <extensions>
          <ns3:TrackPointExtension>
            <ns3:atemp>21.0</ns3:atemp>
            <ns3:hr>81</ns3:hr>
          </ns3:TrackPointExtension>
        </extensions>
      </trkpt>
      <trkpt lat="48.76838237978518009185791015625" lon="-3.5854675434529781341552734375">
        <ele>7</ele>
        <time>2026-05-08T15:46:35.000Z</time>
        <extensions>
          <ns3:TrackPointExtension>
            <ns3:atemp>21.0</ns3:atemp>
            <ns3:hr>81</ns3:hr>
          </ns3:TrackPointExtension>
        </extensions>
      </trkpt>
      <trkpt lat="48.768354468047618865966796875" lon="-3.5854692198336124420166015625">
        <ele>6.19999980926513671875</ele>
        <time>2026-05-08T15:46:40.000Z</time>
        <extensions>
          <ns3:TrackPointExtension>
            <ns3:atemp>21.0</ns3:atemp>
            <ns3:hr>84</ns3:hr>
          </ns3:TrackPointExtension>
        </extensions>
      </trkpt>
      <trkpt lat="48.7683499418199062347412109375" lon="-3.585464023053646087646484375">
        <ele>6</ele>
        <time>2026-05-08T15:46:41.000Z</time>
        <extensions>
          <ns3:TrackPointExtension>
            <ns3:atemp>21.0</ns3:atemp>
            <ns3:hr>85</ns3:hr>
          </ns3:TrackPointExtension>
        </extensions>
      </trkpt>
      <trkpt lat="48.7683469243347644805908203125" lon="-3.5854608379304409027099609375">
        <ele>5.80000019073486328125</ele>
        <time>2026-05-08T15:46:42.000Z</time>
        <extensions>
          <ns3:TrackPointExtension>
            <ns3:atemp>21.0</ns3:atemp>
            <ns3:hr>85</ns3:hr>
          </ns3:TrackPointExtension>
        </extensions>
      </trkpt>
      <trkpt lat="48.7683628499507904052734375" lon="-3.585406355559825897216796875">
        <ele>4.80000019073486328125</ele>
        <time>2026-05-08T15:46:47.000Z</time>
        <extensions>
          <ns3:TrackPointExtension>
            <ns3:atemp>21.0</ns3:atemp>
            <ns3:hr>87</ns3:hr>
          </ns3:TrackPointExtension>
        </extensions>
      </trkpt>
      <trkpt lat="48.76837265677750110626220703125" lon="-3.58540543355047702789306640625">
        <ele>4.599999904632568359375</ele>
        <time>2026-05-08T15:46:48.000Z</time>
        <extensions>
          <ns3:TrackPointExtension>
            <ns3:atemp>21.0</ns3:atemp>
            <ns3:hr>87</ns3:hr>
          </ns3:TrackPointExtension>
        </extensions>
      </trkpt>
      <trkpt lat="48.768463432788848876953125" lon="-3.58535631559789180755615234375">
        <ele>5.19999980926513671875</ele>
        <time>2026-05-08T15:46:56.000Z</time>
        <extensions>
          <ns3:TrackPointExtension>
            <ns3:atemp>21.0</ns3:atemp>
            <ns3:hr>88</ns3:hr>
          </ns3:TrackPointExtension>
        </extensions>
      </trkpt>
      <trkpt lat="48.7685143947601318359375" lon="-3.5853186808526515960693359375">
        <ele>5</ele>
        <time>2026-05-08T15:47:02.000Z</time>
        <extensions>
          <ns3:TrackPointExtension>
            <ns3:atemp>21.0</ns3:atemp>
            <ns3:hr>89</ns3:hr>
          </ns3:TrackPointExtension>
        </extensions>
      </trkpt>
      <trkpt lat="48.7685484252870082855224609375" lon="-3.58525313436985015869140625">
        <ele>5.400000095367431640625</ele>
        <time>2026-05-08T15:47:07.000Z</time>
        <extensions>
          <ns3:TrackPointExtension>
            <ns3:atemp>21.0</ns3:atemp>
            <ns3:hr>89</ns3:hr>
          </ns3:TrackPointExtension>
        </extensions>
      </trkpt>
      <trkpt lat="48.7686003930866718292236328125" lon="-3.58517258428037166595458984375">
        <ele>5.400000095367431640625</ele>
        <time>2026-05-08T15:47:13.000Z</time>
        <extensions>
          <ns3:TrackPointExtension>
            <ns3:atemp>21.0</ns3:atemp>
            <ns3:hr>88</ns3:hr>
          </ns3:TrackPointExtension>
        </extensions>
      </trkpt>
      <trkpt lat="48.76864188350737094879150390625" lon="-3.585069738328456878662109375">
        <ele>5.599999904632568359375</ele>
        <time>2026-05-08T15:47:20.000Z</time>
        <extensions>
          <ns3:TrackPointExtension>
            <ns3:atemp>21.0</ns3:atemp>
            <ns3:hr>88</ns3:hr>
          </ns3:TrackPointExtension>
        </extensions>
      </trkpt>
      <trkpt lat="48.768661580979824066162109375" lon="-3.585003353655338287353515625">
        <ele>5.599999904632568359375</ele>
        <time>2026-05-08T15:47:25.000Z</time>
        <extensions>
          <ns3:TrackPointExtension>
            <ns3:atemp>21.0</ns3:atemp>
            <ns3:hr>88</ns3:hr>
          </ns3:TrackPointExtension>
        </extensions>
      </trkpt>
      <trkpt lat="48.76868329010903835296630859375" lon="-3.58489648438990116119384765625">
        <ele>5.599999904632568359375</ele>
        <time>2026-05-08T15:47:32.000Z</time>
        <extensions>
          <ns3:TrackPointExtension>
            <ns3:atemp>21.0</ns3:atemp>
            <ns3:hr>89</ns3:hr>
          </ns3:TrackPointExtension>
        </extensions>
      </trkpt>
      <trkpt lat="48.7686919234693050384521484375" lon="-3.58486563898622989654541015625">
        <ele>5.80000019073486328125</ele>
        <time>2026-05-08T15:47:35.000Z</time>
        <extensions>
          <ns3:TrackPointExtension>
            <ns3:atemp>21.0</ns3:atemp>
            <ns3:hr>89</ns3:hr>
          </ns3:TrackPointExtension>
        </extensions>
      </trkpt>
      <trkpt lat="48.7687117047607898712158203125" lon="-3.58481417410075664520263671875">
        <ele>6</ele>
        <time>2026-05-08T15:47:39.000Z</time>
        <extensions>
          <ns3:TrackPointExtension>
            <ns3:atemp>21.0</ns3:atemp>
            <ns3:hr>89</ns3:hr>
          </ns3:TrackPointExtension>
        </extensions>
      </trkpt>
      <trkpt lat="48.76872134394943714141845703125" lon="-3.58474410139024257659912109375">
        <ele>5.400000095367431640625</ele>
        <time>2026-05-08T15:47:44.000Z</time>
        <extensions>
          <ns3:TrackPointExtension>
            <ns3:atemp>21.0</ns3:atemp>
            <ns3:hr>90</ns3:hr>
          </ns3:TrackPointExtension>
        </extensions>
      </trkpt>
      <trkpt lat="48.7687402032315731048583984375" lon="-3.58461099676787853240966796875">
        <ele>5.400000095367431640625</ele>
        <time>2026-05-08T15:47:52.000Z</time>
        <extensions>
          <ns3:TrackPointExtension>
            <ns3:atemp>21.0</ns3:atemp>
            <ns3:hr>89</ns3:hr>
          </ns3:TrackPointExtension>
        </extensions>
      </trkpt>
      <trkpt lat="48.7687576375901699066162109375" lon="-3.5844429396092891693115234375">
        <ele>6</ele>
        <time>2026-05-08T15:48:02.000Z</time>
        <extensions>
          <ns3:TrackPointExtension>
            <ns3:atemp>21.0</ns3:atemp>
            <ns3:hr>90</ns3:hr>
          </ns3:TrackPointExtension>
        </extensions>
      </trkpt>
      <trkpt lat="48.768744058907032012939453125" lon="-3.5844533331692218780517578125">
        <ele>6</ele>
        <time>2026-05-08T15:48:04.000Z</time>
        <extensions>
          <ns3:TrackPointExtension>
            <ns3:atemp>21.0</ns3:atemp>
            <ns3:hr>90</ns3:hr>
          </ns3:TrackPointExtension>
        </extensions>
      </trkpt>
      <trkpt lat="48.7687495909631252288818359375" lon="-3.58444981276988983154296875">
        <ele>6</ele>
        <time>2026-05-08T15:48:06.000Z</time>
        <extensions>
          <ns3:TrackPointExtension>
            <ns3:atemp>21.0</ns3:atemp>
            <ns3:hr>91</ns3:hr>
          </ns3:TrackPointExtension>
        </extensions>
      </trkpt>
      <trkpt lat="48.76876652240753173828125" lon="-3.5843440331518650054931640625">
        <ele>6</ele>
        <time>2026-05-08T15:48:13.000Z</time>
        <extensions>
          <ns3:TrackPointExtension>
            <ns3:atemp>21.0</ns3:atemp>
            <ns3:hr>90</ns3:hr>
          </ns3:TrackPointExtension>
        </extensions>
      </trkpt>
      <trkpt lat="48.7688027322292327880859375" lon="-3.5842726193368434906005859375">
        <ele>6.599999904632568359375</ele>
        <time>2026-05-08T15:48:20.000Z</time>
        <extensions>
          <ns3:TrackPointExtension>
            <ns3:atemp>21.0</ns3:atemp>
            <ns3:hr>92</ns3:hr>
          </ns3:TrackPointExtension>
        </extensions>
      </trkpt>
      <trkpt lat="48.7688142992556095123291015625" lon="-3.5842618905007839202880859375">
        <ele>6.80000019073486328125</ele>
        <time>2026-05-08T15:48:21.000Z</time>
        <extensions>
          <ns3:TrackPointExtension>
            <ns3:atemp>22.0</ns3:atemp>
            <ns3:hr>92</ns3:hr>
          </ns3:TrackPointExtension>
        </extensions>
      </trkpt>
      <trkpt lat="48.76882611773908138275146484375" lon="-3.5842525027692317962646484375">
        <ele>6.80000019073486328125</ele>
        <time>2026-05-08T15:48:22.000Z</time>
        <extensions>
          <ns3:TrackPointExtension>
            <ns3:atemp>22.0</ns3:atemp>
            <ns3:hr>92</ns3:hr>
          </ns3:TrackPointExtension>
        </extensions>
      </trkpt>
      <trkpt lat="48.76885578967630863189697265625" lon="-3.58423733152449131011962890625">
        <ele>7</ele>
        <time>2026-05-08T15:48:25.000Z</time>
        <extensions>
          <ns3:TrackPointExtension>
            <ns3:atemp>22.0</ns3:atemp>
            <ns3:hr>92</ns3:hr>
          </ns3:TrackPointExtension>
        </extensions>
      </trkpt>
      <trkpt lat="48.76888655126094818115234375" lon="-3.58416642062366008758544921875">
        <ele>6.400000095367431640625</ele>
        <time>2026-05-08T15:48:31.000Z</time>
        <extensions>
          <ns3:TrackPointExtension>
            <ns3:atemp>22.0</ns3:atemp>
            <ns3:hr>93</ns3:hr>
          </ns3:TrackPointExtension>
        </extensions>
      </trkpt>
      <trkpt lat="48.76888512633740901947021484375" lon="-3.5841700248420238494873046875">
        <ele>6.80000019073486328125</ele>
        <time>2026-05-08T15:48:38.000Z</time>
        <extensions>
          <ns3:TrackPointExtension>
            <ns3:atemp>22.0</ns3:atemp>
            <ns3:hr>93</ns3:hr>
          </ns3:TrackPointExtension>
        </extensions>
      </trkpt>
      <trkpt lat="48.76888512633740901947021484375" lon="-3.5841700248420238494873046875">
        <ele>6.599999904632568359375</ele>
        <time>2026-05-08T15:48:49.000Z</time>
        <extensions>
          <ns3:TrackPointExtension>
            <ns3:atemp>22.0</ns3:atemp>
            <ns3:hr>89</ns3:hr>
          </ns3:TrackPointExtension>
        </extensions>
      </trkpt>
      <trkpt lat="48.76888512633740901947021484375" lon="-3.5841700248420238494873046875">
        <ele>6.599999904632568359375</ele>
        <time>2026-05-08T15:48:58.000Z</time>
        <extensions>
          <ns3:TrackPointExtension>
            <ns3:atemp>22.0</ns3:atemp>
            <ns3:hr>90</ns3:hr>
          </ns3:TrackPointExtension>
        </extensions>
      </trkpt>
      <trkpt lat="48.76888512633740901947021484375" lon="-3.5841700248420238494873046875">
        <ele>7</ele>
        <time>2026-05-08T15:49:01.000Z</time>
        <extensions>
          <ns3:TrackPointExtension>
            <ns3:atemp>22.0</ns3:atemp>
            <ns3:hr>93</ns3:hr>
          </ns3:TrackPointExtension>
        </extensions>
      </trkpt>
      <trkpt lat="48.76888512633740901947021484375" lon="-3.5841700248420238494873046875">
        <ele>6.400000095367431640625</ele>
        <time>2026-05-08T15:49:09.000Z</time>
        <extensions>
          <ns3:TrackPointExtension>
            <ns3:atemp>22.0</ns3:atemp>
            <ns3:hr>96</ns3:hr>
          </ns3:TrackPointExtension>
        </extensions>
      </trkpt>
      <trkpt lat="48.7688857130706310272216796875" lon="-3.5841693542897701263427734375">
        <ele>5.599999904632568359375</ele>
        <time>2026-05-08T15:49:11.000Z</time>
        <extensions>
          <ns3:TrackPointExtension>
            <ns3:atemp>22.0</ns3:atemp>
            <ns3:hr>95</ns3:hr>
          </ns3:TrackPointExtension>
        </extensions>
      </trkpt>
      <trkpt lat="48.768897950649261474609375" lon="-3.5841639898717403411865234375">
        <ele>7</ele>
        <time>2026-05-08T15:49:14.000Z</time>
        <extensions>
          <ns3:TrackPointExtension>
            <ns3:atemp>22.0</ns3:atemp>
            <ns3:hr>93</ns3:hr>
          </ns3:TrackPointExtension>
        </extensions>
      </trkpt>
      <trkpt lat="48.768898956477642059326171875" lon="-3.58416524715721607208251953125">
        <ele>6.80000019073486328125</ele>
        <time>2026-05-08T15:49:17.000Z</time>
        <extensions>
          <ns3:TrackPointExtension>
            <ns3:atemp>22.0</ns3:atemp>
            <ns3:hr>91</ns3:hr>
          </ns3:TrackPointExtension>
        </extensions>
      </trkpt>
      <trkpt lat="48.7688991241157054901123046875" lon="-3.584165163338184356689453125">
        <ele>6.80000019073486328125</ele>
        <time>2026-05-08T15:49:19.000Z</time>
        <extensions>
          <ns3:TrackPointExtension>
            <ns3:atemp>21.0</ns3:atemp>
            <ns3:hr>91</ns3:hr>
          </ns3:TrackPointExtension>
        </extensions>
      </trkpt>
      <trkpt lat="48.76889593899250030517578125" lon="-3.584165163338184356689453125">
        <ele>7</ele>
        <time>2026-05-08T15:49:24.000Z</time>
        <extensions>
          <ns3:TrackPointExtension>
            <ns3:atemp>21.0</ns3:atemp>
            <ns3:hr>88</ns3:hr>
          </ns3:TrackPointExtension>
        </extensions>
      </trkpt>
      <trkpt lat="48.76885310746729373931884765625" lon="-3.5840709507465362548828125">
        <ele>7.19999980926513671875</ele>
        <time>2026-05-08T15:49:30.000Z</time>
        <extensions>
          <ns3:TrackPointExtension>
            <ns3:atemp>21.0</ns3:atemp>
            <ns3:hr>85</ns3:hr>
          </ns3:TrackPointExtension>
        </extensions>
      </trkpt>
      <trkpt lat="48.76882108859717845916748046875" lon="-3.58401018194854259490966796875">
        <ele>7</ele>
        <time>2026-05-08T15:49:35.000Z</time>
        <extensions>
          <ns3:TrackPointExtension>
            <ns3:atemp>21.0</ns3:atemp>
            <ns3:hr>85</ns3:hr>
          </ns3:TrackPointExtension>
        </extensions>
      </trkpt>
      <trkpt lat="48.7687958590686321258544921875" lon="-3.58392753638327121734619140625">
        <ele>7</ele>
        <time>2026-05-08T15:49:41.000Z</time>
        <extensions>
          <ns3:TrackPointExtension>
            <ns3:atemp>21.0</ns3:atemp>
            <ns3:hr>85</ns3:hr>
          </ns3:TrackPointExtension>
        </extensions>
      </trkpt>
      <trkpt lat="48.76877926290035247802734375" lon="-3.58385302126407623291015625">
        <ele>6.80000019073486328125</ele>
        <time>2026-05-08T15:49:47.000Z</time>
        <extensions>
          <ns3:TrackPointExtension>
            <ns3:atemp>21.0</ns3:atemp>
            <ns3:hr>85</ns3:hr>
          </ns3:TrackPointExtension>
        </extensions>
      </trkpt>
      <trkpt lat="48.76877616159617900848388671875" lon="-3.58377314172685146331787109375">
        <ele>6.80000019073486328125</ele>
        <time>2026-05-08T15:49:53.000Z</time>
        <extensions>
          <ns3:TrackPointExtension>
            <ns3:atemp>21.0</ns3:atemp>
            <ns3:hr>85</ns3:hr>
          </ns3:TrackPointExtension>
        </extensions>
      </trkpt>
      <trkpt lat="48.76875638030469417572021484375" lon="-3.58368965797126293182373046875">
        <ele>6.80000019073486328125</ele>
        <time>2026-05-08T15:49:58.000Z</time>
        <extensions>
          <ns3:TrackPointExtension>
            <ns3:atemp>21.0</ns3:atemp>
            <ns3:hr>86</ns3:hr>
          </ns3:TrackPointExtension>
        </extensions>
      </trkpt>
      <trkpt lat="48.7687402032315731048583984375" lon="-3.5835946910083293914794921875">
        <ele>6.400000095367431640625</ele>
        <time>2026-05-08T15:50:04.000Z</time>
        <extensions>
          <ns3:TrackPointExtension>
            <ns3:atemp>21.0</ns3:atemp>
            <ns3:hr>85</ns3:hr>
          </ns3:TrackPointExtension>
        </extensions>
      </trkpt>
      <trkpt lat="48.7687227688729763031005859375" lon="-3.58348363079130649566650390625">
        <ele>6.80000019073486328125</ele>
        <time>2026-05-08T15:50:11.000Z</time>
        <extensions>
          <ns3:TrackPointExtension>
            <ns3:atemp>21.0</ns3:atemp>
            <ns3:hr>85</ns3:hr>
          </ns3:TrackPointExtension>
        </extensions>
      </trkpt>
      <trkpt lat="48.76869100145995616912841796875" lon="-3.583396375179290771484375">
        <ele>6.80000019073486328125</ele>
        <time>2026-05-08T15:50:17.000Z</time>
        <extensions>
          <ns3:TrackPointExtension>
            <ns3:atemp>21.0</ns3:atemp>
            <ns3:hr>86</ns3:hr>
          </ns3:TrackPointExtension>
        </extensions>
      </trkpt>
      <trkpt lat="48.7686758302152156829833984375" lon="-3.58335739932954311370849609375">
        <ele>6.80000019073486328125</ele>
        <time>2026-05-08T15:50:19.000Z</time>
        <extensions>
          <ns3:TrackPointExtension>
            <ns3:atemp>22.0</ns3:atemp>
            <ns3:hr>86</ns3:hr>
          </ns3:TrackPointExtension>
        </extensions>
      </trkpt>
      <trkpt lat="48.76865797676146030426025390625" lon="-3.58329646289348602294921875">
        <ele>6.599999904632568359375</ele>
        <time>2026-05-08T15:50:23.000Z</time>
        <extensions>
          <ns3:TrackPointExtension>
            <ns3:atemp>22.0</ns3:atemp>
            <ns3:hr>87</ns3:hr>
          </ns3:TrackPointExtension>
        </extensions>
      </trkpt>
      <trkpt lat="48.76863308250904083251953125" lon="-3.58320518396794795989990234375">
        <ele>6.599999904632568359375</ele>
        <time>2026-05-08T15:50:29.000Z</time>
        <extensions>
          <ns3:TrackPointExtension>
            <ns3:atemp>22.0</ns3:atemp>
            <ns3:hr>87</ns3:hr>
          </ns3:TrackPointExtension>
        </extensions>
      </trkpt>
      <trkpt lat="48.7686127983033657073974609375" lon="-3.583143241703510284423828125">
        <ele>6.400000095367431640625</ele>
        <time>2026-05-08T15:50:35.000Z</time>
        <extensions>
          <ns3:TrackPointExtension>
            <ns3:atemp>22.0</ns3:atemp>
            <ns3:hr>87</ns3:hr>
          </ns3:TrackPointExtension>
        </extensions>
      </trkpt>
      <trkpt lat="48.76857264898717403411865234375" lon="-3.5830485261976718902587890625">
        <ele>6.19999980926513671875</ele>
        <time>2026-05-08T15:50:41.000Z</time>
        <extensions>
          <ns3:TrackPointExtension>
            <ns3:atemp>22.0</ns3:atemp>
            <ns3:hr>88</ns3:hr>
          </ns3:TrackPointExtension>
        </extensions>
      </trkpt>
      <trkpt lat="48.76855119131505489349365234375" lon="-3.58300435356795787811279296875">
        <ele>6.599999904632568359375</ele>
        <time>2026-05-08T15:50:46.000Z</time>
        <extensions>
          <ns3:TrackPointExtension>
            <ns3:atemp>22.0</ns3:atemp>
            <ns3:hr>88</ns3:hr>
          </ns3:TrackPointExtension>
        </extensions>
      </trkpt>
      <trkpt lat="48.7685299851000308990478515625" lon="-3.58295121230185031890869140625">
        <ele>6.80000019073486328125</ele>
        <time>2026-05-08T15:50:51.000Z</time>
        <extensions>
          <ns3:TrackPointExtension>
            <ns3:atemp>22.0</ns3:atemp>
            <ns3:hr>88</ns3:hr>
          </ns3:TrackPointExtension>
        </extensions>
      </trkpt>
      <trkpt lat="48.76850559376180171966552734375" lon="-3.5828748531639575958251953125">
        <ele>7</ele>
        <time>2026-05-08T15:50:56.000Z</time>
        <extensions>
          <ns3:TrackPointExtension>
            <ns3:atemp>22.0</ns3:atemp>
            <ns3:hr>88</ns3:hr>
          </ns3:TrackPointExtension>
        </extensions>
      </trkpt>
      <trkpt lat="48.768479861319065093994140625" lon="-3.582807295024394989013671875">
        <ele>6.80000019073486328125</ele>
        <time>2026-05-08T15:51:01.000Z</time>
        <extensions>
          <ns3:TrackPointExtension>
            <ns3:atemp>22.0</ns3:atemp>
            <ns3:hr>88</ns3:hr>
          </ns3:TrackPointExtension>
        </extensions>
      </trkpt>
      <trkpt lat="48.76844289712607860565185546875" lon="-3.5827454365789890289306640625">
        <ele>6.80000019073486328125</ele>
        <time>2026-05-08T15:51:06.000Z</time>
        <extensions>
          <ns3:TrackPointExtension>
            <ns3:atemp>22.0</ns3:atemp>
            <ns3:hr>90</ns3:hr>
          </ns3:TrackPointExtension>
        </extensions>
      </trkpt>
      <trkpt lat="48.76841423101723194122314453125" lon="-3.58267896808683872222900390625">
        <ele>6.400000095367431640625</ele>
        <time>2026-05-08T15:51:11.000Z</time>
        <extensions>
          <ns3:TrackPointExtension>
            <ns3:atemp>22.0</ns3:atemp>
            <ns3:hr>90</ns3:hr>
          </ns3:TrackPointExtension>
        </extensions>
      </trkpt>
      <trkpt lat="48.76839377917349338531494140625" lon="-3.5826046206057071685791015625">
        <ele>6.19999980926513671875</ele>
        <time>2026-05-08T15:51:17.000Z</time>
        <extensions>
          <ns3:TrackPointExtension>
            <ns3:atemp>22.0</ns3:atemp>
            <ns3:hr>90</ns3:hr>
          </ns3:TrackPointExtension>
        </extensions>
      </trkpt>
      <trkpt lat="48.76835622824728488922119140625" lon="-3.58250613324344158172607421875">
        <ele>6.599999904632568359375</ele>
        <time>2026-05-08T15:51:24.000Z</time>
        <extensions>
          <ns3:TrackPointExtension>
            <ns3:atemp>22.0</ns3:atemp>
            <ns3:hr>89</ns3:hr>
          </ns3:TrackPointExtension>
        </extensions>
      </trkpt>
      <trkpt lat="48.76833938062191009521484375" lon="-3.58246640302240848541259765625">
        <ele>6.80000019073486328125</ele>
        <time>2026-05-08T15:51:27.000Z</time>
        <extensions>
          <ns3:TrackPointExtension>
            <ns3:atemp>22.0</ns3:atemp>
            <ns3:hr>88</ns3:hr>
          </ns3:TrackPointExtension>
        </extensions>
      </trkpt>
      <trkpt lat="48.768320269882678985595703125" lon="-3.58243706636130809783935546875">
        <ele>6.80000019073486328125</ele>
        <time>2026-05-08T15:51:29.000Z</time>
        <extensions>
          <ns3:TrackPointExtension>
            <ns3:atemp>22.0</ns3:atemp>
            <ns3:hr>88</ns3:hr>
          </ns3:TrackPointExtension>
        </extensions>
      </trkpt>
      <trkpt lat="48.76827609725296497344970703125" lon="-3.58235836029052734375">
        <ele>6.80000019073486328125</ele>
        <time>2026-05-08T15:51:35.000Z</time>
        <extensions>
          <ns3:TrackPointExtension>
            <ns3:atemp>22.0</ns3:atemp>
            <ns3:hr>86</ns3:hr>
          </ns3:TrackPointExtension>
        </extensions>
      </trkpt>
      <trkpt lat="48.768253214657306671142578125" lon="-3.5823079012334346771240234375">
        <ele>6.80000019073486328125</ele>
        <time>2026-05-08T15:51:39.000Z</time>
        <extensions>
          <ns3:TrackPointExtension>
            <ns3:atemp>22.0</ns3:atemp>
            <ns3:hr>86</ns3:hr>
          </ns3:TrackPointExtension>
        </extensions>
      </trkpt>
      <trkpt lat="48.76822547055780887603759765625" lon="-3.5822448693215847015380859375">
        <ele>6.599999904632568359375</ele>
        <time>2026-05-08T15:51:44.000Z</time>
        <extensions>
          <ns3:TrackPointExtension>
            <ns3:atemp>22.0</ns3:atemp>
            <ns3:hr>86</ns3:hr>
          </ns3:TrackPointExtension>
        </extensions>
      </trkpt>
      <trkpt lat="48.76819722354412078857421875" lon="-3.582153506577014923095703125">
        <ele>7</ele>
        <time>2026-05-08T15:51:50.000Z</time>
        <extensions>
          <ns3:TrackPointExtension>
            <ns3:atemp>22.0</ns3:atemp>
            <ns3:hr>86</ns3:hr>
          </ns3:TrackPointExtension>
        </extensions>
      </trkpt>
      <trkpt lat="48.768223039805889129638671875" lon="-3.58207530342042446136474609375">
        <ele>7</ele>
        <time>2026-05-08T15:51:56.000Z</time>
        <extensions>
          <ns3:TrackPointExtension>
            <ns3:atemp>22.0</ns3:atemp>
            <ns3:hr>86</ns3:hr>
          </ns3:TrackPointExtension>
        </extensions>
      </trkpt>
      <trkpt lat="48.76828598789870738983154296875" lon="-3.58204864896833896636962890625">
        <ele>7.599999904632568359375</ele>
        <time>2026-05-08T15:52:02.000Z</time>
        <extensions>
          <ns3:TrackPointExtension>
            <ns3:atemp>22.0</ns3:atemp>
            <ns3:hr>86</ns3:hr>
          </ns3:TrackPointExtension>
        </extensions>
      </trkpt>
      <trkpt lat="48.7683440744876861572265625" lon="-3.58202132396399974822998046875">
        <ele>7.19999980926513671875</ele>
        <time>2026-05-08T15:52:08.000Z</time>
        <extensions>
          <ns3:TrackPointExtension>
            <ns3:atemp>22.0</ns3:atemp>
            <ns3:hr>88</ns3:hr>
          </ns3:TrackPointExtension>
        </extensions>
      </trkpt>
      <trkpt lat="48.768394030630588531494140625" lon="-3.5819991119205951690673828125">
        <ele>6.80000019073486328125</ele>
        <time>2026-05-08T15:52:13.000Z</time>
        <extensions>
          <ns3:TrackPointExtension>
            <ns3:atemp>22.0</ns3:atemp>
            <ns3:hr>88</ns3:hr>
          </ns3:TrackPointExtension>
        </extensions>
      </trkpt>
      <trkpt lat="48.7684625945985317230224609375" lon="-3.58197472058236598968505859375">
        <ele>6.80000019073486328125</ele>
        <time>2026-05-08T15:52:19.000Z</time>
        <extensions>
          <ns3:TrackPointExtension>
            <ns3:atemp>22.0</ns3:atemp>
            <ns3:hr>87</ns3:hr>
          </ns3:TrackPointExtension>
        </extensions>
      </trkpt>
      <trkpt lat="48.76854498870670795440673828125" lon="-3.581931553781032562255859375">
        <ele>6.599999904632568359375</ele>
        <time>2026-05-08T15:52:26.000Z</time>
        <extensions>
          <ns3:TrackPointExtension>
            <ns3:atemp>22.0</ns3:atemp>
            <ns3:hr>87</ns3:hr>
          </ns3:TrackPointExtension>
        </extensions>
      </trkpt>
      <trkpt lat="48.7685680389404296875" lon="-3.5818733833730220794677734375">
        <ele>6.599999904632568359375</ele>
        <time>2026-05-08T15:52:31.000Z</time>
        <extensions>
          <ns3:TrackPointExtension>
            <ns3:atemp>22.0</ns3:atemp>
            <ns3:hr>87</ns3:hr>
          </ns3:TrackPointExtension>
        </extensions>
      </trkpt>
      <trkpt lat="48.76856476999819278717041015625" lon="-3.58186575584113597869873046875">
        <ele>6.599999904632568359375</ele>
        <time>2026-05-08T15:52:32.000Z</time>
        <extensions>
          <ns3:TrackPointExtension>
            <ns3:atemp>22.0</ns3:atemp>
            <ns3:hr>87</ns3:hr>
          </ns3:TrackPointExtension>
        </extensions>
      </trkpt>
      <trkpt lat="48.768558315932750701904296875" lon="-3.58187179081141948699951171875">
        <ele>6.19999980926513671875</ele>
        <time>2026-05-08T15:52:39.000Z</time>
        <extensions>
          <ns3:TrackPointExtension>
            <ns3:atemp>22.0</ns3:atemp>
            <ns3:hr>84</ns3:hr>
          </ns3:TrackPointExtension>
        </extensions>
      </trkpt>
      <trkpt lat="48.76857801340520381927490234375" lon="-3.58184329234063625335693359375">
        <ele>6.599999904632568359375</ele>
        <time>2026-05-08T15:52:48.000Z</time>
        <extensions>
          <ns3:TrackPointExtension>
            <ns3:atemp>22.0</ns3:atemp>
            <ns3:hr>82</ns3:hr>
          </ns3:TrackPointExtension>
        </extensions>
      </trkpt>
      <trkpt lat="48.76863501034677028656005859375" lon="-3.581775315105915069580078125">
        <ele>6.599999904632568359375</ele>
        <time>2026-05-08T15:52:54.000Z</time>
        <extensions>
          <ns3:TrackPointExtension>
            <ns3:atemp>22.0</ns3:atemp>
            <ns3:hr>84</ns3:hr>
          </ns3:TrackPointExtension>
        </extensions>
      </trkpt>
      <trkpt lat="48.76868178136646747589111328125" lon="-3.58172158710658550262451171875">
        <ele>6.80000019073486328125</ele>
        <time>2026-05-08T15:52:59.000Z</time>
        <extensions>
          <ns3:TrackPointExtension>
            <ns3:atemp>22.0</ns3:atemp>
            <ns3:hr>84</ns3:hr>
          </ns3:TrackPointExtension>
        </extensions>
      </trkpt>
      <trkpt lat="48.7687405385076999664306640625" lon="-3.5816390253603458404541015625">
        <ele>7.400000095367431640625</ele>
        <time>2026-05-08T15:53:06.000Z</time>
        <extensions>
          <ns3:TrackPointExtension>
            <ns3:atemp>22.0</ns3:atemp>
            <ns3:hr>84</ns3:hr>
          </ns3:TrackPointExtension>
        </extensions>
      </trkpt>
      <trkpt lat="48.76874347217381000518798828125" lon="-3.58157088048756122589111328125">
        <ele>7.599999904632568359375</ele>
        <time>2026-05-08T15:53:11.000Z</time>
        <extensions>
          <ns3:TrackPointExtension>
            <ns3:atemp>22.0</ns3:atemp>
            <ns3:hr>85</ns3:hr>
          </ns3:TrackPointExtension>
        </extensions>
      </trkpt>
      <trkpt lat="48.768740706145763397216796875" lon="-3.58157155103981494903564453125">
        <ele>7.599999904632568359375</ele>
        <time>2026-05-08T15:53:12.000Z</time>
        <extensions>
          <ns3:TrackPointExtension>
            <ns3:atemp>22.0</ns3:atemp>
            <ns3:hr>85</ns3:hr>
          </ns3:TrackPointExtension>
        </extensions>
      </trkpt>
      <trkpt lat="48.76873978413641452789306640625" lon="-3.581564091145992279052734375">
        <ele>7.400000095367431640625</ele>
        <time>2026-05-08T15:53:18.000Z</time>
        <extensions>
          <ns3:TrackPointExtension>
            <ns3:atemp>22.0</ns3:atemp>
            <ns3:hr>88</ns3:hr>
          </ns3:TrackPointExtension>
        </extensions>
      </trkpt>
      <trkpt lat="48.76874062232673168182373046875" lon="-3.5815531946718692779541015625">
        <ele>7.400000095367431640625</ele>
        <time>2026-05-08T15:53:19.000Z</time>
        <extensions>
          <ns3:TrackPointExtension>
            <ns3:atemp>22.0</ns3:atemp>
            <ns3:hr>88</ns3:hr>
          </ns3:TrackPointExtension>
        </extensions>
      </trkpt>
      <trkpt lat="48.76873726956546306610107421875" lon="-3.5815387777984142303466796875">
        <ele>7.400000095367431640625</ele>
        <time>2026-05-08T15:53:20.000Z</time>
        <extensions>
          <ns3:TrackPointExtension>
            <ns3:atemp>22.0</ns3:atemp>
            <ns3:hr>89</ns3:hr>
          </ns3:TrackPointExtension>
        </extensions>
      </trkpt>
      <trkpt lat="48.7687303125858306884765625" lon="-3.58144766651093959808349609375">
        <ele>7.599999904632568359375</ele>
        <time>2026-05-08T15:53:26.000Z</time>
        <extensions>
          <ns3:TrackPointExtension>
            <ns3:atemp>22.0</ns3:atemp>
            <ns3:hr>91</ns3:hr>
          </ns3:TrackPointExtension>
        </extensions>
      </trkpt>
      <trkpt lat="48.76873995177447795867919921875" lon="-3.58141883276402950286865234375">
        <ele>7.19999980926513671875</ele>
        <time>2026-05-08T15:53:35.000Z</time>
        <extensions>
          <ns3:TrackPointExtension>
            <ns3:atemp>22.0</ns3:atemp>
            <ns3:hr>92</ns3:hr>
          </ns3:TrackPointExtension>
        </extensions>
      </trkpt>
      <trkpt lat="48.76873877830803394317626953125" lon="-3.581416904926300048828125">
        <ele>7.599999904632568359375</ele>
        <time>2026-05-08T15:53:44.000Z</time>
        <extensions>
          <ns3:TrackPointExtension>
            <ns3:atemp>22.0</ns3:atemp>
            <ns3:hr>94</ns3:hr>
          </ns3:TrackPointExtension>
        </extensions>
      </trkpt>
      <trkpt lat="48.76874011941254138946533203125" lon="-3.58138245530426502227783203125">
        <ele>7.400000095367431640625</ele>
        <time>2026-05-08T15:53:48.000Z</time>
        <extensions>
          <ns3:TrackPointExtension>
            <ns3:atemp>22.0</ns3:atemp>
            <ns3:hr>91</ns3:hr>
          </ns3:TrackPointExtension>
        </extensions>
      </trkpt>
      <trkpt lat="48.768740035593509674072265625" lon="-3.58136334456503391265869140625">
        <ele>7.19999980926513671875</ele>
        <time>2026-05-08T15:53:49.000Z</time>
        <extensions>
          <ns3:TrackPointExtension>
            <ns3:atemp>22.0</ns3:atemp>
            <ns3:hr>90</ns3:hr>
          </ns3:TrackPointExtension>
        </extensions>
      </trkpt>
      <trkpt lat="48.7687519378960132598876953125" lon="-3.58124725520610809326171875">
        <ele>8</ele>
        <time>2026-05-08T15:53:56.000Z</time>
        <extensions>
          <ns3:TrackPointExtension>
            <ns3:atemp>22.0</ns3:atemp>
            <ns3:hr>88</ns3:hr>
          </ns3:TrackPointExtension>
        </extensions>
      </trkpt>
      <trkpt lat="48.76875956542789936065673828125" lon="-3.58115279115736484527587890625">
        <ele>8.80000019073486328125</ele>
        <time>2026-05-08T15:54:01.000Z</time>
        <extensions>
          <ns3:TrackPointExtension>
            <ns3:atemp>22.0</ns3:atemp>
            <ns3:hr>88</ns3:hr>
          </ns3:TrackPointExtension>
        </extensions>
      </trkpt>
      <trkpt lat="48.76876794733107089996337890625" lon="-3.58108674176037311553955078125">
        <ele>9</ele>
        <time>2026-05-08T15:54:05.000Z</time>
        <extensions>
          <ns3:TrackPointExtension>
            <ns3:atemp>22.0</ns3:atemp>
            <ns3:hr>89</ns3:hr>
          </ns3:TrackPointExtension>
        </extensions>
      </trkpt>
      <trkpt lat="48.76877121627330780029296875" lon="-3.5810516215860843658447265625">
        <ele>9.3999996185302734375</ele>
        <time>2026-05-08T15:54:07.000Z</time>
        <extensions>
          <ns3:TrackPointExtension>
            <ns3:atemp>22.0</ns3:atemp>
            <ns3:hr>89</ns3:hr>
          </ns3:TrackPointExtension>
        </extensions>
      </trkpt>
      <trkpt lat="48.76878303475677967071533203125" lon="-3.58097157441079616546630859375">
        <ele>10.19999980926513671875</ele>
        <time>2026-05-08T15:54:11.000Z</time>
        <extensions>
          <ns3:TrackPointExtension>
            <ns3:atemp>22.0</ns3:atemp>
            <ns3:hr>91</ns3:hr>
          </ns3:TrackPointExtension>
        </extensions>
      </trkpt>
      <trkpt lat="48.76878454349935054779052734375" lon="-3.58093611896038055419921875">
        <ele>10.6000003814697265625</ele>
        <time>2026-05-08T15:54:13.000Z</time>
        <extensions>
          <ns3:TrackPointExtension>
            <ns3:atemp>22.0</ns3:atemp>
            <ns3:hr>92</ns3:hr>
          </ns3:TrackPointExtension>
        </extensions>
      </trkpt>
      <trkpt lat="48.76879409886896610260009765625" lon="-3.5808725841343402862548828125">
        <ele>11.19999980926513671875</ele>
        <time>2026-05-08T15:54:17.000Z</time>
        <extensions>
          <ns3:TrackPointExtension>
            <ns3:atemp>22.0</ns3:atemp>
            <ns3:hr>95</ns3:hr>
          </ns3:TrackPointExtension>
        </extensions>
      </trkpt>
      <trkpt lat="48.76879409886896610260009765625" lon="-3.580857999622821807861328125">
        <ele>11.19999980926513671875</ele>
        <time>2026-05-08T15:54:18.000Z</time>
        <extensions>
          <ns3:TrackPointExtension>
            <ns3:atemp>22.0</ns3:atemp>
            <ns3:hr>95</ns3:hr>
          </ns3:TrackPointExtension>
        </extensions>
      </trkpt>
      <trkpt lat="48.76879661343991756439208984375" lon="-3.58084048144519329071044921875">
        <ele>11.3999996185302734375</ele>
        <time>2026-05-08T15:54:19.000Z</time>
        <extensions>
          <ns3:TrackPointExtension>
            <ns3:atemp>24.0</ns3:atemp>
            <ns3:hr>96</ns3:hr>
          </ns3:TrackPointExtension>
        </extensions>
      </trkpt>
      <trkpt lat="48.76879761926829814910888671875" lon="-3.580822460353374481201171875">
        <ele>11.6000003814697265625</ele>
        <time>2026-05-08T15:54:20.000Z</time>
        <extensions>
          <ns3:TrackPointExtension>
            <ns3:atemp>24.0</ns3:atemp>
            <ns3:hr>97</ns3:hr>
          </ns3:TrackPointExtension>
        </extensions>
      </trkpt>
      <trkpt lat="48.76880667172372341156005859375" lon="-3.5807582549750804901123046875">
        <ele>12.19999980926513671875</ele>
        <time>2026-05-08T15:54:24.000Z</time>
        <extensions>
          <ns3:TrackPointExtension>
            <ns3:atemp>24.0</ns3:atemp>
            <ns3:hr>100</ns3:hr>
          </ns3:TrackPointExtension>
        </extensions>
      </trkpt>
      <trkpt lat="48.768810443580150604248046875" lon="-3.58073855750262737274169921875">
        <ele>12.19999980926513671875</ele>
        <time>2026-05-08T15:54:25.000Z</time>
        <extensions>
          <ns3:TrackPointExtension>
            <ns3:atemp>24.0</ns3:atemp>
            <ns3:hr>100</ns3:hr>
          </ns3:TrackPointExtension>
        </extensions>
      </trkpt>
      <trkpt lat="48.7688134610652923583984375" lon="-3.580720536410808563232421875">
        <ele>12.3999996185302734375</ele>
        <time>2026-05-08T15:54:26.000Z</time>
        <extensions>
          <ns3:TrackPointExtension>
            <ns3:atemp>24.0</ns3:atemp>
            <ns3:hr>101</ns3:hr>
          </ns3:TrackPointExtension>
        </extensions>
      </trkpt>
      <trkpt lat="48.7688253633677959442138671875" lon="-3.58061685226857662200927734375">
        <ele>13.19999980926513671875</ele>
        <time>2026-05-08T15:54:32.000Z</time>
        <extensions>
          <ns3:TrackPointExtension>
            <ns3:atemp>24.0</ns3:atemp>
            <ns3:hr>103</ns3:hr>
          </ns3:TrackPointExtension>
        </extensions>
      </trkpt>
      <trkpt lat="48.768823184072971343994140625" lon="-3.5805544070899486541748046875">
        <ele>13.3999996185302734375</ele>
        <time>2026-05-08T15:54:36.000Z</time>
        <extensions>
          <ns3:TrackPointExtension>
            <ns3:atemp>24.0</ns3:atemp>
            <ns3:hr>104</ns3:hr>
          </ns3:TrackPointExtension>
        </extensions>
      </trkpt>
      <trkpt lat="48.7688277103006839752197265625" lon="-3.5805051214993000030517578125">
        <ele>13.80000019073486328125</ele>
        <time>2026-05-08T15:54:39.000Z</time>
        <extensions>
          <ns3:TrackPointExtension>
            <ns3:atemp>24.0</ns3:atemp>
            <ns3:hr>104</ns3:hr>
          </ns3:TrackPointExtension>
        </extensions>
      </trkpt>
      <trkpt lat="48.76882812939584255218505859375" lon="-3.58042842708528041839599609375">
        <ele>14.6000003814697265625</ele>
        <time>2026-05-08T15:54:44.000Z</time>
        <extensions>
          <ns3:TrackPointExtension>
            <ns3:atemp>24.0</ns3:atemp>
            <ns3:hr>105</ns3:hr>
          </ns3:TrackPointExtension>
        </extensions>
      </trkpt>
      <trkpt lat="48.76883014105260372161865234375" lon="-3.58039204962551593780517578125">
        <ele>14.80000019073486328125</ele>
        <time>2026-05-08T15:54:46.000Z</time>
        <extensions>
          <ns3:TrackPointExtension>
            <ns3:atemp>24.0</ns3:atemp>
            <ns3:hr>105</ns3:hr>
          </ns3:TrackPointExtension>
        </extensions>
      </trkpt>
      <trkpt lat="48.76884363591670989990234375" lon="-3.58032365329563617706298828125">
        <ele>15.6000003814697265625</ele>
        <time>2026-05-08T15:54:51.000Z</time>
        <extensions>
          <ns3:TrackPointExtension>
            <ns3:atemp>24.0</ns3:atemp>
            <ns3:hr>107</ns3:hr>
          </ns3:TrackPointExtension>
        </extensions>
      </trkpt>
      <trkpt lat="48.76884925179183483123779296875" lon="-3.58027017675340175628662109375">
        <ele>16.200000762939453125</ele>
        <time>2026-05-08T15:54:55.000Z</time>
        <extensions>
          <ns3:TrackPointExtension>
            <ns3:atemp>24.0</ns3:atemp>
            <ns3:hr>108</ns3:hr>
          </ns3:TrackPointExtension>
        </extensions>
      </trkpt>
      <trkpt lat="48.76885168254375457763671875" lon="-3.58022893778979778289794921875">
        <ele>16.6000003814697265625</ele>
        <time>2026-05-08T15:54:58.000Z</time>
        <extensions>
          <ns3:TrackPointExtension>
            <ns3:atemp>24.0</ns3:atemp>
            <ns3:hr>109</ns3:hr>
          </ns3:TrackPointExtension>
        </extensions>
      </trkpt>
      <trkpt lat="48.7688508443534374237060546875" lon="-3.58017529360949993133544921875">
        <ele>17.799999237060546875</ele>
        <time>2026-05-08T15:55:03.000Z</time>
        <extensions>
          <ns3:TrackPointExtension>
            <ns3:atemp>24.0</ns3:atemp>
            <ns3:hr>110</ns3:hr>
          </ns3:TrackPointExtension>
        </extensions>
      </trkpt>
      <trkpt lat="48.76885713078081607818603515625" lon="-3.5801503993570804595947265625">
        <ele>18.200000762939453125</ele>
        <time>2026-05-08T15:55:05.000Z</time>
        <extensions>
          <ns3:TrackPointExtension>
            <ns3:atemp>24.0</ns3:atemp>
            <ns3:hr>111</ns3:hr>
          </ns3:TrackPointExtension>
        </extensions>
      </trkpt>
      <trkpt lat="48.7688605673611164093017578125" lon="-3.58012164942920207977294921875">
        <ele>18.799999237060546875</ele>
        <time>2026-05-08T15:55:07.000Z</time>
        <extensions>
          <ns3:TrackPointExtension>
            <ns3:atemp>24.0</ns3:atemp>
            <ns3:hr>112</ns3:hr>
          </ns3:TrackPointExtension>
        </extensions>
      </trkpt>
      <trkpt lat="48.76886685378849506378173828125" lon="-3.5800625570118427276611328125">
        <ele>19.3999996185302734375</ele>
        <time>2026-05-08T15:55:11.000Z</time>
        <extensions>
          <ns3:TrackPointExtension>
            <ns3:atemp>24.0</ns3:atemp>
            <ns3:hr>112</ns3:hr>
          </ns3:TrackPointExtension>
        </extensions>
      </trkpt>
      <trkpt lat="48.76886769197881221771240234375" lon="-3.58003598637878894805908203125">
        <ele>19.799999237060546875</ele>
        <time>2026-05-08T15:55:13.000Z</time>
        <extensions>
          <ns3:TrackPointExtension>
            <ns3:atemp>24.0</ns3:atemp>
            <ns3:hr>112</ns3:hr>
          </ns3:TrackPointExtension>
        </extensions>
      </trkpt>
      <trkpt lat="48.768870793282985687255859375" lon="-3.57998703606426715850830078125">
        <ele>20.799999237060546875</ele>
        <time>2026-05-08T15:55:17.000Z</time>
        <extensions>
          <ns3:TrackPointExtension>
            <ns3:atemp>24.0</ns3:atemp>
            <ns3:hr>114</ns3:hr>
          </ns3:TrackPointExtension>
        </extensions>
      </trkpt>
      <trkpt lat="48.76887657679617404937744140625" lon="-3.5799676738679409027099609375">
        <ele>21.3999996185302734375</ele>
        <time>2026-05-08T15:55:19.000Z</time>
        <extensions>
          <ns3:TrackPointExtension>
            <ns3:atemp>24.0</ns3:atemp>
            <ns3:hr>115</ns3:hr>
          </ns3:TrackPointExtension>
        </extensions>
      </trkpt>
      <trkpt lat="48.768880851566791534423828125" lon="-3.579946719110012054443359375">
        <ele>21.799999237060546875</ele>
        <time>2026-05-08T15:55:21.000Z</time>
        <extensions>
          <ns3:TrackPointExtension>
            <ns3:atemp>24.0</ns3:atemp>
            <ns3:hr>116</ns3:hr>
          </ns3:TrackPointExtension>
        </extensions>
      </trkpt>
      <trkpt lat="48.7688806839287281036376953125" lon="-3.5798637382686138153076171875">
        <ele>23</ele>
        <time>2026-05-08T15:55:27.000Z</time>
        <extensions>
          <ns3:TrackPointExtension>
            <ns3:atemp>24.0</ns3:atemp>
            <ns3:hr>117</ns3:hr>
          </ns3:TrackPointExtension>
        </extensions>
      </trkpt>
      <trkpt lat="48.7688743136823177337646484375" lon="-3.57981721870601177215576171875">
        <ele>24</ele>
        <time>2026-05-08T15:55:31.000Z</time>
        <extensions>
          <ns3:TrackPointExtension>
            <ns3:atemp>24.0</ns3:atemp>
            <ns3:hr>118</ns3:hr>
          </ns3:TrackPointExtension>
        </extensions>
      </trkpt>
      <trkpt lat="48.7688719667494297027587890625" lon="-3.57976525090634822845458984375">
        <ele>25</ele>
        <time>2026-05-08T15:55:35.000Z</time>
        <extensions>
          <ns3:TrackPointExtension>
            <ns3:atemp>24.0</ns3:atemp>
            <ns3:hr>118</ns3:hr>
          </ns3:TrackPointExtension>
        </extensions>
      </trkpt>
      <trkpt lat="48.76887422986328601837158203125" lon="-3.579753600060939788818359375">
        <ele>25</ele>
        <time>2026-05-08T15:55:36.000Z</time>
        <extensions>
          <ns3:TrackPointExtension>
            <ns3:atemp>24.0</ns3:atemp>
            <ns3:hr>119</ns3:hr>
          </ns3:TrackPointExtension>
        </extensions>
      </trkpt>
      <trkpt lat="48.7688840366899967193603515625" lon="-3.5796937532722949981689453125">
        <ele>26.200000762939453125</ele>
        <time>2026-05-08T15:55:41.000Z</time>
        <extensions>
          <ns3:TrackPointExtension>
            <ns3:atemp>24.0</ns3:atemp>
            <ns3:hr>121</ns3:hr>
          </ns3:TrackPointExtension>
        </extensions>
      </trkpt>
      <trkpt lat="48.7688904069364070892333984375" lon="-3.5796588845551013946533203125">
        <ele>27</ele>
        <time>2026-05-08T15:55:44.000Z</time>
        <extensions>
          <ns3:TrackPointExtension>
            <ns3:atemp>24.0</ns3:atemp>
            <ns3:hr>122</ns3:hr>
          </ns3:TrackPointExtension>
        </extensions>
      </trkpt>
      <trkpt lat="48.76888948492705821990966796875" lon="-3.57964321039617061614990234375">
        <ele>27.200000762939453125</ele>
        <time>2026-05-08T15:55:45.000Z</time>
        <extensions>
          <ns3:TrackPointExtension>
            <ns3:atemp>24.0</ns3:atemp>
            <ns3:hr>123</ns3:hr>
          </ns3:TrackPointExtension>
        </extensions>
      </trkpt>
      <trkpt lat="48.76889250241219997406005859375" lon="-3.57959576882421970367431640625">
        <ele>28.200000762939453125</ele>
        <time>2026-05-08T15:55:50.000Z</time>
        <extensions>
          <ns3:TrackPointExtension>
            <ns3:atemp>24.0</ns3:atemp>
            <ns3:hr>124</ns3:hr>
          </ns3:TrackPointExtension>
        </extensions>
      </trkpt>
      <trkpt lat="48.76889526844024658203125" lon="-3.57958721928298473358154296875">
        <ele>28.3999996185302734375</ele>
        <time>2026-05-08T15:55:51.000Z</time>
        <extensions>
          <ns3:TrackPointExtension>
            <ns3:atemp>24.0</ns3:atemp>
            <ns3:hr>125</ns3:hr>
          </ns3:TrackPointExtension>
        </extensions>
      </trkpt>
      <trkpt lat="48.768902309238910675048828125" lon="-3.5795326530933380126953125">
        <ele>29.6000003814697265625</ele>
        <time>2026-05-08T15:55:55.000Z</time>
        <extensions>
          <ns3:TrackPointExtension>
            <ns3:atemp>24.0</ns3:atemp>
            <ns3:hr>125</ns3:hr>
          </ns3:TrackPointExtension>
        </extensions>
      </trkpt>
      <trkpt lat="48.7689071707427501678466796875" lon="-3.5795100219547748565673828125">
        <ele>30.200000762939453125</ele>
        <time>2026-05-08T15:55:57.000Z</time>
        <extensions>
          <ns3:TrackPointExtension>
            <ns3:atemp>24.0</ns3:atemp>
            <ns3:hr>125</ns3:hr>
          </ns3:TrackPointExtension>
        </extensions>
      </trkpt>
      <trkpt lat="48.76891111023724079132080078125" lon="-3.5794858820736408233642578125">
        <ele>30.6000003814697265625</ele>
        <time>2026-05-08T15:55:59.000Z</time>
        <extensions>
          <ns3:TrackPointExtension>
            <ns3:atemp>24.0</ns3:atemp>
            <ns3:hr>125</ns3:hr>
          </ns3:TrackPointExtension>
        </extensions>
      </trkpt>
      <trkpt lat="48.7689061649143695831298828125" lon="-3.579437434673309326171875">
        <ele>31.799999237060546875</ele>
        <time>2026-05-08T15:56:04.000Z</time>
        <extensions>
          <ns3:TrackPointExtension>
            <ns3:atemp>24.0</ns3:atemp>
            <ns3:hr>124</ns3:hr>
          </ns3:TrackPointExtension>
        </extensions>
      </trkpt>
      <trkpt lat="48.7689019739627838134765625" lon="-3.57941790483891963958740234375">
        <ele>32.200000762939453125</ele>
        <time>2026-05-08T15:56:06.000Z</time>
        <extensions>
          <ns3:TrackPointExtension>
            <ns3:atemp>24.0</ns3:atemp>
            <ns3:hr>124</ns3:hr>
          </ns3:TrackPointExtension>
        </extensions>
      </trkpt>
      <trkpt lat="48.76889116130769252777099609375" lon="-3.57939410023391246795654296875">
        <ele>32.799999237060546875</ele>
        <time>2026-05-08T15:56:09.000Z</time>
        <extensions>
          <ns3:TrackPointExtension>
            <ns3:atemp>24.0</ns3:atemp>
            <ns3:hr>124</ns3:hr>
          </ns3:TrackPointExtension>
        </extensions>
      </trkpt>
      <trkpt lat="48.76887372694909572601318359375" lon="-3.57936241663992404937744140625">
        <ele>33.799999237060546875</ele>
        <time>2026-05-08T15:56:13.000Z</time>
        <extensions>
          <ns3:TrackPointExtension>
            <ns3:atemp>24.0</ns3:atemp>
            <ns3:hr>125</ns3:hr>
          </ns3:TrackPointExtension>
        </extensions>
      </trkpt>
      <trkpt lat="48.7688655965030193328857421875" lon="-3.57935504056513309478759765625">
        <ele>34</ele>
        <time>2026-05-08T15:56:14.000Z</time>
        <extensions>
          <ns3:TrackPointExtension>
            <ns3:atemp>24.0</ns3:atemp>
            <ns3:hr>125</ns3:hr>
          </ns3:TrackPointExtension>
        </extensions>
      </trkpt>
      <trkpt lat="48.768849670886993408203125" lon="-3.57936032116413116455078125">
        <ele>34.59999847412109375</ele>
        <time>2026-05-08T15:56:19.000Z</time>
        <extensions>
          <ns3:TrackPointExtension>
            <ns3:atemp>25.0</ns3:atemp>
            <ns3:hr>126</ns3:hr>
          </ns3:TrackPointExtension>
        </extensions>
      </trkpt>
      <trkpt lat="48.76884992234408855438232421875" lon="-3.5793601535260677337646484375">
        <ele>34.40000152587890625</ele>
        <time>2026-05-08T15:56:21.000Z</time>
        <extensions>
          <ns3:TrackPointExtension>
            <ns3:atemp>25.0</ns3:atemp>
            <ns3:hr>127</ns3:hr>
          </ns3:TrackPointExtension>
        </extensions>
      </trkpt>
      <trkpt lat="48.76884958706796169281005859375" lon="-3.5793561302125453948974609375">
        <ele>34.40000152587890625</ele>
        <time>2026-05-08T15:56:31.000Z</time>
        <extensions>
          <ns3:TrackPointExtension>
            <ns3:atemp>25.0</ns3:atemp>
            <ns3:hr>127</ns3:hr>
          </ns3:TrackPointExtension>
        </extensions>
      </trkpt>
      <trkpt lat="48.768854700028896331787109375" lon="-3.57934112660586833953857421875">
        <ele>34.59999847412109375</ele>
        <time>2026-05-08T15:56:37.000Z</time>
        <extensions>
          <ns3:TrackPointExtension>
            <ns3:atemp>25.0</ns3:atemp>
            <ns3:hr>129</ns3:hr>
          </ns3:TrackPointExtension>
        </extensions>
      </trkpt>
      <trkpt lat="48.76884673722088336944580078125" lon="-3.57931740581989288330078125">
        <ele>35</ele>
        <time>2026-05-08T15:56:39.000Z</time>
        <extensions>
          <ns3:TrackPointExtension>
            <ns3:atemp>25.0</ns3:atemp>
            <ns3:hr>129</ns3:hr>
          </ns3:TrackPointExtension>
        </extensions>
      </trkpt>
      <trkpt lat="48.76884254626929759979248046875" lon="-3.57928915880620479583740234375">
        <ele>36.200000762939453125</ele>
        <time>2026-05-08T15:56:43.000Z</time>
        <extensions>
          <ns3:TrackPointExtension>
            <ns3:atemp>25.0</ns3:atemp>
            <ns3:hr>127</ns3:hr>
          </ns3:TrackPointExtension>
        </extensions>
      </trkpt>
      <trkpt lat="48.7688404507935047149658203125" lon="-3.57928731478750705718994140625">
        <ele>36.40000152587890625</ele>
        <time>2026-05-08T15:56:44.000Z</time>
        <extensions>
          <ns3:TrackPointExtension>
            <ns3:atemp>25.0</ns3:atemp>
            <ns3:hr>127</ns3:hr>
          </ns3:TrackPointExtension>
        </extensions>
      </trkpt>
      <trkpt lat="48.7688206695020198822021484375" lon="-3.579249344766139984130859375">
        <ele>37.200000762939453125</ele>
        <time>2026-05-08T15:56:48.000Z</time>
        <extensions>
          <ns3:TrackPointExtension>
            <ns3:atemp>25.0</ns3:atemp>
            <ns3:hr>125</ns3:hr>
          </ns3:TrackPointExtension>
        </extensions>
      </trkpt>
      <trkpt lat="48.7688149698078632354736328125" lon="-3.57923517934978008270263671875">
        <ele>37.799999237060546875</ele>
        <time>2026-05-08T15:56:50.000Z</time>
        <extensions>
          <ns3:TrackPointExtension>
            <ns3:atemp>25.0</ns3:atemp>
            <ns3:hr>125</ns3:hr>
          </ns3:TrackPointExtension>
        </extensions>
      </trkpt>
      <trkpt lat="48.7688112817704677581787109375" lon="-3.5792220197618007659912109375">
        <ele>38.40000152587890625</ele>
        <time>2026-05-08T15:56:53.000Z</time>
        <extensions>
          <ns3:TrackPointExtension>
            <ns3:atemp>25.0</ns3:atemp>
            <ns3:hr>124</ns3:hr>
          </ns3:TrackPointExtension>
        </extensions>
      </trkpt>
      <trkpt lat="48.76880885101854801177978515625" lon="-3.579199723899364471435546875">
        <ele>39.200000762939453125</ele>
        <time>2026-05-08T15:56:56.000Z</time>
        <extensions>
          <ns3:TrackPointExtension>
            <ns3:atemp>25.0</ns3:atemp>
            <ns3:hr>124</ns3:hr>
          </ns3:TrackPointExtension>
        </extensions>
      </trkpt>
      <trkpt lat="48.76879963092505931854248046875" lon="-3.57917214743793010711669921875">
        <ele>39.59999847412109375</ele>
        <time>2026-05-08T15:56:58.000Z</time>
        <extensions>
          <ns3:TrackPointExtension>
            <ns3:atemp>25.0</ns3:atemp>
            <ns3:hr>125</ns3:hr>
          </ns3:TrackPointExtension>
        </extensions>
      </trkpt>
      <trkpt lat="48.768779933452606201171875" lon="-3.57912872917950153350830078125">
        <ele>40.799999237060546875</ele>
        <time>2026-05-08T15:57:02.000Z</time>
        <extensions>
          <ns3:TrackPointExtension>
            <ns3:atemp>25.0</ns3:atemp>
            <ns3:hr>126</ns3:hr>
          </ns3:TrackPointExtension>
        </extensions>
      </trkpt>
      <trkpt lat="48.7687331624329090118408203125" lon="-3.57909210026264190673828125">
        <ele>41.799999237060546875</ele>
        <time>2026-05-08T15:57:07.000Z</time>
        <extensions>
          <ns3:TrackPointExtension>
            <ns3:atemp>25.0</ns3:atemp>
            <ns3:hr>126</ns3:hr>
          </ns3:TrackPointExtension>
        </extensions>
      </trkpt>
      <trkpt lat="48.7687207572162151336669921875" lon="-3.57908631674945354461669921875">
        <ele>42</ele>
        <time>2026-05-08T15:57:08.000Z</time>
        <extensions>
          <ns3:TrackPointExtension>
            <ns3:atemp>25.0</ns3:atemp>
            <ns3:hr>126</ns3:hr>
          </ns3:TrackPointExtension>
        </extensions>
      </trkpt>
      <trkpt lat="48.76867423765361309051513671875" lon="-3.57903468422591686248779296875">
        <ele>43.200000762939453125</ele>
        <time>2026-05-08T15:57:13.000Z</time>
        <extensions>
          <ns3:TrackPointExtension>
            <ns3:atemp>25.0</ns3:atemp>
            <ns3:hr>128</ns3:hr>
          </ns3:TrackPointExtension>
        </extensions>
      </trkpt>
      <trkpt lat="48.76866702921688556671142578125" lon="-3.57902781106531620025634765625">
        <ele>43.40000152587890625</ele>
        <time>2026-05-08T15:57:14.000Z</time>
        <extensions>
          <ns3:TrackPointExtension>
            <ns3:atemp>25.0</ns3:atemp>
            <ns3:hr>128</ns3:hr>
          </ns3:TrackPointExtension>
        </extensions>
      </trkpt>
      <trkpt lat="48.7686503492295742034912109375" lon="-3.57900568284094333648681640625">
        <ele>44.40000152587890625</ele>
        <time>2026-05-08T15:57:16.000Z</time>
        <extensions>
          <ns3:TrackPointExtension>
            <ns3:atemp>25.0</ns3:atemp>
            <ns3:hr>130</ns3:hr>
          </ns3:TrackPointExtension>
        </extensions>
      </trkpt>
      <trkpt lat="48.768623359501361846923828125" lon="-3.5789665393531322479248046875">
        <ele>45.40000152587890625</ele>
        <time>2026-05-08T15:57:20.000Z</time>
        <extensions>
          <ns3:TrackPointExtension>
            <ns3:atemp>25.0</ns3:atemp>
            <ns3:hr>132</ns3:hr>
          </ns3:TrackPointExtension>
        </extensions>
      </trkpt>
      <trkpt lat="48.76859595067799091339111328125" lon="-3.5789358615875244140625">
        <ele>46</ele>
        <time>2026-05-08T15:57:23.000Z</time>
        <extensions>
          <ns3:TrackPointExtension>
            <ns3:atemp>25.0</ns3:atemp>
            <ns3:hr>133</ns3:hr>
          </ns3:TrackPointExtension>
        </extensions>
      </trkpt>
      <trkpt lat="48.76858488656580448150634765625" lon="-3.5789212770760059356689453125">
        <ele>46.40000152587890625</ele>
        <time>2026-05-08T15:57:25.000Z</time>
        <extensions>
          <ns3:TrackPointExtension>
            <ns3:atemp>25.0</ns3:atemp>
            <ns3:hr>134</ns3:hr>
          </ns3:TrackPointExtension>
        </extensions>
      </trkpt>
      <trkpt lat="48.7685735709965229034423828125" lon="-3.5788988135755062103271484375">
        <ele>47.59999847412109375</ele>
        <time>2026-05-08T15:57:28.000Z</time>
        <extensions>
          <ns3:TrackPointExtension>
            <ns3:atemp>25.0</ns3:atemp>
            <ns3:hr>136</ns3:hr>
          </ns3:TrackPointExtension>
        </extensions>
      </trkpt>
      <trkpt lat="48.7685661949217319488525390625" lon="-3.5789025016129016876220703125">
        <ele>48</ele>
        <time>2026-05-08T15:57:29.000Z</time>
        <extensions>
          <ns3:TrackPointExtension>
            <ns3:atemp>25.0</ns3:atemp>
            <ns3:hr>136</ns3:hr>
          </ns3:TrackPointExtension>
        </extensions>
      </trkpt>
      <trkpt lat="48.76855320297181606292724609375" lon="-3.5788991488516330718994140625">
        <ele>48.200000762939453125</ele>
        <time>2026-05-08T15:57:31.000Z</time>
        <extensions>
          <ns3:TrackPointExtension>
            <ns3:atemp>25.0</ns3:atemp>
            <ns3:hr>136</ns3:hr>
          </ns3:TrackPointExtension>
        </extensions>
      </trkpt>
      <trkpt lat="48.7685212679207324981689453125" lon="-3.57889185659587383270263671875">
        <ele>48.59999847412109375</ele>
        <time>2026-05-08T15:57:35.000Z</time>
        <extensions>
          <ns3:TrackPointExtension>
            <ns3:atemp>25.0</ns3:atemp>
            <ns3:hr>136</ns3:hr>
          </ns3:TrackPointExtension>
        </extensions>
      </trkpt>
      <trkpt lat="48.768495954573154449462890625" lon="-3.57887391932308673858642578125">
        <ele>49</ele>
        <time>2026-05-08T15:57:38.000Z</time>
        <extensions>
          <ns3:TrackPointExtension>
            <ns3:atemp>25.0</ns3:atemp>
            <ns3:hr>137</ns3:hr>
          </ns3:TrackPointExtension>
        </extensions>
      </trkpt>
      <trkpt lat="48.76848262734711170196533203125" lon="-3.5788575746119022369384765625">
        <ele>49.200000762939453125</ele>
        <time>2026-05-08T15:57:40.000Z</time>
        <extensions>
          <ns3:TrackPointExtension>
            <ns3:atemp>25.0</ns3:atemp>
            <ns3:hr>140</ns3:hr>
          </ns3:TrackPointExtension>
        </extensions>
      </trkpt>
      <trkpt lat="48.76846083439886569976806640625" lon="-3.5788367874920368194580078125">
        <ele>49.40000152587890625</ele>
        <time>2026-05-08T15:57:43.000Z</time>
        <extensions>
          <ns3:TrackPointExtension>
            <ns3:atemp>25.0</ns3:atemp>
            <ns3:hr>143</ns3:hr>
          </ns3:TrackPointExtension>
        </extensions>
      </trkpt>
      <trkpt lat="48.76845295540988445281982421875" lon="-3.57883133925497531890869140625">
        <ele>49.59999847412109375</ele>
        <time>2026-05-08T15:57:44.000Z</time>
        <extensions>
          <ns3:TrackPointExtension>
            <ns3:atemp>25.0</ns3:atemp>
            <ns3:hr>143</ns3:hr>
          </ns3:TrackPointExtension>
        </extensions>
      </trkpt>
      <trkpt lat="48.7684451602399349212646484375" lon="-3.57882848940789699554443359375">
        <ele>50</ele>
        <time>2026-05-08T15:57:45.000Z</time>
        <extensions>
          <ns3:TrackPointExtension>
            <ns3:atemp>25.0</ns3:atemp>
            <ns3:hr>144</ns3:hr>
          </ns3:TrackPointExtension>
        </extensions>
      </trkpt>
      <trkpt lat="48.76841674558818340301513671875" lon="-3.5788218677043914794921875">
        <ele>50.799999237060546875</ele>
        <time>2026-05-08T15:57:48.000Z</time>
        <extensions>
          <ns3:TrackPointExtension>
            <ns3:atemp>25.0</ns3:atemp>
            <ns3:hr>144</ns3:hr>
          </ns3:TrackPointExtension>
        </extensions>
      </trkpt>
      <trkpt lat="48.76839964650571346282958984375" lon="-3.57882379554212093353271484375">
        <ele>51.40000152587890625</ele>
        <time>2026-05-08T15:57:50.000Z</time>
        <extensions>
          <ns3:TrackPointExtension>
            <ns3:atemp>25.0</ns3:atemp>
            <ns3:hr>145</ns3:hr>
          </ns3:TrackPointExtension>
        </extensions>
      </trkpt>
      <trkpt lat="48.76837383024394512176513671875" lon="-3.57883050106465816497802734375">
        <ele>52.200000762939453125</ele>
        <time>2026-05-08T15:57:52.000Z</time>
        <extensions>
          <ns3:TrackPointExtension>
            <ns3:atemp>25.0</ns3:atemp>
            <ns3:hr>144</ns3:hr>
          </ns3:TrackPointExtension>
        </extensions>
      </trkpt>
      <trkpt lat="48.76830845139920711517333984375" lon="-3.57884760014712810516357421875">
        <ele>53</ele>
        <time>2026-05-08T15:57:58.000Z</time>
        <extensions>
          <ns3:TrackPointExtension>
            <ns3:atemp>25.0</ns3:atemp>
            <ns3:hr>145</ns3:hr>
          </ns3:TrackPointExtension>
        </extensions>
      </trkpt>
      <trkpt lat="48.76826972700655460357666015625" lon="-3.57884206809103488922119140625">
        <ele>52.59999847412109375</ele>
        <time>2026-05-08T15:58:02.000Z</time>
        <extensions>
          <ns3:TrackPointExtension>
            <ns3:atemp>25.0</ns3:atemp>
            <ns3:hr>148</ns3:hr>
          </ns3:TrackPointExtension>
        </extensions>
      </trkpt>
      <trkpt lat="48.76824776642024517059326171875" lon="-3.57883033342659473419189453125">
        <ele>52.40000152587890625</ele>
        <time>2026-05-08T15:58:04.000Z</time>
        <extensions>
          <ns3:TrackPointExtension>
            <ns3:atemp>25.0</ns3:atemp>
            <ns3:hr>151</ns3:hr>
          </ns3:TrackPointExtension>
        </extensions>
      </trkpt>
      <trkpt lat="48.76822597347199916839599609375" lon="-3.5788203589618206024169921875">
        <ele>52.40000152587890625</ele>
        <time>2026-05-08T15:58:06.000Z</time>
        <extensions>
          <ns3:TrackPointExtension>
            <ns3:atemp>25.0</ns3:atemp>
            <ns3:hr>152</ns3:hr>
          </ns3:TrackPointExtension>
        </extensions>
      </trkpt>
      <trkpt lat="48.76815590076148509979248046875" lon="-3.5788153298199176788330078125">
        <ele>52.59999847412109375</ele>
        <time>2026-05-08T15:58:12.000Z</time>
        <extensions>
          <ns3:TrackPointExtension>
            <ns3:atemp>25.0</ns3:atemp>
            <ns3:hr>150</ns3:hr>
          </ns3:TrackPointExtension>
        </extensions>
      </trkpt>
      <trkpt lat="48.7681018374860286712646484375" lon="-3.57877233065664768218994140625">
        <ele>52.200000762939453125</ele>
        <time>2026-05-08T15:58:18.000Z</time>
        <extensions>
          <ns3:TrackPointExtension>
            <ns3:atemp>25.0</ns3:atemp>
            <ns3:hr>148</ns3:hr>
          </ns3:TrackPointExtension>
        </extensions>
      </trkpt>
      <trkpt lat="48.76807040534913539886474609375" lon="-3.57875975780189037322998046875">
        <ele>52.59999847412109375</ele>
        <time>2026-05-08T15:58:21.000Z</time>
        <extensions>
          <ns3:TrackPointExtension>
            <ns3:atemp>23.0</ns3:atemp>
            <ns3:hr>147</ns3:hr>
          </ns3:TrackPointExtension>
        </extensions>
      </trkpt>
      <trkpt lat="48.76803754828870296478271484375" lon="-3.5787402279675006866455078125">
        <ele>53</ele>
        <time>2026-05-08T15:58:24.000Z</time>
        <extensions>
          <ns3:TrackPointExtension>
            <ns3:atemp>23.0</ns3:atemp>
            <ns3:hr>146</ns3:hr>
          </ns3:TrackPointExtension>
        </extensions>
      </trkpt>
      <trkpt lat="48.7680029310286045074462890625" lon="-3.57872857712209224700927734375">
        <ele>52.799999237060546875</ele>
        <time>2026-05-08T15:58:27.000Z</time>
        <extensions>
          <ns3:TrackPointExtension>
            <ns3:atemp>23.0</ns3:atemp>
            <ns3:hr>143</ns3:hr>
          </ns3:TrackPointExtension>
        </extensions>
      </trkpt>
      <trkpt lat="48.7679761089384555816650390625" lon="-3.57871047221124172210693359375">
        <ele>53</ele>
        <time>2026-05-08T15:58:30.000Z</time>
        <extensions>
          <ns3:TrackPointExtension>
            <ns3:atemp>23.0</ns3:atemp>
            <ns3:hr>140</ns3:hr>
          </ns3:TrackPointExtension>
        </extensions>
      </trkpt>
      <trkpt lat="48.76795439980924129486083984375" lon="-3.57869236730039119720458984375">
        <ele>53.200000762939453125</ele>
        <time>2026-05-08T15:58:32.000Z</time>
        <extensions>
          <ns3:TrackPointExtension>
            <ns3:atemp>23.0</ns3:atemp>
            <ns3:hr>140</ns3:hr>
          </ns3:TrackPointExtension>
        </extensions>
      </trkpt>
      <trkpt lat="48.76794585026800632476806640625" lon="-3.57868666760623455047607421875">
        <ele>53.200000762939453125</ele>
        <time>2026-05-08T15:58:33.000Z</time>
        <extensions>
          <ns3:TrackPointExtension>
            <ns3:atemp>23.0</ns3:atemp>
            <ns3:hr>139</ns3:hr>
          </ns3:TrackPointExtension>
        </extensions>
      </trkpt>
      <trkpt lat="48.767905198037624359130859375" lon="-3.57866252772510051727294921875">
        <ele>53.59999847412109375</ele>
        <time>2026-05-08T15:58:37.000Z</time>
        <extensions>
          <ns3:TrackPointExtension>
            <ns3:atemp>23.0</ns3:atemp>
            <ns3:hr>132</ns3:hr>
          </ns3:TrackPointExtension>
        </extensions>
      </trkpt>
      <trkpt lat="48.76789522357285022735595703125" lon="-3.57865892350673675537109375">
        <ele>53.799999237060546875</ele>
        <time>2026-05-08T15:58:38.000Z</time>
        <extensions>
          <ns3:TrackPointExtension>
            <ns3:atemp>23.0</ns3:atemp>
            <ns3:hr>125</ns3:hr>
          </ns3:TrackPointExtension>
        </extensions>
      </trkpt>
      <trkpt lat="48.767885752022266387939453125" lon="-3.5786550678312778472900390625">
        <ele>54</ele>
        <time>2026-05-08T15:58:39.000Z</time>
        <extensions>
          <ns3:TrackPointExtension>
            <ns3:atemp>23.0</ns3:atemp>
            <ns3:hr>121</ns3:hr>
          </ns3:TrackPointExtension>
        </extensions>
      </trkpt>
      <trkpt lat="48.76787669956684112548828125" lon="-3.57864760793745517730712890625">
        <ele>54</ele>
        <time>2026-05-08T15:58:40.000Z</time>
        <extensions>
          <ns3:TrackPointExtension>
            <ns3:atemp>23.0</ns3:atemp>
            <ns3:hr>121</ns3:hr>
          </ns3:TrackPointExtension>
        </extensions>
      </trkpt>
      <trkpt lat="48.7678554095327854156494140625" lon="-3.57863469980657100677490234375">
        <ele>54.200000762939453125</ele>
        <time>2026-05-08T15:58:42.000Z</time>
        <extensions>
          <ns3:TrackPointExtension>
            <ns3:atemp>23.0</ns3:atemp>
            <ns3:hr>120</ns3:hr>
          </ns3:TrackPointExtension>
        </extensions>
      </trkpt>
      <trkpt lat="48.76778818666934967041015625" lon="-3.57858960516750812530517578125">
        <ele>54.200000762939453125</ele>
        <time>2026-05-08T15:58:47.000Z</time>
        <extensions>
          <ns3:TrackPointExtension>
            <ns3:atemp>23.0</ns3:atemp>
            <ns3:hr>122</ns3:hr>
          </ns3:TrackPointExtension>
        </extensions>
      </trkpt>
      <trkpt lat="48.76773663796484470367431640625" lon="-3.5785360448062419891357421875">
        <ele>54</ele>
        <time>2026-05-08T15:58:53.000Z</time>
        <extensions>
          <ns3:TrackPointExtension>
            <ns3:atemp>23.0</ns3:atemp>
            <ns3:hr>122</ns3:hr>
          </ns3:TrackPointExtension>
        </extensions>
      </trkpt>
      <trkpt lat="48.76768852584064006805419921875" lon="-3.57848902232944965362548828125">
        <ele>54.59999847412109375</ele>
        <time>2026-05-08T15:58:58.000Z</time>
        <extensions>
          <ns3:TrackPointExtension>
            <ns3:atemp>23.0</ns3:atemp>
            <ns3:hr>121</ns3:hr>
          </ns3:TrackPointExtension>
        </extensions>
      </trkpt>
      <trkpt lat="48.7676386535167694091796875" lon="-3.57842330820858478546142578125">
        <ele>54.200000762939453125</ele>
        <time>2026-05-08T15:59:04.000Z</time>
        <extensions>
          <ns3:TrackPointExtension>
            <ns3:atemp>23.0</ns3:atemp>
            <ns3:hr>119</ns3:hr>
          </ns3:TrackPointExtension>
        </extensions>
      </trkpt>
      <trkpt lat="48.76761007122695446014404296875" lon="-3.57833395712077617645263671875">
        <ele>54.200000762939453125</ele>
        <time>2026-05-08T15:59:10.000Z</time>
        <extensions>
          <ns3:TrackPointExtension>
            <ns3:atemp>23.0</ns3:atemp>
            <ns3:hr>119</ns3:hr>
          </ns3:TrackPointExtension>
        </extensions>
      </trkpt>
      <trkpt lat="48.7676197104156017303466796875" lon="-3.57822348363697528839111328125">
        <ele>55.200000762939453125</ele>
        <time>2026-05-08T15:59:16.000Z</time>
        <extensions>
          <ns3:TrackPointExtension>
            <ns3:atemp>23.0</ns3:atemp>
            <ns3:hr>120</ns3:hr>
          </ns3:TrackPointExtension>
        </extensions>
      </trkpt>
      <trkpt lat="48.76762197352945804595947265625" lon="-3.57820697128772735595703125">
        <ele>55.40000152587890625</ele>
        <time>2026-05-08T15:59:17.000Z</time>
        <extensions>
          <ns3:TrackPointExtension>
            <ns3:atemp>23.0</ns3:atemp>
            <ns3:hr>120</ns3:hr>
          </ns3:TrackPointExtension>
        </extensions>
      </trkpt>
      <trkpt lat="48.76761795021593570709228515625" lon="-3.578182496130466461181640625">
        <ele>55.799999237060546875</ele>
        <time>2026-05-08T15:59:19.000Z</time>
        <extensions>
          <ns3:TrackPointExtension>
            <ns3:atemp>23.0</ns3:atemp>
            <ns3:hr>120</ns3:hr>
          </ns3:TrackPointExtension>
        </extensions>
      </trkpt>
      <trkpt lat="48.7676187045872211456298828125" lon="-3.57816933654248714447021484375">
        <ele>55.799999237060546875</ele>
        <time>2026-05-08T15:59:21.000Z</time>
        <extensions>
          <ns3:TrackPointExtension>
            <ns3:atemp>22.0</ns3:atemp>
            <ns3:hr>120</ns3:hr>
          </ns3:TrackPointExtension>
        </extensions>
      </trkpt>
      <trkpt lat="48.7676160223782062530517578125" lon="-3.5781712643802165985107421875">
        <ele>55.799999237060546875</ele>
        <time>2026-05-08T15:59:23.000Z</time>
        <extensions>
          <ns3:TrackPointExtension>
            <ns3:atemp>22.0</ns3:atemp>
            <ns3:hr>120</ns3:hr>
          </ns3:TrackPointExtension>
        </extensions>
      </trkpt>
      <trkpt lat="48.7676260806620121002197265625" lon="-3.5781189613044261932373046875">
        <ele>56.200000762939453125</ele>
        <time>2026-05-08T15:59:32.000Z</time>
        <extensions>
          <ns3:TrackPointExtension>
            <ns3:atemp>22.0</ns3:atemp>
            <ns3:hr>119</ns3:hr>
          </ns3:TrackPointExtension>
        </extensions>
      </trkpt>
      <trkpt lat="48.76764602959156036376953125" lon="-3.578058443963527679443359375">
        <ele>56.59999847412109375</ele>
        <time>2026-05-08T15:59:36.000Z</time>
        <extensions>
          <ns3:TrackPointExtension>
            <ns3:atemp>22.0</ns3:atemp>
            <ns3:hr>118</ns3:hr>
          </ns3:TrackPointExtension>
        </extensions>
      </trkpt>
      <trkpt lat="48.7676793895661830902099609375" lon="-3.57796959578990936279296875">
        <ele>57.40000152587890625</ele>
        <time>2026-05-08T15:59:42.000Z</time>
        <extensions>
          <ns3:TrackPointExtension>
            <ns3:atemp>22.0</ns3:atemp>
            <ns3:hr>116</ns3:hr>
          </ns3:TrackPointExtension>
        </extensions>
      </trkpt>
      <trkpt lat="48.7676797248423099517822265625" lon="-3.57796020805835723876953125">
        <ele>57.59999847412109375</ele>
        <time>2026-05-08T15:59:43.000Z</time>
        <extensions>
          <ns3:TrackPointExtension>
            <ns3:atemp>22.0</ns3:atemp>
            <ns3:hr>115</ns3:hr>
          </ns3:TrackPointExtension>
        </extensions>
      </trkpt>
      <trkpt lat="48.767677880823612213134765625" lon="-3.57795777730643749237060546875">
        <ele>57</ele>
        <time>2026-05-08T15:59:49.000Z</time>
        <extensions>
          <ns3:TrackPointExtension>
            <ns3:atemp>22.0</ns3:atemp>
            <ns3:hr>116</ns3:hr>
          </ns3:TrackPointExtension>
        </extensions>
      </trkpt>
      <trkpt lat="48.76767955720424652099609375" lon="-3.5779566876590251922607421875">
        <ele>57</ele>
        <time>2026-05-08T15:59:58.000Z</time>
        <extensions>
          <ns3:TrackPointExtension>
            <ns3:atemp>22.0</ns3:atemp>
            <ns3:hr>113</ns3:hr>
          </ns3:TrackPointExtension>
        </extensions>
      </trkpt>
      <trkpt lat="48.76767955720424652099609375" lon="-3.5779566876590251922607421875">
        <ele>57</ele>
        <time>2026-05-08T16:00:00.000Z</time>
        <extensions>
          <ns3:TrackPointExtension>
            <ns3:atemp>22.0</ns3:atemp>
            <ns3:hr>112</ns3:hr>
          </ns3:TrackPointExtension>
        </extensions>
      </trkpt>
      <trkpt lat="48.7676921300590038299560546875" lon="-3.577929027378559112548828125">
        <ele>57</ele>
        <time>2026-05-08T16:00:18.000Z</time>
        <extensions>
          <ns3:TrackPointExtension>
            <ns3:atemp>22.0</ns3:atemp>
            <ns3:hr>114</ns3:hr>
          </ns3:TrackPointExtension>
        </extensions>
      </trkpt>
      <trkpt lat="48.767684586346149444580078125" lon="-3.5779013670980930328369140625">
        <ele>57.59999847412109375</ele>
        <time>2026-05-08T16:00:21.000Z</time>
        <extensions>
          <ns3:TrackPointExtension>
            <ns3:atemp>23.0</ns3:atemp>
            <ns3:hr>114</ns3:hr>
          </ns3:TrackPointExtension>
        </extensions>
      </trkpt>
      <trkpt lat="48.76765231601893901824951171875" lon="-3.577873706817626953125">
        <ele>57.59999847412109375</ele>
        <time>2026-05-08T16:00:24.000Z</time>
        <extensions>
          <ns3:TrackPointExtension>
            <ns3:atemp>23.0</ns3:atemp>
            <ns3:hr>116</ns3:hr>
          </ns3:TrackPointExtension>
        </extensions>
      </trkpt>
      <trkpt lat="48.76757503487169742584228515625" lon="-3.57779416255652904510498046875">
        <ele>58.200000762939453125</ele>
        <time>2026-05-08T16:00:32.000Z</time>
        <extensions>
          <ns3:TrackPointExtension>
            <ns3:atemp>23.0</ns3:atemp>
            <ns3:hr>115</ns3:hr>
          </ns3:TrackPointExtension>
        </extensions>
      </trkpt>
      <trkpt lat="48.767511583864688873291015625" lon="-3.577740602195262908935546875">
        <ele>58</ele>
        <time>2026-05-08T16:00:38.000Z</time>
        <extensions>
          <ns3:TrackPointExtension>
            <ns3:atemp>23.0</ns3:atemp>
            <ns3:hr>116</ns3:hr>
          </ns3:TrackPointExtension>
        </extensions>
      </trkpt>
      <trkpt lat="48.76742315478622913360595703125" lon="-3.57762400992214679718017578125">
        <ele>58</ele>
        <time>2026-05-08T16:00:47.000Z</time>
        <extensions>
          <ns3:TrackPointExtension>
            <ns3:atemp>23.0</ns3:atemp>
            <ns3:hr>116</ns3:hr>
          </ns3:TrackPointExtension>
        </extensions>
      </trkpt>
      <trkpt lat="48.76737688668072223663330078125" lon="-3.57757371850311756134033203125">
        <ele>58.59999847412109375</ele>
        <time>2026-05-08T16:00:51.000Z</time>
        <extensions>
          <ns3:TrackPointExtension>
            <ns3:atemp>23.0</ns3:atemp>
            <ns3:hr>115</ns3:hr>
          </ns3:TrackPointExtension>
        </extensions>
      </trkpt>
      <trkpt lat="48.76733983866870403289794921875" lon="-3.57752560637891292572021484375">
        <ele>58.799999237060546875</ele>
        <time>2026-05-08T16:00:54.000Z</time>
        <extensions>
          <ns3:TrackPointExtension>
            <ns3:atemp>23.0</ns3:atemp>
            <ns3:hr>115</ns3:hr>
          </ns3:TrackPointExtension>
        </extensions>
      </trkpt>
      <trkpt lat="48.76730094663798809051513671875" lon="-3.5774752311408519744873046875">
        <ele>58.59999847412109375</ele>
        <time>2026-05-08T16:00:58.000Z</time>
        <extensions>
          <ns3:TrackPointExtension>
            <ns3:atemp>23.0</ns3:atemp>
            <ns3:hr>112</ns3:hr>
          </ns3:TrackPointExtension>
        </extensions>
      </trkpt>
      <trkpt lat="48.76727630384266376495361328125" lon="-3.57743717730045318603515625">
        <ele>58.59999847412109375</ele>
        <time>2026-05-08T16:01:01.000Z</time>
        <extensions>
          <ns3:TrackPointExtension>
            <ns3:atemp>23.0</ns3:atemp>
            <ns3:hr>112</ns3:hr>
          </ns3:TrackPointExtension>
        </extensions>
      </trkpt>
      <trkpt lat="48.76719751395285129547119140625" lon="-3.57731522060930728912353515625">
        <ele>58.40000152587890625</ele>
        <time>2026-05-08T16:01:09.000Z</time>
        <extensions>
          <ns3:TrackPointExtension>
            <ns3:atemp>23.0</ns3:atemp>
            <ns3:hr>111</ns3:hr>
          </ns3:TrackPointExtension>
        </extensions>
      </trkpt>
      <trkpt lat="48.7671476416289806365966796875" lon="-3.57722620479762554168701171875">
        <ele>59.59999847412109375</ele>
        <time>2026-05-08T16:01:15.000Z</time>
        <extensions>
          <ns3:TrackPointExtension>
            <ns3:atemp>23.0</ns3:atemp>
            <ns3:hr>111</ns3:hr>
          </ns3:TrackPointExtension>
        </extensions>
      </trkpt>
      <trkpt lat="48.76707899384200572967529296875" lon="-3.57711019925773143768310546875">
        <ele>59.200000762939453125</ele>
        <time>2026-05-08T16:01:22.000Z</time>
        <extensions>
          <ns3:TrackPointExtension>
            <ns3:atemp>23.0</ns3:atemp>
            <ns3:hr>112</ns3:hr>
          </ns3:TrackPointExtension>
        </extensions>
      </trkpt>
      <trkpt lat="48.76702333800494670867919921875" lon="-3.5770011506974697113037109375">
        <ele>59</ele>
        <time>2026-05-08T16:01:29.000Z</time>
        <extensions>
          <ns3:TrackPointExtension>
            <ns3:atemp>23.0</ns3:atemp>
            <ns3:hr>112</ns3:hr>
          </ns3:TrackPointExtension>
        </extensions>
      </trkpt>
      <trkpt lat="48.766958378255367279052734375" lon="-3.57687869109213352203369140625">
        <ele>59.40000152587890625</ele>
        <time>2026-05-08T16:01:37.000Z</time>
        <extensions>
          <ns3:TrackPointExtension>
            <ns3:atemp>23.0</ns3:atemp>
            <ns3:hr>111</ns3:hr>
          </ns3:TrackPointExtension>
        </extensions>
      </trkpt>
      <trkpt lat="48.76688428223133087158203125" lon="-3.57678003609180450439453125">
        <ele>59.40000152587890625</ele>
        <time>2026-05-08T16:01:43.000Z</time>
        <extensions>
          <ns3:TrackPointExtension>
            <ns3:atemp>23.0</ns3:atemp>
            <ns3:hr>110</ns3:hr>
          </ns3:TrackPointExtension>
        </extensions>
      </trkpt>
      <trkpt lat="48.76683575101196765899658203125" lon="-3.57669554650783538818359375">
        <ele>59.200000762939453125</ele>
        <time>2026-05-08T16:01:49.000Z</time>
        <extensions>
          <ns3:TrackPointExtension>
            <ns3:atemp>23.0</ns3:atemp>
            <ns3:hr>110</ns3:hr>
          </ns3:TrackPointExtension>
        </extensions>
      </trkpt>
      <trkpt lat="48.76679350621998310089111328125" lon="-3.57659102417528629302978515625">
        <ele>58.799999237060546875</ele>
        <time>2026-05-08T16:01:55.000Z</time>
        <extensions>
          <ns3:TrackPointExtension>
            <ns3:atemp>23.0</ns3:atemp>
            <ns3:hr>110</ns3:hr>
          </ns3:TrackPointExtension>
        </extensions>
      </trkpt>
      <trkpt lat="48.76673332415521144866943359375" lon="-3.5765052773058414459228515625">
        <ele>58.799999237060546875</ele>
        <time>2026-05-08T16:02:01.000Z</time>
        <extensions>
          <ns3:TrackPointExtension>
            <ns3:atemp>23.0</ns3:atemp>
            <ns3:hr>111</ns3:hr>
          </ns3:TrackPointExtension>
        </extensions>
      </trkpt>
      <trkpt lat="48.76666945405304431915283203125" lon="-3.57639740221202373504638671875">
        <ele>58.59999847412109375</ele>
        <time>2026-05-08T16:02:08.000Z</time>
        <extensions>
          <ns3:TrackPointExtension>
            <ns3:atemp>23.0</ns3:atemp>
            <ns3:hr>109</ns3:hr>
          </ns3:TrackPointExtension>
        </extensions>
      </trkpt>
      <trkpt lat="48.76661765389144420623779296875" lon="-3.57631911523640155792236328125">
        <ele>58.40000152587890625</ele>
        <time>2026-05-08T16:02:13.000Z</time>
        <extensions>
          <ns3:TrackPointExtension>
            <ns3:atemp>23.0</ns3:atemp>
            <ns3:hr>109</ns3:hr>
          </ns3:TrackPointExtension>
        </extensions>
      </trkpt>
      <trkpt lat="48.76661245711147785186767578125" lon="-3.576304279267787933349609375">
        <ele>58.40000152587890625</ele>
        <time>2026-05-08T16:02:14.000Z</time>
        <extensions>
          <ns3:TrackPointExtension>
            <ns3:atemp>23.0</ns3:atemp>
            <ns3:hr>110</ns3:hr>
          </ns3:TrackPointExtension>
        </extensions>
      </trkpt>
      <trkpt lat="48.7665424682199954986572265625" lon="-3.5761971585452556610107421875">
        <ele>58.799999237060546875</ele>
        <time>2026-05-08T16:02:21.000Z</time>
        <extensions>
          <ns3:TrackPointExtension>
            <ns3:atemp>22.0</ns3:atemp>
            <ns3:hr>108</ns3:hr>
          </ns3:TrackPointExtension>
        </extensions>
      </trkpt>
      <trkpt lat="48.7664921768009662628173828125" lon="-3.57610487379133701324462890625">
        <ele>58.40000152587890625</ele>
        <time>2026-05-08T16:02:27.000Z</time>
        <extensions>
          <ns3:TrackPointExtension>
            <ns3:atemp>22.0</ns3:atemp>
            <ns3:hr>106</ns3:hr>
          </ns3:TrackPointExtension>
        </extensions>
      </trkpt>
      <trkpt lat="48.766415901482105255126953125" lon="-3.576020300388336181640625">
        <ele>58.59999847412109375</ele>
        <time>2026-05-08T16:02:33.000Z</time>
        <extensions>
          <ns3:TrackPointExtension>
            <ns3:atemp>22.0</ns3:atemp>
            <ns3:hr>104</ns3:hr>
          </ns3:TrackPointExtension>
        </extensions>
      </trkpt>
      <trkpt lat="48.76637323759496212005615234375" lon="-3.57596321962773799896240234375">
        <ele>58.40000152587890625</ele>
        <time>2026-05-08T16:02:38.000Z</time>
        <extensions>
          <ns3:TrackPointExtension>
            <ns3:atemp>22.0</ns3:atemp>
            <ns3:hr>102</ns3:hr>
          </ns3:TrackPointExtension>
        </extensions>
      </trkpt>
      <trkpt lat="48.76630048267543315887451171875" lon="-3.575880490243434906005859375">
        <ele>59</ele>
        <time>2026-05-08T16:02:45.000Z</time>
        <extensions>
          <ns3:TrackPointExtension>
            <ns3:atemp>22.0</ns3:atemp>
            <ns3:hr>100</ns3:hr>
          </ns3:TrackPointExtension>
        </extensions>
      </trkpt>
      <trkpt lat="48.7661956250667572021484375" lon="-3.5757965035736560821533203125">
        <ele>59</ele>
        <time>2026-05-08T16:02:53.000Z</time>
        <extensions>
          <ns3:TrackPointExtension>
            <ns3:atemp>22.0</ns3:atemp>
            <ns3:hr>100</ns3:hr>
          </ns3:TrackPointExtension>
        </extensions>
      </trkpt>
      <trkpt lat="48.76610468141734600067138671875" lon="-3.5757425241172313690185546875">
        <ele>59.40000152587890625</ele>
        <time>2026-05-08T16:03:01.000Z</time>
        <extensions>
          <ns3:TrackPointExtension>
            <ns3:atemp>22.0</ns3:atemp>
            <ns3:hr>99</ns3:hr>
          </ns3:TrackPointExtension>
        </extensions>
      </trkpt>
      <trkpt lat="48.76603796146810054779052734375" lon="-3.5757234133780002593994140625">
        <ele>59.40000152587890625</ele>
        <time>2026-05-08T16:03:06.000Z</time>
        <extensions>
          <ns3:TrackPointExtension>
            <ns3:atemp>22.0</ns3:atemp>
            <ns3:hr>100</ns3:hr>
          </ns3:TrackPointExtension>
        </extensions>
      </trkpt>
      <trkpt lat="48.7660201080143451690673828125" lon="-3.5757190547883510589599609375">
        <ele>59.59999847412109375</ele>
        <time>2026-05-08T16:03:08.000Z</time>
        <extensions>
          <ns3:TrackPointExtension>
            <ns3:atemp>22.0</ns3:atemp>
            <ns3:hr>100</ns3:hr>
          </ns3:TrackPointExtension>
        </extensions>
      </trkpt>
      <trkpt lat="48.7659865804016590118408203125" lon="-3.57571092434227466583251953125">
        <ele>59.59999847412109375</ele>
        <time>2026-05-08T16:03:11.000Z</time>
        <extensions>
          <ns3:TrackPointExtension>
            <ns3:atemp>22.0</ns3:atemp>
            <ns3:hr>100</ns3:hr>
          </ns3:TrackPointExtension>
        </extensions>
      </trkpt>
      <trkpt lat="48.76589831896126270294189453125" lon="-3.5756905563175678253173828125">
        <ele>60.200000762939453125</ele>
        <time>2026-05-08T16:03:18.000Z</time>
        <extensions>
          <ns3:TrackPointExtension>
            <ns3:atemp>22.0</ns3:atemp>
            <ns3:hr>101</ns3:hr>
          </ns3:TrackPointExtension>
        </extensions>
      </trkpt>
      <trkpt lat="48.765851296484470367431640625" lon="-3.57567940838634967803955078125">
        <ele>60.59999847412109375</ele>
        <time>2026-05-08T16:03:21.000Z</time>
        <extensions>
          <ns3:TrackPointExtension>
            <ns3:atemp>21.0</ns3:atemp>
            <ns3:hr>102</ns3:hr>
          </ns3:TrackPointExtension>
        </extensions>
      </trkpt>
      <trkpt lat="48.76582405529916286468505859375" lon="-3.5756667517125606536865234375">
        <ele>60.59999847412109375</ele>
        <time>2026-05-08T16:03:24.000Z</time>
        <extensions>
          <ns3:TrackPointExtension>
            <ns3:atemp>21.0</ns3:atemp>
            <ns3:hr>103</ns3:hr>
          </ns3:TrackPointExtension>
        </extensions>
      </trkpt>
      <trkpt lat="48.7657545693218708038330078125" lon="-3.57564546167850494384765625">
        <ele>61</ele>
        <time>2026-05-08T16:03:30.000Z</time>
        <extensions>
          <ns3:TrackPointExtension>
            <ns3:atemp>21.0</ns3:atemp>
            <ns3:hr>103</ns3:hr>
          </ns3:TrackPointExtension>
        </extensions>
      </trkpt>
      <trkpt lat="48.76567921601235866546630859375" lon="-3.5756211541593074798583984375">
        <ele>61.59999847412109375</ele>
        <time>2026-05-08T16:03:36.000Z</time>
        <extensions>
          <ns3:TrackPointExtension>
            <ns3:atemp>21.0</ns3:atemp>
            <ns3:hr>104</ns3:hr>
          </ns3:TrackPointExtension>
        </extensions>
      </trkpt>
      <trkpt lat="48.76566915772855281829833984375" lon="-3.57561386190354824066162109375">
        <ele>61.59999847412109375</ele>
        <time>2026-05-08T16:03:37.000Z</time>
        <extensions>
          <ns3:TrackPointExtension>
            <ns3:atemp>21.0</ns3:atemp>
            <ns3:hr>104</ns3:hr>
          </ns3:TrackPointExtension>
        </extensions>
      </trkpt>
      <trkpt lat="48.76560294069349765777587890625" lon="-3.57559374533593654632568359375">
        <ele>61.59999847412109375</ele>
        <time>2026-05-08T16:03:42.000Z</time>
        <extensions>
          <ns3:TrackPointExtension>
            <ns3:atemp>21.0</ns3:atemp>
            <ns3:hr>106</ns3:hr>
          </ns3:TrackPointExtension>
        </extensions>
      </trkpt>
      <trkpt lat="48.765559606254100799560546875" lon="-3.57558955438435077667236328125">
        <ele>62.59999847412109375</ele>
        <time>2026-05-08T16:03:46.000Z</time>
        <extensions>
          <ns3:TrackPointExtension>
            <ns3:atemp>21.0</ns3:atemp>
            <ns3:hr>108</ns3:hr>
          </ns3:TrackPointExtension>
        </extensions>
      </trkpt>
      <trkpt lat="48.76552951522171497344970703125" lon="-3.57558234594762325286865234375">
        <ele>63</ele>
        <time>2026-05-08T16:03:48.000Z</time>
        <extensions>
          <ns3:TrackPointExtension>
            <ns3:atemp>21.0</ns3:atemp>
            <ns3:hr>109</ns3:hr>
          </ns3:TrackPointExtension>
        </extensions>
      </trkpt>
      <trkpt lat="48.76546614803373813629150390625" lon="-3.57559089548885822296142578125">
        <ele>62.40000152587890625</ele>
        <time>2026-05-08T16:03:54.000Z</time>
        <extensions>
          <ns3:TrackPointExtension>
            <ns3:atemp>21.0</ns3:atemp>
            <ns3:hr>112</ns3:hr>
          </ns3:TrackPointExtension>
        </extensions>
      </trkpt>
      <trkpt lat="48.76539029181003570556640625" lon="-3.57558184303343296051025390625">
        <ele>63.200000762939453125</ele>
        <time>2026-05-08T16:04:00.000Z</time>
        <extensions>
          <ns3:TrackPointExtension>
            <ns3:atemp>21.0</ns3:atemp>
            <ns3:hr>114</ns3:hr>
          </ns3:TrackPointExtension>
        </extensions>
      </trkpt>
      <trkpt lat="48.76530446112155914306640625" lon="-3.57559072785079479217529296875">
        <ele>63.40000152587890625</ele>
        <time>2026-05-08T16:04:07.000Z</time>
        <extensions>
          <ns3:TrackPointExtension>
            <ns3:atemp>21.0</ns3:atemp>
            <ns3:hr>112</ns3:hr>
          </ns3:TrackPointExtension>
        </extensions>
      </trkpt>
      <trkpt lat="48.76525324769318103790283203125" lon="-3.57559173367917537689208984375">
        <ele>63.799999237060546875</ele>
        <time>2026-05-08T16:04:11.000Z</time>
        <extensions>
          <ns3:TrackPointExtension>
            <ns3:atemp>21.0</ns3:atemp>
            <ns3:hr>111</ns3:hr>
          </ns3:TrackPointExtension>
        </extensions>
      </trkpt>
      <trkpt lat="48.76520312391221523284912109375" lon="-3.57559408061206340789794921875">
        <ele>64</ele>
        <time>2026-05-08T16:04:15.000Z</time>
        <extensions>
          <ns3:TrackPointExtension>
            <ns3:atemp>21.0</ns3:atemp>
            <ns3:hr>110</ns3:hr>
          </ns3:TrackPointExtension>
        </extensions>
      </trkpt>
      <trkpt lat="48.76508544199168682098388671875" lon="-3.57559793628752231597900390625">
        <ele>64.1999969482421875</ele>
        <time>2026-05-08T16:04:24.000Z</time>
        <extensions>
          <ns3:TrackPointExtension>
            <ns3:atemp>21.0</ns3:atemp>
            <ns3:hr>111</ns3:hr>
          </ns3:TrackPointExtension>
        </extensions>
      </trkpt>
      <trkpt lat="48.76500380225479602813720703125" lon="-3.575585782527923583984375">
        <ele>64.59999847412109375</ele>
        <time>2026-05-08T16:04:30.000Z</time>
        <extensions>
          <ns3:TrackPointExtension>
            <ns3:atemp>21.0</ns3:atemp>
            <ns3:hr>109</ns3:hr>
          </ns3:TrackPointExtension>
        </extensions>
      </trkpt>
      <trkpt lat="48.76489064656198024749755859375" lon="-3.57559341005980968475341796875">
        <ele>64</ele>
        <time>2026-05-08T16:04:39.000Z</time>
        <extensions>
          <ns3:TrackPointExtension>
            <ns3:atemp>21.0</ns3:atemp>
            <ns3:hr>108</ns3:hr>
          </ns3:TrackPointExtension>
        </extensions>
      </trkpt>
      <trkpt lat="48.76473541371524333953857421875" lon="-3.575570024549961090087890625">
        <ele>64.1999969482421875</ele>
        <time>2026-05-08T16:04:51.000Z</time>
        <extensions>
          <ns3:TrackPointExtension>
            <ns3:atemp>21.0</ns3:atemp>
            <ns3:hr>107</ns3:hr>
          </ns3:TrackPointExtension>
        </extensions>
      </trkpt>
      <trkpt lat="48.76461387611925601959228515625" lon="-3.57555803842842578887939453125">
        <ele>64.1999969482421875</ele>
        <time>2026-05-08T16:05:00.000Z</time>
        <extensions>
          <ns3:TrackPointExtension>
            <ns3:atemp>21.0</ns3:atemp>
            <ns3:hr>106</ns3:hr>
          </ns3:TrackPointExtension>
        </extensions>
      </trkpt>
      <trkpt lat="48.76451312564313411712646484375" lon="-3.57556289993226528167724609375">
        <ele>63.59999847412109375</ele>
        <time>2026-05-08T16:05:08.000Z</time>
        <extensions>
          <ns3:TrackPointExtension>
            <ns3:atemp>21.0</ns3:atemp>
            <ns3:hr>107</ns3:hr>
          </ns3:TrackPointExtension>
        </extensions>
      </trkpt>
      <trkpt lat="48.764403574168682098388671875" lon="-3.5755675099790096282958984375">
        <ele>63.59999847412109375</ele>
        <time>2026-05-08T16:05:16.000Z</time>
        <extensions>
          <ns3:TrackPointExtension>
            <ns3:atemp>21.0</ns3:atemp>
            <ns3:hr>106</ns3:hr>
          </ns3:TrackPointExtension>
        </extensions>
      </trkpt>
      <trkpt lat="48.76436376012861728668212890625" lon="-3.5755638219416141510009765625">
        <ele>64</ele>
        <time>2026-05-08T16:05:19.000Z</time>
        <extensions>
          <ns3:TrackPointExtension>
            <ns3:atemp>20.0</ns3:atemp>
            <ns3:hr>106</ns3:hr>
          </ns3:TrackPointExtension>
        </extensions>
      </trkpt>
      <trkpt lat="48.76430072821676731109619140625" lon="-3.5755691863596439361572265625">
        <ele>64.1999969482421875</ele>
        <time>2026-05-08T16:05:24.000Z</time>
        <extensions>
          <ns3:TrackPointExtension>
            <ns3:atemp>20.0</ns3:atemp>
            <ns3:hr>104</ns3:hr>
          </ns3:TrackPointExtension>
        </extensions>
      </trkpt>
      <trkpt lat="48.7641737423837184906005859375" lon="-3.57557966373860836029052734375">
        <ele>64.8000030517578125</ele>
        <time>2026-05-08T16:05:33.000Z</time>
        <extensions>
          <ns3:TrackPointExtension>
            <ns3:atemp>20.0</ns3:atemp>
            <ns3:hr>102</ns3:hr>
          </ns3:TrackPointExtension>
        </extensions>
      </trkpt>
      <trkpt lat="48.76416091807186603546142578125" lon="-3.57557865791022777557373046875">
        <ele>65</ele>
        <time>2026-05-08T16:05:34.000Z</time>
        <extensions>
          <ns3:TrackPointExtension>
            <ns3:atemp>20.0</ns3:atemp>
            <ns3:hr>102</ns3:hr>
          </ns3:TrackPointExtension>
        </extensions>
      </trkpt>
      <trkpt lat="48.76407139934599399566650390625" lon="-3.57557044364511966705322265625">
        <ele>65</ele>
        <time>2026-05-08T16:05:41.000Z</time>
        <extensions>
          <ns3:TrackPointExtension>
            <ns3:atemp>20.0</ns3:atemp>
            <ns3:hr>103</ns3:hr>
          </ns3:TrackPointExtension>
        </extensions>
      </trkpt>
      <trkpt lat="48.76395723782479763031005859375" lon="-3.575563989579677581787109375">
        <ele>65</ele>
        <time>2026-05-08T16:05:50.000Z</time>
        <extensions>
          <ns3:TrackPointExtension>
            <ns3:atemp>20.0</ns3:atemp>
            <ns3:hr>104</ns3:hr>
          </ns3:TrackPointExtension>
        </extensions>
      </trkpt>
      <trkpt lat="48.763890601694583892822265625" lon="-3.57556407339870929718017578125">
        <ele>64.8000030517578125</ele>
        <time>2026-05-08T16:05:55.000Z</time>
        <extensions>
          <ns3:TrackPointExtension>
            <ns3:atemp>20.0</ns3:atemp>
            <ns3:hr>107</ns3:hr>
          </ns3:TrackPointExtension>
        </extensions>
      </trkpt>
      <trkpt lat="48.76385338604450225830078125" lon="-3.5755561105906963348388671875">
        <ele>65</ele>
        <time>2026-05-08T16:05:58.000Z</time>
        <extensions>
          <ns3:TrackPointExtension>
            <ns3:atemp>20.0</ns3:atemp>
            <ns3:hr>107</ns3:hr>
          </ns3:TrackPointExtension>
        </extensions>
      </trkpt>
      <trkpt lat="48.7637414038181304931640625" lon="-3.57554018497467041015625">
        <ele>64.8000030517578125</ele>
        <time>2026-05-08T16:06:07.000Z</time>
        <extensions>
          <ns3:TrackPointExtension>
            <ns3:atemp>20.0</ns3:atemp>
            <ns3:hr>105</ns3:hr>
          </ns3:TrackPointExtension>
        </extensions>
      </trkpt>
      <trkpt lat="48.76363151706755161285400390625" lon="-3.575519733130931854248046875">
        <ele>64.59999847412109375</ele>
        <time>2026-05-08T16:06:15.000Z</time>
        <extensions>
          <ns3:TrackPointExtension>
            <ns3:atemp>20.0</ns3:atemp>
            <ns3:hr>103</ns3:hr>
          </ns3:TrackPointExtension>
        </extensions>
      </trkpt>
      <trkpt lat="48.76357217319309711456298828125" lon="-3.575512357056140899658203125">
        <ele>64.40000152587890625</ele>
        <time>2026-05-08T16:06:19.000Z</time>
        <extensions>
          <ns3:TrackPointExtension>
            <ns3:atemp>19.0</ns3:atemp>
            <ns3:hr>103</ns3:hr>
          </ns3:TrackPointExtension>
        </extensions>
      </trkpt>
      <trkpt lat="48.76355825923383235931396484375" lon="-3.57551378197968006134033203125">
        <ele>64</ele>
        <time>2026-05-08T16:06:20.000Z</time>
        <extensions>
          <ns3:TrackPointExtension>
            <ns3:atemp>19.0</ns3:atemp>
            <ns3:hr>102</ns3:hr>
          </ns3:TrackPointExtension>
        </extensions>
      </trkpt>
      <trkpt lat="48.763517104089260101318359375" lon="-3.5755051486194133758544921875">
        <ele>63.59999847412109375</ele>
        <time>2026-05-08T16:06:23.000Z</time>
        <extensions>
          <ns3:TrackPointExtension>
            <ns3:atemp>19.0</ns3:atemp>
            <ns3:hr>101</ns3:hr>
          </ns3:TrackPointExtension>
        </extensions>
      </trkpt>
      <trkpt lat="48.763435967266559600830078125" lon="-3.575475476682186126708984375">
        <ele>65.1999969482421875</ele>
        <time>2026-05-08T16:06:30.000Z</time>
        <extensions>
          <ns3:TrackPointExtension>
            <ns3:atemp>19.0</ns3:atemp>
            <ns3:hr>100</ns3:hr>
          </ns3:TrackPointExtension>
        </extensions>
      </trkpt>
      <trkpt lat="48.76339078880846500396728515625" lon="-3.5754622332751750946044921875">
        <ele>65.40000152587890625</ele>
        <time>2026-05-08T16:06:33.000Z</time>
        <extensions>
          <ns3:TrackPointExtension>
            <ns3:atemp>19.0</ns3:atemp>
            <ns3:hr>100</ns3:hr>
          </ns3:TrackPointExtension>
        </extensions>
      </trkpt>
      <trkpt lat="48.7633110769093036651611328125" lon="-3.5754320584237575531005859375">
        <ele>64.40000152587890625</ele>
        <time>2026-05-08T16:06:39.000Z</time>
        <extensions>
          <ns3:TrackPointExtension>
            <ns3:atemp>19.0</ns3:atemp>
            <ns3:hr>99</ns3:hr>
          </ns3:TrackPointExtension>
        </extensions>
      </trkpt>
      <trkpt lat="48.76328869722783565521240234375" lon="-3.57542057521641254425048828125">
        <ele>64.1999969482421875</ele>
        <time>2026-05-08T16:06:41.000Z</time>
        <extensions>
          <ns3:TrackPointExtension>
            <ns3:atemp>19.0</ns3:atemp>
            <ns3:hr>100</ns3:hr>
          </ns3:TrackPointExtension>
        </extensions>
      </trkpt>
      <trkpt lat="48.763236813247203826904296875" lon="-3.57539945282042026519775390625">
        <ele>64.59999847412109375</ele>
        <time>2026-05-08T16:06:45.000Z</time>
        <extensions>
          <ns3:TrackPointExtension>
            <ns3:atemp>19.0</ns3:atemp>
            <ns3:hr>99</ns3:hr>
          </ns3:TrackPointExtension>
        </extensions>
      </trkpt>
      <trkpt lat="48.763161040842533111572265625" lon="-3.57537698931992053985595703125">
        <ele>64.59999847412109375</ele>
        <time>2026-05-08T16:06:52.000Z</time>
        <extensions>
          <ns3:TrackPointExtension>
            <ns3:atemp>19.0</ns3:atemp>
            <ns3:hr>100</ns3:hr>
          </ns3:TrackPointExtension>
        </extensions>
      </trkpt>
      <trkpt lat="48.7630800716578960418701171875" lon="-3.575331978499889373779296875">
        <ele>64.1999969482421875</ele>
        <time>2026-05-08T16:06:58.000Z</time>
        <extensions>
          <ns3:TrackPointExtension>
            <ns3:atemp>19.0</ns3:atemp>
            <ns3:hr>101</ns3:hr>
          </ns3:TrackPointExtension>
        </extensions>
      </trkpt>
      <trkpt lat="48.7629831768572330474853515625" lon="-3.57527623884379863739013671875">
        <ele>64.59999847412109375</ele>
        <time>2026-05-08T16:07:06.000Z</time>
        <extensions>
          <ns3:TrackPointExtension>
            <ns3:atemp>19.0</ns3:atemp>
            <ns3:hr>101</ns3:hr>
          </ns3:TrackPointExtension>
        </extensions>
      </trkpt>
      <trkpt lat="48.76291017048060894012451171875" lon="-3.57526048086583614349365234375">
        <ele>64.40000152587890625</ele>
        <time>2026-05-08T16:07:12.000Z</time>
        <extensions>
          <ns3:TrackPointExtension>
            <ns3:atemp>19.0</ns3:atemp>
            <ns3:hr>101</ns3:hr>
          </ns3:TrackPointExtension>
        </extensions>
      </trkpt>
      <trkpt lat="48.762807659804821014404296875" lon="-3.57520700432360172271728515625">
        <ele>64.59999847412109375</ele>
        <time>2026-05-08T16:07:20.000Z</time>
        <extensions>
          <ns3:TrackPointExtension>
            <ns3:atemp>19.0</ns3:atemp>
            <ns3:hr>101</ns3:hr>
          </ns3:TrackPointExtension>
        </extensions>
      </trkpt>
      <trkpt lat="48.76272023655474185943603515625" lon="-3.5751350037753582000732421875">
        <ele>64.1999969482421875</ele>
        <time>2026-05-08T16:07:26.000Z</time>
        <extensions>
          <ns3:TrackPointExtension>
            <ns3:atemp>19.0</ns3:atemp>
            <ns3:hr>100</ns3:hr>
          </ns3:TrackPointExtension>
        </extensions>
      </trkpt>
      <trkpt lat="48.76261889934539794921875" lon="-3.57508865185081958770751953125">
        <ele>64.1999969482421875</ele>
        <time>2026-05-08T16:07:35.000Z</time>
        <extensions>
          <ns3:TrackPointExtension>
            <ns3:atemp>19.0</ns3:atemp>
            <ns3:hr>100</ns3:hr>
          </ns3:TrackPointExtension>
        </extensions>
      </trkpt>
      <trkpt lat="48.762515299022197723388671875" lon="-3.5750505141913890838623046875">
        <ele>64.59999847412109375</ele>
        <time>2026-05-08T16:07:43.000Z</time>
        <extensions>
          <ns3:TrackPointExtension>
            <ns3:atemp>19.0</ns3:atemp>
            <ns3:hr>99</ns3:hr>
          </ns3:TrackPointExtension>
        </extensions>
      </trkpt>
      <trkpt lat="48.76244162209331989288330078125" lon="-3.57500307261943817138671875">
        <ele>64.40000152587890625</ele>
        <time>2026-05-08T16:07:49.000Z</time>
        <extensions>
          <ns3:TrackPointExtension>
            <ns3:atemp>19.0</ns3:atemp>
            <ns3:hr>99</ns3:hr>
          </ns3:TrackPointExtension>
        </extensions>
      </trkpt>
      <trkpt lat="48.762351013720035552978515625" lon="-3.57496359385550022125244140625">
        <ele>64.1999969482421875</ele>
        <time>2026-05-08T16:07:56.000Z</time>
        <extensions>
          <ns3:TrackPointExtension>
            <ns3:atemp>19.0</ns3:atemp>
            <ns3:hr>99</ns3:hr>
          </ns3:TrackPointExtension>
        </extensions>
      </trkpt>
      <trkpt lat="48.762271888554096221923828125" lon="-3.57495370320975780487060546875">
        <ele>64</ele>
        <time>2026-05-08T16:08:02.000Z</time>
        <extensions>
          <ns3:TrackPointExtension>
            <ns3:atemp>19.0</ns3:atemp>
            <ns3:hr>96</ns3:hr>
          </ns3:TrackPointExtension>
        </extensions>
      </trkpt>
      <trkpt lat="48.7622606568038463592529296875" lon="-3.5749506019055843353271484375">
        <ele>64</ele>
        <time>2026-05-08T16:08:03.000Z</time>
        <extensions>
          <ns3:TrackPointExtension>
            <ns3:atemp>19.0</ns3:atemp>
            <ns3:hr>95</ns3:hr>
          </ns3:TrackPointExtension>
        </extensions>
      </trkpt>
      <trkpt lat="48.76217943616211414337158203125" lon="-3.5749006457626819610595703125">
        <ele>63.799999237060546875</ele>
        <time>2026-05-08T16:08:10.000Z</time>
        <extensions>
          <ns3:TrackPointExtension>
            <ns3:atemp>19.0</ns3:atemp>
            <ns3:hr>92</ns3:hr>
          </ns3:TrackPointExtension>
        </extensions>
      </trkpt>
      <trkpt lat="48.76216317526996135711669921875" lon="-3.5748912580311298370361328125">
        <ele>63.799999237060546875</ele>
        <time>2026-05-08T16:08:11.000Z</time>
        <extensions>
          <ns3:TrackPointExtension>
            <ns3:atemp>19.0</ns3:atemp>
            <ns3:hr>92</ns3:hr>
          </ns3:TrackPointExtension>
        </extensions>
      </trkpt>
      <trkpt lat="48.76208438538014888763427734375" lon="-3.57482629828155040740966796875">
        <ele>64.1999969482421875</ele>
        <time>2026-05-08T16:08:18.000Z</time>
        <extensions>
          <ns3:TrackPointExtension>
            <ns3:atemp>19.0</ns3:atemp>
            <ns3:hr>92</ns3:hr>
          </ns3:TrackPointExtension>
        </extensions>
      </trkpt>
      <trkpt lat="48.76207617111504077911376953125" lon="-3.57481707818806171417236328125">
        <ele>64.40000152587890625</ele>
        <time>2026-05-08T16:08:19.000Z</time>
        <extensions>
          <ns3:TrackPointExtension>
            <ns3:atemp>19.0</ns3:atemp>
            <ns3:hr>92</ns3:hr>
          </ns3:TrackPointExtension>
        </extensions>
      </trkpt>
      <trkpt lat="48.762013725936412811279296875" lon="-3.5747598297894001007080078125">
        <ele>64.1999969482421875</ele>
        <time>2026-05-08T16:08:24.000Z</time>
        <extensions>
          <ns3:TrackPointExtension>
            <ns3:atemp>19.0</ns3:atemp>
            <ns3:hr>91</ns3:hr>
          </ns3:TrackPointExtension>
        </extensions>
      </trkpt>
      <trkpt lat="48.76195983029901981353759765625" lon="-3.57471230439841747283935546875">
        <ele>63.200000762939453125</ele>
        <time>2026-05-08T16:08:29.000Z</time>
        <extensions>
          <ns3:TrackPointExtension>
            <ns3:atemp>19.0</ns3:atemp>
            <ns3:hr>92</ns3:hr>
          </ns3:TrackPointExtension>
        </extensions>
      </trkpt>
      <trkpt lat="48.761908113956451416015625" lon="-3.5746778547763824462890625">
        <ele>63.40000152587890625</ele>
        <time>2026-05-08T16:08:33.000Z</time>
        <extensions>
          <ns3:TrackPointExtension>
            <ns3:atemp>19.0</ns3:atemp>
            <ns3:hr>92</ns3:hr>
          </ns3:TrackPointExtension>
        </extensions>
      </trkpt>
      <trkpt lat="48.76181230880320072174072265625" lon="-3.57461775653064250946044921875">
        <ele>63.200000762939453125</ele>
        <time>2026-05-08T16:08:41.000Z</time>
        <extensions>
          <ns3:TrackPointExtension>
            <ns3:atemp>19.0</ns3:atemp>
            <ns3:hr>93</ns3:hr>
          </ns3:TrackPointExtension>
        </extensions>
      </trkpt>
      <trkpt lat="48.76172597520053386688232421875" lon="-3.574561513960361480712890625">
        <ele>63.200000762939453125</ele>
        <time>2026-05-08T16:08:48.000Z</time>
        <extensions>
          <ns3:TrackPointExtension>
            <ns3:atemp>19.0</ns3:atemp>
            <ns3:hr>90</ns3:hr>
          </ns3:TrackPointExtension>
        </extensions>
      </trkpt>
      <trkpt lat="48.76171239651739597320556640625" lon="-3.574553467333316802978515625">
        <ele>63.200000762939453125</ele>
        <time>2026-05-08T16:08:49.000Z</time>
        <extensions>
          <ns3:TrackPointExtension>
            <ns3:atemp>19.0</ns3:atemp>
            <ns3:hr>90</ns3:hr>
          </ns3:TrackPointExtension>
        </extensions>
      </trkpt>
      <trkpt lat="48.7616273202002048492431640625" lon="-3.57447199523448944091796875">
        <ele>62.200000762939453125</ele>
        <time>2026-05-08T16:08:56.000Z</time>
        <extensions>
          <ns3:TrackPointExtension>
            <ns3:atemp>19.0</ns3:atemp>
            <ns3:hr>90</ns3:hr>
          </ns3:TrackPointExtension>
        </extensions>
      </trkpt>
      <trkpt lat="48.7615260668098926544189453125" lon="-3.5743977315723896026611328125">
        <ele>63</ele>
        <time>2026-05-08T16:09:04.000Z</time>
        <extensions>
          <ns3:TrackPointExtension>
            <ns3:atemp>19.0</ns3:atemp>
            <ns3:hr>89</ns3:hr>
          </ns3:TrackPointExtension>
        </extensions>
      </trkpt>
      <trkpt lat="48.7614958919584751129150390625" lon="-3.57435205020010471343994140625">
        <ele>62.200000762939453125</ele>
        <time>2026-05-08T16:09:08.000Z</time>
        <extensions>
          <ns3:TrackPointExtension>
            <ns3:atemp>19.0</ns3:atemp>
            <ns3:hr>89</ns3:hr>
          </ns3:TrackPointExtension>
        </extensions>
      </trkpt>
      <trkpt lat="48.76145440153777599334716796875" lon="-3.57431801967322826385498046875">
        <ele>62</ele>
        <time>2026-05-08T16:09:11.000Z</time>
        <extensions>
          <ns3:TrackPointExtension>
            <ns3:atemp>19.0</ns3:atemp>
            <ns3:hr>89</ns3:hr>
          </ns3:TrackPointExtension>
        </extensions>
      </trkpt>
      <trkpt lat="48.7613730132579803466796875" lon="-3.57423327863216400146484375">
        <ele>61.200000762939453125</ele>
        <time>2026-05-08T16:09:18.000Z</time>
        <extensions>
          <ns3:TrackPointExtension>
            <ns3:atemp>19.0</ns3:atemp>
            <ns3:hr>89</ns3:hr>
          </ns3:TrackPointExtension>
        </extensions>
      </trkpt>
      <trkpt lat="48.76130335964262485504150390625" lon="-3.57415809296071529388427734375">
        <ele>61.40000152587890625</ele>
        <time>2026-05-08T16:09:24.000Z</time>
        <extensions>
          <ns3:TrackPointExtension>
            <ns3:atemp>18.0</ns3:atemp>
            <ns3:hr>90</ns3:hr>
          </ns3:TrackPointExtension>
        </extensions>
      </trkpt>
      <trkpt lat="48.7612632103264331817626953125" lon="-3.57410344295203685760498046875">
        <ele>61</ele>
        <time>2026-05-08T16:09:28.000Z</time>
        <extensions>
          <ns3:TrackPointExtension>
            <ns3:atemp>18.0</ns3:atemp>
            <ns3:hr>90</ns3:hr>
          </ns3:TrackPointExtension>
        </extensions>
      </trkpt>
      <trkpt lat="48.76123378984630107879638671875" lon="-3.57406161725521087646484375">
        <ele>61</ele>
        <time>2026-05-08T16:09:31.000Z</time>
        <extensions>
          <ns3:TrackPointExtension>
            <ns3:atemp>18.0</ns3:atemp>
            <ns3:hr>89</ns3:hr>
          </ns3:TrackPointExtension>
        </extensions>
      </trkpt>
      <trkpt lat="48.7611579336225986480712890625" lon="-3.57396111823618412017822265625">
        <ele>60.799999237060546875</ele>
        <time>2026-05-08T16:09:38.000Z</time>
        <extensions>
          <ns3:TrackPointExtension>
            <ns3:atemp>18.0</ns3:atemp>
            <ns3:hr>88</ns3:hr>
          </ns3:TrackPointExtension>
        </extensions>
      </trkpt>
      <trkpt lat="48.7611114978790283203125" lon="-3.57388056814670562744140625">
        <ele>60</ele>
        <time>2026-05-08T16:09:44.000Z</time>
        <extensions>
          <ns3:TrackPointExtension>
            <ns3:atemp>18.0</ns3:atemp>
            <ns3:hr>88</ns3:hr>
          </ns3:TrackPointExtension>
        </extensions>
      </trkpt>
      <trkpt lat="48.76110068522393703460693359375" lon="-3.57386489398777484893798828125">
        <ele>60</ele>
        <time>2026-05-08T16:09:45.000Z</time>
        <extensions>
          <ns3:TrackPointExtension>
            <ns3:atemp>18.0</ns3:atemp>
            <ns3:hr>88</ns3:hr>
          </ns3:TrackPointExtension>
        </extensions>
      </trkpt>
      <trkpt lat="48.7610372342169284820556640625" lon="-3.5737362317740917205810546875">
        <ele>59.799999237060546875</ele>
        <time>2026-05-08T16:09:52.000Z</time>
        <extensions>
          <ns3:TrackPointExtension>
            <ns3:atemp>18.0</ns3:atemp>
            <ns3:hr>87</ns3:hr>
          </ns3:TrackPointExtension>
        </extensions>
      </trkpt>
      <trkpt lat="48.76097613014280796051025390625" lon="-3.5736406780779361724853515625">
        <ele>59.799999237060546875</ele>
        <time>2026-05-08T16:09:58.000Z</time>
        <extensions>
          <ns3:TrackPointExtension>
            <ns3:atemp>18.0</ns3:atemp>
            <ns3:hr>87</ns3:hr>
          </ns3:TrackPointExtension>
        </extensions>
      </trkpt>
      <trkpt lat="48.7609544210135936737060546875" lon="-3.5735540091991424560546875">
        <ele>58.799999237060546875</ele>
        <time>2026-05-08T16:10:03.000Z</time>
        <extensions>
          <ns3:TrackPointExtension>
            <ns3:atemp>18.0</ns3:atemp>
            <ns3:hr>87</ns3:hr>
          </ns3:TrackPointExtension>
        </extensions>
      </trkpt>
      <trkpt lat="48.760908655822277069091796875" lon="-3.57343188486993312835693359375">
        <ele>57.799999237060546875</ele>
        <time>2026-05-08T16:10:10.000Z</time>
        <extensions>
          <ns3:TrackPointExtension>
            <ns3:atemp>18.0</ns3:atemp>
            <ns3:hr>87</ns3:hr>
          </ns3:TrackPointExtension>
        </extensions>
      </trkpt>
      <trkpt lat="48.76088820397853851318359375" lon="-3.57335192151367664337158203125">
        <ele>57</ele>
        <time>2026-05-08T16:10:14.000Z</time>
        <extensions>
          <ns3:TrackPointExtension>
            <ns3:atemp>18.0</ns3:atemp>
            <ns3:hr>87</ns3:hr>
          </ns3:TrackPointExtension>
        </extensions>
      </trkpt>
      <trkpt lat="48.76087152399122714996337890625" lon="-3.57328721322119235992431640625">
        <ele>56.799999237060546875</ele>
        <time>2026-05-08T16:10:18.000Z</time>
        <extensions>
          <ns3:TrackPointExtension>
            <ns3:atemp>18.0</ns3:atemp>
            <ns3:hr>87</ns3:hr>
          </ns3:TrackPointExtension>
        </extensions>
      </trkpt>
      <trkpt lat="48.76084126532077789306640625" lon="-3.573204986751079559326171875">
        <ele>56.799999237060546875</ele>
        <time>2026-05-08T16:10:22.000Z</time>
        <extensions>
          <ns3:TrackPointExtension>
            <ns3:atemp>19.0</ns3:atemp>
            <ns3:hr>87</ns3:hr>
          </ns3:TrackPointExtension>
        </extensions>
      </trkpt>
      <trkpt lat="48.76082072965800762176513671875" lon="-3.57314019463956356048583984375">
        <ele>56.40000152587890625</ele>
        <time>2026-05-08T16:10:26.000Z</time>
        <extensions>
          <ns3:TrackPointExtension>
            <ns3:atemp>19.0</ns3:atemp>
            <ns3:hr>90</ns3:hr>
          </ns3:TrackPointExtension>
        </extensions>
      </trkpt>
      <trkpt lat="48.7608109228312969207763671875" lon="-3.5731236822903156280517578125">
        <ele>56.40000152587890625</ele>
        <time>2026-05-08T16:10:27.000Z</time>
        <extensions>
          <ns3:TrackPointExtension>
            <ns3:atemp>19.0</ns3:atemp>
            <ns3:hr>90</ns3:hr>
          </ns3:TrackPointExtension>
        </extensions>
      </trkpt>
      <trkpt lat="48.76079089008271694183349609375" lon="-3.5730873048305511474609375">
        <ele>56.40000152587890625</ele>
        <time>2026-05-08T16:10:29.000Z</time>
        <extensions>
          <ns3:TrackPointExtension>
            <ns3:atemp>19.0</ns3:atemp>
            <ns3:hr>94</ns3:hr>
          </ns3:TrackPointExtension>
        </extensions>
      </trkpt>
      <trkpt lat="48.760771192610263824462890625" lon="-3.5730095207691192626953125">
        <ele>55.799999237060546875</ele>
        <time>2026-05-08T16:10:33.000Z</time>
        <extensions>
          <ns3:TrackPointExtension>
            <ns3:atemp>19.0</ns3:atemp>
            <ns3:hr>95</ns3:hr>
          </ns3:TrackPointExtension>
        </extensions>
      </trkpt>
      <trkpt lat="48.7607690133154392242431640625" lon="-3.57298605144023895263671875">
        <ele>55.799999237060546875</ele>
        <time>2026-05-08T16:10:34.000Z</time>
        <extensions>
          <ns3:TrackPointExtension>
            <ns3:atemp>19.0</ns3:atemp>
            <ns3:hr>95</ns3:hr>
          </ns3:TrackPointExtension>
        </extensions>
      </trkpt>
      <trkpt lat="48.7607462145388126373291015625" lon="-3.572889156639575958251953125">
        <ele>55.40000152587890625</ele>
        <time>2026-05-08T16:10:39.000Z</time>
        <extensions>
          <ns3:TrackPointExtension>
            <ns3:atemp>19.0</ns3:atemp>
            <ns3:hr>94</ns3:hr>
          </ns3:TrackPointExtension>
        </extensions>
      </trkpt>
      <trkpt lat="48.7607203982770442962646484375" lon="-3.5728018172085285186767578125">
        <ele>54.59999847412109375</ele>
        <time>2026-05-08T16:10:44.000Z</time>
        <extensions>
          <ns3:TrackPointExtension>
            <ns3:atemp>19.0</ns3:atemp>
            <ns3:hr>94</ns3:hr>
          </ns3:TrackPointExtension>
        </extensions>
      </trkpt>
      <trkpt lat="48.7607157044112682342529296875" lon="-3.5727850534021854400634765625">
        <ele>54.59999847412109375</ele>
        <time>2026-05-08T16:10:45.000Z</time>
        <extensions>
          <ns3:TrackPointExtension>
            <ns3:atemp>19.0</ns3:atemp>
            <ns3:hr>94</ns3:hr>
          </ns3:TrackPointExtension>
        </extensions>
      </trkpt>
      <trkpt lat="48.76068578101694583892822265625" lon="-3.57265203259885311126708984375">
        <ele>53.799999237060546875</ele>
        <time>2026-05-08T16:10:52.000Z</time>
        <extensions>
          <ns3:TrackPointExtension>
            <ns3:atemp>19.0</ns3:atemp>
            <ns3:hr>94</ns3:hr>
          </ns3:TrackPointExtension>
        </extensions>
      </trkpt>
      <trkpt lat="48.76066868193447589874267578125" lon="-3.572578020393848419189453125">
        <ele>53.59999847412109375</ele>
        <time>2026-05-08T16:10:56.000Z</time>
        <extensions>
          <ns3:TrackPointExtension>
            <ns3:atemp>19.0</ns3:atemp>
            <ns3:hr>93</ns3:hr>
          </ns3:TrackPointExtension>
        </extensions>
      </trkpt>
      <trkpt lat="48.7606608867645263671875" lon="-3.57253686524927616119384765625">
        <ele>53.40000152587890625</ele>
        <time>2026-05-08T16:10:58.000Z</time>
        <extensions>
          <ns3:TrackPointExtension>
            <ns3:atemp>19.0</ns3:atemp>
            <ns3:hr>94</ns3:hr>
          </ns3:TrackPointExtension>
        </extensions>
      </trkpt>
      <trkpt lat="48.76063934527337551116943359375" lon="-3.57241474092006683349609375">
        <ele>52.799999237060546875</ele>
        <time>2026-05-08T16:11:04.000Z</time>
        <extensions>
          <ns3:TrackPointExtension>
            <ns3:atemp>19.0</ns3:atemp>
            <ns3:hr>91</ns3:hr>
          </ns3:TrackPointExtension>
        </extensions>
      </trkpt>
      <trkpt lat="48.76062895171344280242919921875" lon="-3.572377525269985198974609375">
        <ele>52.59999847412109375</ele>
        <time>2026-05-08T16:11:06.000Z</time>
        <extensions>
          <ns3:TrackPointExtension>
            <ns3:atemp>19.0</ns3:atemp>
            <ns3:hr>91</ns3:hr>
          </ns3:TrackPointExtension>
        </extensions>
      </trkpt>
      <trkpt lat="48.76060313545167446136474609375" lon="-3.57228088192641735076904296875">
        <ele>52.40000152587890625</ele>
        <time>2026-05-08T16:11:11.000Z</time>
        <extensions>
          <ns3:TrackPointExtension>
            <ns3:atemp>19.0</ns3:atemp>
            <ns3:hr>91</ns3:hr>
          </ns3:TrackPointExtension>
        </extensions>
      </trkpt>
      <trkpt lat="48.7605846114456653594970703125" lon="-3.57218096964061260223388671875">
        <ele>51.40000152587890625</ele>
        <time>2026-05-08T16:11:16.000Z</time>
        <extensions>
          <ns3:TrackPointExtension>
            <ns3:atemp>19.0</ns3:atemp>
            <ns3:hr>90</ns3:hr>
          </ns3:TrackPointExtension>
        </extensions>
      </trkpt>
      <trkpt lat="48.7605765648186206817626953125" lon="-3.5721641220152378082275390625">
        <ele>50.799999237060546875</ele>
        <time>2026-05-08T16:11:17.000Z</time>
        <extensions>
          <ns3:TrackPointExtension>
            <ns3:atemp>19.0</ns3:atemp>
            <ns3:hr>91</ns3:hr>
          </ns3:TrackPointExtension>
        </extensions>
      </trkpt>
      <trkpt lat="48.7605631537735462188720703125" lon="-3.57211760245263576507568359375">
        <ele>50.59999847412109375</ele>
        <time>2026-05-08T16:11:19.000Z</time>
        <extensions>
          <ns3:TrackPointExtension>
            <ns3:atemp>19.0</ns3:atemp>
            <ns3:hr>90</ns3:hr>
          </ns3:TrackPointExtension>
        </extensions>
      </trkpt>
      <trkpt lat="48.76055569387972354888916015625" lon="-3.57207946479320526123046875">
        <ele>50.40000152587890625</ele>
        <time>2026-05-08T16:11:21.000Z</time>
        <extensions>
          <ns3:TrackPointExtension>
            <ns3:atemp>19.0</ns3:atemp>
            <ns3:hr>90</ns3:hr>
          </ns3:TrackPointExtension>
        </extensions>
      </trkpt>
      <trkpt lat="48.76055418513715267181396484375" lon="-3.57203981839120388031005859375">
        <ele>50.40000152587890625</ele>
        <time>2026-05-08T16:11:23.000Z</time>
        <extensions>
          <ns3:TrackPointExtension>
            <ns3:atemp>19.0</ns3:atemp>
            <ns3:hr>91</ns3:hr>
          </ns3:TrackPointExtension>
        </extensions>
      </trkpt>
      <trkpt lat="48.76052333973348140716552734375" lon="-3.57193060219287872314453125">
        <ele>50.200000762939453125</ele>
        <time>2026-05-08T16:11:29.000Z</time>
        <extensions>
          <ns3:TrackPointExtension>
            <ns3:atemp>19.0</ns3:atemp>
            <ns3:hr>91</ns3:hr>
          </ns3:TrackPointExtension>
        </extensions>
      </trkpt>
      <trkpt lat="48.76050322316586971282958984375" lon="-3.571800850331783294677734375">
        <ele>49.799999237060546875</ele>
        <time>2026-05-08T16:11:36.000Z</time>
        <extensions>
          <ns3:TrackPointExtension>
            <ns3:atemp>19.0</ns3:atemp>
            <ns3:hr>90</ns3:hr>
          </ns3:TrackPointExtension>
        </extensions>
      </trkpt>
      <trkpt lat="48.76048578880727291107177734375" lon="-3.571707643568515777587890625">
        <ele>49.200000762939453125</ele>
        <time>2026-05-08T16:11:41.000Z</time>
        <extensions>
          <ns3:TrackPointExtension>
            <ns3:atemp>19.0</ns3:atemp>
            <ns3:hr>90</ns3:hr>
          </ns3:TrackPointExtension>
        </extensions>
      </trkpt>
      <trkpt lat="48.7604726292192935943603515625" lon="-3.5716511495411396026611328125">
        <ele>48.59999847412109375</ele>
        <time>2026-05-08T16:11:44.000Z</time>
        <extensions>
          <ns3:TrackPointExtension>
            <ns3:atemp>19.0</ns3:atemp>
            <ns3:hr>89</ns3:hr>
          </ns3:TrackPointExtension>
        </extensions>
      </trkpt>
      <trkpt lat="48.7604461424052715301513671875" lon="-3.5715210624039173126220703125">
        <ele>48.40000152587890625</ele>
        <time>2026-05-08T16:11:50.000Z</time>
        <extensions>
          <ns3:TrackPointExtension>
            <ns3:atemp>19.0</ns3:atemp>
            <ns3:hr>88</ns3:hr>
          </ns3:TrackPointExtension>
        </extensions>
      </trkpt>
      <trkpt lat="48.76044404692947864532470703125" lon="-3.57149608433246612548828125">
        <ele>48.200000762939453125</ele>
        <time>2026-05-08T16:11:52.000Z</time>
        <extensions>
          <ns3:TrackPointExtension>
            <ns3:atemp>19.0</ns3:atemp>
            <ns3:hr>88</ns3:hr>
          </ns3:TrackPointExtension>
        </extensions>
      </trkpt>
      <trkpt lat="48.76042577438056468963623046875" lon="-3.5714355669915676116943359375">
        <ele>47.799999237060546875</ele>
        <time>2026-05-08T16:11:55.000Z</time>
        <extensions>
          <ns3:TrackPointExtension>
            <ns3:atemp>19.0</ns3:atemp>
            <ns3:hr>87</ns3:hr>
          </ns3:TrackPointExtension>
        </extensions>
      </trkpt>
      <trkpt lat="48.7604025565087795257568359375" lon="-3.571363985538482666015625">
        <ele>47.59999847412109375</ele>
        <time>2026-05-08T16:11:59.000Z</time>
        <extensions>
          <ns3:TrackPointExtension>
            <ns3:atemp>19.0</ns3:atemp>
            <ns3:hr>84</ns3:hr>
          </ns3:TrackPointExtension>
        </extensions>
      </trkpt>
      <trkpt lat="48.76039610244333744049072265625" lon="-3.5713385045528411865234375">
        <ele>47.40000152587890625</ele>
        <time>2026-05-08T16:12:01.000Z</time>
        <extensions>
          <ns3:TrackPointExtension>
            <ns3:atemp>19.0</ns3:atemp>
            <ns3:hr>83</ns3:hr>
          </ns3:TrackPointExtension>
        </extensions>
      </trkpt>
      <trkpt lat="48.76038185320794582366943359375" lon="-3.57127840630710124969482421875">
        <ele>47.200000762939453125</ele>
        <time>2026-05-08T16:12:04.000Z</time>
        <extensions>
          <ns3:TrackPointExtension>
            <ns3:atemp>19.0</ns3:atemp>
            <ns3:hr>80</ns3:hr>
          </ns3:TrackPointExtension>
        </extensions>
      </trkpt>
      <trkpt lat="48.7603710405528545379638671875" lon="-3.57121369801461696624755859375">
        <ele>47</ele>
        <time>2026-05-08T16:12:07.000Z</time>
        <extensions>
          <ns3:TrackPointExtension>
            <ns3:atemp>19.0</ns3:atemp>
            <ns3:hr>79</ns3:hr>
          </ns3:TrackPointExtension>
        </extensions>
      </trkpt>
      <trkpt lat="48.760353438556194305419921875" lon="-3.5711036436259746551513671875">
        <ele>46.799999237060546875</ele>
        <time>2026-05-08T16:12:13.000Z</time>
        <extensions>
          <ns3:TrackPointExtension>
            <ns3:atemp>19.0</ns3:atemp>
            <ns3:hr>79</ns3:hr>
          </ns3:TrackPointExtension>
        </extensions>
      </trkpt>
      <trkpt lat="48.7603137083351612091064453125" lon="-3.5709681920707225799560546875">
        <ele>46.40000152587890625</ele>
        <time>2026-05-08T16:12:20.000Z</time>
        <extensions>
          <ns3:TrackPointExtension>
            <ns3:atemp>20.0</ns3:atemp>
            <ns3:hr>79</ns3:hr>
          </ns3:TrackPointExtension>
        </extensions>
      </trkpt>
      <trkpt lat="48.76031152904033660888671875" lon="-3.570948578417301177978515625">
        <ele>46</ele>
        <time>2026-05-08T16:12:22.000Z</time>
        <extensions>
          <ns3:TrackPointExtension>
            <ns3:atemp>20.0</ns3:atemp>
            <ns3:hr>79</ns3:hr>
          </ns3:TrackPointExtension>
        </extensions>
      </trkpt>
      <trkpt lat="48.76028730534017086029052734375" lon="-3.5708340816199779510498046875">
        <ele>46.40000152587890625</ele>
        <time>2026-05-08T16:12:28.000Z</time>
        <extensions>
          <ns3:TrackPointExtension>
            <ns3:atemp>20.0</ns3:atemp>
            <ns3:hr>80</ns3:hr>
          </ns3:TrackPointExtension>
        </extensions>
      </trkpt>
      <trkpt lat="48.76025528647005558013916015625" lon="-3.57069184072315692901611328125">
        <ele>46.200000762939453125</ele>
        <time>2026-05-08T16:12:36.000Z</time>
        <extensions>
          <ns3:TrackPointExtension>
            <ns3:atemp>20.0</ns3:atemp>
            <ns3:hr>81</ns3:hr>
          </ns3:TrackPointExtension>
        </extensions>
      </trkpt>
      <trkpt lat="48.76023818738758563995361328125" lon="-3.5705661959946155548095703125">
        <ele>46.200000762939453125</ele>
        <time>2026-05-08T16:12:43.000Z</time>
        <extensions>
          <ns3:TrackPointExtension>
            <ns3:atemp>20.0</ns3:atemp>
            <ns3:hr>83</ns3:hr>
          </ns3:TrackPointExtension>
        </extensions>
      </trkpt>
      <trkpt lat="48.76022796146571636199951171875" lon="-3.57046167366206645965576171875">
        <ele>45.59999847412109375</ele>
        <time>2026-05-08T16:12:49.000Z</time>
        <extensions>
          <ns3:TrackPointExtension>
            <ns3:atemp>20.0</ns3:atemp>
            <ns3:hr>81</ns3:hr>
          </ns3:TrackPointExtension>
        </extensions>
      </trkpt>
      <trkpt lat="48.76021723262965679168701171875" lon="-3.5703449137508869171142578125">
        <ele>46</ele>
        <time>2026-05-08T16:12:55.000Z</time>
        <extensions>
          <ns3:TrackPointExtension>
            <ns3:atemp>20.0</ns3:atemp>
            <ns3:hr>79</ns3:hr>
          </ns3:TrackPointExtension>
        </extensions>
      </trkpt>
      <trkpt lat="48.7602070905268192291259765625" lon="-3.5702030919492244720458984375">
        <ele>45.799999237060546875</ele>
        <time>2026-05-08T16:13:02.000Z</time>
        <extensions>
          <ns3:TrackPointExtension>
            <ns3:atemp>20.0</ns3:atemp>
            <ns3:hr>79</ns3:hr>
          </ns3:TrackPointExtension>
        </extensions>
      </trkpt>
      <trkpt lat="48.7601977027952671051025390625" lon="-3.5700790397822856903076171875">
        <ele>46.200000762939453125</ele>
        <time>2026-05-08T16:13:09.000Z</time>
        <extensions>
          <ns3:TrackPointExtension>
            <ns3:atemp>20.0</ns3:atemp>
            <ns3:hr>79</ns3:hr>
          </ns3:TrackPointExtension>
        </extensions>
      </trkpt>
      <trkpt lat="48.76020046882331371307373046875" lon="-3.56997527182102203369140625">
        <ele>45.799999237060546875</ele>
        <time>2026-05-08T16:13:14.000Z</time>
        <extensions>
          <ns3:TrackPointExtension>
            <ns3:atemp>20.0</ns3:atemp>
            <ns3:hr>79</ns3:hr>
          </ns3:TrackPointExtension>
        </extensions>
      </trkpt>
      <trkpt lat="48.760198540985584259033203125" lon="-3.5699362121522426605224609375">
        <ele>46</ele>
        <time>2026-05-08T16:13:16.000Z</time>
        <extensions>
          <ns3:TrackPointExtension>
            <ns3:atemp>20.0</ns3:atemp>
            <ns3:hr>79</ns3:hr>
          </ns3:TrackPointExtension>
        </extensions>
      </trkpt>
      <trkpt lat="48.7601923383772373199462890625" lon="-3.56986370868980884552001953125">
        <ele>46.200000762939453125</ele>
        <time>2026-05-08T16:13:20.000Z</time>
        <extensions>
          <ns3:TrackPointExtension>
            <ns3:atemp>21.0</ns3:atemp>
            <ns3:hr>79</ns3:hr>
          </ns3:TrackPointExtension>
        </extensions>
      </trkpt>
      <trkpt lat="48.7601909972727298736572265625" lon="-3.5698473639786243438720703125">
        <ele>46.200000762939453125</ele>
        <time>2026-05-08T16:13:21.000Z</time>
        <extensions>
          <ns3:TrackPointExtension>
            <ns3:atemp>21.0</ns3:atemp>
            <ns3:hr>79</ns3:hr>
          </ns3:TrackPointExtension>
        </extensions>
      </trkpt>
      <trkpt lat="48.76019191928207874298095703125" lon="-3.56971400789916515350341796875">
        <ele>46.799999237060546875</ele>
        <time>2026-05-08T16:13:28.000Z</time>
        <extensions>
          <ns3:TrackPointExtension>
            <ns3:atemp>21.0</ns3:atemp>
            <ns3:hr>79</ns3:hr>
          </ns3:TrackPointExtension>
        </extensions>
      </trkpt>
      <trkpt lat="48.7601987086236476898193359375" lon="-3.5696783848106861114501953125">
        <ele>47.200000762939453125</ele>
        <time>2026-05-08T16:13:30.000Z</time>
        <extensions>
          <ns3:TrackPointExtension>
            <ns3:atemp>21.0</ns3:atemp>
            <ns3:hr>80</ns3:hr>
          </ns3:TrackPointExtension>
        </extensions>
      </trkpt>
      <trkpt lat="48.76021228730678558349609375" lon="-3.56959381140768527984619140625">
        <ele>47</ele>
        <time>2026-05-08T16:13:34.000Z</time>
        <extensions>
          <ns3:TrackPointExtension>
            <ns3:atemp>21.0</ns3:atemp>
            <ns3:hr>80</ns3:hr>
          </ns3:TrackPointExtension>
        </extensions>
      </trkpt>
      <trkpt lat="48.76022477634251117706298828125" lon="-3.5694973357021808624267578125">
        <ele>47.200000762939453125</ele>
        <time>2026-05-08T16:13:39.000Z</time>
        <extensions>
          <ns3:TrackPointExtension>
            <ns3:atemp>21.0</ns3:atemp>
            <ns3:hr>83</ns3:hr>
          </ns3:TrackPointExtension>
        </extensions>
      </trkpt>
      <trkpt lat="48.7602305598556995391845703125" lon="-3.56945735402405261993408203125">
        <ele>47.200000762939453125</ele>
        <time>2026-05-08T16:13:41.000Z</time>
        <extensions>
          <ns3:TrackPointExtension>
            <ns3:atemp>21.0</ns3:atemp>
            <ns3:hr>84</ns3:hr>
          </ns3:TrackPointExtension>
        </extensions>
      </trkpt>
      <trkpt lat="48.760238774120807647705078125" lon="-3.5693871974945068359375">
        <ele>46.200000762939453125</ele>
        <time>2026-05-08T16:13:45.000Z</time>
        <extensions>
          <ns3:TrackPointExtension>
            <ns3:atemp>21.0</ns3:atemp>
            <ns3:hr>87</ns3:hr>
          </ns3:TrackPointExtension>
        </extensions>
      </trkpt>
      <trkpt lat="48.76024438999593257904052734375" lon="-3.569360710680484771728515625">
        <ele>45.799999237060546875</ele>
        <time>2026-05-08T16:13:47.000Z</time>
        <extensions>
          <ns3:TrackPointExtension>
            <ns3:atemp>21.0</ns3:atemp>
            <ns3:hr>87</ns3:hr>
          </ns3:TrackPointExtension>
        </extensions>
      </trkpt>
      <trkpt lat="48.76025897450745105743408203125" lon="-3.56925887055695056915283203125">
        <ele>45.59999847412109375</ele>
        <time>2026-05-08T16:13:53.000Z</time>
        <extensions>
          <ns3:TrackPointExtension>
            <ns3:atemp>21.0</ns3:atemp>
            <ns3:hr>89</ns3:hr>
          </ns3:TrackPointExtension>
        </extensions>
      </trkpt>
      <trkpt lat="48.76028026454150676727294921875" lon="-3.56912911869585514068603515625">
        <ele>45.200000762939453125</ele>
        <time>2026-05-08T16:14:00.000Z</time>
        <extensions>
          <ns3:TrackPointExtension>
            <ns3:atemp>21.0</ns3:atemp>
            <ns3:hr>90</ns3:hr>
          </ns3:TrackPointExtension>
        </extensions>
      </trkpt>
      <trkpt lat="48.7603002972900867462158203125" lon="-3.56905527412891387939453125">
        <ele>45</ele>
        <time>2026-05-08T16:14:04.000Z</time>
        <extensions>
          <ns3:TrackPointExtension>
            <ns3:atemp>21.0</ns3:atemp>
            <ns3:hr>89</ns3:hr>
          </ns3:TrackPointExtension>
        </extensions>
      </trkpt>
      <trkpt lat="48.760316558182239532470703125" lon="-3.568987548351287841796875">
        <ele>44</ele>
        <time>2026-05-08T16:14:08.000Z</time>
        <extensions>
          <ns3:TrackPointExtension>
            <ns3:atemp>21.0</ns3:atemp>
            <ns3:hr>88</ns3:hr>
          </ns3:TrackPointExtension>
        </extensions>
      </trkpt>
      <trkpt lat="48.76034748740494251251220703125" lon="-3.5688633285462856292724609375">
        <ele>44</ele>
        <time>2026-05-08T16:14:17.000Z</time>
        <extensions>
          <ns3:TrackPointExtension>
            <ns3:atemp>21.0</ns3:atemp>
            <ns3:hr>87</ns3:hr>
          </ns3:TrackPointExtension>
        </extensions>
      </trkpt>
      <trkpt lat="48.760346733033657073974609375" lon="-3.56885067187249660491943359375">
        <ele>44.59999847412109375</ele>
        <time>2026-05-08T16:14:23.000Z</time>
        <extensions>
          <ns3:TrackPointExtension>
            <ns3:atemp>21.0</ns3:atemp>
            <ns3:hr>88</ns3:hr>
          </ns3:TrackPointExtension>
        </extensions>
      </trkpt>
      <trkpt lat="48.760346733033657073974609375" lon="-3.56885067187249660491943359375">
        <ele>45</ele>
        <time>2026-05-08T16:14:25.000Z</time>
        <extensions>
          <ns3:TrackPointExtension>
            <ns3:atemp>21.0</ns3:atemp>
            <ns3:hr>88</ns3:hr>
          </ns3:TrackPointExtension>
        </extensions>
      </trkpt>
      <trkpt lat="48.760346733033657073974609375" lon="-3.56885067187249660491943359375">
        <ele>45</ele>
        <time>2026-05-08T16:14:33.000Z</time>
        <extensions>
          <ns3:TrackPointExtension>
            <ns3:atemp>21.0</ns3:atemp>
            <ns3:hr>91</ns3:hr>
          </ns3:TrackPointExtension>
        </extensions>
      </trkpt>
      <trkpt lat="48.76034631393849849700927734375" lon="-3.5688512586057186126708984375">
        <ele>44.40000152587890625</ele>
        <time>2026-05-08T16:14:35.000Z</time>
        <extensions>
          <ns3:TrackPointExtension>
            <ns3:atemp>21.0</ns3:atemp>
            <ns3:hr>94</ns3:hr>
          </ns3:TrackPointExtension>
        </extensions>
      </trkpt>
      <trkpt lat="48.76035352237522602081298828125" lon="-3.568841703236103057861328125">
        <ele>44</ele>
        <time>2026-05-08T16:14:36.000Z</time>
        <extensions>
          <ns3:TrackPointExtension>
            <ns3:atemp>21.0</ns3:atemp>
            <ns3:hr>95</ns3:hr>
          </ns3:TrackPointExtension>
        </extensions>
      </trkpt>
      <trkpt lat="48.76036827452480792999267578125" lon="-3.56881462968885898590087890625">
        <ele>43.799999237060546875</ele>
        <time>2026-05-08T16:14:38.000Z</time>
        <extensions>
          <ns3:TrackPointExtension>
            <ns3:atemp>21.0</ns3:atemp>
            <ns3:hr>97</ns3:hr>
          </ns3:TrackPointExtension>
        </extensions>
      </trkpt>
      <trkpt lat="48.76038989983499050140380859375" lon="-3.56875997968018054962158203125">
        <ele>44</ele>
        <time>2026-05-08T16:14:42.000Z</time>
        <extensions>
          <ns3:TrackPointExtension>
            <ns3:atemp>21.0</ns3:atemp>
            <ns3:hr>99</ns3:hr>
          </ns3:TrackPointExtension>
        </extensions>
      </trkpt>
      <trkpt lat="48.76042644493281841278076171875" lon="-3.5686849616467952728271484375">
        <ele>43.200000762939453125</ele>
        <time>2026-05-08T16:14:48.000Z</time>
        <extensions>
          <ns3:TrackPointExtension>
            <ns3:atemp>21.0</ns3:atemp>
            <ns3:hr>99</ns3:hr>
          </ns3:TrackPointExtension>
        </extensions>
      </trkpt>
      <trkpt lat="48.76045108772814273834228515625" lon="-3.5686028189957141876220703125">
        <ele>42</ele>
        <time>2026-05-08T16:14:53.000Z</time>
        <extensions>
          <ns3:TrackPointExtension>
            <ns3:atemp>21.0</ns3:atemp>
            <ns3:hr>99</ns3:hr>
          </ns3:TrackPointExtension>
        </extensions>
      </trkpt>
      <trkpt lat="48.760464079678058624267578125" lon="-3.56856803409755229949951171875">
        <ele>41.200000762939453125</ele>
        <time>2026-05-08T16:14:55.000Z</time>
        <extensions>
          <ns3:TrackPointExtension>
            <ns3:atemp>21.0</ns3:atemp>
            <ns3:hr>99</ns3:hr>
          </ns3:TrackPointExtension>
        </extensions>
      </trkpt>
      <trkpt lat="48.76053255982697010040283203125" lon="-3.56844909489154815673828125">
        <ele>42.799999237060546875</ele>
        <time>2026-05-08T16:15:04.000Z</time>
        <extensions>
          <ns3:TrackPointExtension>
            <ns3:atemp>21.0</ns3:atemp>
            <ns3:hr>98</ns3:hr>
          </ns3:TrackPointExtension>
        </extensions>
      </trkpt>
      <trkpt lat="48.760604225099086761474609375" lon="-3.56832395307719707489013671875">
        <ele>42.40000152587890625</ele>
        <time>2026-05-08T16:15:12.000Z</time>
        <extensions>
          <ns3:TrackPointExtension>
            <ns3:atemp>21.0</ns3:atemp>
            <ns3:hr>97</ns3:hr>
          </ns3:TrackPointExtension>
        </extensions>
      </trkpt>
      <trkpt lat="48.76065208576619625091552734375" lon="-3.568238206207752227783203125">
        <ele>42</ele>
        <time>2026-05-08T16:15:18.000Z</time>
        <extensions>
          <ns3:TrackPointExtension>
            <ns3:atemp>21.0</ns3:atemp>
            <ns3:hr>98</ns3:hr>
          </ns3:TrackPointExtension>
        </extensions>
      </trkpt>
      <trkpt lat="48.7607083283364772796630859375" lon="-3.56814340688288211822509765625">
        <ele>41.40000152587890625</ele>
        <time>2026-05-08T16:15:25.000Z</time>
        <extensions>
          <ns3:TrackPointExtension>
            <ns3:atemp>21.0</ns3:atemp>
            <ns3:hr>99</ns3:hr>
          </ns3:TrackPointExtension>
        </extensions>
      </trkpt>
      <trkpt lat="48.7607426941394805908203125" lon="-3.56807685457170009613037109375">
        <ele>41</ele>
        <time>2026-05-08T16:15:29.000Z</time>
        <extensions>
          <ns3:TrackPointExtension>
            <ns3:atemp>21.0</ns3:atemp>
            <ns3:hr>98</ns3:hr>
          </ns3:TrackPointExtension>
        </extensions>
      </trkpt>
      <trkpt lat="48.76075048930943012237548828125" lon="-3.56806017458438873291015625">
        <ele>41</ele>
        <time>2026-05-08T16:15:30.000Z</time>
        <extensions>
          <ns3:TrackPointExtension>
            <ns3:atemp>21.0</ns3:atemp>
            <ns3:hr>98</ns3:hr>
          </ns3:TrackPointExtension>
        </extensions>
      </trkpt>
      <trkpt lat="48.76080094836652278900146484375" lon="-3.5679785348474979400634765625">
        <ele>40.799999237060546875</ele>
        <time>2026-05-08T16:15:36.000Z</time>
        <extensions>
          <ns3:TrackPointExtension>
            <ns3:atemp>21.0</ns3:atemp>
            <ns3:hr>98</ns3:hr>
          </ns3:TrackPointExtension>
        </extensions>
      </trkpt>
      <trkpt lat="48.76084386371076107025146484375" lon="-3.56790184043347835540771484375">
        <ele>40</ele>
        <time>2026-05-08T16:15:42.000Z</time>
        <extensions>
          <ns3:TrackPointExtension>
            <ns3:atemp>21.0</ns3:atemp>
            <ns3:hr>98</ns3:hr>
          </ns3:TrackPointExtension>
        </extensions>
      </trkpt>
      <trkpt lat="48.7608531676232814788818359375" lon="-3.5678910277783870697021484375">
        <ele>39.799999237060546875</ele>
        <time>2026-05-08T16:15:43.000Z</time>
        <extensions>
          <ns3:TrackPointExtension>
            <ns3:atemp>21.0</ns3:atemp>
            <ns3:hr>98</ns3:hr>
          </ns3:TrackPointExtension>
        </extensions>
      </trkpt>
      <trkpt lat="48.7609084881842136383056640625" lon="-3.56779824011027812957763671875">
        <ele>39.40000152587890625</ele>
        <time>2026-05-08T16:15:50.000Z</time>
        <extensions>
          <ns3:TrackPointExtension>
            <ns3:atemp>21.0</ns3:atemp>
            <ns3:hr>98</ns3:hr>
          </ns3:TrackPointExtension>
        </extensions>
      </trkpt>
      <trkpt lat="48.7609688378870487213134765625" lon="-3.5677042789757251739501953125">
        <ele>39.59999847412109375</ele>
        <time>2026-05-08T16:15:58.000Z</time>
        <extensions>
          <ns3:TrackPointExtension>
            <ns3:atemp>21.0</ns3:atemp>
            <ns3:hr>98</ns3:hr>
          </ns3:TrackPointExtension>
        </extensions>
      </trkpt>
      <trkpt lat="48.76100747846066951751708984375" lon="-3.5676338709890842437744140625">
        <ele>39.59999847412109375</ele>
        <time>2026-05-08T16:16:02.000Z</time>
        <extensions>
          <ns3:TrackPointExtension>
            <ns3:atemp>21.0</ns3:atemp>
            <ns3:hr>102</ns3:hr>
          </ns3:TrackPointExtension>
        </extensions>
      </trkpt>
      <trkpt lat="48.76101166941225528717041015625" lon="-3.56762691400945186614990234375">
        <ele>39.59999847412109375</ele>
        <time>2026-05-08T16:16:03.000Z</time>
        <extensions>
          <ns3:TrackPointExtension>
            <ns3:atemp>21.0</ns3:atemp>
            <ns3:hr>103</ns3:hr>
          </ns3:TrackPointExtension>
        </extensions>
      </trkpt>
      <trkpt lat="48.76102675683796405792236328125" lon="-3.56758886016905307769775390625">
        <ele>39.200000762939453125</ele>
        <time>2026-05-08T16:16:06.000Z</time>
        <extensions>
          <ns3:TrackPointExtension>
            <ns3:atemp>21.0</ns3:atemp>
            <ns3:hr>106</ns3:hr>
          </ns3:TrackPointExtension>
        </extensions>
      </trkpt>
      <trkpt lat="48.76104176044464111328125" lon="-3.567560277879238128662109375">
        <ele>39</ele>
        <time>2026-05-08T16:16:09.000Z</time>
        <extensions>
          <ns3:TrackPointExtension>
            <ns3:atemp>21.0</ns3:atemp>
            <ns3:hr>106</ns3:hr>
          </ns3:TrackPointExtension>
        </extensions>
      </trkpt>
      <trkpt lat="48.76106925308704376220703125" lon="-3.5675151832401752471923828125">
        <ele>38.799999237060546875</ele>
        <time>2026-05-08T16:16:12.000Z</time>
        <extensions>
          <ns3:TrackPointExtension>
            <ns3:atemp>21.0</ns3:atemp>
            <ns3:hr>106</ns3:hr>
          </ns3:TrackPointExtension>
        </extensions>
      </trkpt>
      <trkpt lat="48.7610928900539875030517578125" lon="-3.5674749501049518585205078125">
        <ele>38.59999847412109375</ele>
        <time>2026-05-08T16:16:15.000Z</time>
        <extensions>
          <ns3:TrackPointExtension>
            <ns3:atemp>21.0</ns3:atemp>
            <ns3:hr>106</ns3:hr>
          </ns3:TrackPointExtension>
        </extensions>
      </trkpt>
      <trkpt lat="48.76113538630306720733642578125" lon="-3.56740093789994716644287109375">
        <ele>38.40000152587890625</ele>
        <time>2026-05-08T16:16:20.000Z</time>
        <extensions>
          <ns3:TrackPointExtension>
            <ns3:atemp>22.0</ns3:atemp>
            <ns3:hr>106</ns3:hr>
          </ns3:TrackPointExtension>
        </extensions>
      </trkpt>
      <trkpt lat="48.76114343293011188507080078125" lon="-3.56738702394068241119384765625">
        <ele>38.200000762939453125</ele>
        <time>2026-05-08T16:16:21.000Z</time>
        <extensions>
          <ns3:TrackPointExtension>
            <ns3:atemp>22.0</ns3:atemp>
            <ns3:hr>105</ns3:hr>
          </ns3:TrackPointExtension>
        </extensions>
      </trkpt>
      <trkpt lat="48.76116623170673847198486328125" lon="-3.56734226457774639129638671875">
        <ele>37.799999237060546875</ele>
        <time>2026-05-08T16:16:24.000Z</time>
        <extensions>
          <ns3:TrackPointExtension>
            <ns3:atemp>22.0</ns3:atemp>
            <ns3:hr>104</ns3:hr>
          </ns3:TrackPointExtension>
        </extensions>
      </trkpt>
      <trkpt lat="48.761178553104400634765625" lon="-3.56732147745788097381591796875">
        <ele>37.59999847412109375</ele>
        <time>2026-05-08T16:16:28.000Z</time>
        <extensions>
          <ns3:TrackPointExtension>
            <ns3:atemp>22.0</ns3:atemp>
            <ns3:hr>103</ns3:hr>
          </ns3:TrackPointExtension>
        </extensions>
      </trkpt>
      <trkpt lat="48.7612166069447994232177734375" lon="-3.5672536678612232208251953125">
        <ele>37.40000152587890625</ele>
        <time>2026-05-08T16:16:33.000Z</time>
        <extensions>
          <ns3:TrackPointExtension>
            <ns3:atemp>22.0</ns3:atemp>
            <ns3:hr>102</ns3:hr>
          </ns3:TrackPointExtension>
        </extensions>
      </trkpt>
      <trkpt lat="48.76125876791775226593017578125" lon="-3.56715937145054340362548828125">
        <ele>37.200000762939453125</ele>
        <time>2026-05-08T16:16:38.000Z</time>
        <extensions>
          <ns3:TrackPointExtension>
            <ns3:atemp>22.0</ns3:atemp>
            <ns3:hr>100</ns3:hr>
          </ns3:TrackPointExtension>
        </extensions>
      </trkpt>
      <trkpt lat="48.7612685747444629669189453125" lon="-3.5671316273510456085205078125">
        <ele>36.799999237060546875</ele>
        <time>2026-05-08T16:16:41.000Z</time>
        <extensions>
          <ns3:TrackPointExtension>
            <ns3:atemp>22.0</ns3:atemp>
            <ns3:hr>100</ns3:hr>
          </ns3:TrackPointExtension>
        </extensions>
      </trkpt>
      <trkpt lat="48.761261366307735443115234375" lon="-3.5671333037316799163818359375">
        <ele>36.200000762939453125</ele>
        <time>2026-05-08T16:16:43.000Z</time>
        <extensions>
          <ns3:TrackPointExtension>
            <ns3:atemp>22.0</ns3:atemp>
            <ns3:hr>99</ns3:hr>
          </ns3:TrackPointExtension>
        </extensions>
      </trkpt>
      <trkpt lat="48.76128274016082286834716796875" lon="-3.5670615546405315399169921875">
        <ele>35.799999237060546875</ele>
        <time>2026-05-08T16:16:49.000Z</time>
        <extensions>
          <ns3:TrackPointExtension>
            <ns3:atemp>22.0</ns3:atemp>
            <ns3:hr>99</ns3:hr>
          </ns3:TrackPointExtension>
        </extensions>
      </trkpt>
      <trkpt lat="48.761320374906063079833984375" lon="-3.5669693537056446075439453125">
        <ele>36</ele>
        <time>2026-05-08T16:16:54.000Z</time>
        <extensions>
          <ns3:TrackPointExtension>
            <ns3:atemp>22.0</ns3:atemp>
            <ns3:hr>100</ns3:hr>
          </ns3:TrackPointExtension>
        </extensions>
      </trkpt>
      <trkpt lat="48.76132498495280742645263671875" lon="-3.566944040358066558837890625">
        <ele>35.799999237060546875</ele>
        <time>2026-05-08T16:16:56.000Z</time>
        <extensions>
          <ns3:TrackPointExtension>
            <ns3:atemp>22.0</ns3:atemp>
            <ns3:hr>100</ns3:hr>
          </ns3:TrackPointExtension>
        </extensions>
      </trkpt>
      <trkpt lat="48.7613507173955440521240234375" lon="-3.56688293628394603729248046875">
        <ele>35.40000152587890625</ele>
        <time>2026-05-08T16:17:00.000Z</time>
        <extensions>
          <ns3:TrackPointExtension>
            <ns3:atemp>22.0</ns3:atemp>
            <ns3:hr>101</ns3:hr>
          </ns3:TrackPointExtension>
        </extensions>
      </trkpt>
      <trkpt lat="48.7613668106496334075927734375" lon="-3.56682376004755496978759765625">
        <ele>34.59999847412109375</ele>
        <time>2026-05-08T16:17:04.000Z</time>
        <extensions>
          <ns3:TrackPointExtension>
            <ns3:atemp>22.0</ns3:atemp>
            <ns3:hr>100</ns3:hr>
          </ns3:TrackPointExtension>
        </extensions>
      </trkpt>
      <trkpt lat="48.76136471517384052276611328125" lon="-3.566796518862247467041015625">
        <ele>34.40000152587890625</ele>
        <time>2026-05-08T16:17:06.000Z</time>
        <extensions>
          <ns3:TrackPointExtension>
            <ns3:atemp>22.0</ns3:atemp>
            <ns3:hr>100</ns3:hr>
          </ns3:TrackPointExtension>
        </extensions>
      </trkpt>
      <trkpt lat="48.76135834492743015289306640625" lon="-3.566793166100978851318359375">
        <ele>34.59999847412109375</ele>
        <time>2026-05-08T16:17:09.000Z</time>
        <extensions>
          <ns3:TrackPointExtension>
            <ns3:atemp>22.0</ns3:atemp>
            <ns3:hr>99</ns3:hr>
          </ns3:TrackPointExtension>
        </extensions>
      </trkpt>
      <trkpt lat="48.76133068464696407318115234375" lon="-3.56676760129630565643310546875">
        <ele>34.40000152587890625</ele>
        <time>2026-05-08T16:17:12.000Z</time>
        <extensions>
          <ns3:TrackPointExtension>
            <ns3:atemp>22.0</ns3:atemp>
            <ns3:hr>99</ns3:hr>
          </ns3:TrackPointExtension>
        </extensions>
      </trkpt>
      <trkpt lat="48.76124049536883831024169921875" lon="-3.566775731742382049560546875">
        <ele>33.40000152587890625</ele>
        <time>2026-05-08T16:17:18.000Z</time>
        <extensions>
          <ns3:TrackPointExtension>
            <ns3:atemp>22.0</ns3:atemp>
            <ns3:hr>97</ns3:hr>
          </ns3:TrackPointExtension>
        </extensions>
      </trkpt>
      <trkpt lat="48.76122054643929004669189453125" lon="-3.5667752288281917572021484375">
        <ele>33</ele>
        <time>2026-05-08T16:17:20.000Z</time>
        <extensions>
          <ns3:TrackPointExtension>
            <ns3:atemp>23.0</ns3:atemp>
            <ns3:hr>97</ns3:hr>
          </ns3:TrackPointExtension>
        </extensions>
      </trkpt>
      <trkpt lat="48.7612052075564861297607421875" lon="-3.5667634941637516021728515625">
        <ele>32.40000152587890625</ele>
        <time>2026-05-08T16:17:23.000Z</time>
        <extensions>
          <ns3:TrackPointExtension>
            <ns3:atemp>23.0</ns3:atemp>
            <ns3:hr>97</ns3:hr>
          </ns3:TrackPointExtension>
        </extensions>
      </trkpt>
      <trkpt lat="48.76120193861424922943115234375" lon="-3.56674413196742534637451171875">
        <ele>32</ele>
        <time>2026-05-08T16:17:25.000Z</time>
        <extensions>
          <ns3:TrackPointExtension>
            <ns3:atemp>23.0</ns3:atemp>
            <ns3:hr>97</ns3:hr>
          </ns3:TrackPointExtension>
        </extensions>
      </trkpt>
      <trkpt lat="48.76120914705097675323486328125" lon="-3.56667825020849704742431640625">
        <ele>31.6000003814697265625</ele>
        <time>2026-05-08T16:17:29.000Z</time>
        <extensions>
          <ns3:TrackPointExtension>
            <ns3:atemp>23.0</ns3:atemp>
            <ns3:hr>96</ns3:hr>
          </ns3:TrackPointExtension>
        </extensions>
      </trkpt>
      <trkpt lat="48.76121702603995800018310546875" lon="-3.56665478087961673736572265625">
        <ele>31.200000762939453125</ele>
        <time>2026-05-08T16:17:31.000Z</time>
        <extensions>
          <ns3:TrackPointExtension>
            <ns3:atemp>23.0</ns3:atemp>
            <ns3:hr>96</ns3:hr>
          </ns3:TrackPointExtension>
        </extensions>
      </trkpt>
      <trkpt lat="48.761231191456317901611328125" lon="-3.56658403761684894561767578125">
        <ele>30</ele>
        <time>2026-05-08T16:17:36.000Z</time>
        <extensions>
          <ns3:TrackPointExtension>
            <ns3:atemp>23.0</ns3:atemp>
            <ns3:hr>94</ns3:hr>
          </ns3:TrackPointExtension>
        </extensions>
      </trkpt>
      <trkpt lat="48.76123689115047454833984375" lon="-3.566477000713348388671875">
        <ele>29.3999996185302734375</ele>
        <time>2026-05-08T16:17:42.000Z</time>
        <extensions>
          <ns3:TrackPointExtension>
            <ns3:atemp>23.0</ns3:atemp>
            <ns3:hr>92</ns3:hr>
          </ns3:TrackPointExtension>
        </extensions>
      </trkpt>
      <trkpt lat="48.76123479567468166351318359375" lon="-3.5664553754031658172607421875">
        <ele>29</ele>
        <time>2026-05-08T16:17:44.000Z</time>
        <extensions>
          <ns3:TrackPointExtension>
            <ns3:atemp>23.0</ns3:atemp>
            <ns3:hr>92</ns3:hr>
          </ns3:TrackPointExtension>
        </extensions>
      </trkpt>
      <trkpt lat="48.761231862008571624755859375" lon="-3.56638890691101551055908203125">
        <ele>28</ele>
        <time>2026-05-08T16:17:49.000Z</time>
        <extensions>
          <ns3:TrackPointExtension>
            <ns3:atemp>23.0</ns3:atemp>
            <ns3:hr>91</ns3:hr>
          </ns3:TrackPointExtension>
        </extensions>
      </trkpt>
      <trkpt lat="48.761232197284698486328125" lon="-3.56637398712337017059326171875">
        <ele>27.799999237060546875</ele>
        <time>2026-05-08T16:17:50.000Z</time>
        <extensions>
          <ns3:TrackPointExtension>
            <ns3:atemp>23.0</ns3:atemp>
            <ns3:hr>91</ns3:hr>
          </ns3:TrackPointExtension>
        </extensions>
      </trkpt>
      <trkpt lat="48.7612018547952175140380859375" lon="-3.5662703029811382293701171875">
        <ele>26.799999237060546875</ele>
        <time>2026-05-08T16:17:55.000Z</time>
        <extensions>
          <ns3:TrackPointExtension>
            <ns3:atemp>23.0</ns3:atemp>
            <ns3:hr>91</ns3:hr>
          </ns3:TrackPointExtension>
        </extensions>
      </trkpt>
      <trkpt lat="48.7611914612352848052978515625" lon="-3.56624641455709934234619140625">
        <ele>26.799999237060546875</ele>
        <time>2026-05-08T16:17:56.000Z</time>
        <extensions>
          <ns3:TrackPointExtension>
            <ns3:atemp>23.0</ns3:atemp>
            <ns3:hr>90</ns3:hr>
          </ns3:TrackPointExtension>
        </extensions>
      </trkpt>
      <trkpt lat="48.76116086728870868682861328125" lon="-3.56620785780251026153564453125">
        <ele>26.3999996185302734375</ele>
        <time>2026-05-08T16:18:00.000Z</time>
        <extensions>
          <ns3:TrackPointExtension>
            <ns3:atemp>23.0</ns3:atemp>
            <ns3:hr>90</ns3:hr>
          </ns3:TrackPointExtension>
        </extensions>
      </trkpt>
      <trkpt lat="48.76115919090807437896728515625" lon="-3.5661003179848194122314453125">
        <ele>25.6000003814697265625</ele>
        <time>2026-05-08T16:18:05.000Z</time>
        <extensions>
          <ns3:TrackPointExtension>
            <ns3:atemp>23.0</ns3:atemp>
            <ns3:hr>89</ns3:hr>
          </ns3:TrackPointExtension>
        </extensions>
      </trkpt>
      <trkpt lat="48.76117142848670482635498046875" lon="-3.565995208919048309326171875">
        <ele>24.6000003814697265625</ele>
        <time>2026-05-08T16:18:11.000Z</time>
        <extensions>
          <ns3:TrackPointExtension>
            <ns3:atemp>23.0</ns3:atemp>
            <ns3:hr>90</ns3:hr>
          </ns3:TrackPointExtension>
        </extensions>
      </trkpt>
      <trkpt lat="48.76117075793445110321044921875" lon="-3.5659742541611194610595703125">
        <ele>24.3999996185302734375</ele>
        <time>2026-05-08T16:18:12.000Z</time>
        <extensions>
          <ns3:TrackPointExtension>
            <ns3:atemp>23.0</ns3:atemp>
            <ns3:hr>90</ns3:hr>
          </ns3:TrackPointExtension>
        </extensions>
      </trkpt>
      <trkpt lat="48.76117746345698833465576171875" lon="-3.56589655391871929168701171875">
        <ele>23.3999996185302734375</ele>
        <time>2026-05-08T16:18:16.000Z</time>
        <extensions>
          <ns3:TrackPointExtension>
            <ns3:atemp>23.0</ns3:atemp>
            <ns3:hr>89</ns3:hr>
          </ns3:TrackPointExtension>
        </extensions>
      </trkpt>
      <trkpt lat="48.76118383370339870452880859375" lon="-3.5658656246960163116455078125">
        <ele>23</ele>
        <time>2026-05-08T16:18:18.000Z</time>
        <extensions>
          <ns3:TrackPointExtension>
            <ns3:atemp>23.0</ns3:atemp>
            <ns3:hr>90</ns3:hr>
          </ns3:TrackPointExtension>
        </extensions>
      </trkpt>
      <trkpt lat="48.7611865997314453125" lon="-3.56581692583858966827392578125">
        <ele>22.6000003814697265625</ele>
        <time>2026-05-08T16:18:20.000Z</time>
        <extensions>
          <ns3:TrackPointExtension>
            <ns3:atemp>22.0</ns3:atemp>
            <ns3:hr>90</ns3:hr>
          </ns3:TrackPointExtension>
        </extensions>
      </trkpt>
      <trkpt lat="48.761191628873348236083984375" lon="-3.56579597108066082000732421875">
        <ele>22.200000762939453125</ele>
        <time>2026-05-08T16:18:21.000Z</time>
        <extensions>
          <ns3:TrackPointExtension>
            <ns3:atemp>22.0</ns3:atemp>
            <ns3:hr>89</ns3:hr>
          </ns3:TrackPointExtension>
        </extensions>
      </trkpt>
      <trkpt lat="48.76119908876717090606689453125" lon="-3.56575808487832546234130859375">
        <ele>21.799999237060546875</ele>
        <time>2026-05-08T16:18:23.000Z</time>
        <extensions>
          <ns3:TrackPointExtension>
            <ns3:atemp>22.0</ns3:atemp>
            <ns3:hr>89</ns3:hr>
          </ns3:TrackPointExtension>
        </extensions>
      </trkpt>
      <trkpt lat="48.7612120807170867919921875" lon="-3.56569312512874603271484375">
        <ele>21.200000762939453125</ele>
        <time>2026-05-08T16:18:27.000Z</time>
        <extensions>
          <ns3:TrackPointExtension>
            <ns3:atemp>22.0</ns3:atemp>
            <ns3:hr>90</ns3:hr>
          </ns3:TrackPointExtension>
        </extensions>
      </trkpt>
      <trkpt lat="48.7612058781087398529052734375" lon="-3.5656564123928546905517578125">
        <ele>21</ele>
        <time>2026-05-08T16:18:29.000Z</time>
        <extensions>
          <ns3:TrackPointExtension>
            <ns3:atemp>22.0</ns3:atemp>
            <ns3:hr>89</ns3:hr>
          </ns3:TrackPointExtension>
        </extensions>
      </trkpt>
      <trkpt lat="48.76120738685131072998046875" lon="-3.5656200349330902099609375">
        <ele>20</ele>
        <time>2026-05-08T16:18:33.000Z</time>
        <extensions>
          <ns3:TrackPointExtension>
            <ns3:atemp>22.0</ns3:atemp>
            <ns3:hr>89</ns3:hr>
          </ns3:TrackPointExtension>
        </extensions>
      </trkpt>
      <trkpt lat="48.76120847649872303009033203125" lon="-3.56560268439352512359619140625">
        <ele>20</ele>
        <time>2026-05-08T16:18:34.000Z</time>
        <extensions>
          <ns3:TrackPointExtension>
            <ns3:atemp>22.0</ns3:atemp>
            <ns3:hr>89</ns3:hr>
          </ns3:TrackPointExtension>
        </extensions>
      </trkpt>
      <trkpt lat="48.76120881177484989166259765625" lon="-3.565500341355800628662109375">
        <ele>19</ele>
        <time>2026-05-08T16:18:40.000Z</time>
        <extensions>
          <ns3:TrackPointExtension>
            <ns3:atemp>22.0</ns3:atemp>
            <ns3:hr>89</ns3:hr>
          </ns3:TrackPointExtension>
        </extensions>
      </trkpt>
      <trkpt lat="48.76121870242059230804443359375" lon="-3.5654187016189098358154296875">
        <ele>19</ele>
        <time>2026-05-08T16:18:45.000Z</time>
        <extensions>
          <ns3:TrackPointExtension>
            <ns3:atemp>22.0</ns3:atemp>
            <ns3:hr>90</ns3:hr>
          </ns3:TrackPointExtension>
        </extensions>
      </trkpt>
      <trkpt lat="48.76121987588703632354736328125" lon="-3.565336726605892181396484375">
        <ele>18.200000762939453125</ele>
        <time>2026-05-08T16:18:51.000Z</time>
        <extensions>
          <ns3:TrackPointExtension>
            <ns3:atemp>22.0</ns3:atemp>
            <ns3:hr>89</ns3:hr>
          </ns3:TrackPointExtension>
        </extensions>
      </trkpt>
      <trkpt lat="48.7612169422209262847900390625" lon="-3.565328679978847503662109375">
        <ele>18</ele>
        <time>2026-05-08T16:18:52.000Z</time>
        <extensions>
          <ns3:TrackPointExtension>
            <ns3:atemp>22.0</ns3:atemp>
            <ns3:hr>89</ns3:hr>
          </ns3:TrackPointExtension>
        </extensions>
      </trkpt>
      <trkpt lat="48.76120964996516704559326171875" lon="-3.56522373855113983154296875">
        <ele>18</ele>
        <time>2026-05-08T16:18:58.000Z</time>
        <extensions>
          <ns3:TrackPointExtension>
            <ns3:atemp>22.0</ns3:atemp>
            <ns3:hr>85</ns3:hr>
          </ns3:TrackPointExtension>
        </extensions>
      </trkpt>
      <trkpt lat="48.761231191456317901611328125" lon="-3.5651055537164211273193359375">
        <ele>18.799999237060546875</ele>
        <time>2026-05-08T16:19:04.000Z</time>
        <extensions>
          <ns3:TrackPointExtension>
            <ns3:atemp>22.0</ns3:atemp>
            <ns3:hr>85</ns3:hr>
          </ns3:TrackPointExtension>
        </extensions>
      </trkpt>
      <trkpt lat="48.76123881898820400238037109375" lon="-3.56505769304931163787841796875">
        <ele>19.200000762939453125</ele>
        <time>2026-05-08T16:19:06.000Z</time>
        <extensions>
          <ns3:TrackPointExtension>
            <ns3:atemp>22.0</ns3:atemp>
            <ns3:hr>86</ns3:hr>
          </ns3:TrackPointExtension>
        </extensions>
      </trkpt>
      <trkpt lat="48.76124585978686809539794921875" lon="-3.5650267638266086578369140625">
        <ele>19.200000762939453125</ele>
        <time>2026-05-08T16:19:09.000Z</time>
        <extensions>
          <ns3:TrackPointExtension>
            <ns3:atemp>22.0</ns3:atemp>
            <ns3:hr>88</ns3:hr>
          </ns3:TrackPointExtension>
        </extensions>
      </trkpt>
      <trkpt lat="48.7612487934529781341552734375" lon="-3.56495191343128681182861328125">
        <ele>19.799999237060546875</ele>
        <time>2026-05-08T16:19:14.000Z</time>
        <extensions>
          <ns3:TrackPointExtension>
            <ns3:atemp>22.0</ns3:atemp>
            <ns3:hr>91</ns3:hr>
          </ns3:TrackPointExtension>
        </extensions>
      </trkpt>
      <trkpt lat="48.76123957335948944091796875" lon="-3.5649003647267818450927734375">
        <ele>20.200000762939453125</ele>
        <time>2026-05-08T16:19:17.000Z</time>
        <extensions>
          <ns3:TrackPointExtension>
            <ns3:atemp>22.0</ns3:atemp>
            <ns3:hr>91</ns3:hr>
          </ns3:TrackPointExtension>
        </extensions>
      </trkpt>
      <trkpt lat="48.761233203113079071044921875" lon="-3.564849905669689178466796875">
        <ele>20.6000003814697265625</ele>
        <time>2026-05-08T16:19:20.000Z</time>
        <extensions>
          <ns3:TrackPointExtension>
            <ns3:atemp>22.0</ns3:atemp>
            <ns3:hr>93</ns3:hr>
          </ns3:TrackPointExtension>
        </extensions>
      </trkpt>
      <trkpt lat="48.7612139247357845306396484375" lon="-3.564796261489391326904296875">
        <ele>21</ele>
        <time>2026-05-08T16:19:24.000Z</time>
        <extensions>
          <ns3:TrackPointExtension>
            <ns3:atemp>22.0</ns3:atemp>
            <ns3:hr>95</ns3:hr>
          </ns3:TrackPointExtension>
        </extensions>
      </trkpt>
      <trkpt lat="48.7612031958997249603271484375" lon="-3.564773462712764739990234375">
        <ele>21.3999996185302734375</ele>
        <time>2026-05-08T16:19:26.000Z</time>
        <extensions>
          <ns3:TrackPointExtension>
            <ns3:atemp>22.0</ns3:atemp>
            <ns3:hr>97</ns3:hr>
          </ns3:TrackPointExtension>
        </extensions>
      </trkpt>
      <trkpt lat="48.76117595471441745758056640625" lon="-3.56468369252979755401611328125">
        <ele>21.799999237060546875</ele>
        <time>2026-05-08T16:19:30.000Z</time>
        <extensions>
          <ns3:TrackPointExtension>
            <ns3:atemp>22.0</ns3:atemp>
            <ns3:hr>99</ns3:hr>
          </ns3:TrackPointExtension>
        </extensions>
      </trkpt>
      <trkpt lat="48.7611718475818634033203125" lon="-3.56463390402495861053466796875">
        <ele>22.3999996185302734375</ele>
        <time>2026-05-08T16:19:33.000Z</time>
        <extensions>
          <ns3:TrackPointExtension>
            <ns3:atemp>22.0</ns3:atemp>
            <ns3:hr>100</ns3:hr>
          </ns3:TrackPointExtension>
        </extensions>
      </trkpt>
      <trkpt lat="48.761167488992214202880859375" lon="-3.56457740999758243560791015625">
        <ele>22.799999237060546875</ele>
        <time>2026-05-08T16:19:36.000Z</time>
        <extensions>
          <ns3:TrackPointExtension>
            <ns3:atemp>22.0</ns3:atemp>
            <ns3:hr>102</ns3:hr>
          </ns3:TrackPointExtension>
        </extensions>
      </trkpt>
      <trkpt lat="48.76115080900490283966064453125" lon="-3.564502559602260589599609375">
        <ele>23.3999996185302734375</ele>
        <time>2026-05-08T16:19:40.000Z</time>
        <extensions>
          <ns3:TrackPointExtension>
            <ns3:atemp>22.0</ns3:atemp>
            <ns3:hr>104</ns3:hr>
          </ns3:TrackPointExtension>
        </extensions>
      </trkpt>
      <trkpt lat="48.761144690215587615966796875" lon="-3.56447146274149417877197265625">
        <ele>23.799999237060546875</ele>
        <time>2026-05-08T16:19:42.000Z</time>
        <extensions>
          <ns3:TrackPointExtension>
            <ns3:atemp>22.0</ns3:atemp>
            <ns3:hr>106</ns3:hr>
          </ns3:TrackPointExtension>
        </extensions>
      </trkpt>
      <trkpt lat="48.76112398691475391387939453125" lon="-3.56436811387538909912109375">
        <ele>24.200000762939453125</ele>
        <time>2026-05-08T16:19:49.000Z</time>
        <extensions>
          <ns3:TrackPointExtension>
            <ns3:atemp>22.0</ns3:atemp>
            <ns3:hr>109</ns3:hr>
          </ns3:TrackPointExtension>
        </extensions>
      </trkpt>
      <trkpt lat="48.76111996360123157501220703125" lon="-3.56435243971645832061767578125">
        <ele>24.200000762939453125</ele>
        <time>2026-05-08T16:19:50.000Z</time>
        <extensions>
          <ns3:TrackPointExtension>
            <ns3:atemp>22.0</ns3:atemp>
            <ns3:hr>109</ns3:hr>
          </ns3:TrackPointExtension>
        </extensions>
      </trkpt>
      <trkpt lat="48.76111191697418689727783203125" lon="-3.5643017292022705078125">
        <ele>24.6000003814697265625</ele>
        <time>2026-05-08T16:19:53.000Z</time>
        <extensions>
          <ns3:TrackPointExtension>
            <ns3:atemp>22.0</ns3:atemp>
            <ns3:hr>110</ns3:hr>
          </ns3:TrackPointExtension>
        </extensions>
      </trkpt>
      <trkpt lat="48.7611052952706813812255859375" lon="-3.5642650164663791656494140625">
        <ele>25</ele>
        <time>2026-05-08T16:19:55.000Z</time>
        <extensions>
          <ns3:TrackPointExtension>
            <ns3:atemp>22.0</ns3:atemp>
            <ns3:hr>110</ns3:hr>
          </ns3:TrackPointExtension>
        </extensions>
      </trkpt>
      <trkpt lat="48.761093057692050933837890625" lon="-3.5642150603234767913818359375">
        <ele>25.6000003814697265625</ele>
        <time>2026-05-08T16:19:58.000Z</time>
        <extensions>
          <ns3:TrackPointExtension>
            <ns3:atemp>22.0</ns3:atemp>
            <ns3:hr>111</ns3:hr>
          </ns3:TrackPointExtension>
        </extensions>
      </trkpt>
      <trkpt lat="48.7610845081508159637451171875" lon="-3.56415093876421451568603515625">
        <ele>26</ele>
        <time>2026-05-08T16:20:02.000Z</time>
        <extensions>
          <ns3:TrackPointExtension>
            <ns3:atemp>22.0</ns3:atemp>
            <ns3:hr>113</ns3:hr>
          </ns3:TrackPointExtension>
        </extensions>
      </trkpt>
      <trkpt lat="48.7610761262476444244384765625" lon="-3.56404893100261688232421875">
        <ele>26.3999996185302734375</ele>
        <time>2026-05-08T16:20:07.000Z</time>
        <extensions>
          <ns3:TrackPointExtension>
            <ns3:atemp>22.0</ns3:atemp>
            <ns3:hr>116</ns3:hr>
          </ns3:TrackPointExtension>
        </extensions>
      </trkpt>
      <trkpt lat="48.76107017509639263153076171875" lon="-3.564018420875072479248046875">
        <ele>26.6000003814697265625</ele>
        <time>2026-05-08T16:20:09.000Z</time>
        <extensions>
          <ns3:TrackPointExtension>
            <ns3:atemp>22.0</ns3:atemp>
            <ns3:hr>116</ns3:hr>
          </ns3:TrackPointExtension>
        </extensions>
      </trkpt>
      <trkpt lat="48.76106129027903079986572265625" lon="-3.56399050913751125335693359375">
        <ele>26.6000003814697265625</ele>
        <time>2026-05-08T16:20:11.000Z</time>
        <extensions>
          <ns3:TrackPointExtension>
            <ns3:atemp>22.0</ns3:atemp>
            <ns3:hr>117</ns3:hr>
          </ns3:TrackPointExtension>
        </extensions>
      </trkpt>
      <trkpt lat="48.76105223782360553741455078125" lon="-3.563927225768566131591796875">
        <ele>27</ele>
        <time>2026-05-08T16:20:15.000Z</time>
        <extensions>
          <ns3:TrackPointExtension>
            <ns3:atemp>22.0</ns3:atemp>
            <ns3:hr>116</ns3:hr>
          </ns3:TrackPointExtension>
        </extensions>
      </trkpt>
      <trkpt lat="48.76103161834180355072021484375" lon="-3.56382806785404682159423828125">
        <ele>27.200000762939453125</ele>
        <time>2026-05-08T16:20:20.000Z</time>
        <extensions>
          <ns3:TrackPointExtension>
            <ns3:atemp>23.0</ns3:atemp>
            <ns3:hr>117</ns3:hr>
          </ns3:TrackPointExtension>
        </extensions>
      </trkpt>
      <trkpt lat="48.761032037436962127685546875" lon="-3.563813231885433197021484375">
        <ele>27.3999996185302734375</ele>
        <time>2026-05-08T16:20:21.000Z</time>
        <extensions>
          <ns3:TrackPointExtension>
            <ns3:atemp>23.0</ns3:atemp>
            <ns3:hr>117</ns3:hr>
          </ns3:TrackPointExtension>
        </extensions>
      </trkpt>
      <trkpt lat="48.76102088950574398040771484375" lon="-3.56370083056390285491943359375">
        <ele>27.6000003814697265625</ele>
        <time>2026-05-08T16:20:27.000Z</time>
        <extensions>
          <ns3:TrackPointExtension>
            <ns3:atemp>23.0</ns3:atemp>
            <ns3:hr>117</ns3:hr>
          </ns3:TrackPointExtension>
        </extensions>
      </trkpt>
      <trkpt lat="48.7610197998583316802978515625" lon="-3.5635840706527233123779296875">
        <ele>28.200000762939453125</ele>
        <time>2026-05-08T16:20:33.000Z</time>
        <extensions>
          <ns3:TrackPointExtension>
            <ns3:atemp>23.0</ns3:atemp>
            <ns3:hr>116</ns3:hr>
          </ns3:TrackPointExtension>
        </extensions>
      </trkpt>
      <trkpt lat="48.7610053829848766326904296875" lon="-3.56348566710948944091796875">
        <ele>28.3999996185302734375</ele>
        <time>2026-05-08T16:20:39.000Z</time>
        <extensions>
          <ns3:TrackPointExtension>
            <ns3:atemp>23.0</ns3:atemp>
            <ns3:hr>117</ns3:hr>
          </ns3:TrackPointExtension>
        </extensions>
      </trkpt>
      <trkpt lat="48.76100219786167144775390625" lon="-3.56345348060131072998046875">
        <ele>28.799999237060546875</ele>
        <time>2026-05-08T16:20:41.000Z</time>
        <extensions>
          <ns3:TrackPointExtension>
            <ns3:atemp>23.0</ns3:atemp>
            <ns3:hr>117</ns3:hr>
          </ns3:TrackPointExtension>
        </extensions>
      </trkpt>
      <trkpt lat="48.76099993474781513214111328125" lon="-3.563365973532199859619140625">
        <ele>29.799999237060546875</ele>
        <time>2026-05-08T16:20:46.000Z</time>
        <extensions>
          <ns3:TrackPointExtension>
            <ns3:atemp>23.0</ns3:atemp>
            <ns3:hr>118</ns3:hr>
          </ns3:TrackPointExtension>
        </extensions>
      </trkpt>
      <trkpt lat="48.76099725253880023956298828125" lon="-3.56321669183671474456787109375">
        <ele>29.799999237060546875</ele>
        <time>2026-05-08T16:20:54.000Z</time>
        <extensions>
          <ns3:TrackPointExtension>
            <ns3:atemp>23.0</ns3:atemp>
            <ns3:hr>118</ns3:hr>
          </ns3:TrackPointExtension>
        </extensions>
      </trkpt>
      <trkpt lat="48.76099742017686367034912109375" lon="-3.5630798153579235076904296875">
        <ele>31</ele>
        <time>2026-05-08T16:21:01.000Z</time>
        <extensions>
          <ns3:TrackPointExtension>
            <ns3:atemp>23.0</ns3:atemp>
            <ns3:hr>118</ns3:hr>
          </ns3:TrackPointExtension>
        </extensions>
      </trkpt>
      <trkpt lat="48.76100144349038600921630859375" lon="-3.56305651366710662841796875">
        <ele>31</ele>
        <time>2026-05-08T16:21:03.000Z</time>
        <extensions>
          <ns3:TrackPointExtension>
            <ns3:atemp>23.0</ns3:atemp>
            <ns3:hr>118</ns3:hr>
          </ns3:TrackPointExtension>
        </extensions>
      </trkpt>
      <trkpt lat="48.7610097415745258331298828125" lon="-3.56292600743472576141357421875">
        <ele>31.6000003814697265625</ele>
        <time>2026-05-08T16:21:10.000Z</time>
        <extensions>
          <ns3:TrackPointExtension>
            <ns3:atemp>23.0</ns3:atemp>
            <ns3:hr>116</ns3:hr>
          </ns3:TrackPointExtension>
        </extensions>
      </trkpt>
      <trkpt lat="48.7610100768506526947021484375" lon="-3.56281234882771968841552734375">
        <ele>32</ele>
        <time>2026-05-08T16:21:16.000Z</time>
        <extensions>
          <ns3:TrackPointExtension>
            <ns3:atemp>23.0</ns3:atemp>
            <ns3:hr>117</ns3:hr>
          </ns3:TrackPointExtension>
        </extensions>
      </trkpt>
      <trkpt lat="48.76100010238587856292724609375" lon="-3.56271444819867610931396484375">
        <ele>33</ele>
        <time>2026-05-08T16:21:22.000Z</time>
        <extensions>
          <ns3:TrackPointExtension>
            <ns3:atemp>23.0</ns3:atemp>
            <ns3:hr>118</ns3:hr>
          </ns3:TrackPointExtension>
        </extensions>
      </trkpt>
      <trkpt lat="48.7609966658055782318115234375" lon="-3.56269718147814273834228515625">
        <ele>33</ele>
        <time>2026-05-08T16:21:23.000Z</time>
        <extensions>
          <ns3:TrackPointExtension>
            <ns3:atemp>23.0</ns3:atemp>
            <ns3:hr>118</ns3:hr>
          </ns3:TrackPointExtension>
        </extensions>
      </trkpt>
      <trkpt lat="48.760976381599903106689453125" lon="-3.5625785775482654571533203125">
        <ele>34</ele>
        <time>2026-05-08T16:21:30.000Z</time>
        <extensions>
          <ns3:TrackPointExtension>
            <ns3:atemp>23.0</ns3:atemp>
            <ns3:hr>119</ns3:hr>
          </ns3:TrackPointExtension>
        </extensions>
      </trkpt>
      <trkpt lat="48.76098417676985263824462890625" lon="-3.5625269450247287750244140625">
        <ele>34.799999237060546875</ele>
        <time>2026-05-08T16:21:35.000Z</time>
        <extensions>
          <ns3:TrackPointExtension>
            <ns3:atemp>23.0</ns3:atemp>
            <ns3:hr>119</ns3:hr>
          </ns3:TrackPointExtension>
        </extensions>
      </trkpt>
      <trkpt lat="48.7609906308352947235107421875" lon="-3.56253842823207378387451171875">
        <ele>35</ele>
        <time>2026-05-08T16:21:36.000Z</time>
        <extensions>
          <ns3:TrackPointExtension>
            <ns3:atemp>23.0</ns3:atemp>
            <ns3:hr>119</ns3:hr>
          </ns3:TrackPointExtension>
        </extensions>
      </trkpt>
      <trkpt lat="48.760999180376529693603515625" lon="-3.56255100108683109283447265625">
        <ele>35.200000762939453125</ele>
        <time>2026-05-08T16:21:37.000Z</time>
        <extensions>
          <ns3:TrackPointExtension>
            <ns3:atemp>23.0</ns3:atemp>
            <ns3:hr>119</ns3:hr>
          </ns3:TrackPointExtension>
        </extensions>
      </trkpt>
      <trkpt lat="48.76103748567402362823486328125" lon="-3.56256759725511074066162109375">
        <ele>35.799999237060546875</ele>
        <time>2026-05-08T16:21:40.000Z</time>
        <extensions>
          <ns3:TrackPointExtension>
            <ns3:atemp>23.0</ns3:atemp>
            <ns3:hr>120</ns3:hr>
          </ns3:TrackPointExtension>
        </extensions>
      </trkpt>
      <trkpt lat="48.7610486336052417755126953125" lon="-3.56257564388215541839599609375">
        <ele>36.200000762939453125</ele>
        <time>2026-05-08T16:21:41.000Z</time>
        <extensions>
          <ns3:TrackPointExtension>
            <ns3:atemp>23.0</ns3:atemp>
            <ns3:hr>119</ns3:hr>
          </ns3:TrackPointExtension>
        </extensions>
      </trkpt>
      <trkpt lat="48.761109150946140289306640625" lon="-3.56264957226812839508056640625">
        <ele>37.200000762939453125</ele>
        <time>2026-05-08T16:21:48.000Z</time>
        <extensions>
          <ns3:TrackPointExtension>
            <ns3:atemp>23.0</ns3:atemp>
            <ns3:hr>117</ns3:hr>
          </ns3:TrackPointExtension>
        </extensions>
      </trkpt>
      <trkpt lat="48.76113052479922771453857421875" lon="-3.56274814344942569732666015625">
        <ele>37</ele>
        <time>2026-05-08T16:21:54.000Z</time>
        <extensions>
          <ns3:TrackPointExtension>
            <ns3:atemp>23.0</ns3:atemp>
            <ns3:hr>115</ns3:hr>
          </ns3:TrackPointExtension>
        </extensions>
      </trkpt>
      <trkpt lat="48.76114368438720703125" lon="-3.56286062858998775482177734375">
        <ele>37.200000762939453125</ele>
        <time>2026-05-08T16:22:01.000Z</time>
        <extensions>
          <ns3:TrackPointExtension>
            <ns3:atemp>23.0</ns3:atemp>
            <ns3:hr>115</ns3:hr>
          </ns3:TrackPointExtension>
        </extensions>
      </trkpt>
      <trkpt lat="48.76114326529204845428466796875" lon="-3.5629651509225368499755859375">
        <ele>36.40000152587890625</ele>
        <time>2026-05-08T16:22:06.000Z</time>
        <extensions>
          <ns3:TrackPointExtension>
            <ns3:atemp>23.0</ns3:atemp>
            <ns3:hr>114</ns3:hr>
          </ns3:TrackPointExtension>
        </extensions>
      </trkpt>
      <trkpt lat="48.7611371465027332305908203125" lon="-3.56303681619465351104736328125">
        <ele>36.200000762939453125</ele>
        <time>2026-05-08T16:22:09.000Z</time>
        <extensions>
          <ns3:TrackPointExtension>
            <ns3:atemp>23.0</ns3:atemp>
            <ns3:hr>115</ns3:hr>
          </ns3:TrackPointExtension>
        </extensions>
      </trkpt>
      <trkpt lat="48.76114594750106334686279296875" lon="-3.5630915500223636627197265625">
        <ele>36</ele>
        <time>2026-05-08T16:22:12.000Z</time>
        <extensions>
          <ns3:TrackPointExtension>
            <ns3:atemp>23.0</ns3:atemp>
            <ns3:hr>114</ns3:hr>
          </ns3:TrackPointExtension>
        </extensions>
      </trkpt>
      <trkpt lat="48.761150725185871124267578125" lon="-3.563124574720859527587890625">
        <ele>35.40000152587890625</ele>
        <time>2026-05-08T16:22:15.000Z</time>
        <extensions>
          <ns3:TrackPointExtension>
            <ns3:atemp>23.0</ns3:atemp>
            <ns3:hr>115</ns3:hr>
          </ns3:TrackPointExtension>
        </extensions>
      </trkpt>
    </trkseg>
  </trk>
</gpx>
